<?xml version="1.0" encoding="UTF-8" standalone="no" ?>
<gpx xmlns="http://www.topografix.com/GPX/1/1" xmlns:xsi="http://www.w3.org/2001/XMLSchema-instance" xsi:schemaLocation="http://www.topografix.com/GPX/1/1 http://www.topografix.com/GPX/1/1/gpx.xsd" version="1.1" creator="VisuGPX - https://www.visugpx.com">
  <metadata>
    <name>raid du castor 2014</name>
    <desc><![CDATA[octobre 2014]]></desc>
  </metadata>
  <trk>
    <name><![CDATA[2014-10-12T09:04:57Z]]></name>
    <trkseg>
      <trkpt lat="45.8005" lon="4.94004">
        <ele>176</ele>
        <time>2014-10-12T09:04:57Z</time>
      </trkpt>
      <trkpt lat="45.80058" lon="4.93996">
        <ele>204.6</ele>
        <time>2014-10-12T09:05:02Z</time>
      </trkpt>
      <trkpt lat="45.80061" lon="4.93991">
        <ele>204.4</ele>
        <time>2014-10-12T09:05:03Z</time>
      </trkpt>
      <trkpt lat="45.80069" lon="4.9398">
        <ele>204</ele>
        <time>2014-10-12T09:05:05Z</time>
      </trkpt>
      <trkpt lat="45.80073" lon="4.93974">
        <ele>203.8</ele>
        <time>2014-10-12T09:05:06Z</time>
      </trkpt>
      <trkpt lat="45.80077" lon="4.93969">
        <ele>203.8</ele>
        <time>2014-10-12T09:05:07Z</time>
      </trkpt>
      <trkpt lat="45.80085" lon="4.9396">
        <ele>203.4</ele>
        <time>2014-10-12T09:05:09Z</time>
      </trkpt>
      <trkpt lat="45.80088" lon="4.93956">
        <ele>203.2</ele>
        <time>2014-10-12T09:05:10Z</time>
      </trkpt>
      <trkpt lat="45.80091" lon="4.93956">
        <ele>203</ele>
        <time>2014-10-12T09:05:11Z</time>
      </trkpt>
      <trkpt lat="45.80095" lon="4.93956">
        <ele>202.8</ele>
        <time>2014-10-12T09:05:12Z</time>
      </trkpt>
      <trkpt lat="45.80099" lon="4.93957">
        <ele>202.6</ele>
        <time>2014-10-12T09:05:13Z</time>
      </trkpt>
      <trkpt lat="45.80107" lon="4.93958">
        <ele>202.4</ele>
        <time>2014-10-12T09:05:15Z</time>
      </trkpt>
      <trkpt lat="45.8011" lon="4.93958">
        <ele>202.2</ele>
        <time>2014-10-12T09:05:16Z</time>
      </trkpt>
      <trkpt lat="45.80113" lon="4.9396">
        <ele>202</ele>
        <time>2014-10-12T09:05:17Z</time>
      </trkpt>
      <trkpt lat="45.80115" lon="4.93963">
        <ele>201.8</ele>
        <time>2014-10-12T09:05:18Z</time>
      </trkpt>
      <trkpt lat="45.80128" lon="4.93979">
        <ele>201</ele>
        <time>2014-10-12T09:05:22Z</time>
      </trkpt>
      <trkpt lat="45.80133" lon="4.93991">
        <ele>200.6</ele>
        <time>2014-10-12T09:05:24Z</time>
      </trkpt>
      <trkpt lat="45.80137" lon="4.94004">
        <ele>200</ele>
        <time>2014-10-12T09:05:26Z</time>
      </trkpt>
      <trkpt lat="45.80144" lon="4.9403">
        <ele>199.2</ele>
        <time>2014-10-12T09:05:30Z</time>
      </trkpt>
      <trkpt lat="45.80147" lon="4.94041">
        <ele>198.8</ele>
        <time>2014-10-12T09:05:32Z</time>
      </trkpt>
      <trkpt lat="45.8015" lon="4.94051">
        <ele>198.4</ele>
        <time>2014-10-12T09:05:34Z</time>
      </trkpt>
      <trkpt lat="45.80151" lon="4.94057">
        <ele>198</ele>
        <time>2014-10-12T09:05:35Z</time>
      </trkpt>
      <trkpt lat="45.80156" lon="4.94072">
        <ele>197.4</ele>
        <time>2014-10-12T09:05:38Z</time>
      </trkpt>
      <trkpt lat="45.80161" lon="4.94083">
        <ele>197.2</ele>
        <time>2014-10-12T09:05:40Z</time>
      </trkpt>
      <trkpt lat="45.80164" lon="4.94088">
        <ele>197</ele>
        <time>2014-10-12T09:05:41Z</time>
      </trkpt>
      <trkpt lat="45.80171" lon="4.94105">
        <ele>196.6</ele>
        <time>2014-10-12T09:05:44Z</time>
      </trkpt>
      <trkpt lat="45.80174" lon="4.94115">
        <ele>196.2</ele>
        <time>2014-10-12T09:05:46Z</time>
      </trkpt>
      <trkpt lat="45.80177" lon="4.94125">
        <ele>195.8</ele>
        <time>2014-10-12T09:05:48Z</time>
      </trkpt>
      <trkpt lat="45.80178" lon="4.9413">
        <ele>195.6</ele>
        <time>2014-10-12T09:05:49Z</time>
      </trkpt>
      <trkpt lat="45.80183" lon="4.94151">
        <ele>195.2</ele>
        <time>2014-10-12T09:05:53Z</time>
      </trkpt>
      <trkpt lat="45.80183" lon="4.94157">
        <ele>195</ele>
        <time>2014-10-12T09:05:54Z</time>
      </trkpt>
      <trkpt lat="45.80183" lon="4.94173">
        <ele>194.4</ele>
        <time>2014-10-12T09:05:58Z</time>
      </trkpt>
      <trkpt lat="45.80182" lon="4.94179">
        <ele>194.2</ele>
        <time>2014-10-12T09:06:00Z</time>
      </trkpt>
      <trkpt lat="45.80183" lon="4.94183">
        <ele>194.2</ele>
        <time>2014-10-12T09:06:01Z</time>
      </trkpt>
      <trkpt lat="45.80182" lon="4.94186">
        <ele>194</ele>
        <time>2014-10-12T09:06:02Z</time>
      </trkpt>
      <trkpt lat="45.80177" lon="4.94191">
        <ele>193.6</ele>
        <time>2014-10-12T09:06:06Z</time>
      </trkpt>
      <trkpt lat="45.80177" lon="4.9419">
        <ele>192.6</ele>
        <time>2014-10-12T09:06:15Z</time>
      </trkpt>
      <trkpt lat="45.80177" lon="4.94188">
        <ele>191.8</ele>
        <time>2014-10-12T09:06:23Z</time>
      </trkpt>
      <trkpt lat="45.80178" lon="4.9419">
        <ele>191.6</ele>
        <time>2014-10-12T09:06:27Z</time>
      </trkpt>
      <trkpt lat="45.80181" lon="4.94197">
        <ele>191</ele>
        <time>2014-10-12T09:06:32Z</time>
      </trkpt>
      <trkpt lat="45.80185" lon="4.94201">
        <ele>190.4</ele>
        <time>2014-10-12T09:06:38Z</time>
      </trkpt>
      <trkpt lat="45.80188" lon="4.94203">
        <ele>190.2</ele>
        <time>2014-10-12T09:06:41Z</time>
      </trkpt>
      <trkpt lat="45.8019" lon="4.94206">
        <ele>189.8</ele>
        <time>2014-10-12T09:06:44Z</time>
      </trkpt>
      <trkpt lat="45.80191" lon="4.94208">
        <ele>189.6</ele>
        <time>2014-10-12T09:06:46Z</time>
      </trkpt>
      <trkpt lat="45.80193" lon="4.94211">
        <ele>189.4</ele>
        <time>2014-10-12T09:06:48Z</time>
      </trkpt>
      <trkpt lat="45.80194" lon="4.94213">
        <ele>189.2</ele>
        <time>2014-10-12T09:06:49Z</time>
      </trkpt>
      <trkpt lat="45.80196" lon="4.94218">
        <ele>189</ele>
        <time>2014-10-12T09:06:52Z</time>
      </trkpt>
      <trkpt lat="45.80199" lon="4.94224">
        <ele>188.6</ele>
        <time>2014-10-12T09:06:56Z</time>
      </trkpt>
      <trkpt lat="45.80205" lon="4.94233">
        <ele>188</ele>
        <time>2014-10-12T09:07:01Z</time>
      </trkpt>
      <trkpt lat="45.80211" lon="4.94239">
        <ele>187.6</ele>
        <time>2014-10-12T09:07:05Z</time>
      </trkpt>
      <trkpt lat="45.80217" lon="4.94245">
        <ele>187.2</ele>
        <time>2014-10-12T09:07:09Z</time>
      </trkpt>
      <trkpt lat="45.8022" lon="4.94247">
        <ele>187.2</ele>
        <time>2014-10-12T09:07:11Z</time>
      </trkpt>
      <trkpt lat="45.80223" lon="4.9425">
        <ele>187</ele>
        <time>2014-10-12T09:07:13Z</time>
      </trkpt>
      <trkpt lat="45.80229" lon="4.94254">
        <ele>186.8</ele>
        <time>2014-10-12T09:07:16Z</time>
      </trkpt>
      <trkpt lat="45.80233" lon="4.94258">
        <ele>186.4</ele>
        <time>2014-10-12T09:07:19Z</time>
      </trkpt>
      <trkpt lat="45.80235" lon="4.94259">
        <ele>186.4</ele>
        <time>2014-10-12T09:07:20Z</time>
      </trkpt>
      <trkpt lat="45.8024" lon="4.94263">
        <ele>186.2</ele>
        <time>2014-10-12T09:07:23Z</time>
      </trkpt>
      <trkpt lat="45.80246" lon="4.94269">
        <ele>185.8</ele>
        <time>2014-10-12T09:07:27Z</time>
      </trkpt>
      <trkpt lat="45.80251" lon="4.94273">
        <ele>185.6</ele>
        <time>2014-10-12T09:07:30Z</time>
      </trkpt>
      <trkpt lat="45.80252" lon="4.94275">
        <ele>185.6</ele>
        <time>2014-10-12T09:07:31Z</time>
      </trkpt>
      <trkpt lat="45.80258" lon="4.94281">
        <ele>185.2</ele>
        <time>2014-10-12T09:07:35Z</time>
      </trkpt>
      <trkpt lat="45.80264" lon="4.94286">
        <ele>185</ele>
        <time>2014-10-12T09:07:39Z</time>
      </trkpt>
      <trkpt lat="45.80266" lon="4.94287">
        <ele>184.8</ele>
        <time>2014-10-12T09:07:40Z</time>
      </trkpt>
      <trkpt lat="45.80272" lon="4.9429">
        <ele>184.6</ele>
        <time>2014-10-12T09:07:43Z</time>
      </trkpt>
      <trkpt lat="45.80278" lon="4.94295">
        <ele>184.4</ele>
        <time>2014-10-12T09:07:47Z</time>
      </trkpt>
      <trkpt lat="45.80282" lon="4.94299">
        <ele>184.2</ele>
        <time>2014-10-12T09:07:50Z</time>
      </trkpt>
      <trkpt lat="45.80289" lon="4.94303">
        <ele>183.8</ele>
        <time>2014-10-12T09:07:54Z</time>
      </trkpt>
      <trkpt lat="45.80294" lon="4.94307">
        <ele>183.6</ele>
        <time>2014-10-12T09:07:57Z</time>
      </trkpt>
      <trkpt lat="45.80298" lon="4.94311">
        <ele>183.4</ele>
        <time>2014-10-12T09:08:00Z</time>
      </trkpt>
      <trkpt lat="45.803" lon="4.94312">
        <ele>183.4</ele>
        <time>2014-10-12T09:08:01Z</time>
      </trkpt>
      <trkpt lat="45.80306" lon="4.94316">
        <ele>183</ele>
        <time>2014-10-12T09:08:05Z</time>
      </trkpt>
      <trkpt lat="45.80312" lon="4.94321">
        <ele>182.8</ele>
        <time>2014-10-12T09:08:09Z</time>
      </trkpt>
      <trkpt lat="45.80315" lon="4.94324">
        <ele>182.6</ele>
        <time>2014-10-12T09:08:11Z</time>
      </trkpt>
      <trkpt lat="45.80317" lon="4.94326">
        <ele>182.6</ele>
        <time>2014-10-12T09:08:12Z</time>
      </trkpt>
      <trkpt lat="45.80322" lon="4.94333">
        <ele>182.4</ele>
        <time>2014-10-12T09:08:16Z</time>
      </trkpt>
      <trkpt lat="45.80326" lon="4.94338">
        <ele>182.2</ele>
        <time>2014-10-12T09:08:19Z</time>
      </trkpt>
      <trkpt lat="45.80329" lon="4.94341">
        <ele>182</ele>
        <time>2014-10-12T09:08:21Z</time>
      </trkpt>
      <trkpt lat="45.80331" lon="4.94342">
        <ele>182</ele>
        <time>2014-10-12T09:08:22Z</time>
      </trkpt>
      <trkpt lat="45.80336" lon="4.94347">
        <ele>181.6</ele>
        <time>2014-10-12T09:08:26Z</time>
      </trkpt>
      <trkpt lat="45.80342" lon="4.94351">
        <ele>181.4</ele>
        <time>2014-10-12T09:08:30Z</time>
      </trkpt>
      <trkpt lat="45.80345" lon="4.94354">
        <ele>181.4</ele>
        <time>2014-10-12T09:08:32Z</time>
      </trkpt>
      <trkpt lat="45.80347" lon="4.94356">
        <ele>181.2</ele>
        <time>2014-10-12T09:08:34Z</time>
      </trkpt>
      <trkpt lat="45.80349" lon="4.94358">
        <ele>181.2</ele>
        <time>2014-10-12T09:08:35Z</time>
      </trkpt>
      <trkpt lat="45.80354" lon="4.94363">
        <ele>181</ele>
        <time>2014-10-12T09:08:39Z</time>
      </trkpt>
      <trkpt lat="45.8036" lon="4.94368">
        <ele>180.8</ele>
        <time>2014-10-12T09:08:43Z</time>
      </trkpt>
      <trkpt lat="45.80362" lon="4.94369">
        <ele>180.8</ele>
        <time>2014-10-12T09:08:44Z</time>
      </trkpt>
      <trkpt lat="45.80366" lon="4.94372">
        <ele>180.6</ele>
        <time>2014-10-12T09:08:47Z</time>
      </trkpt>
      <trkpt lat="45.80373" lon="4.94377">
        <ele>180.4</ele>
        <time>2014-10-12T09:08:51Z</time>
      </trkpt>
      <trkpt lat="45.80379" lon="4.94382">
        <ele>180.2</ele>
        <time>2014-10-12T09:08:55Z</time>
      </trkpt>
      <trkpt lat="45.80386" lon="4.94388">
        <ele>180</ele>
        <time>2014-10-12T09:09:00Z</time>
      </trkpt>
      <trkpt lat="45.80393" lon="4.94394">
        <ele>179.8</ele>
        <time>2014-10-12T09:09:05Z</time>
      </trkpt>
      <trkpt lat="45.80395" lon="4.94395">
        <ele>179.6</ele>
        <time>2014-10-12T09:09:06Z</time>
      </trkpt>
      <trkpt lat="45.80398" lon="4.94397">
        <ele>179.6</ele>
        <time>2014-10-12T09:09:08Z</time>
      </trkpt>
      <trkpt lat="45.80402" lon="4.94398">
        <ele>179.6</ele>
        <time>2014-10-12T09:09:10Z</time>
      </trkpt>
      <trkpt lat="45.80403" lon="4.944">
        <ele>179.4</ele>
        <time>2014-10-12T09:09:11Z</time>
      </trkpt>
      <trkpt lat="45.80408" lon="4.94403">
        <ele>179.4</ele>
        <time>2014-10-12T09:09:14Z</time>
      </trkpt>
      <trkpt lat="45.80413" lon="4.94407">
        <ele>179.2</ele>
        <time>2014-10-12T09:09:17Z</time>
      </trkpt>
      <trkpt lat="45.80414" lon="4.94408">
        <ele>179.2</ele>
        <time>2014-10-12T09:09:18Z</time>
      </trkpt>
      <trkpt lat="45.80419" lon="4.94412">
        <ele>179</ele>
        <time>2014-10-12T09:09:21Z</time>
      </trkpt>
      <trkpt lat="45.80423" lon="4.94415">
        <ele>178.8</ele>
        <time>2014-10-12T09:09:24Z</time>
      </trkpt>
      <trkpt lat="45.80428" lon="4.94418">
        <ele>178.8</ele>
        <time>2014-10-12T09:09:27Z</time>
      </trkpt>
      <trkpt lat="45.8043" lon="4.94419">
        <ele>178.8</ele>
        <time>2014-10-12T09:09:28Z</time>
      </trkpt>
      <trkpt lat="45.80433" lon="4.94421">
        <ele>178.6</ele>
        <time>2014-10-12T09:09:30Z</time>
      </trkpt>
      <trkpt lat="45.80439" lon="4.94425">
        <ele>178.4</ele>
        <time>2014-10-12T09:09:34Z</time>
      </trkpt>
      <trkpt lat="45.80446" lon="4.94432">
        <ele>178.4</ele>
        <time>2014-10-12T09:09:39Z</time>
      </trkpt>
      <trkpt lat="45.80453" lon="4.94438">
        <ele>178.2</ele>
        <time>2014-10-12T09:09:44Z</time>
      </trkpt>
      <trkpt lat="45.80458" lon="4.94443">
        <ele>178.2</ele>
        <time>2014-10-12T09:09:48Z</time>
      </trkpt>
      <trkpt lat="45.80463" lon="4.94446">
        <ele>178</ele>
        <time>2014-10-12T09:09:51Z</time>
      </trkpt>
      <trkpt lat="45.80464" lon="4.94447">
        <ele>178</ele>
        <time>2014-10-12T09:09:52Z</time>
      </trkpt>
      <trkpt lat="45.80469" lon="4.94451">
        <ele>178</ele>
        <time>2014-10-12T09:09:55Z</time>
      </trkpt>
      <trkpt lat="45.8047" lon="4.94452">
        <ele>177.8</ele>
        <time>2014-10-12T09:09:56Z</time>
      </trkpt>
      <trkpt lat="45.80475" lon="4.94457">
        <ele>177.8</ele>
        <time>2014-10-12T09:10:00Z</time>
      </trkpt>
      <trkpt lat="45.8048" lon="4.9446">
        <ele>177.6</ele>
        <time>2014-10-12T09:10:03Z</time>
      </trkpt>
      <trkpt lat="45.80486" lon="4.94464">
        <ele>177.6</ele>
        <time>2014-10-12T09:10:07Z</time>
      </trkpt>
      <trkpt lat="45.80491" lon="4.94467">
        <ele>177.4</ele>
        <time>2014-10-12T09:10:10Z</time>
      </trkpt>
      <trkpt lat="45.80495" lon="4.9447">
        <ele>177.4</ele>
        <time>2014-10-12T09:10:13Z</time>
      </trkpt>
      <trkpt lat="45.80497" lon="4.94471">
        <ele>177.2</ele>
        <time>2014-10-12T09:10:14Z</time>
      </trkpt>
      <trkpt lat="45.80503" lon="4.94476">
        <ele>177.2</ele>
        <time>2014-10-12T09:10:18Z</time>
      </trkpt>
      <trkpt lat="45.80509" lon="4.94479">
        <ele>177</ele>
        <time>2014-10-12T09:10:22Z</time>
      </trkpt>
      <trkpt lat="45.80513" lon="4.94482">
        <ele>177</ele>
        <time>2014-10-12T09:10:25Z</time>
      </trkpt>
      <trkpt lat="45.80515" lon="4.94483">
        <ele>177</ele>
        <time>2014-10-12T09:10:26Z</time>
      </trkpt>
      <trkpt lat="45.80521" lon="4.94487">
        <ele>177</ele>
        <time>2014-10-12T09:10:30Z</time>
      </trkpt>
      <trkpt lat="45.80526" lon="4.94492">
        <ele>176.8</ele>
        <time>2014-10-12T09:10:34Z</time>
      </trkpt>
      <trkpt lat="45.8053" lon="4.94494">
        <ele>176.8</ele>
        <time>2014-10-12T09:10:36Z</time>
      </trkpt>
      <trkpt lat="45.80533" lon="4.94496">
        <ele>176.8</ele>
        <time>2014-10-12T09:10:38Z</time>
      </trkpt>
      <trkpt lat="45.80539" lon="4.94501">
        <ele>176.8</ele>
        <time>2014-10-12T09:10:42Z</time>
      </trkpt>
      <trkpt lat="45.80542" lon="4.94503">
        <ele>176.8</ele>
        <time>2014-10-12T09:10:44Z</time>
      </trkpt>
      <trkpt lat="45.80545" lon="4.94505">
        <ele>176.8</ele>
        <time>2014-10-12T09:10:46Z</time>
      </trkpt>
      <trkpt lat="45.8055" lon="4.94508">
        <ele>176.6</ele>
        <time>2014-10-12T09:10:49Z</time>
      </trkpt>
      <trkpt lat="45.80554" lon="4.94511">
        <ele>176.6</ele>
        <time>2014-10-12T09:10:52Z</time>
      </trkpt>
      <trkpt lat="45.80559" lon="4.94514">
        <ele>176.6</ele>
        <time>2014-10-12T09:10:55Z</time>
      </trkpt>
      <trkpt lat="45.80561" lon="4.94515">
        <ele>176.6</ele>
        <time>2014-10-12T09:10:56Z</time>
      </trkpt>
      <trkpt lat="45.80562" lon="4.94516">
        <ele>176.6</ele>
        <time>2014-10-12T09:10:57Z</time>
      </trkpt>
      <trkpt lat="45.80564" lon="4.94517">
        <ele>176.6</ele>
        <time>2014-10-12T09:10:58Z</time>
      </trkpt>
      <trkpt lat="45.80569" lon="4.94521">
        <ele>176.4</ele>
        <time>2014-10-12T09:11:01Z</time>
      </trkpt>
      <trkpt lat="45.80574" lon="4.94524">
        <ele>176.4</ele>
        <time>2014-10-12T09:11:05Z</time>
      </trkpt>
      <trkpt lat="45.80579" lon="4.94527">
        <ele>176.4</ele>
        <time>2014-10-12T09:11:08Z</time>
      </trkpt>
      <trkpt lat="45.80582" lon="4.94529">
        <ele>176.4</ele>
        <time>2014-10-12T09:11:10Z</time>
      </trkpt>
      <trkpt lat="45.80588" lon="4.94532">
        <ele>176.4</ele>
        <time>2014-10-12T09:11:14Z</time>
      </trkpt>
      <trkpt lat="45.80594" lon="4.94535">
        <ele>176.2</ele>
        <time>2014-10-12T09:11:18Z</time>
      </trkpt>
      <trkpt lat="45.80596" lon="4.94535">
        <ele>176.2</ele>
        <time>2014-10-12T09:11:19Z</time>
      </trkpt>
      <trkpt lat="45.80599" lon="4.94537">
        <ele>176.2</ele>
        <time>2014-10-12T09:11:21Z</time>
      </trkpt>
      <trkpt lat="45.80604" lon="4.94538">
        <ele>176.2</ele>
        <time>2014-10-12T09:11:24Z</time>
      </trkpt>
      <trkpt lat="45.80611" lon="4.9454">
        <ele>176.2</ele>
        <time>2014-10-12T09:11:28Z</time>
      </trkpt>
      <trkpt lat="45.80615" lon="4.9454">
        <ele>176.2</ele>
        <time>2014-10-12T09:11:31Z</time>
      </trkpt>
      <trkpt lat="45.8062" lon="4.9454">
        <ele>176.2</ele>
        <time>2014-10-12T09:11:34Z</time>
      </trkpt>
      <trkpt lat="45.80621" lon="4.9454">
        <ele>176.2</ele>
        <time>2014-10-12T09:11:35Z</time>
      </trkpt>
      <trkpt lat="45.80626" lon="4.9454">
        <ele>176.2</ele>
        <time>2014-10-12T09:11:39Z</time>
      </trkpt>
      <trkpt lat="45.80629" lon="4.9454">
        <ele>176.2</ele>
        <time>2014-10-12T09:11:41Z</time>
      </trkpt>
      <trkpt lat="45.80634" lon="4.94539">
        <ele>176</ele>
        <time>2014-10-12T09:11:44Z</time>
      </trkpt>
      <trkpt lat="45.80637" lon="4.94539">
        <ele>176</ele>
        <time>2014-10-12T09:11:46Z</time>
      </trkpt>
      <trkpt lat="45.80639" lon="4.94539">
        <ele>176</ele>
        <time>2014-10-12T09:11:47Z</time>
      </trkpt>
      <trkpt lat="45.80645" lon="4.94537">
        <ele>176</ele>
        <time>2014-10-12T09:11:51Z</time>
      </trkpt>
      <trkpt lat="45.80651" lon="4.94535">
        <ele>176</ele>
        <time>2014-10-12T09:11:54Z</time>
      </trkpt>
      <trkpt lat="45.80656" lon="4.94533">
        <ele>176</ele>
        <time>2014-10-12T09:11:57Z</time>
      </trkpt>
      <trkpt lat="45.80663" lon="4.9453">
        <ele>176</ele>
        <time>2014-10-12T09:12:01Z</time>
      </trkpt>
      <trkpt lat="45.80667" lon="4.94527">
        <ele>176</ele>
        <time>2014-10-12T09:12:04Z</time>
      </trkpt>
      <trkpt lat="45.80668" lon="4.94526">
        <ele>176</ele>
        <time>2014-10-12T09:12:05Z</time>
      </trkpt>
      <trkpt lat="45.80673" lon="4.94522">
        <ele>176</ele>
        <time>2014-10-12T09:12:08Z</time>
      </trkpt>
      <trkpt lat="45.80681" lon="4.94518">
        <ele>176</ele>
        <time>2014-10-12T09:12:13Z</time>
      </trkpt>
      <trkpt lat="45.80686" lon="4.94516">
        <ele>176</ele>
        <time>2014-10-12T09:12:16Z</time>
      </trkpt>
      <trkpt lat="45.80687" lon="4.94515">
        <ele>176</ele>
        <time>2014-10-12T09:12:17Z</time>
      </trkpt>
      <trkpt lat="45.80689" lon="4.94515">
        <ele>176</ele>
        <time>2014-10-12T09:12:18Z</time>
      </trkpt>
      <trkpt lat="45.80693" lon="4.94514">
        <ele>176</ele>
        <time>2014-10-12T09:12:21Z</time>
      </trkpt>
      <trkpt lat="45.80695" lon="4.94514">
        <ele>176</ele>
        <time>2014-10-12T09:12:23Z</time>
      </trkpt>
      <trkpt lat="45.80698" lon="4.94513">
        <ele>176</ele>
        <time>2014-10-12T09:12:25Z</time>
      </trkpt>
      <trkpt lat="45.80704" lon="4.94511">
        <ele>176</ele>
        <time>2014-10-12T09:12:29Z</time>
      </trkpt>
      <trkpt lat="45.8071" lon="4.94509">
        <ele>176</ele>
        <time>2014-10-12T09:12:33Z</time>
      </trkpt>
      <trkpt lat="45.80716" lon="4.94505">
        <ele>175.8</ele>
        <time>2014-10-12T09:12:37Z</time>
      </trkpt>
      <trkpt lat="45.80719" lon="4.94503">
        <ele>175.8</ele>
        <time>2014-10-12T09:12:39Z</time>
      </trkpt>
      <trkpt lat="45.8072" lon="4.94502">
        <ele>175.8</ele>
        <time>2014-10-12T09:12:40Z</time>
      </trkpt>
      <trkpt lat="45.80724" lon="4.94499">
        <ele>175.8</ele>
        <time>2014-10-12T09:12:43Z</time>
      </trkpt>
      <trkpt lat="45.80729" lon="4.94494">
        <ele>175.8</ele>
        <time>2014-10-12T09:12:47Z</time>
      </trkpt>
      <trkpt lat="45.80736" lon="4.94491">
        <ele>175.8</ele>
        <time>2014-10-12T09:12:51Z</time>
      </trkpt>
      <trkpt lat="45.80737" lon="4.94491">
        <ele>175.8</ele>
        <time>2014-10-12T09:12:52Z</time>
      </trkpt>
      <trkpt lat="45.80742" lon="4.94489">
        <ele>175.8</ele>
        <time>2014-10-12T09:12:55Z</time>
      </trkpt>
      <trkpt lat="45.80747" lon="4.94487">
        <ele>176</ele>
        <time>2014-10-12T09:12:58Z</time>
      </trkpt>
      <trkpt lat="45.80751" lon="4.94485">
        <ele>176</ele>
        <time>2014-10-12T09:13:00Z</time>
      </trkpt>
      <trkpt lat="45.80754" lon="4.94484">
        <ele>176</ele>
        <time>2014-10-12T09:13:02Z</time>
      </trkpt>
      <trkpt lat="45.80761" lon="4.94481">
        <ele>176.2</ele>
        <time>2014-10-12T09:13:06Z</time>
      </trkpt>
      <trkpt lat="45.80767" lon="4.94477">
        <ele>176.2</ele>
        <time>2014-10-12T09:13:10Z</time>
      </trkpt>
      <trkpt lat="45.80771" lon="4.94474">
        <ele>176.2</ele>
        <time>2014-10-12T09:13:13Z</time>
      </trkpt>
      <trkpt lat="45.80772" lon="4.94473">
        <ele>176.2</ele>
        <time>2014-10-12T09:13:14Z</time>
      </trkpt>
      <trkpt lat="45.80777" lon="4.94471">
        <ele>176.2</ele>
        <time>2014-10-12T09:13:17Z</time>
      </trkpt>
      <trkpt lat="45.8078" lon="4.94469">
        <ele>176.2</ele>
        <time>2014-10-12T09:13:19Z</time>
      </trkpt>
      <trkpt lat="45.80783" lon="4.94468">
        <ele>176.2</ele>
        <time>2014-10-12T09:13:21Z</time>
      </trkpt>
      <trkpt lat="45.8079" lon="4.94468">
        <ele>176.4</ele>
        <time>2014-10-12T09:13:26Z</time>
      </trkpt>
      <trkpt lat="45.80791" lon="4.94469">
        <ele>176.4</ele>
        <time>2014-10-12T09:13:27Z</time>
      </trkpt>
      <trkpt lat="45.80792" lon="4.9447">
        <ele>176.6</ele>
        <time>2014-10-12T09:13:32Z</time>
      </trkpt>
      <trkpt lat="45.80791" lon="4.94472">
        <ele>176.8</ele>
        <time>2014-10-12T09:13:42Z</time>
      </trkpt>
      <trkpt lat="45.8079" lon="4.94473">
        <ele>177.2</ele>
        <time>2014-10-12T09:14:15Z</time>
      </trkpt>
      <trkpt lat="45.80785" lon="4.94476">
        <ele>177</ele>
        <time>2014-10-12T09:14:19Z</time>
      </trkpt>
      <trkpt lat="45.80782" lon="4.9448">
        <ele>177</ele>
        <time>2014-10-12T09:14:24Z</time>
      </trkpt>
      <trkpt lat="45.80781" lon="4.94482">
        <ele>177</ele>
        <time>2014-10-12T09:14:25Z</time>
      </trkpt>
      <trkpt lat="45.80779" lon="4.94488">
        <ele>177.2</ele>
        <time>2014-10-12T09:14:29Z</time>
      </trkpt>
      <trkpt lat="45.80775" lon="4.94495">
        <ele>177.2</ele>
        <time>2014-10-12T09:14:33Z</time>
      </trkpt>
      <trkpt lat="45.80769" lon="4.945">
        <ele>177.6</ele>
        <time>2014-10-12T09:14:37Z</time>
      </trkpt>
      <trkpt lat="45.80762" lon="4.94505">
        <ele>178</ele>
        <time>2014-10-12T09:14:41Z</time>
      </trkpt>
      <trkpt lat="45.80757" lon="4.94509">
        <ele>178.2</ele>
        <time>2014-10-12T09:14:44Z</time>
      </trkpt>
      <trkpt lat="45.80753" lon="4.94513">
        <ele>178.2</ele>
        <time>2014-10-12T09:14:47Z</time>
      </trkpt>
      <trkpt lat="45.80752" lon="4.94514">
        <ele>178.2</ele>
        <time>2014-10-12T09:14:48Z</time>
      </trkpt>
      <trkpt lat="45.80747" lon="4.9452">
        <ele>178.2</ele>
        <time>2014-10-12T09:14:52Z</time>
      </trkpt>
      <trkpt lat="45.80746" lon="4.94522">
        <ele>178.4</ele>
        <time>2014-10-12T09:14:53Z</time>
      </trkpt>
      <trkpt lat="45.80744" lon="4.94525">
        <ele>178.4</ele>
        <time>2014-10-12T09:14:55Z</time>
      </trkpt>
      <trkpt lat="45.8074" lon="4.94531">
        <ele>178.2</ele>
        <time>2014-10-12T09:14:58Z</time>
      </trkpt>
      <trkpt lat="45.80739" lon="4.94532">
        <ele>178.2</ele>
        <time>2014-10-12T09:14:59Z</time>
      </trkpt>
      <trkpt lat="45.80734" lon="4.94539">
        <ele>178.2</ele>
        <time>2014-10-12T09:15:03Z</time>
      </trkpt>
      <trkpt lat="45.80729" lon="4.94545">
        <ele>178.2</ele>
        <time>2014-10-12T09:15:07Z</time>
      </trkpt>
      <trkpt lat="45.80726" lon="4.94547">
        <ele>178.2</ele>
        <time>2014-10-12T09:15:09Z</time>
      </trkpt>
      <trkpt lat="45.80724" lon="4.94551">
        <ele>178.2</ele>
        <time>2014-10-12T09:15:11Z</time>
      </trkpt>
      <trkpt lat="45.80722" lon="4.94552">
        <ele>178.2</ele>
        <time>2014-10-12T09:15:12Z</time>
      </trkpt>
      <trkpt lat="45.80719" lon="4.94558">
        <ele>178.2</ele>
        <time>2014-10-12T09:15:15Z</time>
      </trkpt>
      <trkpt lat="45.80714" lon="4.94564">
        <ele>178</ele>
        <time>2014-10-12T09:15:19Z</time>
      </trkpt>
      <trkpt lat="45.80713" lon="4.94566">
        <ele>178</ele>
        <time>2014-10-12T09:15:20Z</time>
      </trkpt>
      <trkpt lat="45.8071" lon="4.94571">
        <ele>178</ele>
        <time>2014-10-12T09:15:23Z</time>
      </trkpt>
      <trkpt lat="45.80705" lon="4.94578">
        <ele>178</ele>
        <time>2014-10-12T09:15:27Z</time>
      </trkpt>
      <trkpt lat="45.80701" lon="4.94585">
        <ele>177.8</ele>
        <time>2014-10-12T09:15:31Z</time>
      </trkpt>
      <trkpt lat="45.80697" lon="4.94592">
        <ele>177.8</ele>
        <time>2014-10-12T09:15:35Z</time>
      </trkpt>
      <trkpt lat="45.80692" lon="4.94601">
        <ele>177.8</ele>
        <time>2014-10-12T09:15:40Z</time>
      </trkpt>
      <trkpt lat="45.8069" lon="4.94605">
        <ele>177.8</ele>
        <time>2014-10-12T09:15:42Z</time>
      </trkpt>
      <trkpt lat="45.80688" lon="4.94609">
        <ele>177.8</ele>
        <time>2014-10-12T09:15:44Z</time>
      </trkpt>
      <trkpt lat="45.80684" lon="4.94616">
        <ele>177.6</ele>
        <time>2014-10-12T09:15:48Z</time>
      </trkpt>
      <trkpt lat="45.80678" lon="4.94625">
        <ele>177.6</ele>
        <time>2014-10-12T09:15:53Z</time>
      </trkpt>
      <trkpt lat="45.80674" lon="4.94632">
        <ele>177.6</ele>
        <time>2014-10-12T09:15:57Z</time>
      </trkpt>
      <trkpt lat="45.80672" lon="4.94635">
        <ele>177.6</ele>
        <time>2014-10-12T09:15:59Z</time>
      </trkpt>
      <trkpt lat="45.80671" lon="4.94637">
        <ele>177.6</ele>
        <time>2014-10-12T09:16:00Z</time>
      </trkpt>
      <trkpt lat="45.80668" lon="4.94642">
        <ele>177.6</ele>
        <time>2014-10-12T09:16:03Z</time>
      </trkpt>
      <trkpt lat="45.80667" lon="4.94644">
        <ele>177.6</ele>
        <time>2014-10-12T09:16:04Z</time>
      </trkpt>
      <trkpt lat="45.80665" lon="4.94648">
        <ele>177.6</ele>
        <time>2014-10-12T09:16:06Z</time>
      </trkpt>
      <trkpt lat="45.80662" lon="4.94653">
        <ele>177.6</ele>
        <time>2014-10-12T09:16:09Z</time>
      </trkpt>
      <trkpt lat="45.80659" lon="4.94661">
        <ele>177.6</ele>
        <time>2014-10-12T09:16:13Z</time>
      </trkpt>
      <trkpt lat="45.80657" lon="4.94665">
        <ele>177.6</ele>
        <time>2014-10-12T09:16:15Z</time>
      </trkpt>
      <trkpt lat="45.80655" lon="4.94669">
        <ele>177.6</ele>
        <time>2014-10-12T09:16:17Z</time>
      </trkpt>
      <trkpt lat="45.8065" lon="4.94675">
        <ele>177.4</ele>
        <time>2014-10-12T09:16:21Z</time>
      </trkpt>
      <trkpt lat="45.80646" lon="4.94681">
        <ele>177.4</ele>
        <time>2014-10-12T09:16:25Z</time>
      </trkpt>
      <trkpt lat="45.80644" lon="4.94683">
        <ele>177.4</ele>
        <time>2014-10-12T09:16:26Z</time>
      </trkpt>
      <trkpt lat="45.80641" lon="4.94688">
        <ele>177.4</ele>
        <time>2014-10-12T09:16:29Z</time>
      </trkpt>
      <trkpt lat="45.80635" lon="4.94696">
        <ele>177.4</ele>
        <time>2014-10-12T09:16:34Z</time>
      </trkpt>
      <trkpt lat="45.80632" lon="4.94701">
        <ele>177.2</ele>
        <time>2014-10-12T09:16:37Z</time>
      </trkpt>
      <trkpt lat="45.8063" lon="4.94704">
        <ele>177.2</ele>
        <time>2014-10-12T09:16:39Z</time>
      </trkpt>
      <trkpt lat="45.80626" lon="4.94711">
        <ele>177.2</ele>
        <time>2014-10-12T09:16:43Z</time>
      </trkpt>
      <trkpt lat="45.80623" lon="4.94718">
        <ele>177.2</ele>
        <time>2014-10-12T09:16:47Z</time>
      </trkpt>
      <trkpt lat="45.80621" lon="4.94722">
        <ele>177.2</ele>
        <time>2014-10-12T09:16:49Z</time>
      </trkpt>
      <trkpt lat="45.80619" lon="4.94725">
        <ele>177.2</ele>
        <time>2014-10-12T09:16:51Z</time>
      </trkpt>
      <trkpt lat="45.80615" lon="4.94733">
        <ele>177.2</ele>
        <time>2014-10-12T09:16:55Z</time>
      </trkpt>
      <trkpt lat="45.80611" lon="4.9474">
        <ele>177.2</ele>
        <time>2014-10-12T09:16:59Z</time>
      </trkpt>
      <trkpt lat="45.8061" lon="4.94742">
        <ele>177.2</ele>
        <time>2014-10-12T09:17:00Z</time>
      </trkpt>
      <trkpt lat="45.80608" lon="4.94748">
        <ele>177.2</ele>
        <time>2014-10-12T09:17:03Z</time>
      </trkpt>
      <trkpt lat="45.80607" lon="4.9475">
        <ele>177.2</ele>
        <time>2014-10-12T09:17:04Z</time>
      </trkpt>
      <trkpt lat="45.80605" lon="4.94756">
        <ele>177.2</ele>
        <time>2014-10-12T09:17:07Z</time>
      </trkpt>
      <trkpt lat="45.80603" lon="4.94762">
        <ele>177.2</ele>
        <time>2014-10-12T09:17:10Z</time>
      </trkpt>
      <trkpt lat="45.80602" lon="4.94763">
        <ele>177.2</ele>
        <time>2014-10-12T09:17:11Z</time>
      </trkpt>
      <trkpt lat="45.806" lon="4.94767">
        <ele>177.2</ele>
        <time>2014-10-12T09:17:13Z</time>
      </trkpt>
      <trkpt lat="45.80598" lon="4.94772">
        <ele>177.2</ele>
        <time>2014-10-12T09:17:15Z</time>
      </trkpt>
      <trkpt lat="45.80597" lon="4.94775">
        <ele>177.2</ele>
        <time>2014-10-12T09:17:17Z</time>
      </trkpt>
      <trkpt lat="45.80593" lon="4.94781">
        <ele>177.4</ele>
        <time>2014-10-12T09:17:20Z</time>
      </trkpt>
      <trkpt lat="45.80591" lon="4.94784">
        <ele>177.2</ele>
        <time>2014-10-12T09:17:22Z</time>
      </trkpt>
      <trkpt lat="45.80589" lon="4.94788">
        <ele>177.2</ele>
        <time>2014-10-12T09:17:24Z</time>
      </trkpt>
      <trkpt lat="45.80583" lon="4.94795">
        <ele>177.2</ele>
        <time>2014-10-12T09:17:29Z</time>
      </trkpt>
      <trkpt lat="45.8058" lon="4.94801">
        <ele>177.2</ele>
        <time>2014-10-12T09:17:32Z</time>
      </trkpt>
      <trkpt lat="45.80578" lon="4.94804">
        <ele>177.2</ele>
        <time>2014-10-12T09:17:34Z</time>
      </trkpt>
      <trkpt lat="45.80576" lon="4.94808">
        <ele>177.2</ele>
        <time>2014-10-12T09:17:36Z</time>
      </trkpt>
      <trkpt lat="45.80574" lon="4.94813">
        <ele>177.2</ele>
        <time>2014-10-12T09:17:39Z</time>
      </trkpt>
      <trkpt lat="45.80573" lon="4.94815">
        <ele>177</ele>
        <time>2014-10-12T09:17:40Z</time>
      </trkpt>
      <trkpt lat="45.80569" lon="4.9482">
        <ele>177</ele>
        <time>2014-10-12T09:17:43Z</time>
      </trkpt>
      <trkpt lat="45.80569" lon="4.94822">
        <ele>177</ele>
        <time>2014-10-12T09:17:44Z</time>
      </trkpt>
      <trkpt lat="45.80566" lon="4.94825">
        <ele>177</ele>
        <time>2014-10-12T09:17:46Z</time>
      </trkpt>
      <trkpt lat="45.80564" lon="4.94829">
        <ele>177</ele>
        <time>2014-10-12T09:17:48Z</time>
      </trkpt>
      <trkpt lat="45.80561" lon="4.94833">
        <ele>177</ele>
        <time>2014-10-12T09:17:51Z</time>
      </trkpt>
      <trkpt lat="45.80557" lon="4.9484">
        <ele>177</ele>
        <time>2014-10-12T09:17:55Z</time>
      </trkpt>
      <trkpt lat="45.80554" lon="4.94845">
        <ele>177</ele>
        <time>2014-10-12T09:17:58Z</time>
      </trkpt>
      <trkpt lat="45.80553" lon="4.94846">
        <ele>177</ele>
        <time>2014-10-12T09:17:59Z</time>
      </trkpt>
      <trkpt lat="45.80548" lon="4.94853">
        <ele>177</ele>
        <time>2014-10-12T09:18:03Z</time>
      </trkpt>
      <trkpt lat="45.80545" lon="4.94859">
        <ele>177</ele>
        <time>2014-10-12T09:18:06Z</time>
      </trkpt>
      <trkpt lat="45.80543" lon="4.94864">
        <ele>177</ele>
        <time>2014-10-12T09:18:09Z</time>
      </trkpt>
      <trkpt lat="45.80541" lon="4.94868">
        <ele>177</ele>
        <time>2014-10-12T09:18:11Z</time>
      </trkpt>
      <trkpt lat="45.80538" lon="4.94876">
        <ele>177.2</ele>
        <time>2014-10-12T09:18:15Z</time>
      </trkpt>
      <trkpt lat="45.80534" lon="4.94883">
        <ele>177.2</ele>
        <time>2014-10-12T09:18:19Z</time>
      </trkpt>
      <trkpt lat="45.80533" lon="4.94885">
        <ele>177.2</ele>
        <time>2014-10-12T09:18:20Z</time>
      </trkpt>
      <trkpt lat="45.80531" lon="4.94889">
        <ele>177.4</ele>
        <time>2014-10-12T09:18:22Z</time>
      </trkpt>
      <trkpt lat="45.80529" lon="4.94894">
        <ele>177.4</ele>
        <time>2014-10-12T09:18:25Z</time>
      </trkpt>
      <trkpt lat="45.80526" lon="4.94901">
        <ele>177.6</ele>
        <time>2014-10-12T09:18:29Z</time>
      </trkpt>
      <trkpt lat="45.80522" lon="4.94909">
        <ele>177.8</ele>
        <time>2014-10-12T09:18:33Z</time>
      </trkpt>
      <trkpt lat="45.8052" lon="4.94913">
        <ele>177.8</ele>
        <time>2014-10-12T09:18:35Z</time>
      </trkpt>
      <trkpt lat="45.80516" lon="4.9492">
        <ele>177.8</ele>
        <time>2014-10-12T09:18:39Z</time>
      </trkpt>
      <trkpt lat="45.80512" lon="4.94927">
        <ele>177.8</ele>
        <time>2014-10-12T09:18:43Z</time>
      </trkpt>
      <trkpt lat="45.80509" lon="4.9493">
        <ele>178</ele>
        <time>2014-10-12T09:18:45Z</time>
      </trkpt>
      <trkpt lat="45.80508" lon="4.94931">
        <ele>178</ele>
        <time>2014-10-12T09:18:46Z</time>
      </trkpt>
      <trkpt lat="45.80505" lon="4.94936">
        <ele>178</ele>
        <time>2014-10-12T09:18:49Z</time>
      </trkpt>
      <trkpt lat="45.805" lon="4.94942">
        <ele>178</ele>
        <time>2014-10-12T09:18:53Z</time>
      </trkpt>
      <trkpt lat="45.80497" lon="4.94947">
        <ele>177.8</ele>
        <time>2014-10-12T09:18:56Z</time>
      </trkpt>
      <trkpt lat="45.80496" lon="4.94949">
        <ele>178</ele>
        <time>2014-10-12T09:18:57Z</time>
      </trkpt>
      <trkpt lat="45.80493" lon="4.94954">
        <ele>177.8</ele>
        <time>2014-10-12T09:19:00Z</time>
      </trkpt>
      <trkpt lat="45.80491" lon="4.94957">
        <ele>177.8</ele>
        <time>2014-10-12T09:19:02Z</time>
      </trkpt>
      <trkpt lat="45.80488" lon="4.94962">
        <ele>177.8</ele>
        <time>2014-10-12T09:19:05Z</time>
      </trkpt>
      <trkpt lat="45.80483" lon="4.94969">
        <ele>177.8</ele>
        <time>2014-10-12T09:19:09Z</time>
      </trkpt>
      <trkpt lat="45.80477" lon="4.94976">
        <ele>177.8</ele>
        <time>2014-10-12T09:19:14Z</time>
      </trkpt>
      <trkpt lat="45.80471" lon="4.94983">
        <ele>177.6</ele>
        <time>2014-10-12T09:19:19Z</time>
      </trkpt>
      <trkpt lat="45.80469" lon="4.94986">
        <ele>177.6</ele>
        <time>2014-10-12T09:19:21Z</time>
      </trkpt>
      <trkpt lat="45.80468" lon="4.94988">
        <ele>177.6</ele>
        <time>2014-10-12T09:19:22Z</time>
      </trkpt>
      <trkpt lat="45.80464" lon="4.94992">
        <ele>177.6</ele>
        <time>2014-10-12T09:19:25Z</time>
      </trkpt>
      <trkpt lat="45.80459" lon="4.94998">
        <ele>177.6</ele>
        <time>2014-10-12T09:19:29Z</time>
      </trkpt>
      <trkpt lat="45.80454" lon="4.95003">
        <ele>177.4</ele>
        <time>2014-10-12T09:19:33Z</time>
      </trkpt>
      <trkpt lat="45.80445" lon="4.95011">
        <ele>177.4</ele>
        <time>2014-10-12T09:19:39Z</time>
      </trkpt>
      <trkpt lat="45.8044" lon="4.95016">
        <ele>177.4</ele>
        <time>2014-10-12T09:19:43Z</time>
      </trkpt>
      <trkpt lat="45.80439" lon="4.95017">
        <ele>177.4</ele>
        <time>2014-10-12T09:19:44Z</time>
      </trkpt>
      <trkpt lat="45.80435" lon="4.95021">
        <ele>177.4</ele>
        <time>2014-10-12T09:19:47Z</time>
      </trkpt>
      <trkpt lat="45.80431" lon="4.95026">
        <ele>177.4</ele>
        <time>2014-10-12T09:19:50Z</time>
      </trkpt>
      <trkpt lat="45.80428" lon="4.9503">
        <ele>177.2</ele>
        <time>2014-10-12T09:19:53Z</time>
      </trkpt>
      <trkpt lat="45.80424" lon="4.95035">
        <ele>177.2</ele>
        <time>2014-10-12T09:19:56Z</time>
      </trkpt>
      <trkpt lat="45.80423" lon="4.95036">
        <ele>177.2</ele>
        <time>2014-10-12T09:19:57Z</time>
      </trkpt>
      <trkpt lat="45.80418" lon="4.95042">
        <ele>177.2</ele>
        <time>2014-10-12T09:20:01Z</time>
      </trkpt>
      <trkpt lat="45.80412" lon="4.95049">
        <ele>177.2</ele>
        <time>2014-10-12T09:20:06Z</time>
      </trkpt>
      <trkpt lat="45.8041" lon="4.95052">
        <ele>177.2</ele>
        <time>2014-10-12T09:20:08Z</time>
      </trkpt>
      <trkpt lat="45.80408" lon="4.95055">
        <ele>177.2</ele>
        <time>2014-10-12T09:20:10Z</time>
      </trkpt>
      <trkpt lat="45.80405" lon="4.95061">
        <ele>177.2</ele>
        <time>2014-10-12T09:20:13Z</time>
      </trkpt>
      <trkpt lat="45.80402" lon="4.95066">
        <ele>177.2</ele>
        <time>2014-10-12T09:20:16Z</time>
      </trkpt>
      <trkpt lat="45.80399" lon="4.95071">
        <ele>177.2</ele>
        <time>2014-10-12T09:20:19Z</time>
      </trkpt>
      <trkpt lat="45.80394" lon="4.95077">
        <ele>177.2</ele>
        <time>2014-10-12T09:20:23Z</time>
      </trkpt>
      <trkpt lat="45.80389" lon="4.95082">
        <ele>177.2</ele>
        <time>2014-10-12T09:20:27Z</time>
      </trkpt>
      <trkpt lat="45.80384" lon="4.95088">
        <ele>177.2</ele>
        <time>2014-10-12T09:20:31Z</time>
      </trkpt>
      <trkpt lat="45.80379" lon="4.95096">
        <ele>177.2</ele>
        <time>2014-10-12T09:20:36Z</time>
      </trkpt>
      <trkpt lat="45.80374" lon="4.95101">
        <ele>177.2</ele>
        <time>2014-10-12T09:20:40Z</time>
      </trkpt>
      <trkpt lat="45.80371" lon="4.95106">
        <ele>177.2</ele>
        <time>2014-10-12T09:20:43Z</time>
      </trkpt>
      <trkpt lat="45.8037" lon="4.95108">
        <ele>177.2</ele>
        <time>2014-10-12T09:20:44Z</time>
      </trkpt>
      <trkpt lat="45.80367" lon="4.95111">
        <ele>177.2</ele>
        <time>2014-10-12T09:20:46Z</time>
      </trkpt>
      <trkpt lat="45.80365" lon="4.95116">
        <ele>177.2</ele>
        <time>2014-10-12T09:20:49Z</time>
      </trkpt>
      <trkpt lat="45.80361" lon="4.95123">
        <ele>177.2</ele>
        <time>2014-10-12T09:20:53Z</time>
      </trkpt>
      <trkpt lat="45.80358" lon="4.95128">
        <ele>177.2</ele>
        <time>2014-10-12T09:20:56Z</time>
      </trkpt>
      <trkpt lat="45.80354" lon="4.95136">
        <ele>177</ele>
        <time>2014-10-12T09:21:00Z</time>
      </trkpt>
      <trkpt lat="45.8035" lon="4.95142">
        <ele>177</ele>
        <time>2014-10-12T09:21:04Z</time>
      </trkpt>
      <trkpt lat="45.80346" lon="4.95146">
        <ele>177</ele>
        <time>2014-10-12T09:21:07Z</time>
      </trkpt>
      <trkpt lat="45.80345" lon="4.95148">
        <ele>177</ele>
        <time>2014-10-12T09:21:08Z</time>
      </trkpt>
      <trkpt lat="45.8034" lon="4.95154">
        <ele>177</ele>
        <time>2014-10-12T09:21:12Z</time>
      </trkpt>
      <trkpt lat="45.80337" lon="4.95159">
        <ele>177</ele>
        <time>2014-10-12T09:21:15Z</time>
      </trkpt>
      <trkpt lat="45.80333" lon="4.95165">
        <ele>177</ele>
        <time>2014-10-12T09:21:19Z</time>
      </trkpt>
      <trkpt lat="45.80332" lon="4.95167">
        <ele>177</ele>
        <time>2014-10-12T09:21:20Z</time>
      </trkpt>
      <trkpt lat="45.80329" lon="4.95172">
        <ele>177</ele>
        <time>2014-10-12T09:21:23Z</time>
      </trkpt>
      <trkpt lat="45.80323" lon="4.9518">
        <ele>177</ele>
        <time>2014-10-12T09:21:28Z</time>
      </trkpt>
      <trkpt lat="45.80319" lon="4.95184">
        <ele>177</ele>
        <time>2014-10-12T09:21:31Z</time>
      </trkpt>
      <trkpt lat="45.80317" lon="4.95185">
        <ele>177</ele>
        <time>2014-10-12T09:21:32Z</time>
      </trkpt>
      <trkpt lat="45.80313" lon="4.9519">
        <ele>177</ele>
        <time>2014-10-12T09:21:35Z</time>
      </trkpt>
      <trkpt lat="45.80312" lon="4.95191">
        <ele>177</ele>
        <time>2014-10-12T09:21:36Z</time>
      </trkpt>
      <trkpt lat="45.80307" lon="4.95197">
        <ele>177</ele>
        <time>2014-10-12T09:21:40Z</time>
      </trkpt>
      <trkpt lat="45.80305" lon="4.952">
        <ele>177</ele>
        <time>2014-10-12T09:21:42Z</time>
      </trkpt>
      <trkpt lat="45.80302" lon="4.95205">
        <ele>177</ele>
        <time>2014-10-12T09:21:45Z</time>
      </trkpt>
      <trkpt lat="45.80298" lon="4.95212">
        <ele>177</ele>
        <time>2014-10-12T09:21:49Z</time>
      </trkpt>
      <trkpt lat="45.80295" lon="4.95217">
        <ele>177</ele>
        <time>2014-10-12T09:21:52Z</time>
      </trkpt>
      <trkpt lat="45.80293" lon="4.9522">
        <ele>177</ele>
        <time>2014-10-12T09:21:54Z</time>
      </trkpt>
      <trkpt lat="45.80291" lon="4.95224">
        <ele>177</ele>
        <time>2014-10-12T09:21:56Z</time>
      </trkpt>
      <trkpt lat="45.80287" lon="4.95231">
        <ele>177</ele>
        <time>2014-10-12T09:22:00Z</time>
      </trkpt>
      <trkpt lat="45.80284" lon="4.95236">
        <ele>176.8</ele>
        <time>2014-10-12T09:22:03Z</time>
      </trkpt>
      <trkpt lat="45.80283" lon="4.95237">
        <ele>176.8</ele>
        <time>2014-10-12T09:22:04Z</time>
      </trkpt>
      <trkpt lat="45.80282" lon="4.95239">
        <ele>176.8</ele>
        <time>2014-10-12T09:22:05Z</time>
      </trkpt>
      <trkpt lat="45.80279" lon="4.95242">
        <ele>176.8</ele>
        <time>2014-10-12T09:22:07Z</time>
      </trkpt>
      <trkpt lat="45.80277" lon="4.95245">
        <ele>176.8</ele>
        <time>2014-10-12T09:22:09Z</time>
      </trkpt>
      <trkpt lat="45.80274" lon="4.95251">
        <ele>176.8</ele>
        <time>2014-10-12T09:22:12Z</time>
      </trkpt>
      <trkpt lat="45.80272" lon="4.95258">
        <ele>176.8</ele>
        <time>2014-10-12T09:22:16Z</time>
      </trkpt>
      <trkpt lat="45.8027" lon="4.95262">
        <ele>177</ele>
        <time>2014-10-12T09:22:18Z</time>
      </trkpt>
      <trkpt lat="45.80268" lon="4.95267">
        <ele>177</ele>
        <time>2014-10-12T09:22:21Z</time>
      </trkpt>
      <trkpt lat="45.80265" lon="4.95274">
        <ele>177</ele>
        <time>2014-10-12T09:22:25Z</time>
      </trkpt>
      <trkpt lat="45.80261" lon="4.95281">
        <ele>177</ele>
        <time>2014-10-12T09:22:29Z</time>
      </trkpt>
      <trkpt lat="45.8026" lon="4.95283">
        <ele>177</ele>
        <time>2014-10-12T09:22:30Z</time>
      </trkpt>
      <trkpt lat="45.80257" lon="4.95289">
        <ele>177</ele>
        <time>2014-10-12T09:22:33Z</time>
      </trkpt>
      <trkpt lat="45.80253" lon="4.95296">
        <ele>177</ele>
        <time>2014-10-12T09:22:37Z</time>
      </trkpt>
      <trkpt lat="45.80252" lon="4.95298">
        <ele>177</ele>
        <time>2014-10-12T09:22:38Z</time>
      </trkpt>
      <trkpt lat="45.80249" lon="4.95303">
        <ele>177</ele>
        <time>2014-10-12T09:22:41Z</time>
      </trkpt>
      <trkpt lat="45.80245" lon="4.9531">
        <ele>177</ele>
        <time>2014-10-12T09:22:45Z</time>
      </trkpt>
      <trkpt lat="45.80238" lon="4.95317">
        <ele>176.8</ele>
        <time>2014-10-12T09:22:50Z</time>
      </trkpt>
      <trkpt lat="45.80235" lon="4.9532">
        <ele>176.8</ele>
        <time>2014-10-12T09:22:53Z</time>
      </trkpt>
      <trkpt lat="45.80234" lon="4.95321">
        <ele>176.8</ele>
        <time>2014-10-12T09:22:54Z</time>
      </trkpt>
      <trkpt lat="45.80232" lon="4.95322">
        <ele>176.8</ele>
        <time>2014-10-12T09:22:55Z</time>
      </trkpt>
      <trkpt lat="45.80226" lon="4.95329">
        <ele>176.8</ele>
        <time>2014-10-12T09:23:00Z</time>
      </trkpt>
      <trkpt lat="45.80222" lon="4.95333">
        <ele>176.8</ele>
        <time>2014-10-12T09:23:03Z</time>
      </trkpt>
      <trkpt lat="45.8022" lon="4.95334">
        <ele>176.8</ele>
        <time>2014-10-12T09:23:04Z</time>
      </trkpt>
      <trkpt lat="45.80216" lon="4.9534">
        <ele>177</ele>
        <time>2014-10-12T09:23:07Z</time>
      </trkpt>
      <trkpt lat="45.80211" lon="4.95348">
        <ele>177</ele>
        <time>2014-10-12T09:23:12Z</time>
      </trkpt>
      <trkpt lat="45.80208" lon="4.95353">
        <ele>177.2</ele>
        <time>2014-10-12T09:23:15Z</time>
      </trkpt>
      <trkpt lat="45.80207" lon="4.95354">
        <ele>177.2</ele>
        <time>2014-10-12T09:23:16Z</time>
      </trkpt>
      <trkpt lat="45.80205" lon="4.95358">
        <ele>177.2</ele>
        <time>2014-10-12T09:23:18Z</time>
      </trkpt>
      <trkpt lat="45.80201" lon="4.95365">
        <ele>177.2</ele>
        <time>2014-10-12T09:23:22Z</time>
      </trkpt>
      <trkpt lat="45.80197" lon="4.95374">
        <ele>177.2</ele>
        <time>2014-10-12T09:23:27Z</time>
      </trkpt>
      <trkpt lat="45.80196" lon="4.95376">
        <ele>177.2</ele>
        <time>2014-10-12T09:23:28Z</time>
      </trkpt>
      <trkpt lat="45.80193" lon="4.95382">
        <ele>177.2</ele>
        <time>2014-10-12T09:23:31Z</time>
      </trkpt>
      <trkpt lat="45.80191" lon="4.95388">
        <ele>177.2</ele>
        <time>2014-10-12T09:23:34Z</time>
      </trkpt>
      <trkpt lat="45.8019" lon="4.95395">
        <ele>177.2</ele>
        <time>2014-10-12T09:23:37Z</time>
      </trkpt>
      <trkpt lat="45.80187" lon="4.95401">
        <ele>177.2</ele>
        <time>2014-10-12T09:23:40Z</time>
      </trkpt>
      <trkpt lat="45.80186" lon="4.95405">
        <ele>177.4</ele>
        <time>2014-10-12T09:23:42Z</time>
      </trkpt>
      <trkpt lat="45.80183" lon="4.95413">
        <ele>177.4</ele>
        <time>2014-10-12T09:23:46Z</time>
      </trkpt>
      <trkpt lat="45.80179" lon="4.95421">
        <ele>177.4</ele>
        <time>2014-10-12T09:23:50Z</time>
      </trkpt>
      <trkpt lat="45.80178" lon="4.95423">
        <ele>177.4</ele>
        <time>2014-10-12T09:23:51Z</time>
      </trkpt>
      <trkpt lat="45.80175" lon="4.95429">
        <ele>177.4</ele>
        <time>2014-10-12T09:23:54Z</time>
      </trkpt>
      <trkpt lat="45.80173" lon="4.95436">
        <ele>177.2</ele>
        <time>2014-10-12T09:23:57Z</time>
      </trkpt>
      <trkpt lat="45.80169" lon="4.95444">
        <ele>177.4</ele>
        <time>2014-10-12T09:24:01Z</time>
      </trkpt>
      <trkpt lat="45.80169" lon="4.95446">
        <ele>177.2</ele>
        <time>2014-10-12T09:24:02Z</time>
      </trkpt>
      <trkpt lat="45.80167" lon="4.9545">
        <ele>177.2</ele>
        <time>2014-10-12T09:24:04Z</time>
      </trkpt>
      <trkpt lat="45.80165" lon="4.95454">
        <ele>177.4</ele>
        <time>2014-10-12T09:24:06Z</time>
      </trkpt>
      <trkpt lat="45.8016" lon="4.95461">
        <ele>177.4</ele>
        <time>2014-10-12T09:24:10Z</time>
      </trkpt>
      <trkpt lat="45.80156" lon="4.95467">
        <ele>177.4</ele>
        <time>2014-10-12T09:24:14Z</time>
      </trkpt>
      <trkpt lat="45.80151" lon="4.95473">
        <ele>177.4</ele>
        <time>2014-10-12T09:24:18Z</time>
      </trkpt>
      <trkpt lat="45.80145" lon="4.95482">
        <ele>177.4</ele>
        <time>2014-10-12T09:24:24Z</time>
      </trkpt>
      <trkpt lat="45.80143" lon="4.95486">
        <ele>177.4</ele>
        <time>2014-10-12T09:24:26Z</time>
      </trkpt>
      <trkpt lat="45.80141" lon="4.95489">
        <ele>177.4</ele>
        <time>2014-10-12T09:24:28Z</time>
      </trkpt>
      <trkpt lat="45.80137" lon="4.95495">
        <ele>177.4</ele>
        <time>2014-10-12T09:24:32Z</time>
      </trkpt>
      <trkpt lat="45.80133" lon="4.955">
        <ele>177.4</ele>
        <time>2014-10-12T09:24:35Z</time>
      </trkpt>
      <trkpt lat="45.8013" lon="4.95504">
        <ele>177.4</ele>
        <time>2014-10-12T09:24:38Z</time>
      </trkpt>
      <trkpt lat="45.80126" lon="4.9551">
        <ele>177.4</ele>
        <time>2014-10-12T09:24:42Z</time>
      </trkpt>
      <trkpt lat="45.8012" lon="4.95516">
        <ele>177.4</ele>
        <time>2014-10-12T09:24:46Z</time>
      </trkpt>
      <trkpt lat="45.80116" lon="4.9552">
        <ele>177.4</ele>
        <time>2014-10-12T09:24:49Z</time>
      </trkpt>
      <trkpt lat="45.80113" lon="4.95522">
        <ele>177.4</ele>
        <time>2014-10-12T09:24:51Z</time>
      </trkpt>
      <trkpt lat="45.80108" lon="4.95527">
        <ele>177.6</ele>
        <time>2014-10-12T09:24:55Z</time>
      </trkpt>
      <trkpt lat="45.80104" lon="4.95531">
        <ele>177.6</ele>
        <time>2014-10-12T09:24:58Z</time>
      </trkpt>
      <trkpt lat="45.80101" lon="4.95534">
        <ele>177.6</ele>
        <time>2014-10-12T09:25:00Z</time>
      </trkpt>
      <trkpt lat="45.80098" lon="4.95536">
        <ele>177.6</ele>
        <time>2014-10-12T09:25:02Z</time>
      </trkpt>
      <trkpt lat="45.80092" lon="4.95541">
        <ele>177.8</ele>
        <time>2014-10-12T09:25:06Z</time>
      </trkpt>
      <trkpt lat="45.80086" lon="4.95546">
        <ele>177.8</ele>
        <time>2014-10-12T09:25:10Z</time>
      </trkpt>
      <trkpt lat="45.80085" lon="4.95547">
        <ele>177.8</ele>
        <time>2014-10-12T09:25:11Z</time>
      </trkpt>
      <trkpt lat="45.80079" lon="4.95553">
        <ele>177.8</ele>
        <time>2014-10-12T09:25:17Z</time>
      </trkpt>
      <trkpt lat="45.80075" lon="4.95557">
        <ele>177.6</ele>
        <time>2014-10-12T09:25:20Z</time>
      </trkpt>
      <trkpt lat="45.80074" lon="4.95559">
        <ele>177.6</ele>
        <time>2014-10-12T09:25:21Z</time>
      </trkpt>
      <trkpt lat="45.8007" lon="4.95563">
        <ele>177.6</ele>
        <time>2014-10-12T09:25:24Z</time>
      </trkpt>
      <trkpt lat="45.80069" lon="4.95564">
        <ele>177.6</ele>
        <time>2014-10-12T09:25:25Z</time>
      </trkpt>
      <trkpt lat="45.80066" lon="4.95568">
        <ele>177.6</ele>
        <time>2014-10-12T09:25:27Z</time>
      </trkpt>
      <trkpt lat="45.80061" lon="4.95574">
        <ele>177.6</ele>
        <time>2014-10-12T09:25:31Z</time>
      </trkpt>
      <trkpt lat="45.8006" lon="4.95576">
        <ele>177.6</ele>
        <time>2014-10-12T09:25:32Z</time>
      </trkpt>
      <trkpt lat="45.80058" lon="4.95579">
        <ele>177.6</ele>
        <time>2014-10-12T09:25:34Z</time>
      </trkpt>
      <trkpt lat="45.80057" lon="4.95581">
        <ele>177.6</ele>
        <time>2014-10-12T09:25:35Z</time>
      </trkpt>
      <trkpt lat="45.80051" lon="4.9559">
        <ele>177.6</ele>
        <time>2014-10-12T09:25:40Z</time>
      </trkpt>
      <trkpt lat="45.80048" lon="4.95596">
        <ele>177.6</ele>
        <time>2014-10-12T09:25:43Z</time>
      </trkpt>
      <trkpt lat="45.80045" lon="4.95602">
        <ele>177.6</ele>
        <time>2014-10-12T09:25:46Z</time>
      </trkpt>
      <trkpt lat="45.80044" lon="4.95604">
        <ele>177.6</ele>
        <time>2014-10-12T09:25:47Z</time>
      </trkpt>
      <trkpt lat="45.8004" lon="4.95611">
        <ele>177.6</ele>
        <time>2014-10-12T09:25:51Z</time>
      </trkpt>
      <trkpt lat="45.80035" lon="4.95617">
        <ele>177.6</ele>
        <time>2014-10-12T09:25:55Z</time>
      </trkpt>
      <trkpt lat="45.80032" lon="4.95623">
        <ele>177.4</ele>
        <time>2014-10-12T09:25:58Z</time>
      </trkpt>
      <trkpt lat="45.80031" lon="4.95624">
        <ele>177.4</ele>
        <time>2014-10-12T09:25:59Z</time>
      </trkpt>
      <trkpt lat="45.80027" lon="4.95633">
        <ele>177.4</ele>
        <time>2014-10-12T09:26:03Z</time>
      </trkpt>
      <trkpt lat="45.80024" lon="4.95639">
        <ele>177.4</ele>
        <time>2014-10-12T09:26:06Z</time>
      </trkpt>
      <trkpt lat="45.8002" lon="4.95644">
        <ele>177.4</ele>
        <time>2014-10-12T09:26:09Z</time>
      </trkpt>
      <trkpt lat="45.80017" lon="4.95648">
        <ele>177.4</ele>
        <time>2014-10-12T09:26:11Z</time>
      </trkpt>
      <trkpt lat="45.80012" lon="4.95654">
        <ele>177.4</ele>
        <time>2014-10-12T09:26:15Z</time>
      </trkpt>
      <trkpt lat="45.80008" lon="4.95661">
        <ele>177.4</ele>
        <time>2014-10-12T09:26:19Z</time>
      </trkpt>
      <trkpt lat="45.80007" lon="4.95663">
        <ele>177.4</ele>
        <time>2014-10-12T09:26:20Z</time>
      </trkpt>
      <trkpt lat="45.80003" lon="4.95668">
        <ele>177.4</ele>
        <time>2014-10-12T09:26:23Z</time>
      </trkpt>
      <trkpt lat="45.79997" lon="4.95676">
        <ele>178</ele>
        <time>2014-10-12T09:26:28Z</time>
      </trkpt>
      <trkpt lat="45.79996" lon="4.95685">
        <ele>178.4</ele>
        <time>2014-10-12T09:26:33Z</time>
      </trkpt>
      <trkpt lat="45.79996" lon="4.95687">
        <ele>178.6</ele>
        <time>2014-10-12T09:26:34Z</time>
      </trkpt>
      <trkpt lat="45.79995" lon="4.95698">
        <ele>179</ele>
        <time>2014-10-12T09:26:38Z</time>
      </trkpt>
      <trkpt lat="45.79991" lon="4.95707">
        <ele>179.8</ele>
        <time>2014-10-12T09:26:44Z</time>
      </trkpt>
      <trkpt lat="45.7999" lon="4.95709">
        <ele>179.8</ele>
        <time>2014-10-12T09:26:45Z</time>
      </trkpt>
      <trkpt lat="45.79988" lon="4.95715">
        <ele>180.2</ele>
        <time>2014-10-12T09:26:48Z</time>
      </trkpt>
      <trkpt lat="45.79987" lon="4.95729">
        <ele>180.8</ele>
        <time>2014-10-12T09:26:54Z</time>
      </trkpt>
      <trkpt lat="45.79988" lon="4.95734">
        <ele>180.8</ele>
        <time>2014-10-12T09:26:56Z</time>
      </trkpt>
      <trkpt lat="45.79989" lon="4.9574">
        <ele>180.8</ele>
        <time>2014-10-12T09:26:58Z</time>
      </trkpt>
      <trkpt lat="45.79989" lon="4.95755">
        <ele>180.8</ele>
        <time>2014-10-12T09:27:05Z</time>
      </trkpt>
      <trkpt lat="45.79989" lon="4.95757">
        <ele>180.8</ele>
        <time>2014-10-12T09:27:06Z</time>
      </trkpt>
      <trkpt lat="45.79988" lon="4.9576">
        <ele>180.8</ele>
        <time>2014-10-12T09:27:08Z</time>
      </trkpt>
      <trkpt lat="45.79987" lon="4.95761">
        <ele>180.8</ele>
        <time>2014-10-12T09:27:09Z</time>
      </trkpt>
      <trkpt lat="45.79987" lon="4.95763">
        <ele>180.8</ele>
        <time>2014-10-12T09:27:10Z</time>
      </trkpt>
      <trkpt lat="45.79987" lon="4.95764">
        <ele>180.8</ele>
        <time>2014-10-12T09:27:11Z</time>
      </trkpt>
      <trkpt lat="45.79988" lon="4.95771">
        <ele>180.8</ele>
        <time>2014-10-12T09:27:15Z</time>
      </trkpt>
      <trkpt lat="45.79989" lon="4.95773">
        <ele>180.8</ele>
        <time>2014-10-12T09:27:22Z</time>
      </trkpt>
      <trkpt lat="45.7999" lon="4.95769">
        <ele>180.6</ele>
        <time>2014-10-12T09:27:39Z</time>
      </trkpt>
      <trkpt lat="45.79986" lon="4.95764">
        <ele>181.6</ele>
        <time>2014-10-12T09:28:01Z</time>
      </trkpt>
      <trkpt lat="45.79984" lon="4.95762">
        <ele>181.8</ele>
        <time>2014-10-12T09:28:04Z</time>
      </trkpt>
      <trkpt lat="45.79985" lon="4.9576">
        <ele>181.8</ele>
        <time>2014-10-12T09:28:06Z</time>
      </trkpt>
      <trkpt lat="45.79985" lon="4.95754">
        <ele>181.8</ele>
        <time>2014-10-12T09:28:11Z</time>
      </trkpt>
      <trkpt lat="45.79985" lon="4.9575">
        <ele>181.8</ele>
        <time>2014-10-12T09:28:13Z</time>
      </trkpt>
      <trkpt lat="45.79984" lon="4.95747">
        <ele>181.8</ele>
        <time>2014-10-12T09:28:15Z</time>
      </trkpt>
      <trkpt lat="45.79982" lon="4.95738">
        <ele>181.8</ele>
        <time>2014-10-12T09:28:18Z</time>
      </trkpt>
      <trkpt lat="45.7998" lon="4.95732">
        <ele>181.8</ele>
        <time>2014-10-12T09:28:22Z</time>
      </trkpt>
      <trkpt lat="45.79978" lon="4.95723">
        <ele>181.8</ele>
        <time>2014-10-12T09:28:26Z</time>
      </trkpt>
      <trkpt lat="45.79977" lon="4.95716">
        <ele>181.8</ele>
        <time>2014-10-12T09:28:29Z</time>
      </trkpt>
      <trkpt lat="45.79976" lon="4.95712">
        <ele>181.8</ele>
        <time>2014-10-12T09:28:31Z</time>
      </trkpt>
      <trkpt lat="45.79974" lon="4.957">
        <ele>181.6</ele>
        <time>2014-10-12T09:28:36Z</time>
      </trkpt>
      <trkpt lat="45.79973" lon="4.9569">
        <ele>181.6</ele>
        <time>2014-10-12T09:28:40Z</time>
      </trkpt>
      <trkpt lat="45.79973" lon="4.95688">
        <ele>181.6</ele>
        <time>2014-10-12T09:28:41Z</time>
      </trkpt>
      <trkpt lat="45.79971" lon="4.95678">
        <ele>181.4</ele>
        <time>2014-10-12T09:28:45Z</time>
      </trkpt>
      <trkpt lat="45.7997" lon="4.95668">
        <ele>181.4</ele>
        <time>2014-10-12T09:28:49Z</time>
      </trkpt>
      <trkpt lat="45.79969" lon="4.95666">
        <ele>181.4</ele>
        <time>2014-10-12T09:28:50Z</time>
      </trkpt>
      <trkpt lat="45.79968" lon="4.95659">
        <ele>181.4</ele>
        <time>2014-10-12T09:28:53Z</time>
      </trkpt>
      <trkpt lat="45.79964" lon="4.95645">
        <ele>181.2</ele>
        <time>2014-10-12T09:28:58Z</time>
      </trkpt>
      <trkpt lat="45.79964" lon="4.95643">
        <ele>181.2</ele>
        <time>2014-10-12T09:29:00Z</time>
      </trkpt>
      <trkpt lat="45.79963" lon="4.95641">
        <ele>181.2</ele>
        <time>2014-10-12T09:29:01Z</time>
      </trkpt>
      <trkpt lat="45.79961" lon="4.95637">
        <ele>181.2</ele>
        <time>2014-10-12T09:29:03Z</time>
      </trkpt>
      <trkpt lat="45.79959" lon="4.95629">
        <ele>181</ele>
        <time>2014-10-12T09:29:07Z</time>
      </trkpt>
      <trkpt lat="45.79958" lon="4.95624">
        <ele>181</ele>
        <time>2014-10-12T09:29:09Z</time>
      </trkpt>
      <trkpt lat="45.79957" lon="4.95622">
        <ele>181</ele>
        <time>2014-10-12T09:29:10Z</time>
      </trkpt>
      <trkpt lat="45.79957" lon="4.95618">
        <ele>181</ele>
        <time>2014-10-12T09:29:12Z</time>
      </trkpt>
      <trkpt lat="45.79957" lon="4.95615">
        <ele>180.8</ele>
        <time>2014-10-12T09:29:13Z</time>
      </trkpt>
      <trkpt lat="45.79955" lon="4.95606">
        <ele>180.8</ele>
        <time>2014-10-12T09:29:17Z</time>
      </trkpt>
      <trkpt lat="45.79954" lon="4.95602">
        <ele>180.8</ele>
        <time>2014-10-12T09:29:19Z</time>
      </trkpt>
      <trkpt lat="45.79952" lon="4.95593">
        <ele>180.6</ele>
        <time>2014-10-12T09:29:23Z</time>
      </trkpt>
      <trkpt lat="45.79949" lon="4.95584">
        <ele>180.6</ele>
        <time>2014-10-12T09:29:27Z</time>
      </trkpt>
      <trkpt lat="45.79949" lon="4.95579">
        <ele>180.6</ele>
        <time>2014-10-12T09:29:29Z</time>
      </trkpt>
      <trkpt lat="45.79947" lon="4.9557">
        <ele>180.4</ele>
        <time>2014-10-12T09:29:33Z</time>
      </trkpt>
      <trkpt lat="45.79946" lon="4.95567">
        <ele>180.4</ele>
        <time>2014-10-12T09:29:34Z</time>
      </trkpt>
      <trkpt lat="45.79945" lon="4.9556">
        <ele>180.4</ele>
        <time>2014-10-12T09:29:37Z</time>
      </trkpt>
      <trkpt lat="45.79944" lon="4.95553">
        <ele>180.2</ele>
        <time>2014-10-12T09:29:40Z</time>
      </trkpt>
      <trkpt lat="45.79943" lon="4.95546">
        <ele>180.2</ele>
        <time>2014-10-12T09:29:43Z</time>
      </trkpt>
      <trkpt lat="45.79942" lon="4.95541">
        <ele>180.2</ele>
        <time>2014-10-12T09:29:45Z</time>
      </trkpt>
      <trkpt lat="45.79941" lon="4.95539">
        <ele>180.2</ele>
        <time>2014-10-12T09:29:46Z</time>
      </trkpt>
      <trkpt lat="45.79939" lon="4.95532">
        <ele>180.2</ele>
        <time>2014-10-12T09:29:49Z</time>
      </trkpt>
      <trkpt lat="45.79937" lon="4.95523">
        <ele>180.2</ele>
        <time>2014-10-12T09:29:53Z</time>
      </trkpt>
      <trkpt lat="45.79935" lon="4.95516">
        <ele>180</ele>
        <time>2014-10-12T09:29:56Z</time>
      </trkpt>
      <trkpt lat="45.79934" lon="4.95514">
        <ele>180</ele>
        <time>2014-10-12T09:29:57Z</time>
      </trkpt>
      <trkpt lat="45.79931" lon="4.95505">
        <ele>180</ele>
        <time>2014-10-12T09:30:01Z</time>
      </trkpt>
      <trkpt lat="45.79928" lon="4.95498">
        <ele>180</ele>
        <time>2014-10-12T09:30:04Z</time>
      </trkpt>
      <trkpt lat="45.79927" lon="4.95493">
        <ele>180</ele>
        <time>2014-10-12T09:30:06Z</time>
      </trkpt>
      <trkpt lat="45.79926" lon="4.95486">
        <ele>179.8</ele>
        <time>2014-10-12T09:30:08Z</time>
      </trkpt>
      <trkpt lat="45.79925" lon="4.95484">
        <ele>179.8</ele>
        <time>2014-10-12T09:30:10Z</time>
      </trkpt>
      <trkpt lat="45.79925" lon="4.95477">
        <ele>179.8</ele>
        <time>2014-10-12T09:30:13Z</time>
      </trkpt>
      <trkpt lat="45.79924" lon="4.95467">
        <ele>179.8</ele>
        <time>2014-10-12T09:30:17Z</time>
      </trkpt>
      <trkpt lat="45.79922" lon="4.9546">
        <ele>179.6</ele>
        <time>2014-10-12T09:30:20Z</time>
      </trkpt>
      <trkpt lat="45.79922" lon="4.95458">
        <ele>179.6</ele>
        <time>2014-10-12T09:30:21Z</time>
      </trkpt>
      <trkpt lat="45.7992" lon="4.95451">
        <ele>179.6</ele>
        <time>2014-10-12T09:30:24Z</time>
      </trkpt>
      <trkpt lat="45.79919" lon="4.95444">
        <ele>179.6</ele>
        <time>2014-10-12T09:30:27Z</time>
      </trkpt>
      <trkpt lat="45.79918" lon="4.95439">
        <ele>179.6</ele>
        <time>2014-10-12T09:30:29Z</time>
      </trkpt>
      <trkpt lat="45.79918" lon="4.95432">
        <ele>179.4</ele>
        <time>2014-10-12T09:30:32Z</time>
      </trkpt>
      <trkpt lat="45.79916" lon="4.95423">
        <ele>179.4</ele>
        <time>2014-10-12T09:30:36Z</time>
      </trkpt>
      <trkpt lat="45.79915" lon="4.95415">
        <ele>179.4</ele>
        <time>2014-10-12T09:30:39Z</time>
      </trkpt>
      <trkpt lat="45.79914" lon="4.95413">
        <ele>179.4</ele>
        <time>2014-10-12T09:30:40Z</time>
      </trkpt>
      <trkpt lat="45.79914" lon="4.95411">
        <ele>179.4</ele>
        <time>2014-10-12T09:30:41Z</time>
      </trkpt>
      <trkpt lat="45.79912" lon="4.95404">
        <ele>179.2</ele>
        <time>2014-10-12T09:30:44Z</time>
      </trkpt>
      <trkpt lat="45.79909" lon="4.95395">
        <ele>179.2</ele>
        <time>2014-10-12T09:30:48Z</time>
      </trkpt>
      <trkpt lat="45.79906" lon="4.95389">
        <ele>179.2</ele>
        <time>2014-10-12T09:30:51Z</time>
      </trkpt>
      <trkpt lat="45.79905" lon="4.95384">
        <ele>179</ele>
        <time>2014-10-12T09:30:53Z</time>
      </trkpt>
      <trkpt lat="45.79904" lon="4.95377">
        <ele>179</ele>
        <time>2014-10-12T09:30:56Z</time>
      </trkpt>
      <trkpt lat="45.79903" lon="4.95375">
        <ele>179</ele>
        <time>2014-10-12T09:30:57Z</time>
      </trkpt>
      <trkpt lat="45.79902" lon="4.95365">
        <ele>179</ele>
        <time>2014-10-12T09:31:01Z</time>
      </trkpt>
      <trkpt lat="45.79901" lon="4.95363">
        <ele>179</ele>
        <time>2014-10-12T09:31:02Z</time>
      </trkpt>
      <trkpt lat="45.79901" lon="4.95356">
        <ele>178.8</ele>
        <time>2014-10-12T09:31:05Z</time>
      </trkpt>
      <trkpt lat="45.799" lon="4.95349">
        <ele>178.8</ele>
        <time>2014-10-12T09:31:08Z</time>
      </trkpt>
      <trkpt lat="45.79899" lon="4.95346">
        <ele>178.8</ele>
        <time>2014-10-12T09:31:09Z</time>
      </trkpt>
      <trkpt lat="45.79898" lon="4.95337">
        <ele>178.6</ele>
        <time>2014-10-12T09:31:13Z</time>
      </trkpt>
      <trkpt lat="45.79896" lon="4.95328">
        <ele>178.6</ele>
        <time>2014-10-12T09:31:17Z</time>
      </trkpt>
      <trkpt lat="45.79895" lon="4.95312">
        <ele>178.6</ele>
        <time>2014-10-12T09:31:23Z</time>
      </trkpt>
      <trkpt lat="45.79895" lon="4.9531">
        <ele>178.6</ele>
        <time>2014-10-12T09:31:24Z</time>
      </trkpt>
      <trkpt lat="45.79895" lon="4.95308">
        <ele>178.6</ele>
        <time>2014-10-12T09:31:25Z</time>
      </trkpt>
      <trkpt lat="45.79895" lon="4.95303">
        <ele>178.4</ele>
        <time>2014-10-12T09:31:27Z</time>
      </trkpt>
      <trkpt lat="45.79893" lon="4.95291">
        <ele>178.4</ele>
        <time>2014-10-12T09:31:32Z</time>
      </trkpt>
      <trkpt lat="45.79893" lon="4.95284">
        <ele>178.4</ele>
        <time>2014-10-12T09:31:35Z</time>
      </trkpt>
      <trkpt lat="45.79892" lon="4.95282">
        <ele>178.4</ele>
        <time>2014-10-12T09:31:36Z</time>
      </trkpt>
      <trkpt lat="45.79892" lon="4.95275">
        <ele>178.4</ele>
        <time>2014-10-12T09:31:39Z</time>
      </trkpt>
      <trkpt lat="45.7989" lon="4.95265">
        <ele>178.4</ele>
        <time>2014-10-12T09:31:43Z</time>
      </trkpt>
      <trkpt lat="45.79889" lon="4.95258">
        <ele>178.4</ele>
        <time>2014-10-12T09:31:46Z</time>
      </trkpt>
      <trkpt lat="45.79889" lon="4.95256">
        <ele>178.4</ele>
        <time>2014-10-12T09:31:47Z</time>
      </trkpt>
      <trkpt lat="45.79889" lon="4.95248">
        <ele>178.4</ele>
        <time>2014-10-12T09:31:50Z</time>
      </trkpt>
      <trkpt lat="45.79889" lon="4.95246">
        <ele>178.4</ele>
        <time>2014-10-12T09:31:51Z</time>
      </trkpt>
      <trkpt lat="45.79889" lon="4.95236">
        <ele>178.4</ele>
        <time>2014-10-12T09:31:55Z</time>
      </trkpt>
      <trkpt lat="45.79889" lon="4.95231">
        <ele>178.2</ele>
        <time>2014-10-12T09:31:57Z</time>
      </trkpt>
      <trkpt lat="45.79889" lon="4.95226">
        <ele>178.2</ele>
        <time>2014-10-12T09:31:58Z</time>
      </trkpt>
      <trkpt lat="45.79889" lon="4.95226">
        <ele>178.2</ele>
        <time>2014-10-12T09:31:59Z</time>
      </trkpt>
      <trkpt lat="45.79889" lon="4.95224">
        <ele>178.2</ele>
        <time>2014-10-12T09:32:00Z</time>
      </trkpt>
      <trkpt lat="45.79889" lon="4.95216">
        <ele>178.2</ele>
        <time>2014-10-12T09:32:03Z</time>
      </trkpt>
      <trkpt lat="45.79888" lon="4.95206">
        <ele>178.2</ele>
        <time>2014-10-12T09:32:07Z</time>
      </trkpt>
      <trkpt lat="45.79887" lon="4.95194">
        <ele>178.2</ele>
        <time>2014-10-12T09:32:12Z</time>
      </trkpt>
      <trkpt lat="45.79886" lon="4.95189">
        <ele>178.2</ele>
        <time>2014-10-12T09:32:14Z</time>
      </trkpt>
      <trkpt lat="45.79885" lon="4.95184">
        <ele>178</ele>
        <time>2014-10-12T09:32:16Z</time>
      </trkpt>
      <trkpt lat="45.79883" lon="4.95176">
        <ele>178</ele>
        <time>2014-10-12T09:32:18Z</time>
      </trkpt>
      <trkpt lat="45.79883" lon="4.95176">
        <ele>178</ele>
        <time>2014-10-12T09:32:19Z</time>
      </trkpt>
      <trkpt lat="45.79882" lon="4.95171">
        <ele>178</ele>
        <time>2014-10-12T09:32:21Z</time>
      </trkpt>
      <trkpt lat="45.79881" lon="4.95162">
        <ele>178</ele>
        <time>2014-10-12T09:32:25Z</time>
      </trkpt>
      <trkpt lat="45.7988" lon="4.95152">
        <ele>178</ele>
        <time>2014-10-12T09:32:28Z</time>
      </trkpt>
      <trkpt lat="45.7988" lon="4.95152">
        <ele>178</ele>
        <time>2014-10-12T09:32:29Z</time>
      </trkpt>
      <trkpt lat="45.7988" lon="4.95144">
        <ele>178</ele>
        <time>2014-10-12T09:32:32Z</time>
      </trkpt>
      <trkpt lat="45.79879" lon="4.95135">
        <ele>177.8</ele>
        <time>2014-10-12T09:32:36Z</time>
      </trkpt>
      <trkpt lat="45.79879" lon="4.95128">
        <ele>177.8</ele>
        <time>2014-10-12T09:32:38Z</time>
      </trkpt>
      <trkpt lat="45.79879" lon="4.95125">
        <ele>177.8</ele>
        <time>2014-10-12T09:32:40Z</time>
      </trkpt>
      <trkpt lat="45.79879" lon="4.95121">
        <ele>177.8</ele>
        <time>2014-10-12T09:32:42Z</time>
      </trkpt>
      <trkpt lat="45.79878" lon="4.95108">
        <ele>177.8</ele>
        <time>2014-10-12T09:32:47Z</time>
      </trkpt>
      <trkpt lat="45.79877" lon="4.95104">
        <ele>177.8</ele>
        <time>2014-10-12T09:32:49Z</time>
      </trkpt>
      <trkpt lat="45.79876" lon="4.95099">
        <ele>177.8</ele>
        <time>2014-10-12T09:32:51Z</time>
      </trkpt>
      <trkpt lat="45.79875" lon="4.95095">
        <ele>177.6</ele>
        <time>2014-10-12T09:32:53Z</time>
      </trkpt>
      <trkpt lat="45.79871" lon="4.95086">
        <ele>177.6</ele>
        <time>2014-10-12T09:32:57Z</time>
      </trkpt>
      <trkpt lat="45.79869" lon="4.95083">
        <ele>177.6</ele>
        <time>2014-10-12T09:32:59Z</time>
      </trkpt>
      <trkpt lat="45.79868" lon="4.95081">
        <ele>177.6</ele>
        <time>2014-10-12T09:33:00Z</time>
      </trkpt>
      <trkpt lat="45.79866" lon="4.95077">
        <ele>177.6</ele>
        <time>2014-10-12T09:33:02Z</time>
      </trkpt>
      <trkpt lat="45.79865" lon="4.95075">
        <ele>177.6</ele>
        <time>2014-10-12T09:33:03Z</time>
      </trkpt>
      <trkpt lat="45.79861" lon="4.95067">
        <ele>177.6</ele>
        <time>2014-10-12T09:33:07Z</time>
      </trkpt>
      <trkpt lat="45.79859" lon="4.95064">
        <ele>177.6</ele>
        <time>2014-10-12T09:33:08Z</time>
      </trkpt>
      <trkpt lat="45.79857" lon="4.95062">
        <ele>177.6</ele>
        <time>2014-10-12T09:33:10Z</time>
      </trkpt>
      <trkpt lat="45.79854" lon="4.95057">
        <ele>177.6</ele>
        <time>2014-10-12T09:33:13Z</time>
      </trkpt>
      <trkpt lat="45.79853" lon="4.95055">
        <ele>177.6</ele>
        <time>2014-10-12T09:33:14Z</time>
      </trkpt>
      <trkpt lat="45.79852" lon="4.95053">
        <ele>177.6</ele>
        <time>2014-10-12T09:33:15Z</time>
      </trkpt>
      <trkpt lat="45.79847" lon="4.95046">
        <ele>177.6</ele>
        <time>2014-10-12T09:33:20Z</time>
      </trkpt>
      <trkpt lat="45.79845" lon="4.95039">
        <ele>177.8</ele>
        <time>2014-10-12T09:33:24Z</time>
      </trkpt>
      <trkpt lat="45.79846" lon="4.95036">
        <ele>177.8</ele>
        <time>2014-10-12T09:33:26Z</time>
      </trkpt>
      <trkpt lat="45.79845" lon="4.95029">
        <ele>177.8</ele>
        <time>2014-10-12T09:33:28Z</time>
      </trkpt>
      <trkpt lat="45.79846" lon="4.95022">
        <ele>177.8</ele>
        <time>2014-10-12T09:33:32Z</time>
      </trkpt>
      <trkpt lat="45.79848" lon="4.95007">
        <ele>177.8</ele>
        <time>2014-10-12T09:33:38Z</time>
      </trkpt>
      <trkpt lat="45.79849" lon="4.95004">
        <ele>178</ele>
        <time>2014-10-12T09:33:40Z</time>
      </trkpt>
      <trkpt lat="45.79855" lon="4.9499">
        <ele>177.8</ele>
        <time>2014-10-12T09:33:47Z</time>
      </trkpt>
      <trkpt lat="45.79857" lon="4.94987">
        <ele>177.8</ele>
        <time>2014-10-12T09:33:49Z</time>
      </trkpt>
      <trkpt lat="45.79863" lon="4.94978">
        <ele>177.8</ele>
        <time>2014-10-12T09:33:55Z</time>
      </trkpt>
      <trkpt lat="45.79872" lon="4.94968">
        <ele>177.6</ele>
        <time>2014-10-12T09:34:01Z</time>
      </trkpt>
      <trkpt lat="45.79873" lon="4.94966">
        <ele>177.6</ele>
        <time>2014-10-12T09:34:02Z</time>
      </trkpt>
      <trkpt lat="45.79876" lon="4.94965">
        <ele>177.4</ele>
        <time>2014-10-12T09:34:07Z</time>
      </trkpt>
      <trkpt lat="45.79883" lon="4.94964">
        <ele>177.4</ele>
        <time>2014-10-12T09:34:13Z</time>
      </trkpt>
      <trkpt lat="45.79887" lon="4.9496">
        <ele>177.4</ele>
        <time>2014-10-12T09:34:18Z</time>
      </trkpt>
      <trkpt lat="45.79889" lon="4.94959">
        <ele>177.4</ele>
        <time>2014-10-12T09:34:20Z</time>
      </trkpt>
      <trkpt lat="45.79891" lon="4.94959">
        <ele>177.2</ele>
        <time>2014-10-12T09:34:22Z</time>
      </trkpt>
      <trkpt lat="45.79896" lon="4.94958">
        <ele>177.2</ele>
        <time>2014-10-12T09:34:26Z</time>
      </trkpt>
      <trkpt lat="45.79897" lon="4.94958">
        <ele>177.2</ele>
        <time>2014-10-12T09:34:27Z</time>
      </trkpt>
      <trkpt lat="45.79905" lon="4.94957">
        <ele>177.2</ele>
        <time>2014-10-12T09:34:32Z</time>
      </trkpt>
      <trkpt lat="45.79908" lon="4.94956">
        <ele>177.2</ele>
        <time>2014-10-12T09:34:34Z</time>
      </trkpt>
      <trkpt lat="45.79911" lon="4.94952">
        <ele>177.2</ele>
        <time>2014-10-12T09:34:37Z</time>
      </trkpt>
      <trkpt lat="45.79915" lon="4.9495">
        <ele>177.2</ele>
        <time>2014-10-12T09:34:39Z</time>
      </trkpt>
      <trkpt lat="45.79916" lon="4.94948">
        <ele>177</ele>
        <time>2014-10-12T09:34:40Z</time>
      </trkpt>
      <trkpt lat="45.79923" lon="4.94942">
        <ele>177</ele>
        <time>2014-10-12T09:34:45Z</time>
      </trkpt>
      <trkpt lat="45.79924" lon="4.94941">
        <ele>177</ele>
        <time>2014-10-12T09:34:46Z</time>
      </trkpt>
      <trkpt lat="45.79929" lon="4.94935">
        <ele>176.8</ele>
        <time>2014-10-12T09:34:50Z</time>
      </trkpt>
      <trkpt lat="45.79934" lon="4.9493">
        <ele>176.8</ele>
        <time>2014-10-12T09:34:54Z</time>
      </trkpt>
      <trkpt lat="45.79938" lon="4.94926">
        <ele>176.8</ele>
        <time>2014-10-12T09:34:57Z</time>
      </trkpt>
      <trkpt lat="45.79939" lon="4.94925">
        <ele>176.8</ele>
        <time>2014-10-12T09:34:58Z</time>
      </trkpt>
      <trkpt lat="45.79945" lon="4.9492">
        <ele>176.8</ele>
        <time>2014-10-12T09:35:02Z</time>
      </trkpt>
      <trkpt lat="45.79952" lon="4.94912">
        <ele>176.8</ele>
        <time>2014-10-12T09:35:08Z</time>
      </trkpt>
      <trkpt lat="45.79953" lon="4.9491">
        <ele>177</ele>
        <time>2014-10-12T09:35:09Z</time>
      </trkpt>
      <trkpt lat="45.7996" lon="4.94903">
        <ele>177.2</ele>
        <time>2014-10-12T09:35:14Z</time>
      </trkpt>
      <trkpt lat="45.79964" lon="4.94896">
        <ele>177.4</ele>
        <time>2014-10-12T09:35:18Z</time>
      </trkpt>
      <trkpt lat="45.79966" lon="4.94892">
        <ele>177.4</ele>
        <time>2014-10-12T09:35:20Z</time>
      </trkpt>
      <trkpt lat="45.79968" lon="4.94888">
        <ele>177.6</ele>
        <time>2014-10-12T09:35:22Z</time>
      </trkpt>
      <trkpt lat="45.79973" lon="4.9488">
        <ele>177.8</ele>
        <time>2014-10-12T09:35:27Z</time>
      </trkpt>
      <trkpt lat="45.79977" lon="4.94872">
        <ele>177.8</ele>
        <time>2014-10-12T09:35:31Z</time>
      </trkpt>
      <trkpt lat="45.79979" lon="4.9487">
        <ele>177.8</ele>
        <time>2014-10-12T09:35:32Z</time>
      </trkpt>
      <trkpt lat="45.79982" lon="4.94865">
        <ele>178</ele>
        <time>2014-10-12T09:35:35Z</time>
      </trkpt>
      <trkpt lat="45.79986" lon="4.94857">
        <ele>178</ele>
        <time>2014-10-12T09:35:39Z</time>
      </trkpt>
      <trkpt lat="45.79989" lon="4.94852">
        <ele>178</ele>
        <time>2014-10-12T09:35:42Z</time>
      </trkpt>
      <trkpt lat="45.79994" lon="4.94845">
        <ele>178.2</ele>
        <time>2014-10-12T09:35:46Z</time>
      </trkpt>
      <trkpt lat="45.8" lon="4.94836">
        <ele>178.2</ele>
        <time>2014-10-12T09:35:51Z</time>
      </trkpt>
      <trkpt lat="45.80002" lon="4.94833">
        <ele>178.2</ele>
        <time>2014-10-12T09:35:53Z</time>
      </trkpt>
      <trkpt lat="45.80005" lon="4.94829">
        <ele>178.2</ele>
        <time>2014-10-12T09:35:55Z</time>
      </trkpt>
      <trkpt lat="45.8001" lon="4.94823">
        <ele>178.2</ele>
        <time>2014-10-12T09:35:59Z</time>
      </trkpt>
      <trkpt lat="45.80015" lon="4.94816">
        <ele>178.4</ele>
        <time>2014-10-12T09:36:03Z</time>
      </trkpt>
      <trkpt lat="45.80016" lon="4.94815">
        <ele>178.4</ele>
        <time>2014-10-12T09:36:04Z</time>
      </trkpt>
      <trkpt lat="45.80019" lon="4.94809">
        <ele>178.4</ele>
        <time>2014-10-12T09:36:07Z</time>
      </trkpt>
      <trkpt lat="45.80024" lon="4.94803">
        <ele>178.4</ele>
        <time>2014-10-12T09:36:11Z</time>
      </trkpt>
      <trkpt lat="45.80025" lon="4.94801">
        <ele>178.4</ele>
        <time>2014-10-12T09:36:12Z</time>
      </trkpt>
      <trkpt lat="45.80029" lon="4.94796">
        <ele>178.4</ele>
        <time>2014-10-12T09:36:15Z</time>
      </trkpt>
      <trkpt lat="45.8003" lon="4.94795">
        <ele>178.4</ele>
        <time>2014-10-12T09:36:16Z</time>
      </trkpt>
      <trkpt lat="45.80035" lon="4.94789">
        <ele>178.4</ele>
        <time>2014-10-12T09:36:20Z</time>
      </trkpt>
      <trkpt lat="45.8004" lon="4.94782">
        <ele>178.4</ele>
        <time>2014-10-12T09:36:24Z</time>
      </trkpt>
      <trkpt lat="45.80042" lon="4.94781">
        <ele>178.4</ele>
        <time>2014-10-12T09:36:25Z</time>
      </trkpt>
      <trkpt lat="45.80043" lon="4.94779">
        <ele>178.2</ele>
        <time>2014-10-12T09:36:26Z</time>
      </trkpt>
      <trkpt lat="45.80047" lon="4.94774">
        <ele>178.2</ele>
        <time>2014-10-12T09:36:29Z</time>
      </trkpt>
      <trkpt lat="45.80051" lon="4.94769">
        <ele>178.2</ele>
        <time>2014-10-12T09:36:32Z</time>
      </trkpt>
      <trkpt lat="45.80056" lon="4.94762">
        <ele>178.2</ele>
        <time>2014-10-12T09:36:36Z</time>
      </trkpt>
      <trkpt lat="45.80058" lon="4.94759">
        <ele>178.2</ele>
        <time>2014-10-12T09:36:38Z</time>
      </trkpt>
      <trkpt lat="45.8006" lon="4.94755">
        <ele>178.2</ele>
        <time>2014-10-12T09:36:40Z</time>
      </trkpt>
      <trkpt lat="45.80065" lon="4.94745">
        <ele>178</ele>
        <time>2014-10-12T09:36:45Z</time>
      </trkpt>
      <trkpt lat="45.80067" lon="4.94742">
        <ele>178</ele>
        <time>2014-10-12T09:36:47Z</time>
      </trkpt>
      <trkpt lat="45.80071" lon="4.94738">
        <ele>178</ele>
        <time>2014-10-12T09:36:50Z</time>
      </trkpt>
      <trkpt lat="45.80076" lon="4.94732">
        <ele>178</ele>
        <time>2014-10-12T09:36:54Z</time>
      </trkpt>
      <trkpt lat="45.80082" lon="4.94725">
        <ele>178</ele>
        <time>2014-10-12T09:36:58Z</time>
      </trkpt>
      <trkpt lat="45.80088" lon="4.94719">
        <ele>177.8</ele>
        <time>2014-10-12T09:37:03Z</time>
      </trkpt>
      <trkpt lat="45.80094" lon="4.94711">
        <ele>177.8</ele>
        <time>2014-10-12T09:37:08Z</time>
      </trkpt>
      <trkpt lat="45.80095" lon="4.94709">
        <ele>177.8</ele>
        <time>2014-10-12T09:37:09Z</time>
      </trkpt>
      <trkpt lat="45.80099" lon="4.94704">
        <ele>177.8</ele>
        <time>2014-10-12T09:37:12Z</time>
      </trkpt>
      <trkpt lat="45.80101" lon="4.947">
        <ele>177.8</ele>
        <time>2014-10-12T09:37:14Z</time>
      </trkpt>
      <trkpt lat="45.80102" lon="4.94698">
        <ele>177.8</ele>
        <time>2014-10-12T09:37:15Z</time>
      </trkpt>
      <trkpt lat="45.80106" lon="4.9469">
        <ele>177.8</ele>
        <time>2014-10-12T09:37:19Z</time>
      </trkpt>
      <trkpt lat="45.80107" lon="4.94688">
        <ele>177.8</ele>
        <time>2014-10-12T09:37:20Z</time>
      </trkpt>
      <trkpt lat="45.80109" lon="4.94687">
        <ele>177.8</ele>
        <time>2014-10-12T09:37:21Z</time>
      </trkpt>
      <trkpt lat="45.80111" lon="4.94684">
        <ele>177.8</ele>
        <time>2014-10-12T09:37:23Z</time>
      </trkpt>
      <trkpt lat="45.80116" lon="4.94678">
        <ele>177.8</ele>
        <time>2014-10-12T09:37:27Z</time>
      </trkpt>
      <trkpt lat="45.80121" lon="4.94672">
        <ele>177.6</ele>
        <time>2014-10-12T09:37:31Z</time>
      </trkpt>
      <trkpt lat="45.80125" lon="4.94665">
        <ele>177.6</ele>
        <time>2014-10-12T09:37:35Z</time>
      </trkpt>
      <trkpt lat="45.80129" lon="4.94658">
        <ele>177.6</ele>
        <time>2014-10-12T09:37:39Z</time>
      </trkpt>
      <trkpt lat="45.80131" lon="4.94654">
        <ele>177.6</ele>
        <time>2014-10-12T09:37:41Z</time>
      </trkpt>
      <trkpt lat="45.80132" lon="4.94652">
        <ele>177.6</ele>
        <time>2014-10-12T09:37:42Z</time>
      </trkpt>
      <trkpt lat="45.80134" lon="4.94649">
        <ele>177.6</ele>
        <time>2014-10-12T09:37:44Z</time>
      </trkpt>
      <trkpt lat="45.8014" lon="4.94641">
        <ele>177.6</ele>
        <time>2014-10-12T09:37:49Z</time>
      </trkpt>
      <trkpt lat="45.80145" lon="4.94634">
        <ele>177.6</ele>
        <time>2014-10-12T09:37:53Z</time>
      </trkpt>
      <trkpt lat="45.80146" lon="4.94633">
        <ele>177.6</ele>
        <time>2014-10-12T09:37:54Z</time>
      </trkpt>
      <trkpt lat="45.80149" lon="4.94627">
        <ele>177.4</ele>
        <time>2014-10-12T09:37:57Z</time>
      </trkpt>
      <trkpt lat="45.80152" lon="4.94619">
        <ele>177.4</ele>
        <time>2014-10-12T09:38:01Z</time>
      </trkpt>
      <trkpt lat="45.80156" lon="4.94611">
        <ele>177.6</ele>
        <time>2014-10-12T09:38:05Z</time>
      </trkpt>
      <trkpt lat="45.80157" lon="4.94609">
        <ele>177.6</ele>
        <time>2014-10-12T09:38:06Z</time>
      </trkpt>
      <trkpt lat="45.8016" lon="4.946">
        <ele>177.6</ele>
        <time>2014-10-12T09:38:10Z</time>
      </trkpt>
      <trkpt lat="45.80163" lon="4.94592">
        <ele>177.6</ele>
        <time>2014-10-12T09:38:14Z</time>
      </trkpt>
      <trkpt lat="45.80165" lon="4.94587">
        <ele>177.6</ele>
        <time>2014-10-12T09:38:16Z</time>
      </trkpt>
      <trkpt lat="45.80167" lon="4.94584">
        <ele>177.6</ele>
        <time>2014-10-12T09:38:18Z</time>
      </trkpt>
      <trkpt lat="45.8017" lon="4.94576">
        <ele>177.8</ele>
        <time>2014-10-12T09:38:22Z</time>
      </trkpt>
      <trkpt lat="45.80173" lon="4.9457">
        <ele>177.8</ele>
        <time>2014-10-12T09:38:25Z</time>
      </trkpt>
      <trkpt lat="45.80173" lon="4.94568">
        <ele>177.8</ele>
        <time>2014-10-12T09:38:26Z</time>
      </trkpt>
      <trkpt lat="45.80175" lon="4.94564">
        <ele>177.8</ele>
        <time>2014-10-12T09:38:28Z</time>
      </trkpt>
      <trkpt lat="45.80176" lon="4.9456">
        <ele>177.8</ele>
        <time>2014-10-12T09:38:30Z</time>
      </trkpt>
      <trkpt lat="45.80178" lon="4.94551">
        <ele>177.8</ele>
        <time>2014-10-12T09:38:34Z</time>
      </trkpt>
      <trkpt lat="45.8018" lon="4.94542">
        <ele>177.8</ele>
        <time>2014-10-12T09:38:38Z</time>
      </trkpt>
      <trkpt lat="45.8018" lon="4.9454">
        <ele>177.8</ele>
        <time>2014-10-12T09:38:39Z</time>
      </trkpt>
      <trkpt lat="45.8018" lon="4.94533">
        <ele>177.8</ele>
        <time>2014-10-12T09:38:42Z</time>
      </trkpt>
      <trkpt lat="45.80181" lon="4.94528">
        <ele>177.8</ele>
        <time>2014-10-12T09:38:44Z</time>
      </trkpt>
      <trkpt lat="45.80181" lon="4.94523">
        <ele>177.8</ele>
        <time>2014-10-12T09:38:46Z</time>
      </trkpt>
      <trkpt lat="45.8018" lon="4.94519">
        <ele>177.8</ele>
        <time>2014-10-12T09:38:48Z</time>
      </trkpt>
      <trkpt lat="45.8018" lon="4.94514">
        <ele>177.8</ele>
        <time>2014-10-12T09:38:50Z</time>
      </trkpt>
      <trkpt lat="45.8018" lon="4.94512">
        <ele>177.8</ele>
        <time>2014-10-12T09:38:51Z</time>
      </trkpt>
      <trkpt lat="45.80179" lon="4.94504">
        <ele>177.8</ele>
        <time>2014-10-12T09:38:54Z</time>
      </trkpt>
      <trkpt lat="45.80178" lon="4.94497">
        <ele>177.8</ele>
        <time>2014-10-12T09:38:57Z</time>
      </trkpt>
      <trkpt lat="45.80178" lon="4.9449">
        <ele>177.8</ele>
        <time>2014-10-12T09:39:00Z</time>
      </trkpt>
      <trkpt lat="45.80177" lon="4.94487">
        <ele>177.8</ele>
        <time>2014-10-12T09:39:01Z</time>
      </trkpt>
      <trkpt lat="45.80177" lon="4.9448">
        <ele>177.8</ele>
        <time>2014-10-12T09:39:04Z</time>
      </trkpt>
      <trkpt lat="45.80175" lon="4.94468">
        <ele>177.6</ele>
        <time>2014-10-12T09:39:09Z</time>
      </trkpt>
      <trkpt lat="45.80174" lon="4.94461">
        <ele>177.6</ele>
        <time>2014-10-12T09:39:12Z</time>
      </trkpt>
      <trkpt lat="45.80174" lon="4.94459">
        <ele>177.6</ele>
        <time>2014-10-12T09:39:13Z</time>
      </trkpt>
      <trkpt lat="45.80173" lon="4.94452">
        <ele>177.6</ele>
        <time>2014-10-12T09:39:16Z</time>
      </trkpt>
      <trkpt lat="45.80172" lon="4.94445">
        <ele>177.6</ele>
        <time>2014-10-12T09:39:19Z</time>
      </trkpt>
      <trkpt lat="45.80171" lon="4.94442">
        <ele>177.6</ele>
        <time>2014-10-12T09:39:20Z</time>
      </trkpt>
      <trkpt lat="45.80171" lon="4.94435">
        <ele>177.6</ele>
        <time>2014-10-12T09:39:23Z</time>
      </trkpt>
      <trkpt lat="45.8017" lon="4.94425">
        <ele>177.6</ele>
        <time>2014-10-12T09:39:27Z</time>
      </trkpt>
      <trkpt lat="45.80171" lon="4.94413">
        <ele>177.6</ele>
        <time>2014-10-12T09:39:32Z</time>
      </trkpt>
      <trkpt lat="45.80171" lon="4.94408">
        <ele>177.6</ele>
        <time>2014-10-12T09:39:34Z</time>
      </trkpt>
      <trkpt lat="45.80171" lon="4.944">
        <ele>177.6</ele>
        <time>2014-10-12T09:39:37Z</time>
      </trkpt>
      <trkpt lat="45.80169" lon="4.9439">
        <ele>177.6</ele>
        <time>2014-10-12T09:39:41Z</time>
      </trkpt>
      <trkpt lat="45.80168" lon="4.94383">
        <ele>177.6</ele>
        <time>2014-10-12T09:39:44Z</time>
      </trkpt>
      <trkpt lat="45.80167" lon="4.9438">
        <ele>177.6</ele>
        <time>2014-10-12T09:39:45Z</time>
      </trkpt>
      <trkpt lat="45.80167" lon="4.94378">
        <ele>177.6</ele>
        <time>2014-10-12T09:39:46Z</time>
      </trkpt>
      <trkpt lat="45.80166" lon="4.94376">
        <ele>177.6</ele>
        <time>2014-10-12T09:39:47Z</time>
      </trkpt>
      <trkpt lat="45.80165" lon="4.94369">
        <ele>177.6</ele>
        <time>2014-10-12T09:39:50Z</time>
      </trkpt>
      <trkpt lat="45.80165" lon="4.94363">
        <ele>177.6</ele>
        <time>2014-10-12T09:39:53Z</time>
      </trkpt>
      <trkpt lat="45.80165" lon="4.94361">
        <ele>177.6</ele>
        <time>2014-10-12T09:39:54Z</time>
      </trkpt>
      <trkpt lat="45.80165" lon="4.94356">
        <ele>177.6</ele>
        <time>2014-10-12T09:39:56Z</time>
      </trkpt>
      <trkpt lat="45.80165" lon="4.94351">
        <ele>177.6</ele>
        <time>2014-10-12T09:39:58Z</time>
      </trkpt>
      <trkpt lat="45.80166" lon="4.94342">
        <ele>177.6</ele>
        <time>2014-10-12T09:40:02Z</time>
      </trkpt>
      <trkpt lat="45.80166" lon="4.94334">
        <ele>177.6</ele>
        <time>2014-10-12T09:40:05Z</time>
      </trkpt>
      <trkpt lat="45.80166" lon="4.9433">
        <ele>177.6</ele>
        <time>2014-10-12T09:40:07Z</time>
      </trkpt>
      <trkpt lat="45.80166" lon="4.94322">
        <ele>177.6</ele>
        <time>2014-10-12T09:40:10Z</time>
      </trkpt>
      <trkpt lat="45.80166" lon="4.94315">
        <ele>177.6</ele>
        <time>2014-10-12T09:40:13Z</time>
      </trkpt>
      <trkpt lat="45.80166" lon="4.94307">
        <ele>177.6</ele>
        <time>2014-10-12T09:40:16Z</time>
      </trkpt>
      <trkpt lat="45.80166" lon="4.94302">
        <ele>177.6</ele>
        <time>2014-10-12T09:40:18Z</time>
      </trkpt>
      <trkpt lat="45.80166" lon="4.94297">
        <ele>177.6</ele>
        <time>2014-10-12T09:40:20Z</time>
      </trkpt>
      <trkpt lat="45.80165" lon="4.94292">
        <ele>177.4</ele>
        <time>2014-10-12T09:40:22Z</time>
      </trkpt>
      <trkpt lat="45.80165" lon="4.94287">
        <ele>177.4</ele>
        <time>2014-10-12T09:40:24Z</time>
      </trkpt>
      <trkpt lat="45.80164" lon="4.94278">
        <ele>177.4</ele>
        <time>2014-10-12T09:40:28Z</time>
      </trkpt>
      <trkpt lat="45.80163" lon="4.94275">
        <ele>177.4</ele>
        <time>2014-10-12T09:40:29Z</time>
      </trkpt>
      <trkpt lat="45.80163" lon="4.94268">
        <ele>177.4</ele>
        <time>2014-10-12T09:40:32Z</time>
      </trkpt>
      <trkpt lat="45.80161" lon="4.94256">
        <ele>177.4</ele>
        <time>2014-10-12T09:40:37Z</time>
      </trkpt>
      <trkpt lat="45.8016" lon="4.94248">
        <ele>177.4</ele>
        <time>2014-10-12T09:40:40Z</time>
      </trkpt>
      <trkpt lat="45.8016" lon="4.94246">
        <ele>177.4</ele>
        <time>2014-10-12T09:40:41Z</time>
      </trkpt>
      <trkpt lat="45.80159" lon="4.94239">
        <ele>177.4</ele>
        <time>2014-10-12T09:40:44Z</time>
      </trkpt>
      <trkpt lat="45.80157" lon="4.94229">
        <ele>177.2</ele>
        <time>2014-10-12T09:40:48Z</time>
      </trkpt>
      <trkpt lat="45.80156" lon="4.94222">
        <ele>177.2</ele>
        <time>2014-10-12T09:40:51Z</time>
      </trkpt>
      <trkpt lat="45.80156" lon="4.94219">
        <ele>177.2</ele>
        <time>2014-10-12T09:40:52Z</time>
      </trkpt>
      <trkpt lat="45.80158" lon="4.94213">
        <ele>177.2</ele>
        <time>2014-10-12T09:40:56Z</time>
      </trkpt>
      <trkpt lat="45.80158" lon="4.94212">
        <ele>177.2</ele>
        <time>2014-10-12T09:40:57Z</time>
      </trkpt>
      <trkpt lat="45.80157" lon="4.94212">
        <ele>177.2</ele>
        <time>2014-10-12T09:41:02Z</time>
      </trkpt>
      <trkpt lat="45.80156" lon="4.94209">
        <ele>177.2</ele>
        <time>2014-10-12T09:41:06Z</time>
      </trkpt>
      <trkpt lat="45.80156" lon="4.94206">
        <ele>177.2</ele>
        <time>2014-10-12T09:41:10Z</time>
      </trkpt>
      <trkpt lat="45.80157" lon="4.94207">
        <ele>177.2</ele>
        <time>2014-10-12T09:41:16Z</time>
      </trkpt>
      <trkpt lat="45.80159" lon="4.94202">
        <ele>177.2</ele>
        <time>2014-10-12T09:41:21Z</time>
      </trkpt>
      <trkpt lat="45.80162" lon="4.94186">
        <ele>177</ele>
        <time>2014-10-12T09:41:29Z</time>
      </trkpt>
      <trkpt lat="45.80163" lon="4.94184">
        <ele>177.2</ele>
        <time>2014-10-12T09:41:30Z</time>
      </trkpt>
      <trkpt lat="45.80166" lon="4.94179">
        <ele>177.2</ele>
        <time>2014-10-12T09:41:32Z</time>
      </trkpt>
      <trkpt lat="45.80167" lon="4.94176">
        <ele>177.2</ele>
        <time>2014-10-12T09:41:33Z</time>
      </trkpt>
      <trkpt lat="45.80165" lon="4.94165">
        <ele>177.2</ele>
        <time>2014-10-12T09:41:37Z</time>
      </trkpt>
      <trkpt lat="45.80159" lon="4.94159">
        <ele>177.2</ele>
        <time>2014-10-12T09:41:40Z</time>
      </trkpt>
      <trkpt lat="45.80153" lon="4.94155">
        <ele>177.2</ele>
        <time>2014-10-12T09:41:42Z</time>
      </trkpt>
      <trkpt lat="45.80146" lon="4.94141">
        <ele>177.6</ele>
        <time>2014-10-12T09:41:46Z</time>
      </trkpt>
      <trkpt lat="45.80144" lon="4.94138">
        <ele>177.6</ele>
        <time>2014-10-12T09:41:47Z</time>
      </trkpt>
      <trkpt lat="45.80137" lon="4.9412">
        <ele>178</ele>
        <time>2014-10-12T09:41:52Z</time>
      </trkpt>
      <trkpt lat="45.80135" lon="4.94117">
        <ele>178</ele>
        <time>2014-10-12T09:41:53Z</time>
      </trkpt>
      <trkpt lat="45.80129" lon="4.94104">
        <ele>178.6</ele>
        <time>2014-10-12T09:41:57Z</time>
      </trkpt>
      <trkpt lat="45.80123" lon="4.94097">
        <ele>178.8</ele>
        <time>2014-10-12T09:41:59Z</time>
      </trkpt>
      <trkpt lat="45.80118" lon="4.94092">
        <ele>178.8</ele>
        <time>2014-10-12T09:42:01Z</time>
      </trkpt>
      <trkpt lat="45.80109" lon="4.9408">
        <ele>179.4</ele>
        <time>2014-10-12T09:42:06Z</time>
      </trkpt>
      <trkpt lat="45.80108" lon="4.94079">
        <ele>179.4</ele>
        <time>2014-10-12T09:42:07Z</time>
      </trkpt>
      <trkpt lat="45.80106" lon="4.94074">
        <ele>179.8</ele>
        <time>2014-10-12T09:42:10Z</time>
      </trkpt>
      <trkpt lat="45.80105" lon="4.94072">
        <ele>179.8</ele>
        <time>2014-10-12T09:42:11Z</time>
      </trkpt>
      <trkpt lat="45.80099" lon="4.94058">
        <ele>180.8</ele>
        <time>2014-10-12T09:42:18Z</time>
      </trkpt>
      <trkpt lat="45.80099" lon="4.94056">
        <ele>180.8</ele>
        <time>2014-10-12T09:42:19Z</time>
      </trkpt>
      <trkpt lat="45.80099" lon="4.94051">
        <ele>181.2</ele>
        <time>2014-10-12T09:42:24Z</time>
      </trkpt>
      <trkpt lat="45.80101" lon="4.94053">
        <ele>181.6</ele>
        <time>2014-10-12T09:42:31Z</time>
      </trkpt>
      <trkpt lat="45.80101" lon="4.94054">
        <ele>182.6</ele>
        <time>2014-10-12T09:42:40Z</time>
      </trkpt>
      <trkpt lat="45.801" lon="4.94056">
        <ele>182.8</ele>
        <time>2014-10-12T09:42:41Z</time>
      </trkpt>
      <trkpt lat="45.80096" lon="4.94057">
        <ele>183</ele>
        <time>2014-10-12T09:42:44Z</time>
      </trkpt>
      <trkpt lat="45.80091" lon="4.94055">
        <ele>183.2</ele>
        <time>2014-10-12T09:42:46Z</time>
      </trkpt>
      <trkpt lat="45.80091" lon="4.94055">
        <ele>183.2</ele>
        <time>2014-10-12T09:42:47Z</time>
      </trkpt>
      <trkpt lat="45.80085" lon="4.94052">
        <ele>183.4</ele>
        <time>2014-10-12T09:42:50Z</time>
      </trkpt>
      <trkpt lat="45.80074" lon="4.94047">
        <ele>183.4</ele>
        <time>2014-10-12T09:42:54Z</time>
      </trkpt>
      <trkpt lat="45.80066" lon="4.94044">
        <ele>183.6</ele>
        <time>2014-10-12T09:42:57Z</time>
      </trkpt>
      <trkpt lat="45.80054" lon="4.9404">
        <ele>183.6</ele>
        <time>2014-10-12T09:43:01Z</time>
      </trkpt>
      <trkpt lat="45.8005" lon="4.94037">
        <ele>183.8</ele>
        <time>2014-10-12T09:43:04Z</time>
      </trkpt>
      <trkpt lat="45.80049" lon="4.94037">
        <ele>184.6</ele>
        <time>2014-10-12T09:43:17Z</time>
      </trkpt>
      <trkpt lat="45.80046" lon="4.94035">
        <ele>185.2</ele>
        <time>2014-10-12T09:43:20Z</time>
      </trkpt>
      <trkpt lat="45.80046" lon="4.94036">
        <ele>185.2</ele>
        <time>2014-10-12T09:43:21Z</time>
      </trkpt>
      <trkpt lat="45.80043" lon="4.94034">
        <ele>185.6</ele>
        <time>2014-10-12T09:43:24Z</time>
      </trkpt>
      <trkpt lat="45.80041" lon="4.94028">
        <ele>188.2</ele>
        <time>2014-10-12T09:43:47Z</time>
      </trkpt>
      <trkpt lat="45.80038" lon="4.94015">
        <ele>188.2</ele>
        <time>2014-10-12T09:43:50Z</time>
      </trkpt>
      <trkpt lat="45.80034" lon="4.94004">
        <ele>188</ele>
        <time>2014-10-12T09:43:52Z</time>
      </trkpt>
      <trkpt lat="45.80025" lon="4.93989">
        <ele>188</ele>
        <time>2014-10-12T09:43:55Z</time>
      </trkpt>
      <trkpt lat="45.80021" lon="4.93985">
        <ele>188</ele>
        <time>2014-10-12T09:43:56Z</time>
      </trkpt>
      <trkpt lat="45.80011" lon="4.93982">
        <ele>187.8</ele>
        <time>2014-10-12T09:43:58Z</time>
      </trkpt>
      <trkpt lat="45.80001" lon="4.93985">
        <ele>187.8</ele>
        <time>2014-10-12T09:44:00Z</time>
      </trkpt>
      <trkpt lat="45.79992" lon="4.9399">
        <ele>187.6</ele>
        <time>2014-10-12T09:44:02Z</time>
      </trkpt>
      <trkpt lat="45.79982" lon="4.93994">
        <ele>187.6</ele>
        <time>2014-10-12T09:44:04Z</time>
      </trkpt>
      <trkpt lat="45.79963" lon="4.94002">
        <ele>187.6</ele>
        <time>2014-10-12T09:44:08Z</time>
      </trkpt>
      <trkpt lat="45.79953" lon="4.94005">
        <ele>187.4</ele>
        <time>2014-10-12T09:44:10Z</time>
      </trkpt>
      <trkpt lat="45.79944" lon="4.94009">
        <ele>187.4</ele>
        <time>2014-10-12T09:44:12Z</time>
      </trkpt>
      <trkpt lat="45.79924" lon="4.94012">
        <ele>187.4</ele>
        <time>2014-10-12T09:44:16Z</time>
      </trkpt>
      <trkpt lat="45.79913" lon="4.94013">
        <ele>187.2</ele>
        <time>2014-10-12T09:44:18Z</time>
      </trkpt>
      <trkpt lat="45.79903" lon="4.94018">
        <ele>187.2</ele>
        <time>2014-10-12T09:44:20Z</time>
      </trkpt>
      <trkpt lat="45.79898" lon="4.9402">
        <ele>187.2</ele>
        <time>2014-10-12T09:44:21Z</time>
      </trkpt>
      <trkpt lat="45.79894" lon="4.94022">
        <ele>187</ele>
        <time>2014-10-12T09:44:22Z</time>
      </trkpt>
      <trkpt lat="45.79885" lon="4.94029">
        <ele>187</ele>
        <time>2014-10-12T09:44:24Z</time>
      </trkpt>
      <trkpt lat="45.79882" lon="4.94035">
        <ele>187</ele>
        <time>2014-10-12T09:44:25Z</time>
      </trkpt>
      <trkpt lat="45.79879" lon="4.94046">
        <ele>187</ele>
        <time>2014-10-12T09:44:27Z</time>
      </trkpt>
      <trkpt lat="45.79877" lon="4.94051">
        <ele>187</ele>
        <time>2014-10-12T09:44:28Z</time>
      </trkpt>
      <trkpt lat="45.79875" lon="4.94054">
        <ele>186.8</ele>
        <time>2014-10-12T09:44:29Z</time>
      </trkpt>
      <trkpt lat="45.79865" lon="4.94047">
        <ele>186.6</ele>
        <time>2014-10-12T09:44:34Z</time>
      </trkpt>
      <trkpt lat="45.79858" lon="4.94049">
        <ele>186.6</ele>
        <time>2014-10-12T09:44:36Z</time>
      </trkpt>
      <trkpt lat="45.79843" lon="4.94055">
        <ele>186.4</ele>
        <time>2014-10-12T09:44:40Z</time>
      </trkpt>
      <trkpt lat="45.79839" lon="4.94054">
        <ele>186.4</ele>
        <time>2014-10-12T09:44:41Z</time>
      </trkpt>
      <trkpt lat="45.79829" lon="4.9405">
        <ele>186.4</ele>
        <time>2014-10-12T09:44:43Z</time>
      </trkpt>
      <trkpt lat="45.79819" lon="4.94045">
        <ele>186.4</ele>
        <time>2014-10-12T09:44:45Z</time>
      </trkpt>
      <trkpt lat="45.79809" lon="4.94038">
        <ele>186.2</ele>
        <time>2014-10-12T09:44:46Z</time>
      </trkpt>
      <trkpt lat="45.79809" lon="4.94038">
        <ele>186.2</ele>
        <time>2014-10-12T09:44:47Z</time>
      </trkpt>
      <trkpt lat="45.79806" lon="4.94032">
        <ele>186.2</ele>
        <time>2014-10-12T09:44:48Z</time>
      </trkpt>
      <trkpt lat="45.79805" lon="4.94025">
        <ele>186.2</ele>
        <time>2014-10-12T09:44:49Z</time>
      </trkpt>
      <trkpt lat="45.79802" lon="4.94009">
        <ele>186.2</ele>
        <time>2014-10-12T09:44:51Z</time>
      </trkpt>
      <trkpt lat="45.79801" lon="4.93994">
        <ele>186.2</ele>
        <time>2014-10-12T09:44:53Z</time>
      </trkpt>
      <trkpt lat="45.79801" lon="4.93979">
        <ele>186.2</ele>
        <time>2014-10-12T09:44:55Z</time>
      </trkpt>
      <trkpt lat="45.798" lon="4.93965">
        <ele>186.2</ele>
        <time>2014-10-12T09:44:57Z</time>
      </trkpt>
      <trkpt lat="45.798" lon="4.93935">
        <ele>186.2</ele>
        <time>2014-10-12T09:45:01Z</time>
      </trkpt>
      <trkpt lat="45.798" lon="4.93921">
        <ele>186.2</ele>
        <time>2014-10-12T09:45:03Z</time>
      </trkpt>
      <trkpt lat="45.798" lon="4.93906">
        <ele>186</ele>
        <time>2014-10-12T09:45:05Z</time>
      </trkpt>
      <trkpt lat="45.79803" lon="4.93893">
        <ele>186</ele>
        <time>2014-10-12T09:45:07Z</time>
      </trkpt>
      <trkpt lat="45.79806" lon="4.9388">
        <ele>186</ele>
        <time>2014-10-12T09:45:08Z</time>
      </trkpt>
      <trkpt lat="45.79807" lon="4.93873">
        <ele>186</ele>
        <time>2014-10-12T09:45:09Z</time>
      </trkpt>
      <trkpt lat="45.7981" lon="4.93861">
        <ele>186</ele>
        <time>2014-10-12T09:45:12Z</time>
      </trkpt>
      <trkpt lat="45.79813" lon="4.93849">
        <ele>185.8</ele>
        <time>2014-10-12T09:45:14Z</time>
      </trkpt>
      <trkpt lat="45.79815" lon="4.93844">
        <ele>185.8</ele>
        <time>2014-10-12T09:45:15Z</time>
      </trkpt>
      <trkpt lat="45.7982" lon="4.93834">
        <ele>185.8</ele>
        <time>2014-10-12T09:45:17Z</time>
      </trkpt>
      <trkpt lat="45.79824" lon="4.93829">
        <ele>185.8</ele>
        <time>2014-10-12T09:45:18Z</time>
      </trkpt>
      <trkpt lat="45.79831" lon="4.93821">
        <ele>185.6</ele>
        <time>2014-10-12T09:45:20Z</time>
      </trkpt>
      <trkpt lat="45.79839" lon="4.93812">
        <ele>185.6</ele>
        <time>2014-10-12T09:45:22Z</time>
      </trkpt>
      <trkpt lat="45.79842" lon="4.93808">
        <ele>185.6</ele>
        <time>2014-10-12T09:45:23Z</time>
      </trkpt>
      <trkpt lat="45.79856" lon="4.93792">
        <ele>185.2</ele>
        <time>2014-10-12T09:45:27Z</time>
      </trkpt>
      <trkpt lat="45.79862" lon="4.93786">
        <ele>185.2</ele>
        <time>2014-10-12T09:45:29Z</time>
      </trkpt>
      <trkpt lat="45.79872" lon="4.93778">
        <ele>185.2</ele>
        <time>2014-10-12T09:45:32Z</time>
      </trkpt>
      <trkpt lat="45.79877" lon="4.93776">
        <ele>185.2</ele>
        <time>2014-10-12T09:45:33Z</time>
      </trkpt>
      <trkpt lat="45.79889" lon="4.93771">
        <ele>185</ele>
        <time>2014-10-12T09:45:35Z</time>
      </trkpt>
      <trkpt lat="45.79895" lon="4.93769">
        <ele>185</ele>
        <time>2014-10-12T09:45:36Z</time>
      </trkpt>
      <trkpt lat="45.79912" lon="4.93762">
        <ele>185</ele>
        <time>2014-10-12T09:45:39Z</time>
      </trkpt>
      <trkpt lat="45.7993" lon="4.93758">
        <ele>185</ele>
        <time>2014-10-12T09:45:42Z</time>
      </trkpt>
      <trkpt lat="45.79946" lon="4.93752">
        <ele>185</ele>
        <time>2014-10-12T09:45:45Z</time>
      </trkpt>
      <trkpt lat="45.79958" lon="4.93747">
        <ele>185</ele>
        <time>2014-10-12T09:45:46Z</time>
      </trkpt>
      <trkpt lat="45.79973" lon="4.93733">
        <ele>185</ele>
        <time>2014-10-12T09:45:49Z</time>
      </trkpt>
      <trkpt lat="45.79973" lon="4.93733">
        <ele>184.8</ele>
        <time>2014-10-12T09:45:50Z</time>
      </trkpt>
      <trkpt lat="45.79983" lon="4.93724">
        <ele>184.8</ele>
        <time>2014-10-12T09:45:51Z</time>
      </trkpt>
      <trkpt lat="45.79988" lon="4.93719">
        <ele>184.8</ele>
        <time>2014-10-12T09:45:53Z</time>
      </trkpt>
      <trkpt lat="45.80005" lon="4.93707">
        <ele>184.8</ele>
        <time>2014-10-12T09:45:55Z</time>
      </trkpt>
      <trkpt lat="45.80005" lon="4.93707">
        <ele>184.8</ele>
        <time>2014-10-12T09:45:56Z</time>
      </trkpt>
      <trkpt lat="45.80027" lon="4.93693">
        <ele>184.6</ele>
        <time>2014-10-12T09:45:59Z</time>
      </trkpt>
      <trkpt lat="45.80033" lon="4.93691">
        <ele>184.6</ele>
        <time>2014-10-12T09:46:00Z</time>
      </trkpt>
      <trkpt lat="45.80037" lon="4.9369">
        <ele>184.6</ele>
        <time>2014-10-12T09:46:01Z</time>
      </trkpt>
      <trkpt lat="45.80041" lon="4.93685">
        <ele>184.6</ele>
        <time>2014-10-12T09:46:03Z</time>
      </trkpt>
      <trkpt lat="45.80041" lon="4.93685">
        <ele>184.6</ele>
        <time>2014-10-12T09:46:04Z</time>
      </trkpt>
      <trkpt lat="45.80041" lon="4.93681">
        <ele>184.6</ele>
        <time>2014-10-12T09:46:05Z</time>
      </trkpt>
      <trkpt lat="45.80036" lon="4.93679">
        <ele>184.4</ele>
        <time>2014-10-12T09:46:07Z</time>
      </trkpt>
      <trkpt lat="45.80029" lon="4.93679">
        <ele>184.4</ele>
        <time>2014-10-12T09:46:09Z</time>
      </trkpt>
      <trkpt lat="45.80023" lon="4.93671">
        <ele>184.4</ele>
        <time>2014-10-12T09:46:11Z</time>
      </trkpt>
      <trkpt lat="45.80009" lon="4.93655">
        <ele>184.2</ele>
        <time>2014-10-12T09:46:15Z</time>
      </trkpt>
      <trkpt lat="45.80005" lon="4.93653">
        <ele>184.2</ele>
        <time>2014-10-12T09:46:16Z</time>
      </trkpt>
      <trkpt lat="45.79995" lon="4.93648">
        <ele>184.2</ele>
        <time>2014-10-12T09:46:18Z</time>
      </trkpt>
      <trkpt lat="45.7999" lon="4.93643">
        <ele>184.2</ele>
        <time>2014-10-12T09:46:19Z</time>
      </trkpt>
      <trkpt lat="45.7999" lon="4.93643">
        <ele>184</ele>
        <time>2014-10-12T09:46:20Z</time>
      </trkpt>
      <trkpt lat="45.79986" lon="4.93639">
        <ele>184</ele>
        <time>2014-10-12T09:46:21Z</time>
      </trkpt>
      <trkpt lat="45.79971" lon="4.93629">
        <ele>184</ele>
        <time>2014-10-12T09:46:23Z</time>
      </trkpt>
      <trkpt lat="45.79968" lon="4.93626">
        <ele>183.8</ele>
        <time>2014-10-12T09:46:24Z</time>
      </trkpt>
      <trkpt lat="45.79965" lon="4.9362">
        <ele>183.8</ele>
        <time>2014-10-12T09:46:25Z</time>
      </trkpt>
      <trkpt lat="45.7996" lon="4.93611">
        <ele>183.8</ele>
        <time>2014-10-12T09:46:28Z</time>
      </trkpt>
      <trkpt lat="45.79955" lon="4.93604">
        <ele>183.6</ele>
        <time>2014-10-12T09:46:30Z</time>
      </trkpt>
      <trkpt lat="45.79951" lon="4.93598">
        <ele>183.6</ele>
        <time>2014-10-12T09:46:31Z</time>
      </trkpt>
      <trkpt lat="45.79945" lon="4.93585">
        <ele>183.6</ele>
        <time>2014-10-12T09:46:34Z</time>
      </trkpt>
      <trkpt lat="45.79942" lon="4.9358">
        <ele>183.6</ele>
        <time>2014-10-12T09:46:35Z</time>
      </trkpt>
      <trkpt lat="45.79929" lon="4.93562">
        <ele>183.6</ele>
        <time>2014-10-12T09:46:39Z</time>
      </trkpt>
      <trkpt lat="45.79925" lon="4.93556">
        <ele>183.6</ele>
        <time>2014-10-12T09:46:40Z</time>
      </trkpt>
      <trkpt lat="45.79915" lon="4.93535">
        <ele>183.6</ele>
        <time>2014-10-12T09:46:43Z</time>
      </trkpt>
      <trkpt lat="45.79912" lon="4.93527">
        <ele>183.6</ele>
        <time>2014-10-12T09:46:44Z</time>
      </trkpt>
      <trkpt lat="45.79908" lon="4.93511">
        <ele>183.6</ele>
        <time>2014-10-12T09:46:46Z</time>
      </trkpt>
      <trkpt lat="45.79906" lon="4.93496">
        <ele>183.4</ele>
        <time>2014-10-12T09:46:48Z</time>
      </trkpt>
      <trkpt lat="45.79905" lon="4.93489">
        <ele>183.4</ele>
        <time>2014-10-12T09:46:49Z</time>
      </trkpt>
      <trkpt lat="45.79905" lon="4.93489">
        <ele>183.4</ele>
        <time>2014-10-12T09:46:50Z</time>
      </trkpt>
      <trkpt lat="45.79905" lon="4.93476">
        <ele>183.4</ele>
        <time>2014-10-12T09:46:51Z</time>
      </trkpt>
      <trkpt lat="45.79906" lon="4.9347">
        <ele>183.4</ele>
        <time>2014-10-12T09:46:52Z</time>
      </trkpt>
      <trkpt lat="45.79906" lon="4.93464">
        <ele>183.4</ele>
        <time>2014-10-12T09:46:53Z</time>
      </trkpt>
      <trkpt lat="45.79905" lon="4.93452">
        <ele>183.2</ele>
        <time>2014-10-12T09:46:55Z</time>
      </trkpt>
      <trkpt lat="45.79903" lon="4.93443">
        <ele>183.2</ele>
        <time>2014-10-12T09:46:57Z</time>
      </trkpt>
      <trkpt lat="45.79898" lon="4.93425">
        <ele>183</ele>
        <time>2014-10-12T09:47:01Z</time>
      </trkpt>
      <trkpt lat="45.79896" lon="4.93413">
        <ele>183</ele>
        <time>2014-10-12T09:47:03Z</time>
      </trkpt>
      <trkpt lat="45.79892" lon="4.93397">
        <ele>183</ele>
        <time>2014-10-12T09:47:05Z</time>
      </trkpt>
      <trkpt lat="45.79888" lon="4.93381">
        <ele>182.8</ele>
        <time>2014-10-12T09:47:08Z</time>
      </trkpt>
      <trkpt lat="45.79879" lon="4.93341">
        <ele>182.8</ele>
        <time>2014-10-12T09:47:12Z</time>
      </trkpt>
      <trkpt lat="45.79877" lon="4.93326">
        <ele>182.6</ele>
        <time>2014-10-12T09:47:14Z</time>
      </trkpt>
      <trkpt lat="45.79878" lon="4.93312">
        <ele>182.6</ele>
        <time>2014-10-12T09:47:16Z</time>
      </trkpt>
      <trkpt lat="45.79879" lon="4.93292">
        <ele>182.4</ele>
        <time>2014-10-12T09:47:19Z</time>
      </trkpt>
      <trkpt lat="45.79879" lon="4.93292">
        <ele>182.4</ele>
        <time>2014-10-12T09:47:20Z</time>
      </trkpt>
      <trkpt lat="45.79878" lon="4.9326">
        <ele>182.2</ele>
        <time>2014-10-12T09:47:24Z</time>
      </trkpt>
      <trkpt lat="45.79878" lon="4.93253">
        <ele>182.2</ele>
        <time>2014-10-12T09:47:25Z</time>
      </trkpt>
      <trkpt lat="45.79878" lon="4.93253">
        <ele>182.2</ele>
        <time>2014-10-12T09:47:26Z</time>
      </trkpt>
      <trkpt lat="45.79876" lon="4.9324">
        <ele>182.2</ele>
        <time>2014-10-12T09:47:27Z</time>
      </trkpt>
      <trkpt lat="45.79875" lon="4.93234">
        <ele>182.2</ele>
        <time>2014-10-12T09:47:28Z</time>
      </trkpt>
      <trkpt lat="45.79872" lon="4.93215">
        <ele>182</ele>
        <time>2014-10-12T09:47:32Z</time>
      </trkpt>
      <trkpt lat="45.7987" lon="4.93201">
        <ele>182</ele>
        <time>2014-10-12T09:47:33Z</time>
      </trkpt>
      <trkpt lat="45.7987" lon="4.93182">
        <ele>182</ele>
        <time>2014-10-12T09:47:36Z</time>
      </trkpt>
      <trkpt lat="45.79871" lon="4.9317">
        <ele>181.8</ele>
        <time>2014-10-12T09:47:38Z</time>
      </trkpt>
      <trkpt lat="45.79873" lon="4.93155">
        <ele>181.8</ele>
        <time>2014-10-12T09:47:41Z</time>
      </trkpt>
      <trkpt lat="45.79873" lon="4.93152">
        <ele>181.8</ele>
        <time>2014-10-12T09:47:42Z</time>
      </trkpt>
      <trkpt lat="45.79874" lon="4.93149">
        <ele>181.8</ele>
        <time>2014-10-12T09:47:43Z</time>
      </trkpt>
      <trkpt lat="45.79869" lon="4.93139">
        <ele>181.6</ele>
        <time>2014-10-12T09:47:47Z</time>
      </trkpt>
      <trkpt lat="45.79862" lon="4.93141">
        <ele>181.6</ele>
        <time>2014-10-12T09:47:49Z</time>
      </trkpt>
      <trkpt lat="45.79855" lon="4.93144">
        <ele>181.6</ele>
        <time>2014-10-12T09:47:51Z</time>
      </trkpt>
      <trkpt lat="45.79843" lon="4.93145">
        <ele>181.4</ele>
        <time>2014-10-12T09:47:55Z</time>
      </trkpt>
      <trkpt lat="45.79839" lon="4.93133">
        <ele>181.2</ele>
        <time>2014-10-12T09:47:58Z</time>
      </trkpt>
      <trkpt lat="45.79837" lon="4.93124">
        <ele>181.2</ele>
        <time>2014-10-12T09:48:00Z</time>
      </trkpt>
      <trkpt lat="45.79836" lon="4.93119">
        <ele>181.2</ele>
        <time>2014-10-12T09:48:01Z</time>
      </trkpt>
      <trkpt lat="45.79838" lon="4.931">
        <ele>181</ele>
        <time>2014-10-12T09:48:05Z</time>
      </trkpt>
      <trkpt lat="45.79841" lon="4.93092">
        <ele>181</ele>
        <time>2014-10-12T09:48:07Z</time>
      </trkpt>
      <trkpt lat="45.79844" lon="4.93089">
        <ele>180.8</ele>
        <time>2014-10-12T09:48:09Z</time>
      </trkpt>
      <trkpt lat="45.79845" lon="4.93087">
        <ele>180.8</ele>
        <time>2014-10-12T09:48:10Z</time>
      </trkpt>
      <trkpt lat="45.79849" lon="4.93077">
        <ele>180.8</ele>
        <time>2014-10-12T09:48:13Z</time>
      </trkpt>
      <trkpt lat="45.79853" lon="4.93071">
        <ele>180.6</ele>
        <time>2014-10-12T09:48:15Z</time>
      </trkpt>
      <trkpt lat="45.79862" lon="4.93059">
        <ele>180.6</ele>
        <time>2014-10-12T09:48:19Z</time>
      </trkpt>
      <trkpt lat="45.79865" lon="4.93051">
        <ele>180.4</ele>
        <time>2014-10-12T09:48:21Z</time>
      </trkpt>
      <trkpt lat="45.79871" lon="4.93036">
        <ele>180.4</ele>
        <time>2014-10-12T09:48:24Z</time>
      </trkpt>
      <trkpt lat="45.79876" lon="4.93027">
        <ele>180.2</ele>
        <time>2014-10-12T09:48:26Z</time>
      </trkpt>
      <trkpt lat="45.79883" lon="4.93019">
        <ele>180.2</ele>
        <time>2014-10-12T09:48:29Z</time>
      </trkpt>
      <trkpt lat="45.79889" lon="4.93013">
        <ele>180</ele>
        <time>2014-10-12T09:48:33Z</time>
      </trkpt>
      <trkpt lat="45.79891" lon="4.93012">
        <ele>180</ele>
        <time>2014-10-12T09:48:38Z</time>
      </trkpt>
      <trkpt lat="45.79891" lon="4.93011">
        <ele>180</ele>
        <time>2014-10-12T09:48:39Z</time>
      </trkpt>
      <trkpt lat="45.79896" lon="4.93006">
        <ele>180</ele>
        <time>2014-10-12T09:48:42Z</time>
      </trkpt>
      <trkpt lat="45.79909" lon="4.92992">
        <ele>180</ele>
        <time>2014-10-12T09:48:46Z</time>
      </trkpt>
      <trkpt lat="45.79912" lon="4.92989">
        <ele>180</ele>
        <time>2014-10-12T09:48:47Z</time>
      </trkpt>
      <trkpt lat="45.79924" lon="4.92976">
        <ele>179.8</ele>
        <time>2014-10-12T09:48:51Z</time>
      </trkpt>
      <trkpt lat="45.79931" lon="4.9297">
        <ele>179.8</ele>
        <time>2014-10-12T09:48:53Z</time>
      </trkpt>
      <trkpt lat="45.79942" lon="4.92965">
        <ele>179.6</ele>
        <time>2014-10-12T09:48:56Z</time>
      </trkpt>
      <trkpt lat="45.7995" lon="4.9296">
        <ele>179.6</ele>
        <time>2014-10-12T09:48:58Z</time>
      </trkpt>
      <trkpt lat="45.79958" lon="4.92949">
        <ele>179.6</ele>
        <time>2014-10-12T09:49:01Z</time>
      </trkpt>
      <trkpt lat="45.79958" lon="4.92949">
        <ele>179.4</ele>
        <time>2014-10-12T09:49:02Z</time>
      </trkpt>
      <trkpt lat="45.79963" lon="4.92944">
        <ele>179.4</ele>
        <time>2014-10-12T09:49:03Z</time>
      </trkpt>
      <trkpt lat="45.79965" lon="4.92942">
        <ele>179.4</ele>
        <time>2014-10-12T09:49:05Z</time>
      </trkpt>
      <trkpt lat="45.7997" lon="4.92938">
        <ele>179.4</ele>
        <time>2014-10-12T09:49:31Z</time>
      </trkpt>
      <trkpt lat="45.7997" lon="4.92938">
        <ele>179.4</ele>
        <time>2014-10-12T09:49:32Z</time>
      </trkpt>
      <trkpt lat="45.79987" lon="4.92936">
        <ele>179.2</ele>
        <time>2014-10-12T09:49:36Z</time>
      </trkpt>
      <trkpt lat="45.79994" lon="4.92934">
        <ele>179.2</ele>
        <time>2014-10-12T09:49:38Z</time>
      </trkpt>
      <trkpt lat="45.80006" lon="4.92932">
        <ele>179.2</ele>
        <time>2014-10-12T09:49:41Z</time>
      </trkpt>
      <trkpt lat="45.80014" lon="4.92932">
        <ele>179</ele>
        <time>2014-10-12T09:49:43Z</time>
      </trkpt>
      <trkpt lat="45.80028" lon="4.92933">
        <ele>179</ele>
        <time>2014-10-12T09:49:46Z</time>
      </trkpt>
      <trkpt lat="45.80035" lon="4.92935">
        <ele>179</ele>
        <time>2014-10-12T09:49:48Z</time>
      </trkpt>
      <trkpt lat="45.80049" lon="4.9294">
        <ele>178.8</ele>
        <time>2014-10-12T09:49:51Z</time>
      </trkpt>
      <trkpt lat="45.80053" lon="4.92941">
        <ele>178.8</ele>
        <time>2014-10-12T09:49:52Z</time>
      </trkpt>
      <trkpt lat="45.80057" lon="4.92941">
        <ele>178.8</ele>
        <time>2014-10-12T09:49:53Z</time>
      </trkpt>
      <trkpt lat="45.80063" lon="4.92939">
        <ele>178.8</ele>
        <time>2014-10-12T09:49:55Z</time>
      </trkpt>
      <trkpt lat="45.80073" lon="4.92941">
        <ele>178.6</ele>
        <time>2014-10-12T09:49:59Z</time>
      </trkpt>
      <trkpt lat="45.80077" lon="4.92942">
        <ele>178.6</ele>
        <time>2014-10-12T09:50:00Z</time>
      </trkpt>
      <trkpt lat="45.80093" lon="4.92952">
        <ele>178.6</ele>
        <time>2014-10-12T09:50:05Z</time>
      </trkpt>
      <trkpt lat="45.80095" lon="4.92953">
        <ele>178.6</ele>
        <time>2014-10-12T09:50:06Z</time>
      </trkpt>
      <trkpt lat="45.80107" lon="4.92961">
        <ele>178.4</ele>
        <time>2014-10-12T09:50:11Z</time>
      </trkpt>
      <trkpt lat="45.80111" lon="4.92963">
        <ele>178.4</ele>
        <time>2014-10-12T09:50:12Z</time>
      </trkpt>
      <trkpt lat="45.8012" lon="4.9297">
        <ele>178.4</ele>
        <time>2014-10-12T09:50:15Z</time>
      </trkpt>
      <trkpt lat="45.80129" lon="4.92973">
        <ele>178.4</ele>
        <time>2014-10-12T09:50:18Z</time>
      </trkpt>
      <trkpt lat="45.80131" lon="4.92972">
        <ele>178.4</ele>
        <time>2014-10-12T09:50:19Z</time>
      </trkpt>
      <trkpt lat="45.80132" lon="4.92971">
        <ele>178.4</ele>
        <time>2014-10-12T09:50:20Z</time>
      </trkpt>
      <trkpt lat="45.80139" lon="4.92973">
        <ele>178.2</ele>
        <time>2014-10-12T09:50:23Z</time>
      </trkpt>
      <trkpt lat="45.80142" lon="4.92971">
        <ele>178.2</ele>
        <time>2014-10-12T09:50:24Z</time>
      </trkpt>
      <trkpt lat="45.80148" lon="4.92964">
        <ele>178.2</ele>
        <time>2014-10-12T09:50:26Z</time>
      </trkpt>
      <trkpt lat="45.80151" lon="4.92959">
        <ele>178.2</ele>
        <time>2014-10-12T09:50:27Z</time>
      </trkpt>
      <trkpt lat="45.80162" lon="4.92947">
        <ele>178</ele>
        <time>2014-10-12T09:50:30Z</time>
      </trkpt>
      <trkpt lat="45.80168" lon="4.92944">
        <ele>178</ele>
        <time>2014-10-12T09:50:32Z</time>
      </trkpt>
      <trkpt lat="45.80174" lon="4.92941">
        <ele>178</ele>
        <time>2014-10-12T09:50:36Z</time>
      </trkpt>
      <trkpt lat="45.80179" lon="4.92941">
        <ele>178</ele>
        <time>2014-10-12T09:50:39Z</time>
      </trkpt>
      <trkpt lat="45.80181" lon="4.92941">
        <ele>178</ele>
        <time>2014-10-12T09:50:40Z</time>
      </trkpt>
      <trkpt lat="45.80182" lon="4.92948">
        <ele>178</ele>
        <time>2014-10-12T09:50:43Z</time>
      </trkpt>
      <trkpt lat="45.80182" lon="4.92952">
        <ele>178</ele>
        <time>2014-10-12T09:50:44Z</time>
      </trkpt>
      <trkpt lat="45.80186" lon="4.92969">
        <ele>178</ele>
        <time>2014-10-12T09:50:47Z</time>
      </trkpt>
      <trkpt lat="45.80187" lon="4.92975">
        <ele>178</ele>
        <time>2014-10-12T09:50:48Z</time>
      </trkpt>
      <trkpt lat="45.80193" lon="4.92995">
        <ele>178</ele>
        <time>2014-10-12T09:50:51Z</time>
      </trkpt>
      <trkpt lat="45.80198" lon="4.93016">
        <ele>178</ele>
        <time>2014-10-12T09:50:54Z</time>
      </trkpt>
      <trkpt lat="45.802" lon="4.93023">
        <ele>178</ele>
        <time>2014-10-12T09:50:55Z</time>
      </trkpt>
      <trkpt lat="45.80201" lon="4.93031">
        <ele>178</ele>
        <time>2014-10-12T09:50:56Z</time>
      </trkpt>
      <trkpt lat="45.80199" lon="4.93046">
        <ele>178.2</ele>
        <time>2014-10-12T09:50:58Z</time>
      </trkpt>
      <trkpt lat="45.80197" lon="4.93053">
        <ele>178.2</ele>
        <time>2014-10-12T09:50:59Z</time>
      </trkpt>
      <trkpt lat="45.80191" lon="4.93066">
        <ele>178.4</ele>
        <time>2014-10-12T09:51:01Z</time>
      </trkpt>
      <trkpt lat="45.80188" lon="4.93079">
        <ele>178.6</ele>
        <time>2014-10-12T09:51:03Z</time>
      </trkpt>
      <trkpt lat="45.80188" lon="4.93086">
        <ele>178.6</ele>
        <time>2014-10-12T09:51:04Z</time>
      </trkpt>
      <trkpt lat="45.80186" lon="4.93107">
        <ele>178.8</ele>
        <time>2014-10-12T09:51:07Z</time>
      </trkpt>
      <trkpt lat="45.80185" lon="4.93114">
        <ele>179</ele>
        <time>2014-10-12T09:51:08Z</time>
      </trkpt>
      <trkpt lat="45.80184" lon="4.93122">
        <ele>179</ele>
        <time>2014-10-12T09:51:09Z</time>
      </trkpt>
      <trkpt lat="45.80184" lon="4.9313">
        <ele>179</ele>
        <time>2014-10-12T09:51:10Z</time>
      </trkpt>
      <trkpt lat="45.80184" lon="4.93137">
        <ele>179</ele>
        <time>2014-10-12T09:51:11Z</time>
      </trkpt>
      <trkpt lat="45.80184" lon="4.93152">
        <ele>179.2</ele>
        <time>2014-10-12T09:51:13Z</time>
      </trkpt>
      <trkpt lat="45.80186" lon="4.93165">
        <ele>179.2</ele>
        <time>2014-10-12T09:51:15Z</time>
      </trkpt>
      <trkpt lat="45.80192" lon="4.93195">
        <ele>179.4</ele>
        <time>2014-10-12T09:51:20Z</time>
      </trkpt>
      <trkpt lat="45.802" lon="4.93224">
        <ele>179.4</ele>
        <time>2014-10-12T09:51:25Z</time>
      </trkpt>
      <trkpt lat="45.80201" lon="4.9323">
        <ele>179.4</ele>
        <time>2014-10-12T09:51:26Z</time>
      </trkpt>
      <trkpt lat="45.80204" lon="4.93242">
        <ele>179.2</ele>
        <time>2014-10-12T09:51:28Z</time>
      </trkpt>
      <trkpt lat="45.80205" lon="4.9325">
        <ele>179.2</ele>
        <time>2014-10-12T09:51:29Z</time>
      </trkpt>
      <trkpt lat="45.80211" lon="4.93282">
        <ele>179.2</ele>
        <time>2014-10-12T09:51:33Z</time>
      </trkpt>
      <trkpt lat="45.80214" lon="4.93299">
        <ele>179.2</ele>
        <time>2014-10-12T09:51:35Z</time>
      </trkpt>
      <trkpt lat="45.80216" lon="4.93308">
        <ele>179.2</ele>
        <time>2014-10-12T09:51:36Z</time>
      </trkpt>
      <trkpt lat="45.80221" lon="4.93335">
        <ele>179</ele>
        <time>2014-10-12T09:51:39Z</time>
      </trkpt>
      <trkpt lat="45.80225" lon="4.93353">
        <ele>179</ele>
        <time>2014-10-12T09:51:41Z</time>
      </trkpt>
      <trkpt lat="45.80228" lon="4.93362">
        <ele>179</ele>
        <time>2014-10-12T09:51:42Z</time>
      </trkpt>
      <trkpt lat="45.80236" lon="4.93389">
        <ele>179</ele>
        <time>2014-10-12T09:51:45Z</time>
      </trkpt>
      <trkpt lat="45.80237" lon="4.93399">
        <ele>179</ele>
        <time>2014-10-12T09:51:46Z</time>
      </trkpt>
      <trkpt lat="45.80241" lon="4.93418">
        <ele>179</ele>
        <time>2014-10-12T09:51:48Z</time>
      </trkpt>
      <trkpt lat="45.80249" lon="4.9344">
        <ele>179.2</ele>
        <time>2014-10-12T09:51:51Z</time>
      </trkpt>
      <trkpt lat="45.80254" lon="4.93443">
        <ele>179.2</ele>
        <time>2014-10-12T09:51:52Z</time>
      </trkpt>
      <trkpt lat="45.80259" lon="4.93442">
        <ele>179.2</ele>
        <time>2014-10-12T09:51:53Z</time>
      </trkpt>
      <trkpt lat="45.80271" lon="4.93438">
        <ele>179.2</ele>
        <time>2014-10-12T09:51:55Z</time>
      </trkpt>
      <trkpt lat="45.80277" lon="4.93435">
        <ele>179.2</ele>
        <time>2014-10-12T09:51:56Z</time>
      </trkpt>
      <trkpt lat="45.80282" lon="4.93432">
        <ele>179.2</ele>
        <time>2014-10-12T09:51:57Z</time>
      </trkpt>
      <trkpt lat="45.80294" lon="4.93426">
        <ele>179.2</ele>
        <time>2014-10-12T09:51:59Z</time>
      </trkpt>
      <trkpt lat="45.80311" lon="4.93417">
        <ele>179.4</ele>
        <time>2014-10-12T09:52:02Z</time>
      </trkpt>
      <trkpt lat="45.80321" lon="4.93413">
        <ele>179.4</ele>
        <time>2014-10-12T09:52:04Z</time>
      </trkpt>
      <trkpt lat="45.80331" lon="4.93409">
        <ele>179.6</ele>
        <time>2014-10-12T09:52:06Z</time>
      </trkpt>
      <trkpt lat="45.80353" lon="4.93397">
        <ele>179.6</ele>
        <time>2014-10-12T09:52:10Z</time>
      </trkpt>
      <trkpt lat="45.8036" lon="4.93393">
        <ele>179.6</ele>
        <time>2014-10-12T09:52:11Z</time>
      </trkpt>
      <trkpt lat="45.80376" lon="4.93387">
        <ele>179.6</ele>
        <time>2014-10-12T09:52:13Z</time>
      </trkpt>
      <trkpt lat="45.80402" lon="4.93376">
        <ele>179.6</ele>
        <time>2014-10-12T09:52:16Z</time>
      </trkpt>
      <trkpt lat="45.80427" lon="4.93366">
        <ele>179.6</ele>
        <time>2014-10-12T09:52:19Z</time>
      </trkpt>
      <trkpt lat="45.8045" lon="4.93356">
        <ele>179.4</ele>
        <time>2014-10-12T09:52:22Z</time>
      </trkpt>
      <trkpt lat="45.80457" lon="4.93353">
        <ele>179.4</ele>
        <time>2014-10-12T09:52:23Z</time>
      </trkpt>
      <trkpt lat="45.80469" lon="4.93348">
        <ele>179.4</ele>
        <time>2014-10-12T09:52:25Z</time>
      </trkpt>
      <trkpt lat="45.80478" lon="4.93344">
        <ele>179.6</ele>
        <time>2014-10-12T09:52:27Z</time>
      </trkpt>
      <trkpt lat="45.80481" lon="4.93343">
        <ele>179.6</ele>
        <time>2014-10-12T09:52:28Z</time>
      </trkpt>
      <trkpt lat="45.80487" lon="4.93341">
        <ele>179.6</ele>
        <time>2014-10-12T09:52:30Z</time>
      </trkpt>
      <trkpt lat="45.80492" lon="4.93339">
        <ele>179.8</ele>
        <time>2014-10-12T09:52:32Z</time>
      </trkpt>
      <trkpt lat="45.80505" lon="4.93334">
        <ele>180</ele>
        <time>2014-10-12T09:52:36Z</time>
      </trkpt>
      <trkpt lat="45.80516" lon="4.93331">
        <ele>180</ele>
        <time>2014-10-12T09:52:39Z</time>
      </trkpt>
      <trkpt lat="45.80524" lon="4.93332">
        <ele>180</ele>
        <time>2014-10-12T09:52:41Z</time>
      </trkpt>
      <trkpt lat="45.80537" lon="4.93337">
        <ele>180.2</ele>
        <time>2014-10-12T09:52:44Z</time>
      </trkpt>
      <trkpt lat="45.80542" lon="4.93339">
        <ele>180.2</ele>
        <time>2014-10-12T09:52:45Z</time>
      </trkpt>
      <trkpt lat="45.80561" lon="4.93348">
        <ele>180.4</ele>
        <time>2014-10-12T09:52:49Z</time>
      </trkpt>
      <trkpt lat="45.80571" lon="4.93351">
        <ele>180.4</ele>
        <time>2014-10-12T09:52:51Z</time>
      </trkpt>
      <trkpt lat="45.80582" lon="4.93353">
        <ele>180.4</ele>
        <time>2014-10-12T09:52:53Z</time>
      </trkpt>
      <trkpt lat="45.80593" lon="4.93353">
        <ele>180.4</ele>
        <time>2014-10-12T09:52:55Z</time>
      </trkpt>
      <trkpt lat="45.80604" lon="4.9335">
        <ele>180.4</ele>
        <time>2014-10-12T09:52:57Z</time>
      </trkpt>
      <trkpt lat="45.80609" lon="4.93346">
        <ele>180.4</ele>
        <time>2014-10-12T09:52:58Z</time>
      </trkpt>
      <trkpt lat="45.80619" lon="4.93336">
        <ele>180.4</ele>
        <time>2014-10-12T09:53:00Z</time>
      </trkpt>
      <trkpt lat="45.80623" lon="4.93331">
        <ele>180.4</ele>
        <time>2014-10-12T09:53:01Z</time>
      </trkpt>
      <trkpt lat="45.80632" lon="4.9332">
        <ele>180.4</ele>
        <time>2014-10-12T09:53:03Z</time>
      </trkpt>
      <trkpt lat="45.80637" lon="4.93315">
        <ele>180.4</ele>
        <time>2014-10-12T09:53:04Z</time>
      </trkpt>
      <trkpt lat="45.80643" lon="4.93312">
        <ele>180.4</ele>
        <time>2014-10-12T09:53:05Z</time>
      </trkpt>
      <trkpt lat="45.80649" lon="4.9331">
        <ele>180.4</ele>
        <time>2014-10-12T09:53:06Z</time>
      </trkpt>
      <trkpt lat="45.80665" lon="4.93301">
        <ele>180.4</ele>
        <time>2014-10-12T09:53:09Z</time>
      </trkpt>
      <trkpt lat="45.80669" lon="4.93296">
        <ele>180.4</ele>
        <time>2014-10-12T09:53:10Z</time>
      </trkpt>
      <trkpt lat="45.80677" lon="4.93274">
        <ele>180.4</ele>
        <time>2014-10-12T09:53:13Z</time>
      </trkpt>
      <trkpt lat="45.80687" lon="4.93254">
        <ele>180.6</ele>
        <time>2014-10-12T09:53:16Z</time>
      </trkpt>
      <trkpt lat="45.80691" lon="4.93249">
        <ele>180.6</ele>
        <time>2014-10-12T09:53:17Z</time>
      </trkpt>
      <trkpt lat="45.80707" lon="4.9323">
        <ele>180.6</ele>
        <time>2014-10-12T09:53:21Z</time>
      </trkpt>
      <trkpt lat="45.8071" lon="4.93225">
        <ele>180.6</ele>
        <time>2014-10-12T09:53:22Z</time>
      </trkpt>
      <trkpt lat="45.80714" lon="4.93219">
        <ele>180.6</ele>
        <time>2014-10-12T09:53:23Z</time>
      </trkpt>
      <trkpt lat="45.80722" lon="4.93208">
        <ele>180.6</ele>
        <time>2014-10-12T09:53:25Z</time>
      </trkpt>
      <trkpt lat="45.80724" lon="4.93201">
        <ele>180.6</ele>
        <time>2014-10-12T09:53:26Z</time>
      </trkpt>
      <trkpt lat="45.80728" lon="4.93182">
        <ele>180.6</ele>
        <time>2014-10-12T09:53:29Z</time>
      </trkpt>
      <trkpt lat="45.80739" lon="4.93168">
        <ele>180.6</ele>
        <time>2014-10-12T09:53:32Z</time>
      </trkpt>
      <trkpt lat="45.80742" lon="4.93163">
        <ele>180.6</ele>
        <time>2014-10-12T09:53:33Z</time>
      </trkpt>
      <trkpt lat="45.80746" lon="4.93159">
        <ele>180.6</ele>
        <time>2014-10-12T09:53:34Z</time>
      </trkpt>
      <trkpt lat="45.8075" lon="4.93155">
        <ele>180.6</ele>
        <time>2014-10-12T09:53:35Z</time>
      </trkpt>
      <trkpt lat="45.8076" lon="4.93147">
        <ele>180.6</ele>
        <time>2014-10-12T09:53:37Z</time>
      </trkpt>
      <trkpt lat="45.80764" lon="4.93142">
        <ele>180.6</ele>
        <time>2014-10-12T09:53:38Z</time>
      </trkpt>
      <trkpt lat="45.80778" lon="4.93127">
        <ele>180.4</ele>
        <time>2014-10-12T09:53:41Z</time>
      </trkpt>
      <trkpt lat="45.80787" lon="4.93117">
        <ele>180.4</ele>
        <time>2014-10-12T09:53:43Z</time>
      </trkpt>
      <trkpt lat="45.80795" lon="4.93108">
        <ele>180.4</ele>
        <time>2014-10-12T09:53:45Z</time>
      </trkpt>
      <trkpt lat="45.80807" lon="4.931">
        <ele>180.4</ele>
        <time>2014-10-12T09:53:47Z</time>
      </trkpt>
      <trkpt lat="45.80813" lon="4.93095">
        <ele>180.4</ele>
        <time>2014-10-12T09:53:48Z</time>
      </trkpt>
      <trkpt lat="45.80832" lon="4.93084">
        <ele>180.4</ele>
        <time>2014-10-12T09:53:51Z</time>
      </trkpt>
      <trkpt lat="45.80872" lon="4.93066">
        <ele>180.4</ele>
        <time>2014-10-12T09:53:56Z</time>
      </trkpt>
      <trkpt lat="45.80871" lon="4.93057">
        <ele>180.4</ele>
        <time>2014-10-12T09:53:58Z</time>
      </trkpt>
      <trkpt lat="45.80867" lon="4.93047">
        <ele>180.6</ele>
        <time>2014-10-12T09:54:01Z</time>
      </trkpt>
      <trkpt lat="45.80866" lon="4.93043">
        <ele>180.8</ele>
        <time>2014-10-12T09:54:02Z</time>
      </trkpt>
      <trkpt lat="45.80865" lon="4.93039">
        <ele>181</ele>
        <time>2014-10-12T09:54:03Z</time>
      </trkpt>
      <trkpt lat="45.80862" lon="4.93031">
        <ele>181</ele>
        <time>2014-10-12T09:54:05Z</time>
      </trkpt>
      <trkpt lat="45.80854" lon="4.93015">
        <ele>181.2</ele>
        <time>2014-10-12T09:54:08Z</time>
      </trkpt>
      <trkpt lat="45.8085" lon="4.93009">
        <ele>181.2</ele>
        <time>2014-10-12T09:54:09Z</time>
      </trkpt>
      <trkpt lat="45.80847" lon="4.93005">
        <ele>181.2</ele>
        <time>2014-10-12T09:54:10Z</time>
      </trkpt>
      <trkpt lat="45.80841" lon="4.92995">
        <ele>181.2</ele>
        <time>2014-10-12T09:54:12Z</time>
      </trkpt>
      <trkpt lat="45.80839" lon="4.9299">
        <ele>181.2</ele>
        <time>2014-10-12T09:54:13Z</time>
      </trkpt>
      <trkpt lat="45.80836" lon="4.92984">
        <ele>181.2</ele>
        <time>2014-10-12T09:54:14Z</time>
      </trkpt>
      <trkpt lat="45.80829" lon="4.92971">
        <ele>181.4</ele>
        <time>2014-10-12T09:54:17Z</time>
      </trkpt>
      <trkpt lat="45.80828" lon="4.92966">
        <ele>181.4</ele>
        <time>2014-10-12T09:54:18Z</time>
      </trkpt>
      <trkpt lat="45.80826" lon="4.9296">
        <ele>181.4</ele>
        <time>2014-10-12T09:54:19Z</time>
      </trkpt>
      <trkpt lat="45.80821" lon="4.92942">
        <ele>181.6</ele>
        <time>2014-10-12T09:54:22Z</time>
      </trkpt>
      <trkpt lat="45.80818" lon="4.9293">
        <ele>181.6</ele>
        <time>2014-10-12T09:54:24Z</time>
      </trkpt>
      <trkpt lat="45.80813" lon="4.92918">
        <ele>181.8</ele>
        <time>2014-10-12T09:54:26Z</time>
      </trkpt>
      <trkpt lat="45.80809" lon="4.92905">
        <ele>181.6</ele>
        <time>2014-10-12T09:54:28Z</time>
      </trkpt>
      <trkpt lat="45.80807" lon="4.92898">
        <ele>181.8</ele>
        <time>2014-10-12T09:54:29Z</time>
      </trkpt>
      <trkpt lat="45.80806" lon="4.92891">
        <ele>181.8</ele>
        <time>2014-10-12T09:54:30Z</time>
      </trkpt>
      <trkpt lat="45.80801" lon="4.92869">
        <ele>182</ele>
        <time>2014-10-12T09:54:33Z</time>
      </trkpt>
      <trkpt lat="45.80799" lon="4.92863">
        <ele>182</ele>
        <time>2014-10-12T09:54:34Z</time>
      </trkpt>
      <trkpt lat="45.80797" lon="4.92856">
        <ele>182</ele>
        <time>2014-10-12T09:54:35Z</time>
      </trkpt>
      <trkpt lat="45.80796" lon="4.92849">
        <ele>182</ele>
        <time>2014-10-12T09:54:36Z</time>
      </trkpt>
      <trkpt lat="45.80793" lon="4.92833">
        <ele>182</ele>
        <time>2014-10-12T09:54:38Z</time>
      </trkpt>
      <trkpt lat="45.80791" lon="4.92818">
        <ele>182</ele>
        <time>2014-10-12T09:54:40Z</time>
      </trkpt>
      <trkpt lat="45.80788" lon="4.92805">
        <ele>182.2</ele>
        <time>2014-10-12T09:54:42Z</time>
      </trkpt>
      <trkpt lat="45.80787" lon="4.92798">
        <ele>182.2</ele>
        <time>2014-10-12T09:54:43Z</time>
      </trkpt>
      <trkpt lat="45.80783" lon="4.92777">
        <ele>182.4</ele>
        <time>2014-10-12T09:54:46Z</time>
      </trkpt>
      <trkpt lat="45.80777" lon="4.92751">
        <ele>182.6</ele>
        <time>2014-10-12T09:54:50Z</time>
      </trkpt>
      <trkpt lat="45.80774" lon="4.92738">
        <ele>182.8</ele>
        <time>2014-10-12T09:54:52Z</time>
      </trkpt>
      <trkpt lat="45.80773" lon="4.92731">
        <ele>182.8</ele>
        <time>2014-10-12T09:54:53Z</time>
      </trkpt>
      <trkpt lat="45.80771" lon="4.92725">
        <ele>182.8</ele>
        <time>2014-10-12T09:54:54Z</time>
      </trkpt>
      <trkpt lat="45.80768" lon="4.92705">
        <ele>183</ele>
        <time>2014-10-12T09:54:57Z</time>
      </trkpt>
      <trkpt lat="45.80766" lon="4.92698">
        <ele>183.2</ele>
        <time>2014-10-12T09:54:58Z</time>
      </trkpt>
      <trkpt lat="45.80761" lon="4.92679">
        <ele>183.2</ele>
        <time>2014-10-12T09:55:01Z</time>
      </trkpt>
      <trkpt lat="45.8076" lon="4.92673">
        <ele>183.2</ele>
        <time>2014-10-12T09:55:02Z</time>
      </trkpt>
      <trkpt lat="45.80758" lon="4.92666">
        <ele>183.2</ele>
        <time>2014-10-12T09:55:03Z</time>
      </trkpt>
      <trkpt lat="45.80753" lon="4.92647">
        <ele>183.4</ele>
        <time>2014-10-12T09:55:06Z</time>
      </trkpt>
      <trkpt lat="45.80749" lon="4.92634">
        <ele>183.4</ele>
        <time>2014-10-12T09:55:08Z</time>
      </trkpt>
      <trkpt lat="45.80744" lon="4.92622">
        <ele>183.6</ele>
        <time>2014-10-12T09:55:10Z</time>
      </trkpt>
      <trkpt lat="45.80736" lon="4.92597">
        <ele>183.6</ele>
        <time>2014-10-12T09:55:14Z</time>
      </trkpt>
      <trkpt lat="45.8073" lon="4.92586">
        <ele>183.8</ele>
        <time>2014-10-12T09:55:16Z</time>
      </trkpt>
      <trkpt lat="45.80725" lon="4.92574">
        <ele>183.8</ele>
        <time>2014-10-12T09:55:18Z</time>
      </trkpt>
      <trkpt lat="45.80723" lon="4.92568">
        <ele>183.8</ele>
        <time>2014-10-12T09:55:19Z</time>
      </trkpt>
      <trkpt lat="45.80719" lon="4.92555">
        <ele>184</ele>
        <time>2014-10-12T09:55:21Z</time>
      </trkpt>
      <trkpt lat="45.80717" lon="4.92549">
        <ele>184</ele>
        <time>2014-10-12T09:55:22Z</time>
      </trkpt>
      <trkpt lat="45.8071" lon="4.92523">
        <ele>184.2</ele>
        <time>2014-10-12T09:55:26Z</time>
      </trkpt>
      <trkpt lat="45.80708" lon="4.9251">
        <ele>184.4</ele>
        <time>2014-10-12T09:55:28Z</time>
      </trkpt>
      <trkpt lat="45.80704" lon="4.92497">
        <ele>184.6</ele>
        <time>2014-10-12T09:55:30Z</time>
      </trkpt>
      <trkpt lat="45.80701" lon="4.92484">
        <ele>184.8</ele>
        <time>2014-10-12T09:55:32Z</time>
      </trkpt>
      <trkpt lat="45.80698" lon="4.92472">
        <ele>185.2</ele>
        <time>2014-10-12T09:55:34Z</time>
      </trkpt>
      <trkpt lat="45.80693" lon="4.92452">
        <ele>185.6</ele>
        <time>2014-10-12T09:55:37Z</time>
      </trkpt>
      <trkpt lat="45.80691" lon="4.92445">
        <ele>185.6</ele>
        <time>2014-10-12T09:55:38Z</time>
      </trkpt>
      <trkpt lat="45.80691" lon="4.92439">
        <ele>185.6</ele>
        <time>2014-10-12T09:55:39Z</time>
      </trkpt>
      <trkpt lat="45.80689" lon="4.92419">
        <ele>185.6</ele>
        <time>2014-10-12T09:55:42Z</time>
      </trkpt>
      <trkpt lat="45.80684" lon="4.92393">
        <ele>185.6</ele>
        <time>2014-10-12T09:55:46Z</time>
      </trkpt>
      <trkpt lat="45.80678" lon="4.92373">
        <ele>185.6</ele>
        <time>2014-10-12T09:55:49Z</time>
      </trkpt>
      <trkpt lat="45.80677" lon="4.92366">
        <ele>185.4</ele>
        <time>2014-10-12T09:55:50Z</time>
      </trkpt>
      <trkpt lat="45.80677" lon="4.92359">
        <ele>185.4</ele>
        <time>2014-10-12T09:55:51Z</time>
      </trkpt>
      <trkpt lat="45.80678" lon="4.92337">
        <ele>185.4</ele>
        <time>2014-10-12T09:55:55Z</time>
      </trkpt>
      <trkpt lat="45.80684" lon="4.92336">
        <ele>185.2</ele>
        <time>2014-10-12T09:55:58Z</time>
      </trkpt>
      <trkpt lat="45.80687" lon="4.92338">
        <ele>185</ele>
        <time>2014-10-12T09:56:02Z</time>
      </trkpt>
      <trkpt lat="45.80689" lon="4.92343">
        <ele>184.6</ele>
        <time>2014-10-12T09:56:08Z</time>
      </trkpt>
      <trkpt lat="45.80694" lon="4.92349">
        <ele>184.6</ele>
        <time>2014-10-12T09:56:10Z</time>
      </trkpt>
      <trkpt lat="45.80699" lon="4.92356">
        <ele>184.4</ele>
        <time>2014-10-12T09:56:12Z</time>
      </trkpt>
      <trkpt lat="45.80708" lon="4.92366">
        <ele>184.4</ele>
        <time>2014-10-12T09:56:15Z</time>
      </trkpt>
      <trkpt lat="45.80722" lon="4.92382">
        <ele>184.2</ele>
        <time>2014-10-12T09:56:19Z</time>
      </trkpt>
      <trkpt lat="45.80725" lon="4.92386">
        <ele>184.2</ele>
        <time>2014-10-12T09:56:20Z</time>
      </trkpt>
      <trkpt lat="45.80739" lon="4.92399">
        <ele>184.2</ele>
        <time>2014-10-12T09:56:23Z</time>
      </trkpt>
      <trkpt lat="45.80744" lon="4.92402">
        <ele>184.2</ele>
        <time>2014-10-12T09:56:24Z</time>
      </trkpt>
      <trkpt lat="45.80748" lon="4.92406">
        <ele>184.2</ele>
        <time>2014-10-12T09:56:25Z</time>
      </trkpt>
      <trkpt lat="45.80762" lon="4.92421">
        <ele>184.2</ele>
        <time>2014-10-12T09:56:29Z</time>
      </trkpt>
      <trkpt lat="45.80768" lon="4.92427">
        <ele>184.2</ele>
        <time>2014-10-12T09:56:31Z</time>
      </trkpt>
      <trkpt lat="45.80773" lon="4.92434">
        <ele>184.2</ele>
        <time>2014-10-12T09:56:33Z</time>
      </trkpt>
      <trkpt lat="45.80777" lon="4.92437">
        <ele>184.2</ele>
        <time>2014-10-12T09:56:34Z</time>
      </trkpt>
      <trkpt lat="45.80784" lon="4.92446">
        <ele>184.2</ele>
        <time>2014-10-12T09:56:37Z</time>
      </trkpt>
      <trkpt lat="45.80785" lon="4.92449">
        <ele>184.2</ele>
        <time>2014-10-12T09:56:38Z</time>
      </trkpt>
      <trkpt lat="45.80788" lon="4.92457">
        <ele>184.4</ele>
        <time>2014-10-12T09:56:40Z</time>
      </trkpt>
      <trkpt lat="45.80793" lon="4.92463">
        <ele>184.6</ele>
        <time>2014-10-12T09:56:42Z</time>
      </trkpt>
      <trkpt lat="45.80803" lon="4.92477">
        <ele>184.8</ele>
        <time>2014-10-12T09:56:46Z</time>
      </trkpt>
      <trkpt lat="45.80805" lon="4.9248">
        <ele>184.8</ele>
        <time>2014-10-12T09:56:47Z</time>
      </trkpt>
      <trkpt lat="45.80813" lon="4.92502">
        <ele>185</ele>
        <time>2014-10-12T09:56:52Z</time>
      </trkpt>
      <trkpt lat="45.80822" lon="4.92528">
        <ele>185.4</ele>
        <time>2014-10-12T09:56:56Z</time>
      </trkpt>
      <trkpt lat="45.8083" lon="4.92544">
        <ele>185.8</ele>
        <time>2014-10-12T09:56:59Z</time>
      </trkpt>
      <trkpt lat="45.80833" lon="4.92549">
        <ele>185.6</ele>
        <time>2014-10-12T09:57:00Z</time>
      </trkpt>
      <trkpt lat="45.80836" lon="4.92554">
        <ele>186</ele>
        <time>2014-10-12T09:57:01Z</time>
      </trkpt>
      <trkpt lat="45.80842" lon="4.92573">
        <ele>186.2</ele>
        <time>2014-10-12T09:57:04Z</time>
      </trkpt>
      <trkpt lat="45.80842" lon="4.92577">
        <ele>186.4</ele>
        <time>2014-10-12T09:57:05Z</time>
      </trkpt>
      <trkpt lat="45.80845" lon="4.92583">
        <ele>186.4</ele>
        <time>2014-10-12T09:57:07Z</time>
      </trkpt>
      <trkpt lat="45.80847" lon="4.92593">
        <ele>187.2</ele>
        <time>2014-10-12T09:57:11Z</time>
      </trkpt>
      <trkpt lat="45.8085" lon="4.92599">
        <ele>187.4</ele>
        <time>2014-10-12T09:57:13Z</time>
      </trkpt>
      <trkpt lat="45.80855" lon="4.92609">
        <ele>187.6</ele>
        <time>2014-10-12T09:57:16Z</time>
      </trkpt>
      <trkpt lat="45.80857" lon="4.92615">
        <ele>187.8</ele>
        <time>2014-10-12T09:57:18Z</time>
      </trkpt>
      <trkpt lat="45.80859" lon="4.9262">
        <ele>188</ele>
        <time>2014-10-12T09:57:20Z</time>
      </trkpt>
      <trkpt lat="45.80861" lon="4.92622">
        <ele>187.8</ele>
        <time>2014-10-12T09:57:22Z</time>
      </trkpt>
      <trkpt lat="45.8086" lon="4.92627">
        <ele>194.6</ele>
        <time>2014-10-12T09:57:55Z</time>
      </trkpt>
      <trkpt lat="45.80863" lon="4.92633">
        <ele>194.6</ele>
        <time>2014-10-12T09:57:57Z</time>
      </trkpt>
      <trkpt lat="45.80866" lon="4.92642">
        <ele>194.6</ele>
        <time>2014-10-12T09:57:59Z</time>
      </trkpt>
      <trkpt lat="45.80867" lon="4.92658">
        <ele>194.4</ele>
        <time>2014-10-12T09:58:02Z</time>
      </trkpt>
      <trkpt lat="45.80866" lon="4.92668">
        <ele>194.6</ele>
        <time>2014-10-12T09:58:04Z</time>
      </trkpt>
      <trkpt lat="45.80871" lon="4.92688">
        <ele>194.8</ele>
        <time>2014-10-12T09:58:08Z</time>
      </trkpt>
      <trkpt lat="45.80872" lon="4.92694">
        <ele>194.8</ele>
        <time>2014-10-12T09:58:09Z</time>
      </trkpt>
      <trkpt lat="45.80875" lon="4.92721">
        <ele>194.6</ele>
        <time>2014-10-12T09:58:14Z</time>
      </trkpt>
      <trkpt lat="45.80874" lon="4.92748">
        <ele>194.6</ele>
        <time>2014-10-12T09:58:18Z</time>
      </trkpt>
      <trkpt lat="45.80874" lon="4.92756">
        <ele>194.6</ele>
        <time>2014-10-12T09:58:19Z</time>
      </trkpt>
      <trkpt lat="45.80874" lon="4.92771">
        <ele>194.4</ele>
        <time>2014-10-12T09:58:21Z</time>
      </trkpt>
      <trkpt lat="45.80875" lon="4.92778">
        <ele>194.4</ele>
        <time>2014-10-12T09:58:22Z</time>
      </trkpt>
      <trkpt lat="45.80878" lon="4.9279">
        <ele>194.4</ele>
        <time>2014-10-12T09:58:24Z</time>
      </trkpt>
      <trkpt lat="45.8088" lon="4.928">
        <ele>194.4</ele>
        <time>2014-10-12T09:58:26Z</time>
      </trkpt>
      <trkpt lat="45.80882" lon="4.92804">
        <ele>194.6</ele>
        <time>2014-10-12T09:58:27Z</time>
      </trkpt>
      <trkpt lat="45.80887" lon="4.92811">
        <ele>194.6</ele>
        <time>2014-10-12T09:58:29Z</time>
      </trkpt>
      <trkpt lat="45.80897" lon="4.92817">
        <ele>194.6</ele>
        <time>2014-10-12T09:58:31Z</time>
      </trkpt>
      <trkpt lat="45.80904" lon="4.92819">
        <ele>194.4</ele>
        <time>2014-10-12T09:58:32Z</time>
      </trkpt>
      <trkpt lat="45.80911" lon="4.92822">
        <ele>194.2</ele>
        <time>2014-10-12T09:58:33Z</time>
      </trkpt>
      <trkpt lat="45.80922" lon="4.92827">
        <ele>194.2</ele>
        <time>2014-10-12T09:58:35Z</time>
      </trkpt>
      <trkpt lat="45.80936" lon="4.92832">
        <ele>194</ele>
        <time>2014-10-12T09:58:38Z</time>
      </trkpt>
      <trkpt lat="45.8094" lon="4.92833">
        <ele>193.8</ele>
        <time>2014-10-12T09:58:39Z</time>
      </trkpt>
      <trkpt lat="45.80944" lon="4.92837">
        <ele>193.8</ele>
        <time>2014-10-12T09:58:40Z</time>
      </trkpt>
      <trkpt lat="45.80952" lon="4.92847">
        <ele>193.6</ele>
        <time>2014-10-12T09:58:42Z</time>
      </trkpt>
      <trkpt lat="45.80955" lon="4.92854">
        <ele>193.6</ele>
        <time>2014-10-12T09:58:43Z</time>
      </trkpt>
      <trkpt lat="45.80962" lon="4.92868">
        <ele>193.6</ele>
        <time>2014-10-12T09:58:45Z</time>
      </trkpt>
      <trkpt lat="45.80966" lon="4.92876">
        <ele>193.4</ele>
        <time>2014-10-12T09:58:46Z</time>
      </trkpt>
      <trkpt lat="45.80983" lon="4.92896">
        <ele>193</ele>
        <time>2014-10-12T09:58:50Z</time>
      </trkpt>
      <trkpt lat="45.80999" lon="4.92918">
        <ele>192.8</ele>
        <time>2014-10-12T09:58:54Z</time>
      </trkpt>
      <trkpt lat="45.81005" lon="4.92929">
        <ele>192.6</ele>
        <time>2014-10-12T09:58:56Z</time>
      </trkpt>
      <trkpt lat="45.81013" lon="4.92941">
        <ele>192.4</ele>
        <time>2014-10-12T09:58:58Z</time>
      </trkpt>
      <trkpt lat="45.8103" lon="4.92964">
        <ele>192</ele>
        <time>2014-10-12T09:59:02Z</time>
      </trkpt>
      <trkpt lat="45.81034" lon="4.92968">
        <ele>192</ele>
        <time>2014-10-12T09:59:03Z</time>
      </trkpt>
      <trkpt lat="45.81043" lon="4.92977">
        <ele>191.8</ele>
        <time>2014-10-12T09:59:05Z</time>
      </trkpt>
      <trkpt lat="45.81048" lon="4.9298">
        <ele>191.8</ele>
        <time>2014-10-12T09:59:06Z</time>
      </trkpt>
      <trkpt lat="45.81058" lon="4.92989">
        <ele>191.6</ele>
        <time>2014-10-12T09:59:08Z</time>
      </trkpt>
      <trkpt lat="45.81067" lon="4.92997">
        <ele>191.4</ele>
        <time>2014-10-12T09:59:10Z</time>
      </trkpt>
      <trkpt lat="45.8108" lon="4.93013">
        <ele>191.2</ele>
        <time>2014-10-12T09:59:13Z</time>
      </trkpt>
      <trkpt lat="45.81083" lon="4.93018">
        <ele>191.2</ele>
        <time>2014-10-12T09:59:14Z</time>
      </trkpt>
      <trkpt lat="45.81086" lon="4.93022">
        <ele>191.2</ele>
        <time>2014-10-12T09:59:15Z</time>
      </trkpt>
      <trkpt lat="45.81095" lon="4.9304">
        <ele>191</ele>
        <time>2014-10-12T09:59:18Z</time>
      </trkpt>
      <trkpt lat="45.81103" lon="4.93055">
        <ele>191</ele>
        <time>2014-10-12T09:59:21Z</time>
      </trkpt>
      <trkpt lat="45.8111" lon="4.93062">
        <ele>191</ele>
        <time>2014-10-12T09:59:23Z</time>
      </trkpt>
      <trkpt lat="45.81128" lon="4.93075">
        <ele>190.8</ele>
        <time>2014-10-12T09:59:27Z</time>
      </trkpt>
      <trkpt lat="45.81131" lon="4.93079">
        <ele>190.8</ele>
        <time>2014-10-12T09:59:28Z</time>
      </trkpt>
      <trkpt lat="45.81133" lon="4.93086">
        <ele>190.8</ele>
        <time>2014-10-12T09:59:29Z</time>
      </trkpt>
      <trkpt lat="45.81135" lon="4.93104">
        <ele>190.6</ele>
        <time>2014-10-12T09:59:31Z</time>
      </trkpt>
      <trkpt lat="45.81138" lon="4.93125">
        <ele>190.4</ele>
        <time>2014-10-12T09:59:34Z</time>
      </trkpt>
      <trkpt lat="45.81141" lon="4.9313">
        <ele>190.4</ele>
        <time>2014-10-12T09:59:35Z</time>
      </trkpt>
      <trkpt lat="45.81148" lon="4.93139">
        <ele>190.2</ele>
        <time>2014-10-12T09:59:37Z</time>
      </trkpt>
      <trkpt lat="45.81152" lon="4.93142">
        <ele>190</ele>
        <time>2014-10-12T09:59:38Z</time>
      </trkpt>
      <trkpt lat="45.81156" lon="4.93146">
        <ele>190</ele>
        <time>2014-10-12T09:59:39Z</time>
      </trkpt>
      <trkpt lat="45.8116" lon="4.93151">
        <ele>190</ele>
        <time>2014-10-12T09:59:40Z</time>
      </trkpt>
      <trkpt lat="45.81167" lon="4.93163">
        <ele>189.8</ele>
        <time>2014-10-12T09:59:42Z</time>
      </trkpt>
      <trkpt lat="45.8117" lon="4.93169">
        <ele>189.6</ele>
        <time>2014-10-12T09:59:43Z</time>
      </trkpt>
      <trkpt lat="45.81172" lon="4.93175">
        <ele>189.6</ele>
        <time>2014-10-12T09:59:44Z</time>
      </trkpt>
      <trkpt lat="45.81177" lon="4.93188">
        <ele>189.4</ele>
        <time>2014-10-12T09:59:46Z</time>
      </trkpt>
      <trkpt lat="45.81181" lon="4.93194">
        <ele>189.4</ele>
        <time>2014-10-12T09:59:47Z</time>
      </trkpt>
      <trkpt lat="45.81195" lon="4.93216">
        <ele>189</ele>
        <time>2014-10-12T09:59:51Z</time>
      </trkpt>
      <trkpt lat="45.81199" lon="4.93221">
        <ele>189</ele>
        <time>2014-10-12T09:59:52Z</time>
      </trkpt>
      <trkpt lat="45.81204" lon="4.93231">
        <ele>189</ele>
        <time>2014-10-12T09:59:54Z</time>
      </trkpt>
      <trkpt lat="45.81208" lon="4.93238">
        <ele>189</ele>
        <time>2014-10-12T09:59:55Z</time>
      </trkpt>
      <trkpt lat="45.81215" lon="4.93251">
        <ele>189</ele>
        <time>2014-10-12T09:59:57Z</time>
      </trkpt>
      <trkpt lat="45.8122" lon="4.93263">
        <ele>188.8</ele>
        <time>2014-10-12T09:59:59Z</time>
      </trkpt>
      <trkpt lat="45.81233" lon="4.93289">
        <ele>188.8</ele>
        <time>2014-10-12T10:00:03Z</time>
      </trkpt>
      <trkpt lat="45.81236" lon="4.93296">
        <ele>188.8</ele>
        <time>2014-10-12T10:00:04Z</time>
      </trkpt>
      <trkpt lat="45.81242" lon="4.93318">
        <ele>188.8</ele>
        <time>2014-10-12T10:00:07Z</time>
      </trkpt>
      <trkpt lat="45.81247" lon="4.93335">
        <ele>188.6</ele>
        <time>2014-10-12T10:00:09Z</time>
      </trkpt>
      <trkpt lat="45.81251" lon="4.93349">
        <ele>188.6</ele>
        <time>2014-10-12T10:00:11Z</time>
      </trkpt>
      <trkpt lat="45.8126" lon="4.93369">
        <ele>188.6</ele>
        <time>2014-10-12T10:00:14Z</time>
      </trkpt>
      <trkpt lat="45.81262" lon="4.93375">
        <ele>188.6</ele>
        <time>2014-10-12T10:00:15Z</time>
      </trkpt>
      <trkpt lat="45.81274" lon="4.93402">
        <ele>188.6</ele>
        <time>2014-10-12T10:00:19Z</time>
      </trkpt>
      <trkpt lat="45.81281" lon="4.93416">
        <ele>188.6</ele>
        <time>2014-10-12T10:00:21Z</time>
      </trkpt>
      <trkpt lat="45.81289" lon="4.93429">
        <ele>188.6</ele>
        <time>2014-10-12T10:00:23Z</time>
      </trkpt>
      <trkpt lat="45.81302" lon="4.93446">
        <ele>188.6</ele>
        <time>2014-10-12T10:00:26Z</time>
      </trkpt>
      <trkpt lat="45.81305" lon="4.93453">
        <ele>188.6</ele>
        <time>2014-10-12T10:00:27Z</time>
      </trkpt>
      <trkpt lat="45.81313" lon="4.93466">
        <ele>188.6</ele>
        <time>2014-10-12T10:00:29Z</time>
      </trkpt>
      <trkpt lat="45.81319" lon="4.9348">
        <ele>188.6</ele>
        <time>2014-10-12T10:00:31Z</time>
      </trkpt>
      <trkpt lat="45.81328" lon="4.93501">
        <ele>188.4</ele>
        <time>2014-10-12T10:00:34Z</time>
      </trkpt>
      <trkpt lat="45.81332" lon="4.93507">
        <ele>188.4</ele>
        <time>2014-10-12T10:00:35Z</time>
      </trkpt>
      <trkpt lat="45.8134" lon="4.9352">
        <ele>188.4</ele>
        <time>2014-10-12T10:00:37Z</time>
      </trkpt>
      <trkpt lat="45.81346" lon="4.93532">
        <ele>188.4</ele>
        <time>2014-10-12T10:00:39Z</time>
      </trkpt>
      <trkpt lat="45.81352" lon="4.93542">
        <ele>188.2</ele>
        <time>2014-10-12T10:00:41Z</time>
      </trkpt>
      <trkpt lat="45.81355" lon="4.93547">
        <ele>188.2</ele>
        <time>2014-10-12T10:00:42Z</time>
      </trkpt>
      <trkpt lat="45.81357" lon="4.93551">
        <ele>188.2</ele>
        <time>2014-10-12T10:00:43Z</time>
      </trkpt>
      <trkpt lat="45.81358" lon="4.93555">
        <ele>188.2</ele>
        <time>2014-10-12T10:00:44Z</time>
      </trkpt>
      <trkpt lat="45.81359" lon="4.93563">
        <ele>188.2</ele>
        <time>2014-10-12T10:00:46Z</time>
      </trkpt>
      <trkpt lat="45.81359" lon="4.93567">
        <ele>188</ele>
        <time>2014-10-12T10:00:47Z</time>
      </trkpt>
      <trkpt lat="45.81361" lon="4.93571">
        <ele>188</ele>
        <time>2014-10-12T10:00:50Z</time>
      </trkpt>
      <trkpt lat="45.81361" lon="4.9357">
        <ele>187.8</ele>
        <time>2014-10-12T10:00:51Z</time>
      </trkpt>
      <trkpt lat="45.81361" lon="4.93569">
        <ele>187.8</ele>
        <time>2014-10-12T10:00:54Z</time>
      </trkpt>
      <trkpt lat="45.81366" lon="4.93574">
        <ele>187.4</ele>
        <time>2014-10-12T10:01:01Z</time>
      </trkpt>
      <trkpt lat="45.81373" lon="4.93591">
        <ele>187</ele>
        <time>2014-10-12T10:01:05Z</time>
      </trkpt>
      <trkpt lat="45.81375" lon="4.93597">
        <ele>187</ele>
        <time>2014-10-12T10:01:06Z</time>
      </trkpt>
      <trkpt lat="45.81382" lon="4.93615">
        <ele>186.8</ele>
        <time>2014-10-12T10:01:10Z</time>
      </trkpt>
      <trkpt lat="45.81383" lon="4.93621">
        <ele>186.8</ele>
        <time>2014-10-12T10:01:12Z</time>
      </trkpt>
      <trkpt lat="45.81383" lon="4.93621">
        <ele>186.6</ele>
        <time>2014-10-12T10:01:14Z</time>
      </trkpt>
      <trkpt lat="45.81381" lon="4.93621">
        <ele>186.4</ele>
        <time>2014-10-12T10:01:26Z</time>
      </trkpt>
      <trkpt lat="45.81385" lon="4.93628">
        <ele>186.4</ele>
        <time>2014-10-12T10:01:29Z</time>
      </trkpt>
      <trkpt lat="45.81393" lon="4.93643">
        <ele>186.4</ele>
        <time>2014-10-12T10:01:33Z</time>
      </trkpt>
      <trkpt lat="45.81399" lon="4.93655">
        <ele>186.4</ele>
        <time>2014-10-12T10:01:36Z</time>
      </trkpt>
      <trkpt lat="45.81403" lon="4.93665">
        <ele>186.2</ele>
        <time>2014-10-12T10:01:38Z</time>
      </trkpt>
      <trkpt lat="45.81415" lon="4.93691">
        <ele>186</ele>
        <time>2014-10-12T10:01:43Z</time>
      </trkpt>
      <trkpt lat="45.81426" lon="4.93716">
        <ele>185.8</ele>
        <time>2014-10-12T10:01:47Z</time>
      </trkpt>
      <trkpt lat="45.81438" lon="4.93742">
        <ele>185.6</ele>
        <time>2014-10-12T10:01:51Z</time>
      </trkpt>
      <trkpt lat="45.8144" lon="4.93748">
        <ele>185.6</ele>
        <time>2014-10-12T10:01:52Z</time>
      </trkpt>
      <trkpt lat="45.81449" lon="4.93768">
        <ele>185.4</ele>
        <time>2014-10-12T10:01:55Z</time>
      </trkpt>
      <trkpt lat="45.81462" lon="4.93795">
        <ele>185.2</ele>
        <time>2014-10-12T10:01:59Z</time>
      </trkpt>
      <trkpt lat="45.81465" lon="4.93802">
        <ele>185</ele>
        <time>2014-10-12T10:02:00Z</time>
      </trkpt>
      <trkpt lat="45.81474" lon="4.93822">
        <ele>185</ele>
        <time>2014-10-12T10:02:03Z</time>
      </trkpt>
      <trkpt lat="45.81487" lon="4.93849">
        <ele>184.6</ele>
        <time>2014-10-12T10:02:07Z</time>
      </trkpt>
      <trkpt lat="45.8149" lon="4.93856">
        <ele>184.6</ele>
        <time>2014-10-12T10:02:08Z</time>
      </trkpt>
      <trkpt lat="45.81499" lon="4.93876">
        <ele>184.4</ele>
        <time>2014-10-12T10:02:11Z</time>
      </trkpt>
      <trkpt lat="45.81512" lon="4.93905">
        <ele>184.2</ele>
        <time>2014-10-12T10:02:15Z</time>
      </trkpt>
      <trkpt lat="45.81516" lon="4.93912">
        <ele>184.2</ele>
        <time>2014-10-12T10:02:16Z</time>
      </trkpt>
      <trkpt lat="45.81523" lon="4.93927">
        <ele>184</ele>
        <time>2014-10-12T10:02:18Z</time>
      </trkpt>
      <trkpt lat="45.81533" lon="4.93949">
        <ele>183.8</ele>
        <time>2014-10-12T10:02:21Z</time>
      </trkpt>
      <trkpt lat="45.81537" lon="4.93956">
        <ele>183.8</ele>
        <time>2014-10-12T10:02:22Z</time>
      </trkpt>
      <trkpt lat="45.81544" lon="4.93971">
        <ele>183.6</ele>
        <time>2014-10-12T10:02:24Z</time>
      </trkpt>
      <trkpt lat="45.81554" lon="4.93993">
        <ele>183.6</ele>
        <time>2014-10-12T10:02:27Z</time>
      </trkpt>
      <trkpt lat="45.81561" lon="4.94007">
        <ele>183.4</ele>
        <time>2014-10-12T10:02:29Z</time>
      </trkpt>
      <trkpt lat="45.81564" lon="4.94015">
        <ele>183.4</ele>
        <time>2014-10-12T10:02:30Z</time>
      </trkpt>
      <trkpt lat="45.81575" lon="4.94039">
        <ele>183.2</ele>
        <time>2014-10-12T10:02:33Z</time>
      </trkpt>
      <trkpt lat="45.81586" lon="4.94062">
        <ele>183</ele>
        <time>2014-10-12T10:02:36Z</time>
      </trkpt>
      <trkpt lat="45.81597" lon="4.94085">
        <ele>183</ele>
        <time>2014-10-12T10:02:39Z</time>
      </trkpt>
      <trkpt lat="45.81607" lon="4.94108">
        <ele>183</ele>
        <time>2014-10-12T10:02:42Z</time>
      </trkpt>
      <trkpt lat="45.81617" lon="4.94131">
        <ele>183</ele>
        <time>2014-10-12T10:02:45Z</time>
      </trkpt>
      <trkpt lat="45.81629" lon="4.94161">
        <ele>183.6</ele>
        <time>2014-10-12T10:02:49Z</time>
      </trkpt>
      <trkpt lat="45.8164" lon="4.94185">
        <ele>183.6</ele>
        <time>2014-10-12T10:02:52Z</time>
      </trkpt>
      <trkpt lat="45.81651" lon="4.94209">
        <ele>183.6</ele>
        <time>2014-10-12T10:02:55Z</time>
      </trkpt>
      <trkpt lat="45.81655" lon="4.94217">
        <ele>183.6</ele>
        <time>2014-10-12T10:02:56Z</time>
      </trkpt>
      <trkpt lat="45.81662" lon="4.94232">
        <ele>183.8</ele>
        <time>2014-10-12T10:02:58Z</time>
      </trkpt>
      <trkpt lat="45.81673" lon="4.94254">
        <ele>183.6</ele>
        <time>2014-10-12T10:03:01Z</time>
      </trkpt>
      <trkpt lat="45.81679" lon="4.94266">
        <ele>183.6</ele>
        <time>2014-10-12T10:03:03Z</time>
      </trkpt>
      <trkpt lat="45.81682" lon="4.94272">
        <ele>183.6</ele>
        <time>2014-10-12T10:03:04Z</time>
      </trkpt>
      <trkpt lat="45.81685" lon="4.94277">
        <ele>183.6</ele>
        <time>2014-10-12T10:03:05Z</time>
      </trkpt>
      <trkpt lat="45.8169" lon="4.9429">
        <ele>183.4</ele>
        <time>2014-10-12T10:03:08Z</time>
      </trkpt>
      <trkpt lat="45.81688" lon="4.94299">
        <ele>183.4</ele>
        <time>2014-10-12T10:03:11Z</time>
      </trkpt>
      <trkpt lat="45.81686" lon="4.94302">
        <ele>183.4</ele>
        <time>2014-10-12T10:03:12Z</time>
      </trkpt>
      <trkpt lat="45.81676" lon="4.94305">
        <ele>183.2</ele>
        <time>2014-10-12T10:03:15Z</time>
      </trkpt>
      <trkpt lat="45.81666" lon="4.94306">
        <ele>183</ele>
        <time>2014-10-12T10:03:17Z</time>
      </trkpt>
      <trkpt lat="45.81661" lon="4.94308">
        <ele>183</ele>
        <time>2014-10-12T10:03:18Z</time>
      </trkpt>
      <trkpt lat="45.81656" lon="4.9431">
        <ele>183</ele>
        <time>2014-10-12T10:03:19Z</time>
      </trkpt>
      <trkpt lat="45.81645" lon="4.94314">
        <ele>182.8</ele>
        <time>2014-10-12T10:03:21Z</time>
      </trkpt>
      <trkpt lat="45.81627" lon="4.9432">
        <ele>182.6</ele>
        <time>2014-10-12T10:03:24Z</time>
      </trkpt>
      <trkpt lat="45.81621" lon="4.94322">
        <ele>182.6</ele>
        <time>2014-10-12T10:03:25Z</time>
      </trkpt>
      <trkpt lat="45.81604" lon="4.94329">
        <ele>182.2</ele>
        <time>2014-10-12T10:03:28Z</time>
      </trkpt>
      <trkpt lat="45.81598" lon="4.9433">
        <ele>182</ele>
        <time>2014-10-12T10:03:29Z</time>
      </trkpt>
      <trkpt lat="45.81584" lon="4.94332">
        <ele>181.8</ele>
        <time>2014-10-12T10:03:31Z</time>
      </trkpt>
      <trkpt lat="45.81578" lon="4.94334">
        <ele>181.8</ele>
        <time>2014-10-12T10:03:32Z</time>
      </trkpt>
      <trkpt lat="45.81571" lon="4.94336">
        <ele>181.8</ele>
        <time>2014-10-12T10:03:33Z</time>
      </trkpt>
      <trkpt lat="45.81565" lon="4.94339">
        <ele>181.6</ele>
        <time>2014-10-12T10:03:34Z</time>
      </trkpt>
      <trkpt lat="45.81545" lon="4.94347">
        <ele>181.4</ele>
        <time>2014-10-12T10:03:37Z</time>
      </trkpt>
      <trkpt lat="45.81538" lon="4.94349">
        <ele>181.2</ele>
        <time>2014-10-12T10:03:38Z</time>
      </trkpt>
      <trkpt lat="45.81526" lon="4.94354">
        <ele>181</ele>
        <time>2014-10-12T10:03:40Z</time>
      </trkpt>
      <trkpt lat="45.81514" lon="4.94359">
        <ele>180.8</ele>
        <time>2014-10-12T10:03:42Z</time>
      </trkpt>
      <trkpt lat="45.81503" lon="4.94363">
        <ele>180.8</ele>
        <time>2014-10-12T10:03:44Z</time>
      </trkpt>
      <trkpt lat="45.8148" lon="4.9437">
        <ele>180.6</ele>
        <time>2014-10-12T10:03:48Z</time>
      </trkpt>
      <trkpt lat="45.81457" lon="4.94379">
        <ele>180.4</ele>
        <time>2014-10-12T10:03:52Z</time>
      </trkpt>
      <trkpt lat="45.8144" lon="4.94385">
        <ele>180.2</ele>
        <time>2014-10-12T10:03:55Z</time>
      </trkpt>
      <trkpt lat="45.81435" lon="4.94387">
        <ele>180.2</ele>
        <time>2014-10-12T10:03:56Z</time>
      </trkpt>
      <trkpt lat="45.81416" lon="4.94393">
        <ele>180</ele>
        <time>2014-10-12T10:04:00Z</time>
      </trkpt>
      <trkpt lat="45.81396" lon="4.94401">
        <ele>179.8</ele>
        <time>2014-10-12T10:04:03Z</time>
      </trkpt>
      <trkpt lat="45.81391" lon="4.94403">
        <ele>179.6</ele>
        <time>2014-10-12T10:04:04Z</time>
      </trkpt>
      <trkpt lat="45.81378" lon="4.94406">
        <ele>179.6</ele>
        <time>2014-10-12T10:04:06Z</time>
      </trkpt>
      <trkpt lat="45.81357" lon="4.94412">
        <ele>179.4</ele>
        <time>2014-10-12T10:04:09Z</time>
      </trkpt>
      <trkpt lat="45.81351" lon="4.94414">
        <ele>179.4</ele>
        <time>2014-10-12T10:04:10Z</time>
      </trkpt>
      <trkpt lat="45.81339" lon="4.94416">
        <ele>179.2</ele>
        <time>2014-10-12T10:04:12Z</time>
      </trkpt>
      <trkpt lat="45.81333" lon="4.94417">
        <ele>179.2</ele>
        <time>2014-10-12T10:04:13Z</time>
      </trkpt>
      <trkpt lat="45.81327" lon="4.94418">
        <ele>179</ele>
        <time>2014-10-12T10:04:14Z</time>
      </trkpt>
      <trkpt lat="45.81319" lon="4.94419">
        <ele>179</ele>
        <time>2014-10-12T10:04:16Z</time>
      </trkpt>
      <trkpt lat="45.81318" lon="4.94419">
        <ele>179</ele>
        <time>2014-10-12T10:04:17Z</time>
      </trkpt>
      <trkpt lat="45.81317" lon="4.94421">
        <ele>178.8</ele>
        <time>2014-10-12T10:04:24Z</time>
      </trkpt>
      <trkpt lat="45.8131" lon="4.94428">
        <ele>184.4</ele>
        <time>2014-10-12T10:05:09Z</time>
      </trkpt>
      <trkpt lat="45.81306" lon="4.94438">
        <ele>184.4</ele>
        <time>2014-10-12T10:05:11Z</time>
      </trkpt>
      <trkpt lat="45.81304" lon="4.94451">
        <ele>184.2</ele>
        <time>2014-10-12T10:05:13Z</time>
      </trkpt>
      <trkpt lat="45.81305" lon="4.94459">
        <ele>184.2</ele>
        <time>2014-10-12T10:05:14Z</time>
      </trkpt>
      <trkpt lat="45.81308" lon="4.94466">
        <ele>184.2</ele>
        <time>2014-10-12T10:05:15Z</time>
      </trkpt>
      <trkpt lat="45.8131" lon="4.94474">
        <ele>184.2</ele>
        <time>2014-10-12T10:05:16Z</time>
      </trkpt>
      <trkpt lat="45.81314" lon="4.94497">
        <ele>184.2</ele>
        <time>2014-10-12T10:05:19Z</time>
      </trkpt>
      <trkpt lat="45.81315" lon="4.94505">
        <ele>184.2</ele>
        <time>2014-10-12T10:05:20Z</time>
      </trkpt>
      <trkpt lat="45.81319" lon="4.94521">
        <ele>184</ele>
        <time>2014-10-12T10:05:22Z</time>
      </trkpt>
      <trkpt lat="45.81321" lon="4.94529">
        <ele>184</ele>
        <time>2014-10-12T10:05:23Z</time>
      </trkpt>
      <trkpt lat="45.81327" lon="4.94554">
        <ele>184</ele>
        <time>2014-10-12T10:05:26Z</time>
      </trkpt>
      <trkpt lat="45.81334" lon="4.94586">
        <ele>183.8</ele>
        <time>2014-10-12T10:05:30Z</time>
      </trkpt>
      <trkpt lat="45.81339" lon="4.94611">
        <ele>183.8</ele>
        <time>2014-10-12T10:05:33Z</time>
      </trkpt>
      <trkpt lat="45.81344" lon="4.94636">
        <ele>183.6</ele>
        <time>2014-10-12T10:05:36Z</time>
      </trkpt>
      <trkpt lat="45.8135" lon="4.94661">
        <ele>183.6</ele>
        <time>2014-10-12T10:05:39Z</time>
      </trkpt>
      <trkpt lat="45.81354" lon="4.94676">
        <ele>183.4</ele>
        <time>2014-10-12T10:05:41Z</time>
      </trkpt>
      <trkpt lat="45.81357" lon="4.94692">
        <ele>183.4</ele>
        <time>2014-10-12T10:05:43Z</time>
      </trkpt>
      <trkpt lat="45.81364" lon="4.94724">
        <ele>183.2</ele>
        <time>2014-10-12T10:05:47Z</time>
      </trkpt>
      <trkpt lat="45.81367" lon="4.94739">
        <ele>183.2</ele>
        <time>2014-10-12T10:05:49Z</time>
      </trkpt>
      <trkpt lat="45.81371" lon="4.94754">
        <ele>183</ele>
        <time>2014-10-12T10:05:51Z</time>
      </trkpt>
      <trkpt lat="45.81377" lon="4.94784">
        <ele>182.8</ele>
        <time>2014-10-12T10:05:55Z</time>
      </trkpt>
      <trkpt lat="45.81381" lon="4.948">
        <ele>182.8</ele>
        <time>2014-10-12T10:05:57Z</time>
      </trkpt>
      <trkpt lat="45.81384" lon="4.94816">
        <ele>182.6</ele>
        <time>2014-10-12T10:05:59Z</time>
      </trkpt>
      <trkpt lat="45.81389" lon="4.94847">
        <ele>182.6</ele>
        <time>2014-10-12T10:06:03Z</time>
      </trkpt>
      <trkpt lat="45.81394" lon="4.94876">
        <ele>182.4</ele>
        <time>2014-10-12T10:06:07Z</time>
      </trkpt>
      <trkpt lat="45.814" lon="4.94906">
        <ele>182.2</ele>
        <time>2014-10-12T10:06:11Z</time>
      </trkpt>
      <trkpt lat="45.81406" lon="4.94937">
        <ele>182.2</ele>
        <time>2014-10-12T10:06:15Z</time>
      </trkpt>
      <trkpt lat="45.81412" lon="4.94961">
        <ele>182.2</ele>
        <time>2014-10-12T10:06:18Z</time>
      </trkpt>
      <trkpt lat="45.81415" lon="4.94986">
        <ele>182.2</ele>
        <time>2014-10-12T10:06:21Z</time>
      </trkpt>
      <trkpt lat="45.81417" lon="4.94994">
        <ele>182</ele>
        <time>2014-10-12T10:06:22Z</time>
      </trkpt>
      <trkpt lat="45.81421" lon="4.95026">
        <ele>182</ele>
        <time>2014-10-12T10:06:26Z</time>
      </trkpt>
      <trkpt lat="45.81423" lon="4.95042">
        <ele>182</ele>
        <time>2014-10-12T10:06:28Z</time>
      </trkpt>
      <trkpt lat="45.81425" lon="4.95056">
        <ele>182.2</ele>
        <time>2014-10-12T10:06:30Z</time>
      </trkpt>
      <trkpt lat="45.81431" lon="4.95088">
        <ele>182.2</ele>
        <time>2014-10-12T10:06:34Z</time>
      </trkpt>
      <trkpt lat="45.81432" lon="4.95096">
        <ele>182.2</ele>
        <time>2014-10-12T10:06:35Z</time>
      </trkpt>
      <trkpt lat="45.81432" lon="4.95104">
        <ele>182.2</ele>
        <time>2014-10-12T10:06:36Z</time>
      </trkpt>
      <trkpt lat="45.81434" lon="4.95119">
        <ele>182.4</ele>
        <time>2014-10-12T10:06:38Z</time>
      </trkpt>
      <trkpt lat="45.81436" lon="4.95127">
        <ele>182.4</ele>
        <time>2014-10-12T10:06:39Z</time>
      </trkpt>
      <trkpt lat="45.81441" lon="4.9515">
        <ele>182.4</ele>
        <time>2014-10-12T10:06:42Z</time>
      </trkpt>
      <trkpt lat="45.81444" lon="4.95174">
        <ele>182.4</ele>
        <time>2014-10-12T10:06:45Z</time>
      </trkpt>
      <trkpt lat="45.81445" lon="4.95181">
        <ele>182.4</ele>
        <time>2014-10-12T10:06:46Z</time>
      </trkpt>
      <trkpt lat="45.8145" lon="4.9521">
        <ele>182.6</ele>
        <time>2014-10-12T10:06:50Z</time>
      </trkpt>
      <trkpt lat="45.81451" lon="4.95217">
        <ele>182.6</ele>
        <time>2014-10-12T10:06:51Z</time>
      </trkpt>
      <trkpt lat="45.81454" lon="4.95238">
        <ele>182.4</ele>
        <time>2014-10-12T10:06:54Z</time>
      </trkpt>
      <trkpt lat="45.81456" lon="4.95251">
        <ele>182.4</ele>
        <time>2014-10-12T10:06:56Z</time>
      </trkpt>
      <trkpt lat="45.81458" lon="4.95262">
        <ele>182.4</ele>
        <time>2014-10-12T10:06:58Z</time>
      </trkpt>
      <trkpt lat="45.81459" lon="4.95268">
        <ele>182.4</ele>
        <time>2014-10-12T10:06:59Z</time>
      </trkpt>
      <trkpt lat="45.81463" lon="4.95291">
        <ele>182.4</ele>
        <time>2014-10-12T10:07:03Z</time>
      </trkpt>
      <trkpt lat="45.81464" lon="4.95298">
        <ele>182.2</ele>
        <time>2014-10-12T10:07:04Z</time>
      </trkpt>
      <trkpt lat="45.81468" lon="4.95325">
        <ele>182.2</ele>
        <time>2014-10-12T10:07:08Z</time>
      </trkpt>
      <trkpt lat="45.81471" lon="4.95339">
        <ele>182.2</ele>
        <time>2014-10-12T10:07:10Z</time>
      </trkpt>
      <trkpt lat="45.81471" lon="4.95353">
        <ele>182</ele>
        <time>2014-10-12T10:07:12Z</time>
      </trkpt>
      <trkpt lat="45.81474" lon="4.95375">
        <ele>182</ele>
        <time>2014-10-12T10:07:15Z</time>
      </trkpt>
      <trkpt lat="45.81475" lon="4.95383">
        <ele>182</ele>
        <time>2014-10-12T10:07:16Z</time>
      </trkpt>
      <trkpt lat="45.81478" lon="4.9541">
        <ele>182</ele>
        <time>2014-10-12T10:07:19Z</time>
      </trkpt>
      <trkpt lat="45.81482" lon="4.95436">
        <ele>181.8</ele>
        <time>2014-10-12T10:07:22Z</time>
      </trkpt>
      <trkpt lat="45.81486" lon="4.95464">
        <ele>181.8</ele>
        <time>2014-10-12T10:07:25Z</time>
      </trkpt>
      <trkpt lat="45.8149" lon="4.9549">
        <ele>181.8</ele>
        <time>2014-10-12T10:07:28Z</time>
      </trkpt>
      <trkpt lat="45.81492" lon="4.95498">
        <ele>181.8</ele>
        <time>2014-10-12T10:07:29Z</time>
      </trkpt>
      <trkpt lat="45.81495" lon="4.95521">
        <ele>181.8</ele>
        <time>2014-10-12T10:07:32Z</time>
      </trkpt>
      <trkpt lat="45.81496" lon="4.95535">
        <ele>181.8</ele>
        <time>2014-10-12T10:07:34Z</time>
      </trkpt>
      <trkpt lat="45.81497" lon="4.95542">
        <ele>181.8</ele>
        <time>2014-10-12T10:07:35Z</time>
      </trkpt>
      <trkpt lat="45.81497" lon="4.95549">
        <ele>181.8</ele>
        <time>2014-10-12T10:07:36Z</time>
      </trkpt>
      <trkpt lat="45.81498" lon="4.95556">
        <ele>181.8</ele>
        <time>2014-10-12T10:07:37Z</time>
      </trkpt>
      <trkpt lat="45.815" lon="4.9557">
        <ele>181.8</ele>
        <time>2014-10-12T10:07:39Z</time>
      </trkpt>
      <trkpt lat="45.81502" lon="4.95578">
        <ele>181.8</ele>
        <time>2014-10-12T10:07:40Z</time>
      </trkpt>
      <trkpt lat="45.81505" lon="4.95608">
        <ele>181.6</ele>
        <time>2014-10-12T10:07:44Z</time>
      </trkpt>
      <trkpt lat="45.81506" lon="4.95616">
        <ele>181.6</ele>
        <time>2014-10-12T10:07:45Z</time>
      </trkpt>
      <trkpt lat="45.81507" lon="4.95631">
        <ele>181.6</ele>
        <time>2014-10-12T10:07:47Z</time>
      </trkpt>
      <trkpt lat="45.81508" lon="4.95638">
        <ele>181.6</ele>
        <time>2014-10-12T10:07:48Z</time>
      </trkpt>
      <trkpt lat="45.81512" lon="4.95668">
        <ele>181.6</ele>
        <time>2014-10-12T10:07:52Z</time>
      </trkpt>
      <trkpt lat="45.81513" lon="4.95683">
        <ele>181.4</ele>
        <time>2014-10-12T10:07:54Z</time>
      </trkpt>
      <trkpt lat="45.81515" lon="4.95699">
        <ele>181.4</ele>
        <time>2014-10-12T10:07:56Z</time>
      </trkpt>
      <trkpt lat="45.81519" lon="4.95731">
        <ele>181.4</ele>
        <time>2014-10-12T10:08:00Z</time>
      </trkpt>
      <trkpt lat="45.81523" lon="4.95764">
        <ele>181.2</ele>
        <time>2014-10-12T10:08:04Z</time>
      </trkpt>
      <trkpt lat="45.81525" lon="4.9578">
        <ele>181</ele>
        <time>2014-10-12T10:08:06Z</time>
      </trkpt>
      <trkpt lat="45.81527" lon="4.95796">
        <ele>181</ele>
        <time>2014-10-12T10:08:08Z</time>
      </trkpt>
      <trkpt lat="45.81531" lon="4.95823">
        <ele>180.8</ele>
        <time>2014-10-12T10:08:12Z</time>
      </trkpt>
      <trkpt lat="45.81533" lon="4.95842">
        <ele>180.8</ele>
        <time>2014-10-12T10:08:17Z</time>
      </trkpt>
      <trkpt lat="45.81534" lon="4.95849">
        <ele>180.8</ele>
        <time>2014-10-12T10:08:20Z</time>
      </trkpt>
      <trkpt lat="45.81534" lon="4.9585">
        <ele>180.8</ele>
        <time>2014-10-12T10:08:21Z</time>
      </trkpt>
      <trkpt lat="45.81536" lon="4.95862">
        <ele>181</ele>
        <time>2014-10-12T10:08:38Z</time>
      </trkpt>
      <trkpt lat="45.81539" lon="4.95873">
        <ele>180.8</ele>
        <time>2014-10-12T10:08:40Z</time>
      </trkpt>
      <trkpt lat="45.81544" lon="4.95894">
        <ele>180.8</ele>
        <time>2014-10-12T10:08:43Z</time>
      </trkpt>
      <trkpt lat="45.81545" lon="4.95901">
        <ele>180.8</ele>
        <time>2014-10-12T10:08:44Z</time>
      </trkpt>
      <trkpt lat="45.81548" lon="4.95934">
        <ele>180.8</ele>
        <time>2014-10-12T10:08:48Z</time>
      </trkpt>
      <trkpt lat="45.81549" lon="4.95942">
        <ele>180.8</ele>
        <time>2014-10-12T10:08:49Z</time>
      </trkpt>
      <trkpt lat="45.8155" lon="4.95965">
        <ele>180.6</ele>
        <time>2014-10-12T10:08:52Z</time>
      </trkpt>
      <trkpt lat="45.81552" lon="4.95994">
        <ele>180.6</ele>
        <time>2014-10-12T10:08:56Z</time>
      </trkpt>
      <trkpt lat="45.81554" lon="4.96008">
        <ele>180.6</ele>
        <time>2014-10-12T10:08:58Z</time>
      </trkpt>
      <trkpt lat="45.81555" lon="4.96022">
        <ele>180.4</ele>
        <time>2014-10-12T10:09:00Z</time>
      </trkpt>
      <trkpt lat="45.81557" lon="4.96045">
        <ele>180.4</ele>
        <time>2014-10-12T10:09:03Z</time>
      </trkpt>
      <trkpt lat="45.81557" lon="4.96053">
        <ele>180.4</ele>
        <time>2014-10-12T10:09:04Z</time>
      </trkpt>
      <trkpt lat="45.81557" lon="4.96085">
        <ele>180.2</ele>
        <time>2014-10-12T10:09:08Z</time>
      </trkpt>
      <trkpt lat="45.81558" lon="4.96116">
        <ele>180.2</ele>
        <time>2014-10-12T10:09:12Z</time>
      </trkpt>
      <trkpt lat="45.81559" lon="4.96148">
        <ele>180.2</ele>
        <time>2014-10-12T10:09:17Z</time>
      </trkpt>
      <trkpt lat="45.8156" lon="4.96166">
        <ele>180.2</ele>
        <time>2014-10-12T10:09:20Z</time>
      </trkpt>
      <trkpt lat="45.8156" lon="4.96177">
        <ele>180.2</ele>
        <time>2014-10-12T10:09:22Z</time>
      </trkpt>
      <trkpt lat="45.81562" lon="4.96206">
        <ele>180.2</ele>
        <time>2014-10-12T10:09:27Z</time>
      </trkpt>
      <trkpt lat="45.81565" lon="4.96233">
        <ele>180</ele>
        <time>2014-10-12T10:09:32Z</time>
      </trkpt>
      <trkpt lat="45.81567" lon="4.96244">
        <ele>180</ele>
        <time>2014-10-12T10:09:34Z</time>
      </trkpt>
      <trkpt lat="45.81569" lon="4.96261">
        <ele>180</ele>
        <time>2014-10-12T10:09:37Z</time>
      </trkpt>
      <trkpt lat="45.81569" lon="4.96267">
        <ele>180</ele>
        <time>2014-10-12T10:09:38Z</time>
      </trkpt>
      <trkpt lat="45.81571" lon="4.96293">
        <ele>180</ele>
        <time>2014-10-12T10:09:42Z</time>
      </trkpt>
      <trkpt lat="45.81572" lon="4.96307">
        <ele>180</ele>
        <time>2014-10-12T10:09:44Z</time>
      </trkpt>
      <trkpt lat="45.81573" lon="4.96321">
        <ele>179.8</ele>
        <time>2014-10-12T10:09:46Z</time>
      </trkpt>
      <trkpt lat="45.81575" lon="4.9635">
        <ele>179.8</ele>
        <time>2014-10-12T10:09:50Z</time>
      </trkpt>
      <trkpt lat="45.81575" lon="4.96357">
        <ele>179.8</ele>
        <time>2014-10-12T10:09:51Z</time>
      </trkpt>
      <trkpt lat="45.81577" lon="4.96377">
        <ele>179.8</ele>
        <time>2014-10-12T10:09:54Z</time>
      </trkpt>
      <trkpt lat="45.81579" lon="4.96397">
        <ele>179.8</ele>
        <time>2014-10-12T10:09:57Z</time>
      </trkpt>
      <trkpt lat="45.8158" lon="4.96404">
        <ele>179.8</ele>
        <time>2014-10-12T10:09:58Z</time>
      </trkpt>
      <trkpt lat="45.81583" lon="4.96426">
        <ele>179.8</ele>
        <time>2014-10-12T10:10:02Z</time>
      </trkpt>
      <trkpt lat="45.81584" lon="4.9643">
        <ele>179.8</ele>
        <time>2014-10-12T10:10:03Z</time>
      </trkpt>
      <trkpt lat="45.81598" lon="4.96436">
        <ele>179.6</ele>
        <time>2014-10-12T10:10:07Z</time>
      </trkpt>
      <trkpt lat="45.81602" lon="4.96436">
        <ele>179.6</ele>
        <time>2014-10-12T10:10:08Z</time>
      </trkpt>
      <trkpt lat="45.81624" lon="4.9643">
        <ele>179.6</ele>
        <time>2014-10-12T10:10:13Z</time>
      </trkpt>
      <trkpt lat="45.81628" lon="4.96427">
        <ele>179.6</ele>
        <time>2014-10-12T10:10:14Z</time>
      </trkpt>
      <trkpt lat="45.81642" lon="4.96416">
        <ele>179.4</ele>
        <time>2014-10-12T10:10:17Z</time>
      </trkpt>
      <trkpt lat="45.81646" lon="4.96411">
        <ele>179.4</ele>
        <time>2014-10-12T10:10:18Z</time>
      </trkpt>
      <trkpt lat="45.8165" lon="4.96407">
        <ele>179.4</ele>
        <time>2014-10-12T10:10:19Z</time>
      </trkpt>
      <trkpt lat="45.81658" lon="4.96398">
        <ele>179.4</ele>
        <time>2014-10-12T10:10:21Z</time>
      </trkpt>
      <trkpt lat="45.81662" lon="4.96393">
        <ele>179.4</ele>
        <time>2014-10-12T10:10:22Z</time>
      </trkpt>
      <trkpt lat="45.81675" lon="4.96378">
        <ele>179.4</ele>
        <time>2014-10-12T10:10:25Z</time>
      </trkpt>
      <trkpt lat="45.81693" lon="4.96357">
        <ele>179.4</ele>
        <time>2014-10-12T10:10:29Z</time>
      </trkpt>
      <trkpt lat="45.81711" lon="4.96336">
        <ele>179.4</ele>
        <time>2014-10-12T10:10:33Z</time>
      </trkpt>
      <trkpt lat="45.81725" lon="4.96321">
        <ele>179.4</ele>
        <time>2014-10-12T10:10:36Z</time>
      </trkpt>
      <trkpt lat="45.8173" lon="4.96315">
        <ele>179.4</ele>
        <time>2014-10-12T10:10:37Z</time>
      </trkpt>
      <trkpt lat="45.81748" lon="4.96294">
        <ele>179.4</ele>
        <time>2014-10-12T10:10:41Z</time>
      </trkpt>
      <trkpt lat="45.81766" lon="4.96274">
        <ele>179.6</ele>
        <time>2014-10-12T10:10:45Z</time>
      </trkpt>
      <trkpt lat="45.8177" lon="4.96269">
        <ele>179.6</ele>
        <time>2014-10-12T10:10:46Z</time>
      </trkpt>
      <trkpt lat="45.8178" lon="4.96257">
        <ele>179.6</ele>
        <time>2014-10-12T10:10:49Z</time>
      </trkpt>
      <trkpt lat="45.81782" lon="4.96256">
        <ele>179.8</ele>
        <time>2014-10-12T10:10:50Z</time>
      </trkpt>
      <trkpt lat="45.81788" lon="4.96263">
        <ele>180</ele>
        <time>2014-10-12T10:10:54Z</time>
      </trkpt>
      <trkpt lat="45.81791" lon="4.96276">
        <ele>180.2</ele>
        <time>2014-10-12T10:10:57Z</time>
      </trkpt>
      <trkpt lat="45.81794" lon="4.96286">
        <ele>180.4</ele>
        <time>2014-10-12T10:10:59Z</time>
      </trkpt>
      <trkpt lat="45.818" lon="4.96301">
        <ele>180.4</ele>
        <time>2014-10-12T10:11:02Z</time>
      </trkpt>
      <trkpt lat="45.81805" lon="4.96316">
        <ele>180.6</ele>
        <time>2014-10-12T10:11:05Z</time>
      </trkpt>
      <trkpt lat="45.81808" lon="4.96327">
        <ele>180.6</ele>
        <time>2014-10-12T10:11:07Z</time>
      </trkpt>
      <trkpt lat="45.81816" lon="4.96353">
        <ele>180.8</ele>
        <time>2014-10-12T10:11:12Z</time>
      </trkpt>
      <trkpt lat="45.8182" lon="4.96364">
        <ele>181</ele>
        <time>2014-10-12T10:11:14Z</time>
      </trkpt>
      <trkpt lat="45.81825" lon="4.96381">
        <ele>181.2</ele>
        <time>2014-10-12T10:11:17Z</time>
      </trkpt>
      <trkpt lat="45.81836" lon="4.96409">
        <ele>181.4</ele>
        <time>2014-10-12T10:11:22Z</time>
      </trkpt>
      <trkpt lat="45.81843" lon="4.96434">
        <ele>181.6</ele>
        <time>2014-10-12T10:11:26Z</time>
      </trkpt>
      <trkpt lat="45.81846" lon="4.96446">
        <ele>181.8</ele>
        <time>2014-10-12T10:11:28Z</time>
      </trkpt>
      <trkpt lat="45.81847" lon="4.96452">
        <ele>181.6</ele>
        <time>2014-10-12T10:11:29Z</time>
      </trkpt>
      <trkpt lat="45.81849" lon="4.96464">
        <ele>181.8</ele>
        <time>2014-10-12T10:11:31Z</time>
      </trkpt>
      <trkpt lat="45.8185" lon="4.9647">
        <ele>181.8</ele>
        <time>2014-10-12T10:11:32Z</time>
      </trkpt>
      <trkpt lat="45.81855" lon="4.96486">
        <ele>182.2</ele>
        <time>2014-10-12T10:11:35Z</time>
      </trkpt>
      <trkpt lat="45.81856" lon="4.96492">
        <ele>182.2</ele>
        <time>2014-10-12T10:11:36Z</time>
      </trkpt>
      <trkpt lat="45.81861" lon="4.96508">
        <ele>182.4</ele>
        <time>2014-10-12T10:11:39Z</time>
      </trkpt>
      <trkpt lat="45.81862" lon="4.96517">
        <ele>182.6</ele>
        <time>2014-10-12T10:11:41Z</time>
      </trkpt>
      <trkpt lat="45.81868" lon="4.9654">
        <ele>183</ele>
        <time>2014-10-12T10:11:48Z</time>
      </trkpt>
      <trkpt lat="45.81869" lon="4.96542">
        <ele>183</ele>
        <time>2014-10-12T10:11:49Z</time>
      </trkpt>
      <trkpt lat="45.81872" lon="4.96554">
        <ele>183.4</ele>
        <time>2014-10-12T10:11:53Z</time>
      </trkpt>
      <trkpt lat="45.81871" lon="4.96558">
        <ele>184.4</ele>
        <time>2014-10-12T10:11:57Z</time>
      </trkpt>
      <trkpt lat="45.81872" lon="4.96567">
        <ele>190.2</ele>
        <time>2014-10-12T10:12:14Z</time>
      </trkpt>
      <trkpt lat="45.81881" lon="4.96587">
        <ele>190.8</ele>
        <time>2014-10-12T10:12:19Z</time>
      </trkpt>
      <trkpt lat="45.81882" lon="4.96591">
        <ele>190.8</ele>
        <time>2014-10-12T10:12:20Z</time>
      </trkpt>
      <trkpt lat="45.81888" lon="4.96609">
        <ele>191</ele>
        <time>2014-10-12T10:12:24Z</time>
      </trkpt>
      <trkpt lat="45.81891" lon="4.96618">
        <ele>190.8</ele>
        <time>2014-10-12T10:12:26Z</time>
      </trkpt>
      <trkpt lat="45.81899" lon="4.96642">
        <ele>190.6</ele>
        <time>2014-10-12T10:12:31Z</time>
      </trkpt>
      <trkpt lat="45.81907" lon="4.96666">
        <ele>190.2</ele>
        <time>2014-10-12T10:12:36Z</time>
      </trkpt>
      <trkpt lat="45.81911" lon="4.96675">
        <ele>190</ele>
        <time>2014-10-12T10:12:38Z</time>
      </trkpt>
      <trkpt lat="45.81917" lon="4.9669">
        <ele>189.6</ele>
        <time>2014-10-12T10:12:41Z</time>
      </trkpt>
      <trkpt lat="45.81921" lon="4.96704">
        <ele>189.2</ele>
        <time>2014-10-12T10:12:44Z</time>
      </trkpt>
      <trkpt lat="45.81923" lon="4.9671">
        <ele>188.6</ele>
        <time>2014-10-12T10:12:48Z</time>
      </trkpt>
      <trkpt lat="45.81924" lon="4.9671">
        <ele>188.2</ele>
        <time>2014-10-12T10:12:52Z</time>
      </trkpt>
      <trkpt lat="45.81926" lon="4.9671">
        <ele>188</ele>
        <time>2014-10-12T10:12:54Z</time>
      </trkpt>
      <trkpt lat="45.81928" lon="4.96709">
        <ele>188</ele>
        <time>2014-10-12T10:12:55Z</time>
      </trkpt>
      <trkpt lat="45.81941" lon="4.967">
        <ele>187.6</ele>
        <time>2014-10-12T10:13:01Z</time>
      </trkpt>
      <trkpt lat="45.81943" lon="4.96698">
        <ele>187.6</ele>
        <time>2014-10-12T10:13:02Z</time>
      </trkpt>
      <trkpt lat="45.81954" lon="4.96685">
        <ele>187.4</ele>
        <time>2014-10-12T10:13:07Z</time>
      </trkpt>
      <trkpt lat="45.81958" lon="4.96682">
        <ele>187.2</ele>
        <time>2014-10-12T10:13:09Z</time>
      </trkpt>
      <trkpt lat="45.8196" lon="4.96682">
        <ele>187.2</ele>
        <time>2014-10-12T10:13:11Z</time>
      </trkpt>
      <trkpt lat="45.81963" lon="4.96678">
        <ele>187.2</ele>
        <time>2014-10-12T10:13:18Z</time>
      </trkpt>
      <trkpt lat="45.81963" lon="4.96668">
        <ele>187.2</ele>
        <time>2014-10-12T10:13:22Z</time>
      </trkpt>
      <trkpt lat="45.81964" lon="4.9666">
        <ele>187.2</ele>
        <time>2014-10-12T10:13:24Z</time>
      </trkpt>
      <trkpt lat="45.81964" lon="4.96655">
        <ele>187</ele>
        <time>2014-10-12T10:13:26Z</time>
      </trkpt>
      <trkpt lat="45.81964" lon="4.96655">
        <ele>187</ele>
        <time>2014-10-12T10:13:27Z</time>
      </trkpt>
      <trkpt lat="45.81963" lon="4.96656">
        <ele>186.8</ele>
        <time>2014-10-12T10:13:37Z</time>
      </trkpt>
      <trkpt lat="45.81966" lon="4.96662">
        <ele>188.6</ele>
        <time>2014-10-12T10:14:14Z</time>
      </trkpt>
      <trkpt lat="45.81967" lon="4.96672">
        <ele>188</ele>
        <time>2014-10-12T10:14:25Z</time>
      </trkpt>
      <trkpt lat="45.81965" lon="4.96685">
        <ele>187.8</ele>
        <time>2014-10-12T10:14:29Z</time>
      </trkpt>
      <trkpt lat="45.81956" lon="4.96696">
        <ele>187.4</ele>
        <time>2014-10-12T10:14:33Z</time>
      </trkpt>
      <trkpt lat="45.81935" lon="4.96706">
        <ele>186.8</ele>
        <time>2014-10-12T10:14:38Z</time>
      </trkpt>
      <trkpt lat="45.81925" lon="4.96712">
        <ele>186.6</ele>
        <time>2014-10-12T10:14:41Z</time>
      </trkpt>
      <trkpt lat="45.81924" lon="4.96716">
        <ele>186.4</ele>
        <time>2014-10-12T10:14:42Z</time>
      </trkpt>
      <trkpt lat="45.81927" lon="4.96726">
        <ele>186</ele>
        <time>2014-10-12T10:14:44Z</time>
      </trkpt>
      <trkpt lat="45.81929" lon="4.96732">
        <ele>186</ele>
        <time>2014-10-12T10:14:45Z</time>
      </trkpt>
      <trkpt lat="45.81931" lon="4.96737">
        <ele>185.8</ele>
        <time>2014-10-12T10:14:46Z</time>
      </trkpt>
      <trkpt lat="45.81936" lon="4.96748">
        <ele>185.4</ele>
        <time>2014-10-12T10:14:48Z</time>
      </trkpt>
      <trkpt lat="45.81938" lon="4.96754">
        <ele>185.2</ele>
        <time>2014-10-12T10:14:49Z</time>
      </trkpt>
      <trkpt lat="45.81943" lon="4.96766">
        <ele>185</ele>
        <time>2014-10-12T10:14:51Z</time>
      </trkpt>
      <trkpt lat="45.81945" lon="4.96772">
        <ele>184.8</ele>
        <time>2014-10-12T10:14:52Z</time>
      </trkpt>
      <trkpt lat="45.81953" lon="4.96801">
        <ele>183.8</ele>
        <time>2014-10-12T10:14:57Z</time>
      </trkpt>
      <trkpt lat="45.81959" lon="4.96828">
        <ele>183.6</ele>
        <time>2014-10-12T10:15:02Z</time>
      </trkpt>
      <trkpt lat="45.81961" lon="4.96832">
        <ele>183.4</ele>
        <time>2014-10-12T10:15:03Z</time>
      </trkpt>
      <trkpt lat="45.81969" lon="4.96852">
        <ele>183</ele>
        <time>2014-10-12T10:15:07Z</time>
      </trkpt>
      <trkpt lat="45.81972" lon="4.96862">
        <ele>182.8</ele>
        <time>2014-10-12T10:15:09Z</time>
      </trkpt>
      <trkpt lat="45.81975" lon="4.96877">
        <ele>182.4</ele>
        <time>2014-10-12T10:15:12Z</time>
      </trkpt>
      <trkpt lat="45.81978" lon="4.96887">
        <ele>182.2</ele>
        <time>2014-10-12T10:15:14Z</time>
      </trkpt>
      <trkpt lat="45.81983" lon="4.96902">
        <ele>181.8</ele>
        <time>2014-10-12T10:15:18Z</time>
      </trkpt>
      <trkpt lat="45.81985" lon="4.96906">
        <ele>181.6</ele>
        <time>2014-10-12T10:15:19Z</time>
      </trkpt>
      <trkpt lat="45.81991" lon="4.96926">
        <ele>181.4</ele>
        <time>2014-10-12T10:15:23Z</time>
      </trkpt>
      <trkpt lat="45.81993" lon="4.9693">
        <ele>181.2</ele>
        <time>2014-10-12T10:15:24Z</time>
      </trkpt>
      <trkpt lat="45.81999" lon="4.96951">
        <ele>180.8</ele>
        <time>2014-10-12T10:15:28Z</time>
      </trkpt>
      <trkpt lat="45.82003" lon="4.96962">
        <ele>180.6</ele>
        <time>2014-10-12T10:15:30Z</time>
      </trkpt>
      <trkpt lat="45.82009" lon="4.96978">
        <ele>180.2</ele>
        <time>2014-10-12T10:15:33Z</time>
      </trkpt>
      <trkpt lat="45.82012" lon="4.9699">
        <ele>180</ele>
        <time>2014-10-12T10:15:35Z</time>
      </trkpt>
      <trkpt lat="45.82016" lon="4.97009">
        <ele>179.8</ele>
        <time>2014-10-12T10:15:38Z</time>
      </trkpt>
      <trkpt lat="45.82017" lon="4.97015">
        <ele>179.6</ele>
        <time>2014-10-12T10:15:39Z</time>
      </trkpt>
      <trkpt lat="45.82021" lon="4.97027">
        <ele>179.6</ele>
        <time>2014-10-12T10:15:41Z</time>
      </trkpt>
      <trkpt lat="45.82023" lon="4.97033">
        <ele>179.4</ele>
        <time>2014-10-12T10:15:42Z</time>
      </trkpt>
      <trkpt lat="45.82028" lon="4.97059">
        <ele>179.2</ele>
        <time>2014-10-12T10:15:46Z</time>
      </trkpt>
      <trkpt lat="45.82035" lon="4.97084">
        <ele>178.8</ele>
        <time>2014-10-12T10:15:50Z</time>
      </trkpt>
      <trkpt lat="45.82037" lon="4.9709">
        <ele>178.8</ele>
        <time>2014-10-12T10:15:51Z</time>
      </trkpt>
      <trkpt lat="45.82038" lon="4.97107">
        <ele>178.6</ele>
        <time>2014-10-12T10:15:54Z</time>
      </trkpt>
      <trkpt lat="45.82038" lon="4.97112">
        <ele>178.4</ele>
        <time>2014-10-12T10:15:55Z</time>
      </trkpt>
      <trkpt lat="45.82039" lon="4.97129">
        <ele>178.2</ele>
        <time>2014-10-12T10:15:58Z</time>
      </trkpt>
      <trkpt lat="45.82036" lon="4.97141">
        <ele>178</ele>
        <time>2014-10-12T10:16:00Z</time>
      </trkpt>
      <trkpt lat="45.82032" lon="4.97152">
        <ele>178</ele>
        <time>2014-10-12T10:16:02Z</time>
      </trkpt>
      <trkpt lat="45.82029" lon="4.97158">
        <ele>177.8</ele>
        <time>2014-10-12T10:16:03Z</time>
      </trkpt>
      <trkpt lat="45.82027" lon="4.97163">
        <ele>177.8</ele>
        <time>2014-10-12T10:16:04Z</time>
      </trkpt>
      <trkpt lat="45.82018" lon="4.97186">
        <ele>177.6</ele>
        <time>2014-10-12T10:16:08Z</time>
      </trkpt>
      <trkpt lat="45.82015" lon="4.97192">
        <ele>177.6</ele>
        <time>2014-10-12T10:16:09Z</time>
      </trkpt>
      <trkpt lat="45.82012" lon="4.97197">
        <ele>177.6</ele>
        <time>2014-10-12T10:16:10Z</time>
      </trkpt>
      <trkpt lat="45.82005" lon="4.97208">
        <ele>177.6</ele>
        <time>2014-10-12T10:16:12Z</time>
      </trkpt>
      <trkpt lat="45.81992" lon="4.97224">
        <ele>177.4</ele>
        <time>2014-10-12T10:16:16Z</time>
      </trkpt>
      <trkpt lat="45.81989" lon="4.97229">
        <ele>177.4</ele>
        <time>2014-10-12T10:16:17Z</time>
      </trkpt>
      <trkpt lat="45.81974" lon="4.97249">
        <ele>177.4</ele>
        <time>2014-10-12T10:16:21Z</time>
      </trkpt>
      <trkpt lat="45.8197" lon="4.97253">
        <ele>177.2</ele>
        <time>2014-10-12T10:16:22Z</time>
      </trkpt>
      <trkpt lat="45.81956" lon="4.97268">
        <ele>177.2</ele>
        <time>2014-10-12T10:16:26Z</time>
      </trkpt>
      <trkpt lat="45.8195" lon="4.97276">
        <ele>177</ele>
        <time>2014-10-12T10:16:28Z</time>
      </trkpt>
      <trkpt lat="45.81942" lon="4.97287">
        <ele>177</ele>
        <time>2014-10-12T10:16:31Z</time>
      </trkpt>
      <trkpt lat="45.81939" lon="4.9729">
        <ele>177</ele>
        <time>2014-10-12T10:16:32Z</time>
      </trkpt>
      <trkpt lat="45.81929" lon="4.97306">
        <ele>177</ele>
        <time>2014-10-12T10:16:37Z</time>
      </trkpt>
      <trkpt lat="45.81912" lon="4.97324">
        <ele>177</ele>
        <time>2014-10-12T10:16:43Z</time>
      </trkpt>
      <trkpt lat="45.81898" lon="4.97341">
        <ele>177</ele>
        <time>2014-10-12T10:16:47Z</time>
      </trkpt>
      <trkpt lat="45.81894" lon="4.97345">
        <ele>177</ele>
        <time>2014-10-12T10:16:48Z</time>
      </trkpt>
      <trkpt lat="45.81887" lon="4.97353">
        <ele>177</ele>
        <time>2014-10-12T10:16:50Z</time>
      </trkpt>
      <trkpt lat="45.81883" lon="4.97359">
        <ele>177</ele>
        <time>2014-10-12T10:16:51Z</time>
      </trkpt>
      <trkpt lat="45.81879" lon="4.97365">
        <ele>177.2</ele>
        <time>2014-10-12T10:16:52Z</time>
      </trkpt>
      <trkpt lat="45.81865" lon="4.9738">
        <ele>177.4</ele>
        <time>2014-10-12T10:16:55Z</time>
      </trkpt>
      <trkpt lat="45.81857" lon="4.97392">
        <ele>177.4</ele>
        <time>2014-10-12T10:16:57Z</time>
      </trkpt>
      <trkpt lat="45.81847" lon="4.97406">
        <ele>177.4</ele>
        <time>2014-10-12T10:16:59Z</time>
      </trkpt>
      <trkpt lat="45.81832" lon="4.97424">
        <ele>177.6</ele>
        <time>2014-10-12T10:17:02Z</time>
      </trkpt>
      <trkpt lat="45.81827" lon="4.97429">
        <ele>177.6</ele>
        <time>2014-10-12T10:17:03Z</time>
      </trkpt>
      <trkpt lat="45.81818" lon="4.97441">
        <ele>177.8</ele>
        <time>2014-10-12T10:17:05Z</time>
      </trkpt>
      <trkpt lat="45.81804" lon="4.9746">
        <ele>178</ele>
        <time>2014-10-12T10:17:08Z</time>
      </trkpt>
      <trkpt lat="45.81794" lon="4.97471">
        <ele>178.2</ele>
        <time>2014-10-12T10:17:10Z</time>
      </trkpt>
      <trkpt lat="45.81789" lon="4.97476">
        <ele>178.4</ele>
        <time>2014-10-12T10:17:11Z</time>
      </trkpt>
      <trkpt lat="45.81774" lon="4.97494">
        <ele>178.6</ele>
        <time>2014-10-12T10:17:14Z</time>
      </trkpt>
      <trkpt lat="45.8176" lon="4.97512">
        <ele>179</ele>
        <time>2014-10-12T10:17:17Z</time>
      </trkpt>
      <trkpt lat="45.81745" lon="4.97532">
        <ele>179.2</ele>
        <time>2014-10-12T10:17:20Z</time>
      </trkpt>
      <trkpt lat="45.81735" lon="4.97545">
        <ele>179.4</ele>
        <time>2014-10-12T10:17:22Z</time>
      </trkpt>
      <trkpt lat="45.8173" lon="4.97551">
        <ele>179.6</ele>
        <time>2014-10-12T10:17:23Z</time>
      </trkpt>
      <trkpt lat="45.8172" lon="4.97564">
        <ele>179.8</ele>
        <time>2014-10-12T10:17:25Z</time>
      </trkpt>
      <trkpt lat="45.81716" lon="4.97572">
        <ele>179.8</ele>
        <time>2014-10-12T10:17:26Z</time>
      </trkpt>
      <trkpt lat="45.81712" lon="4.9758">
        <ele>180</ele>
        <time>2014-10-12T10:17:27Z</time>
      </trkpt>
      <trkpt lat="45.81707" lon="4.97599">
        <ele>180.2</ele>
        <time>2014-10-12T10:17:29Z</time>
      </trkpt>
      <trkpt lat="45.81705" lon="4.97619">
        <ele>180.4</ele>
        <time>2014-10-12T10:17:31Z</time>
      </trkpt>
      <trkpt lat="45.81705" lon="4.9763">
        <ele>180.6</ele>
        <time>2014-10-12T10:17:32Z</time>
      </trkpt>
      <trkpt lat="45.81703" lon="4.97659">
        <ele>181</ele>
        <time>2014-10-12T10:17:35Z</time>
      </trkpt>
      <trkpt lat="45.81701" lon="4.97678">
        <ele>181.2</ele>
        <time>2014-10-12T10:17:37Z</time>
      </trkpt>
      <trkpt lat="45.81699" lon="4.97687">
        <ele>181.2</ele>
        <time>2014-10-12T10:17:38Z</time>
      </trkpt>
      <trkpt lat="45.81693" lon="4.9771">
        <ele>181.4</ele>
        <time>2014-10-12T10:17:41Z</time>
      </trkpt>
      <trkpt lat="45.81693" lon="4.97718">
        <ele>181.4</ele>
        <time>2014-10-12T10:17:42Z</time>
      </trkpt>
      <trkpt lat="45.81684" lon="4.97739">
        <ele>181.8</ele>
        <time>2014-10-12T10:17:45Z</time>
      </trkpt>
      <trkpt lat="45.81678" lon="4.97746">
        <ele>182.2</ele>
        <time>2014-10-12T10:17:46Z</time>
      </trkpt>
      <trkpt lat="45.81663" lon="4.97755">
        <ele>182.6</ele>
        <time>2014-10-12T10:17:48Z</time>
      </trkpt>
      <trkpt lat="45.81658" lon="4.97759">
        <ele>182.8</ele>
        <time>2014-10-12T10:17:49Z</time>
      </trkpt>
      <trkpt lat="45.81647" lon="4.9778">
        <ele>183.2</ele>
        <time>2014-10-12T10:17:53Z</time>
      </trkpt>
      <trkpt lat="45.81645" lon="4.97786">
        <ele>183.4</ele>
        <time>2014-10-12T10:17:54Z</time>
      </trkpt>
      <trkpt lat="45.81646" lon="4.97795">
        <ele>183.4</ele>
        <time>2014-10-12T10:17:56Z</time>
      </trkpt>
      <trkpt lat="45.81646" lon="4.97801">
        <ele>183.2</ele>
        <time>2014-10-12T10:17:59Z</time>
      </trkpt>
      <trkpt lat="45.81643" lon="4.97797">
        <ele>183</ele>
        <time>2014-10-12T10:18:05Z</time>
      </trkpt>
      <trkpt lat="45.81645" lon="4.97793">
        <ele>182.8</ele>
        <time>2014-10-12T10:18:15Z</time>
      </trkpt>
      <trkpt lat="45.81645" lon="4.97791">
        <ele>182.8</ele>
        <time>2014-10-12T10:18:16Z</time>
      </trkpt>
      <trkpt lat="45.81643" lon="4.9778">
        <ele>182.6</ele>
        <time>2014-10-12T10:18:20Z</time>
      </trkpt>
      <trkpt lat="45.81643" lon="4.9778">
        <ele>182.6</ele>
        <time>2014-10-12T10:18:23Z</time>
      </trkpt>
      <trkpt lat="45.81646" lon="4.97788">
        <ele>182.4</ele>
        <time>2014-10-12T10:18:27Z</time>
      </trkpt>
      <trkpt lat="45.81646" lon="4.9779">
        <ele>182.4</ele>
        <time>2014-10-12T10:18:28Z</time>
      </trkpt>
      <trkpt lat="45.81644" lon="4.97794">
        <ele>182.4</ele>
        <time>2014-10-12T10:18:31Z</time>
      </trkpt>
      <trkpt lat="45.81644" lon="4.97794">
        <ele>182.4</ele>
        <time>2014-10-12T10:18:31Z</time>
      </trkpt>
      <trkpt lat="45.81644" lon="4.97793">
        <ele>182.4</ele>
        <time>2014-10-12T10:18:32Z</time>
      </trkpt>
      <trkpt lat="45.81645" lon="4.97791">
        <ele>182.4</ele>
        <time>2014-10-12T10:18:39Z</time>
      </trkpt>
      <trkpt lat="45.81645" lon="4.97778">
        <ele>182.2</ele>
        <time>2014-10-12T10:18:43Z</time>
      </trkpt>
      <trkpt lat="45.81643" lon="4.97775">
        <ele>182.2</ele>
        <time>2014-10-12T10:18:44Z</time>
      </trkpt>
      <trkpt lat="45.81643" lon="4.97774">
        <ele>182.4</ele>
        <time>2014-10-12T10:18:48Z</time>
      </trkpt>
      <trkpt lat="45.81643" lon="4.97774">
        <ele>182.6</ele>
        <time>2014-10-12T10:18:59Z</time>
      </trkpt>
      <trkpt lat="45.81645" lon="4.97773">
        <ele>182.6</ele>
        <time>2014-10-12T10:19:11Z</time>
      </trkpt>
      <trkpt lat="45.81649" lon="4.97765">
        <ele>182.4</ele>
        <time>2014-10-12T10:19:18Z</time>
      </trkpt>
      <trkpt lat="45.81652" lon="4.97759">
        <ele>182.4</ele>
        <time>2014-10-12T10:19:23Z</time>
      </trkpt>
      <trkpt lat="45.81653" lon="4.97757">
        <ele>182.4</ele>
        <time>2014-10-12T10:19:24Z</time>
      </trkpt>
      <trkpt lat="45.81657" lon="4.97751">
        <ele>182.4</ele>
        <time>2014-10-12T10:19:28Z</time>
      </trkpt>
      <trkpt lat="45.81664" lon="4.97741">
        <ele>182.6</ele>
        <time>2014-10-12T10:19:34Z</time>
      </trkpt>
      <trkpt lat="45.81666" lon="4.9774">
        <ele>182.8</ele>
        <time>2014-10-12T10:19:36Z</time>
      </trkpt>
      <trkpt lat="45.81673" lon="4.97738">
        <ele>182.6</ele>
        <time>2014-10-12T10:19:39Z</time>
      </trkpt>
      <trkpt lat="45.81684" lon="4.97727">
        <ele>182.2</ele>
        <time>2014-10-12T10:19:43Z</time>
      </trkpt>
      <trkpt lat="45.81686" lon="4.97725">
        <ele>182.2</ele>
        <time>2014-10-12T10:19:44Z</time>
      </trkpt>
      <trkpt lat="45.81686" lon="4.97703">
        <ele>181.6</ele>
        <time>2014-10-12T10:19:48Z</time>
      </trkpt>
      <trkpt lat="45.81689" lon="4.97697">
        <ele>181.8</ele>
        <time>2014-10-12T10:19:49Z</time>
      </trkpt>
      <trkpt lat="45.81701" lon="4.97674">
        <ele>181.6</ele>
        <time>2014-10-12T10:19:54Z</time>
      </trkpt>
      <trkpt lat="45.81703" lon="4.97653">
        <ele>181.6</ele>
        <time>2014-10-12T10:19:59Z</time>
      </trkpt>
      <trkpt lat="45.81704" lon="4.97646">
        <ele>181.6</ele>
        <time>2014-10-12T10:20:01Z</time>
      </trkpt>
      <trkpt lat="45.81705" lon="4.9763">
        <ele>181.6</ele>
        <time>2014-10-12T10:20:05Z</time>
      </trkpt>
      <trkpt lat="45.81705" lon="4.97618">
        <ele>181.8</ele>
        <time>2014-10-12T10:20:08Z</time>
      </trkpt>
      <trkpt lat="45.81706" lon="4.9761">
        <ele>181.8</ele>
        <time>2014-10-12T10:20:10Z</time>
      </trkpt>
      <trkpt lat="45.81707" lon="4.9759">
        <ele>181.8</ele>
        <time>2014-10-12T10:20:15Z</time>
      </trkpt>
      <trkpt lat="45.81707" lon="4.97587">
        <ele>181.8</ele>
        <time>2014-10-12T10:20:16Z</time>
      </trkpt>
      <trkpt lat="45.81707" lon="4.97564">
        <ele>182.2</ele>
        <time>2014-10-12T10:20:22Z</time>
      </trkpt>
      <trkpt lat="45.81706" lon="4.9756">
        <ele>182.2</ele>
        <time>2014-10-12T10:20:23Z</time>
      </trkpt>
      <trkpt lat="45.81702" lon="4.97541">
        <ele>182.2</ele>
        <time>2014-10-12T10:20:28Z</time>
      </trkpt>
      <trkpt lat="45.81702" lon="4.97537">
        <ele>182.2</ele>
        <time>2014-10-12T10:20:29Z</time>
      </trkpt>
      <trkpt lat="45.81698" lon="4.97513">
        <ele>182.2</ele>
        <time>2014-10-12T10:20:35Z</time>
      </trkpt>
      <trkpt lat="45.81697" lon="4.97509">
        <ele>182.2</ele>
        <time>2014-10-12T10:20:36Z</time>
      </trkpt>
      <trkpt lat="45.81694" lon="4.97491">
        <ele>182.2</ele>
        <time>2014-10-12T10:20:41Z</time>
      </trkpt>
      <trkpt lat="45.81693" lon="4.97483">
        <ele>182.2</ele>
        <time>2014-10-12T10:20:43Z</time>
      </trkpt>
      <trkpt lat="45.8169" lon="4.97471">
        <ele>182.2</ele>
        <time>2014-10-12T10:20:46Z</time>
      </trkpt>
      <trkpt lat="45.81686" lon="4.97457">
        <ele>182.2</ele>
        <time>2014-10-12T10:20:50Z</time>
      </trkpt>
      <trkpt lat="45.81681" lon="4.97434">
        <ele>182.2</ele>
        <time>2014-10-12T10:20:56Z</time>
      </trkpt>
      <trkpt lat="45.8168" lon="4.9743">
        <ele>182.2</ele>
        <time>2014-10-12T10:20:57Z</time>
      </trkpt>
      <trkpt lat="45.81677" lon="4.97416">
        <ele>182.4</ele>
        <time>2014-10-12T10:21:01Z</time>
      </trkpt>
      <trkpt lat="45.81675" lon="4.97404">
        <ele>182.4</ele>
        <time>2014-10-12T10:21:04Z</time>
      </trkpt>
      <trkpt lat="45.81672" lon="4.97393">
        <ele>182.6</ele>
        <time>2014-10-12T10:21:07Z</time>
      </trkpt>
      <trkpt lat="45.81669" lon="4.97379">
        <ele>182.4</ele>
        <time>2014-10-12T10:21:11Z</time>
      </trkpt>
      <trkpt lat="45.81668" lon="4.97376">
        <ele>182.4</ele>
        <time>2014-10-12T10:21:12Z</time>
      </trkpt>
      <trkpt lat="45.81666" lon="4.97356">
        <ele>182.6</ele>
        <time>2014-10-12T10:21:17Z</time>
      </trkpt>
      <trkpt lat="45.81665" lon="4.97352">
        <ele>182.4</ele>
        <time>2014-10-12T10:21:18Z</time>
      </trkpt>
      <trkpt lat="45.81664" lon="4.9734">
        <ele>182.4</ele>
        <time>2014-10-12T10:21:21Z</time>
      </trkpt>
      <trkpt lat="45.81662" lon="4.97326">
        <ele>182.4</ele>
        <time>2014-10-12T10:21:24Z</time>
      </trkpt>
      <trkpt lat="45.81661" lon="4.97322">
        <ele>182.4</ele>
        <time>2014-10-12T10:21:25Z</time>
      </trkpt>
      <trkpt lat="45.81659" lon="4.97297">
        <ele>182.4</ele>
        <time>2014-10-12T10:21:31Z</time>
      </trkpt>
      <trkpt lat="45.81658" lon="4.97276">
        <ele>182.2</ele>
        <time>2014-10-12T10:21:36Z</time>
      </trkpt>
      <trkpt lat="45.81656" lon="4.97268">
        <ele>182.2</ele>
        <time>2014-10-12T10:21:38Z</time>
      </trkpt>
      <trkpt lat="45.81656" lon="4.97255">
        <ele>182.2</ele>
        <time>2014-10-12T10:21:41Z</time>
      </trkpt>
      <trkpt lat="45.81656" lon="4.97241">
        <ele>182.2</ele>
        <time>2014-10-12T10:21:45Z</time>
      </trkpt>
      <trkpt lat="45.81655" lon="4.97234">
        <ele>182.4</ele>
        <time>2014-10-12T10:21:47Z</time>
      </trkpt>
      <trkpt lat="45.81653" lon="4.97214">
        <ele>182.2</ele>
        <time>2014-10-12T10:21:52Z</time>
      </trkpt>
      <trkpt lat="45.8165" lon="4.97192">
        <ele>182.2</ele>
        <time>2014-10-12T10:21:57Z</time>
      </trkpt>
      <trkpt lat="45.81649" lon="4.97187">
        <ele>182.2</ele>
        <time>2014-10-12T10:21:58Z</time>
      </trkpt>
      <trkpt lat="45.81648" lon="4.97169">
        <ele>182</ele>
        <time>2014-10-12T10:22:02Z</time>
      </trkpt>
      <trkpt lat="45.81647" lon="4.97159">
        <ele>182</ele>
        <time>2014-10-12T10:22:04Z</time>
      </trkpt>
      <trkpt lat="45.81646" lon="4.9715">
        <ele>182</ele>
        <time>2014-10-12T10:22:06Z</time>
      </trkpt>
      <trkpt lat="45.81644" lon="4.97134">
        <ele>181.8</ele>
        <time>2014-10-12T10:22:10Z</time>
      </trkpt>
      <trkpt lat="45.81644" lon="4.9713">
        <ele>181.8</ele>
        <time>2014-10-12T10:22:11Z</time>
      </trkpt>
      <trkpt lat="45.81648" lon="4.97128">
        <ele>181.8</ele>
        <time>2014-10-12T10:22:13Z</time>
      </trkpt>
      <trkpt lat="45.81652" lon="4.97122">
        <ele>181.6</ele>
        <time>2014-10-12T10:22:16Z</time>
      </trkpt>
      <trkpt lat="45.81654" lon="4.97119">
        <ele>181.6</ele>
        <time>2014-10-12T10:22:17Z</time>
      </trkpt>
      <trkpt lat="45.81658" lon="4.97112">
        <ele>181.6</ele>
        <time>2014-10-12T10:22:19Z</time>
      </trkpt>
      <trkpt lat="45.81666" lon="4.971">
        <ele>181.4</ele>
        <time>2014-10-12T10:22:23Z</time>
      </trkpt>
      <trkpt lat="45.81671" lon="4.97093">
        <ele>181.4</ele>
        <time>2014-10-12T10:22:27Z</time>
      </trkpt>
      <trkpt lat="45.81672" lon="4.97092">
        <ele>181.4</ele>
        <time>2014-10-12T10:22:28Z</time>
      </trkpt>
      <trkpt lat="45.81676" lon="4.97089">
        <ele>181.4</ele>
        <time>2014-10-12T10:22:34Z</time>
      </trkpt>
      <trkpt lat="45.81679" lon="4.97094">
        <ele>181.2</ele>
        <time>2014-10-12T10:22:39Z</time>
      </trkpt>
      <trkpt lat="45.8168" lon="4.97097">
        <ele>181.2</ele>
        <time>2014-10-12T10:22:40Z</time>
      </trkpt>
      <trkpt lat="45.81683" lon="4.97108">
        <ele>181.2</ele>
        <time>2014-10-12T10:22:43Z</time>
      </trkpt>
      <trkpt lat="45.81685" lon="4.97111">
        <ele>181.2</ele>
        <time>2014-10-12T10:22:44Z</time>
      </trkpt>
      <trkpt lat="45.81688" lon="4.97114">
        <ele>181.2</ele>
        <time>2014-10-12T10:22:49Z</time>
      </trkpt>
      <trkpt lat="45.81689" lon="4.97114">
        <ele>181</ele>
        <time>2014-10-12T10:22:53Z</time>
      </trkpt>
      <trkpt lat="45.81691" lon="4.97113">
        <ele>181</ele>
        <time>2014-10-12T10:22:58Z</time>
      </trkpt>
      <trkpt lat="45.81691" lon="4.97108">
        <ele>181.2</ele>
        <time>2014-10-12T10:23:16Z</time>
      </trkpt>
      <trkpt lat="45.81693" lon="4.97107">
        <ele>181.2</ele>
        <time>2014-10-12T10:23:17Z</time>
      </trkpt>
      <trkpt lat="45.81695" lon="4.97105">
        <ele>181.2</ele>
        <time>2014-10-12T10:23:18Z</time>
      </trkpt>
      <trkpt lat="45.81703" lon="4.97097">
        <ele>181</ele>
        <time>2014-10-12T10:23:22Z</time>
      </trkpt>
      <trkpt lat="45.81705" lon="4.97094">
        <ele>181</ele>
        <time>2014-10-12T10:23:23Z</time>
      </trkpt>
      <trkpt lat="45.81708" lon="4.97083">
        <ele>181</ele>
        <time>2014-10-12T10:23:26Z</time>
      </trkpt>
      <trkpt lat="45.8171" lon="4.97078">
        <ele>180.8</ele>
        <time>2014-10-12T10:23:28Z</time>
      </trkpt>
      <trkpt lat="45.8172" lon="4.97068">
        <ele>180.6</ele>
        <time>2014-10-12T10:23:34Z</time>
      </trkpt>
      <trkpt lat="45.81722" lon="4.97066">
        <ele>180.6</ele>
        <time>2014-10-12T10:23:35Z</time>
      </trkpt>
      <trkpt lat="45.81731" lon="4.97053">
        <ele>180.4</ele>
        <time>2014-10-12T10:23:40Z</time>
      </trkpt>
      <trkpt lat="45.81738" lon="4.97048">
        <ele>180.4</ele>
        <time>2014-10-12T10:23:43Z</time>
      </trkpt>
      <trkpt lat="45.81744" lon="4.97043">
        <ele>180.2</ele>
        <time>2014-10-12T10:23:46Z</time>
      </trkpt>
      <trkpt lat="45.81756" lon="4.97038">
        <ele>180.2</ele>
        <time>2014-10-12T10:23:50Z</time>
      </trkpt>
      <trkpt lat="45.81763" lon="4.97034">
        <ele>180.6</ele>
        <time>2014-10-12T10:23:52Z</time>
      </trkpt>
      <trkpt lat="45.81772" lon="4.97024">
        <ele>181</ele>
        <time>2014-10-12T10:23:56Z</time>
      </trkpt>
      <trkpt lat="45.81774" lon="4.97022">
        <ele>181.2</ele>
        <time>2014-10-12T10:23:57Z</time>
      </trkpt>
      <trkpt lat="45.81787" lon="4.97008">
        <ele>181.4</ele>
        <time>2014-10-12T10:24:02Z</time>
      </trkpt>
      <trkpt lat="45.818" lon="4.96995">
        <ele>182</ele>
        <time>2014-10-12T10:24:06Z</time>
      </trkpt>
      <trkpt lat="45.81801" lon="4.96992">
        <ele>182</ele>
        <time>2014-10-12T10:24:07Z</time>
      </trkpt>
      <trkpt lat="45.81806" lon="4.96984">
        <ele>182.2</ele>
        <time>2014-10-12T10:24:09Z</time>
      </trkpt>
      <trkpt lat="45.81808" lon="4.96979">
        <ele>182.2</ele>
        <time>2014-10-12T10:24:10Z</time>
      </trkpt>
      <trkpt lat="45.81811" lon="4.96968">
        <ele>182.2</ele>
        <time>2014-10-12T10:24:12Z</time>
      </trkpt>
      <trkpt lat="45.81814" lon="4.96958">
        <ele>182.2</ele>
        <time>2014-10-12T10:24:14Z</time>
      </trkpt>
      <trkpt lat="45.81818" lon="4.96943">
        <ele>182.4</ele>
        <time>2014-10-12T10:24:18Z</time>
      </trkpt>
      <trkpt lat="45.81826" lon="4.9693">
        <ele>182.4</ele>
        <time>2014-10-12T10:24:22Z</time>
      </trkpt>
      <trkpt lat="45.8183" lon="4.96924">
        <ele>182.2</ele>
        <time>2014-10-12T10:24:24Z</time>
      </trkpt>
      <trkpt lat="45.81832" lon="4.96912">
        <ele>182.2</ele>
        <time>2014-10-12T10:24:27Z</time>
      </trkpt>
      <trkpt lat="45.81835" lon="4.96895">
        <ele>182.2</ele>
        <time>2014-10-12T10:24:31Z</time>
      </trkpt>
      <trkpt lat="45.81842" lon="4.96879">
        <ele>182</ele>
        <time>2014-10-12T10:24:35Z</time>
      </trkpt>
      <trkpt lat="45.81847" lon="4.96873">
        <ele>182</ele>
        <time>2014-10-12T10:24:37Z</time>
      </trkpt>
      <trkpt lat="45.81853" lon="4.96862">
        <ele>182</ele>
        <time>2014-10-12T10:24:40Z</time>
      </trkpt>
      <trkpt lat="45.81856" lon="4.96849">
        <ele>182</ele>
        <time>2014-10-12T10:24:43Z</time>
      </trkpt>
      <trkpt lat="45.81856" lon="4.9684">
        <ele>181.8</ele>
        <time>2014-10-12T10:24:45Z</time>
      </trkpt>
      <trkpt lat="45.8186" lon="4.96825">
        <ele>181.6</ele>
        <time>2014-10-12T10:24:49Z</time>
      </trkpt>
      <trkpt lat="45.81862" lon="4.96816">
        <ele>181.6</ele>
        <time>2014-10-12T10:24:51Z</time>
      </trkpt>
      <trkpt lat="45.81864" lon="4.96802">
        <ele>181.6</ele>
        <time>2014-10-12T10:24:54Z</time>
      </trkpt>
      <trkpt lat="45.81864" lon="4.96798">
        <ele>181.6</ele>
        <time>2014-10-12T10:24:55Z</time>
      </trkpt>
      <trkpt lat="45.81861" lon="4.96781">
        <ele>181.4</ele>
        <time>2014-10-12T10:24:59Z</time>
      </trkpt>
      <trkpt lat="45.81861" lon="4.96771">
        <ele>181.4</ele>
        <time>2014-10-12T10:25:01Z</time>
      </trkpt>
      <trkpt lat="45.81861" lon="4.96762">
        <ele>181.4</ele>
        <time>2014-10-12T10:25:03Z</time>
      </trkpt>
      <trkpt lat="45.81864" lon="4.96744">
        <ele>181.2</ele>
        <time>2014-10-12T10:25:07Z</time>
      </trkpt>
      <trkpt lat="45.81865" lon="4.9674">
        <ele>181.2</ele>
        <time>2014-10-12T10:25:08Z</time>
      </trkpt>
      <trkpt lat="45.81863" lon="4.96724">
        <ele>181.2</ele>
        <time>2014-10-12T10:25:12Z</time>
      </trkpt>
      <trkpt lat="45.81861" lon="4.96717">
        <ele>181.2</ele>
        <time>2014-10-12T10:25:14Z</time>
      </trkpt>
      <trkpt lat="45.81856" lon="4.96702">
        <ele>181</ele>
        <time>2014-10-12T10:25:18Z</time>
      </trkpt>
      <trkpt lat="45.81852" lon="4.96691">
        <ele>181</ele>
        <time>2014-10-12T10:25:21Z</time>
      </trkpt>
      <trkpt lat="45.81851" lon="4.96683">
        <ele>181</ele>
        <time>2014-10-12T10:25:23Z</time>
      </trkpt>
      <trkpt lat="45.81846" lon="4.96664">
        <ele>181</ele>
        <time>2014-10-12T10:25:28Z</time>
      </trkpt>
      <trkpt lat="45.81844" lon="4.9666">
        <ele>180.8</ele>
        <time>2014-10-12T10:25:29Z</time>
      </trkpt>
      <trkpt lat="45.81835" lon="4.96643">
        <ele>180.8</ele>
        <time>2014-10-12T10:25:34Z</time>
      </trkpt>
      <trkpt lat="45.81825" lon="4.96621">
        <ele>180.6</ele>
        <time>2014-10-12T10:25:40Z</time>
      </trkpt>
      <trkpt lat="45.81817" lon="4.966">
        <ele>180.4</ele>
        <time>2014-10-12T10:25:46Z</time>
      </trkpt>
      <trkpt lat="45.81817" lon="4.96596">
        <ele>180.4</ele>
        <time>2014-10-12T10:25:47Z</time>
      </trkpt>
      <trkpt lat="45.81817" lon="4.96586">
        <ele>180.2</ele>
        <time>2014-10-12T10:25:50Z</time>
      </trkpt>
      <trkpt lat="45.81819" lon="4.96584">
        <ele>180.2</ele>
        <time>2014-10-12T10:25:51Z</time>
      </trkpt>
      <trkpt lat="45.81825" lon="4.96574">
        <ele>180.2</ele>
        <time>2014-10-12T10:25:56Z</time>
      </trkpt>
      <trkpt lat="45.81827" lon="4.96572">
        <ele>180.2</ele>
        <time>2014-10-12T10:25:57Z</time>
      </trkpt>
      <trkpt lat="45.81829" lon="4.96568">
        <ele>180.2</ele>
        <time>2014-10-12T10:25:59Z</time>
      </trkpt>
      <trkpt lat="45.81832" lon="4.96562">
        <ele>180.2</ele>
        <time>2014-10-12T10:26:02Z</time>
      </trkpt>
      <trkpt lat="45.81839" lon="4.96553">
        <ele>180.2</ele>
        <time>2014-10-12T10:26:06Z</time>
      </trkpt>
      <trkpt lat="45.81847" lon="4.96548">
        <ele>180.2</ele>
        <time>2014-10-12T10:26:09Z</time>
      </trkpt>
      <trkpt lat="45.81857" lon="4.96548">
        <ele>180</ele>
        <time>2014-10-12T10:26:12Z</time>
      </trkpt>
      <trkpt lat="45.81862" lon="4.96547">
        <ele>180</ele>
        <time>2014-10-12T10:26:14Z</time>
      </trkpt>
      <trkpt lat="45.81874" lon="4.96554">
        <ele>180</ele>
        <time>2014-10-12T10:26:19Z</time>
      </trkpt>
      <trkpt lat="45.81878" lon="4.96561">
        <ele>180</ele>
        <time>2014-10-12T10:26:22Z</time>
      </trkpt>
      <trkpt lat="45.8188" lon="4.96566">
        <ele>179.8</ele>
        <time>2014-10-12T10:26:24Z</time>
      </trkpt>
      <trkpt lat="45.81884" lon="4.96574">
        <ele>179.8</ele>
        <time>2014-10-12T10:26:29Z</time>
      </trkpt>
      <trkpt lat="45.81885" lon="4.96576">
        <ele>179.8</ele>
        <time>2014-10-12T10:26:30Z</time>
      </trkpt>
      <trkpt lat="45.81889" lon="4.96588">
        <ele>179.6</ele>
        <time>2014-10-12T10:26:35Z</time>
      </trkpt>
      <trkpt lat="45.81892" lon="4.96599">
        <ele>179.8</ele>
        <time>2014-10-12T10:26:39Z</time>
      </trkpt>
      <trkpt lat="45.81893" lon="4.96602">
        <ele>180</ele>
        <time>2014-10-12T10:26:40Z</time>
      </trkpt>
      <trkpt lat="45.81895" lon="4.96609">
        <ele>179.8</ele>
        <time>2014-10-12T10:26:42Z</time>
      </trkpt>
      <trkpt lat="45.81898" lon="4.96616">
        <ele>180</ele>
        <time>2014-10-12T10:26:44Z</time>
      </trkpt>
      <trkpt lat="45.81901" lon="4.96624">
        <ele>180</ele>
        <time>2014-10-12T10:26:46Z</time>
      </trkpt>
      <trkpt lat="45.81905" lon="4.96632">
        <ele>180</ele>
        <time>2014-10-12T10:26:48Z</time>
      </trkpt>
      <trkpt lat="45.81908" lon="4.96642">
        <ele>180</ele>
        <time>2014-10-12T10:26:51Z</time>
      </trkpt>
      <trkpt lat="45.8191" lon="4.96649">
        <ele>179.8</ele>
        <time>2014-10-12T10:26:53Z</time>
      </trkpt>
      <trkpt lat="45.81914" lon="4.96669">
        <ele>179.6</ele>
        <time>2014-10-12T10:26:58Z</time>
      </trkpt>
      <trkpt lat="45.81916" lon="4.96676">
        <ele>179.6</ele>
        <time>2014-10-12T10:27:00Z</time>
      </trkpt>
      <trkpt lat="45.81919" lon="4.96691">
        <ele>179.6</ele>
        <time>2014-10-12T10:27:04Z</time>
      </trkpt>
      <trkpt lat="45.81921" lon="4.96702">
        <ele>179.6</ele>
        <time>2014-10-12T10:27:07Z</time>
      </trkpt>
      <trkpt lat="45.81925" lon="4.96709">
        <ele>179.4</ele>
        <time>2014-10-12T10:27:10Z</time>
      </trkpt>
      <trkpt lat="45.81935" lon="4.96705">
        <ele>179.6</ele>
        <time>2014-10-12T10:27:14Z</time>
      </trkpt>
      <trkpt lat="45.81937" lon="4.96703">
        <ele>179.6</ele>
        <time>2014-10-12T10:27:15Z</time>
      </trkpt>
      <trkpt lat="45.81944" lon="4.96698">
        <ele>179.8</ele>
        <time>2014-10-12T10:27:19Z</time>
      </trkpt>
      <trkpt lat="45.81946" lon="4.96696">
        <ele>179.8</ele>
        <time>2014-10-12T10:27:20Z</time>
      </trkpt>
      <trkpt lat="45.81952" lon="4.9669">
        <ele>179.6</ele>
        <time>2014-10-12T10:27:23Z</time>
      </trkpt>
      <trkpt lat="45.81953" lon="4.96687">
        <ele>179.6</ele>
        <time>2014-10-12T10:27:24Z</time>
      </trkpt>
      <trkpt lat="45.81956" lon="4.96684">
        <ele>179.6</ele>
        <time>2014-10-12T10:27:25Z</time>
      </trkpt>
      <trkpt lat="45.81963" lon="4.96676">
        <ele>179.6</ele>
        <time>2014-10-12T10:27:29Z</time>
      </trkpt>
      <trkpt lat="45.81963" lon="4.96675">
        <ele>179.6</ele>
        <time>2014-10-12T10:27:33Z</time>
      </trkpt>
      <trkpt lat="45.81961" lon="4.96671">
        <ele>179.6</ele>
        <time>2014-10-12T10:27:36Z</time>
      </trkpt>
      <trkpt lat="45.8196" lon="4.96669">
        <ele>179.6</ele>
        <time>2014-10-12T10:27:37Z</time>
      </trkpt>
      <trkpt lat="45.81962" lon="4.96655">
        <ele>179.4</ele>
        <time>2014-10-12T10:27:42Z</time>
      </trkpt>
      <trkpt lat="45.81965" lon="4.96648">
        <ele>179.4</ele>
        <time>2014-10-12T10:27:45Z</time>
      </trkpt>
      <trkpt lat="45.81966" lon="4.96646">
        <ele>179.4</ele>
        <time>2014-10-12T10:27:46Z</time>
      </trkpt>
      <trkpt lat="45.81966" lon="4.96644">
        <ele>179.4</ele>
        <time>2014-10-12T10:27:47Z</time>
      </trkpt>
      <trkpt lat="45.8197" lon="4.96643">
        <ele>179.4</ele>
        <time>2014-10-12T10:27:50Z</time>
      </trkpt>
      <trkpt lat="45.81971" lon="4.96641">
        <ele>179.4</ele>
        <time>2014-10-12T10:27:51Z</time>
      </trkpt>
      <trkpt lat="45.81972" lon="4.96636">
        <ele>179.4</ele>
        <time>2014-10-12T10:27:54Z</time>
      </trkpt>
      <trkpt lat="45.81972" lon="4.96635">
        <ele>179.4</ele>
        <time>2014-10-12T10:27:56Z</time>
      </trkpt>
      <trkpt lat="45.81973" lon="4.96631">
        <ele>179.4</ele>
        <time>2014-10-12T10:28:00Z</time>
      </trkpt>
      <trkpt lat="45.81973" lon="4.96629">
        <ele>179.4</ele>
        <time>2014-10-12T10:28:01Z</time>
      </trkpt>
      <trkpt lat="45.81974" lon="4.96622">
        <ele>179.4</ele>
        <time>2014-10-12T10:28:03Z</time>
      </trkpt>
      <trkpt lat="45.81976" lon="4.96609">
        <ele>179.4</ele>
        <time>2014-10-12T10:28:06Z</time>
      </trkpt>
      <trkpt lat="45.81979" lon="4.96595">
        <ele>179.4</ele>
        <time>2014-10-12T10:28:09Z</time>
      </trkpt>
      <trkpt lat="45.81981" lon="4.96592">
        <ele>179.4</ele>
        <time>2014-10-12T10:28:10Z</time>
      </trkpt>
      <trkpt lat="45.81995" lon="4.96579">
        <ele>179.6</ele>
        <time>2014-10-12T10:28:15Z</time>
      </trkpt>
      <trkpt lat="45.81997" lon="4.96576">
        <ele>179.6</ele>
        <time>2014-10-12T10:28:16Z</time>
      </trkpt>
      <trkpt lat="45.82007" lon="4.96565">
        <ele>179.6</ele>
        <time>2014-10-12T10:28:20Z</time>
      </trkpt>
      <trkpt lat="45.82009" lon="4.96562">
        <ele>179.6</ele>
        <time>2014-10-12T10:28:21Z</time>
      </trkpt>
      <trkpt lat="45.82015" lon="4.96551">
        <ele>179.6</ele>
        <time>2014-10-12T10:28:25Z</time>
      </trkpt>
      <trkpt lat="45.82021" lon="4.96543">
        <ele>179.6</ele>
        <time>2014-10-12T10:28:29Z</time>
      </trkpt>
      <trkpt lat="45.82021" lon="4.96542">
        <ele>179.6</ele>
        <time>2014-10-12T10:28:30Z</time>
      </trkpt>
      <trkpt lat="45.82018" lon="4.96533">
        <ele>179.4</ele>
        <time>2014-10-12T10:28:33Z</time>
      </trkpt>
      <trkpt lat="45.82016" lon="4.96529">
        <ele>179.4</ele>
        <time>2014-10-12T10:28:34Z</time>
      </trkpt>
      <trkpt lat="45.82012" lon="4.96519">
        <ele>179.4</ele>
        <time>2014-10-12T10:28:38Z</time>
      </trkpt>
      <trkpt lat="45.82012" lon="4.96518">
        <ele>179.4</ele>
        <time>2014-10-12T10:28:39Z</time>
      </trkpt>
      <trkpt lat="45.82012" lon="4.96513">
        <ele>179.4</ele>
        <time>2014-10-12T10:28:42Z</time>
      </trkpt>
      <trkpt lat="45.82014" lon="4.9651">
        <ele>179.4</ele>
        <time>2014-10-12T10:28:44Z</time>
      </trkpt>
      <trkpt lat="45.82015" lon="4.96507">
        <ele>179.4</ele>
        <time>2014-10-12T10:28:49Z</time>
      </trkpt>
      <trkpt lat="45.82015" lon="4.96507">
        <ele>179.4</ele>
        <time>2014-10-12T10:28:50Z</time>
      </trkpt>
      <trkpt lat="45.82016" lon="4.96522">
        <ele>179.4</ele>
        <time>2014-10-12T10:28:56Z</time>
      </trkpt>
      <trkpt lat="45.8202" lon="4.96541">
        <ele>179.4</ele>
        <time>2014-10-12T10:29:01Z</time>
      </trkpt>
      <trkpt lat="45.82022" lon="4.96548">
        <ele>179.4</ele>
        <time>2014-10-12T10:29:03Z</time>
      </trkpt>
      <trkpt lat="45.82023" lon="4.96557">
        <ele>179.4</ele>
        <time>2014-10-12T10:29:06Z</time>
      </trkpt>
      <trkpt lat="45.82026" lon="4.96573">
        <ele>179.2</ele>
        <time>2014-10-12T10:29:10Z</time>
      </trkpt>
      <trkpt lat="45.82027" lon="4.96577">
        <ele>179.2</ele>
        <time>2014-10-12T10:29:11Z</time>
      </trkpt>
      <trkpt lat="45.82032" lon="4.96595">
        <ele>179.2</ele>
        <time>2014-10-12T10:29:16Z</time>
      </trkpt>
      <trkpt lat="45.82034" lon="4.96602">
        <ele>179</ele>
        <time>2014-10-12T10:29:18Z</time>
      </trkpt>
      <trkpt lat="45.82036" lon="4.96613">
        <ele>179</ele>
        <time>2014-10-12T10:29:21Z</time>
      </trkpt>
      <trkpt lat="45.8204" lon="4.96627">
        <ele>178.8</ele>
        <time>2014-10-12T10:29:25Z</time>
      </trkpt>
      <trkpt lat="45.82044" lon="4.96634">
        <ele>178.8</ele>
        <time>2014-10-12T10:29:27Z</time>
      </trkpt>
      <trkpt lat="45.82052" lon="4.96648">
        <ele>178.8</ele>
        <time>2014-10-12T10:29:31Z</time>
      </trkpt>
      <trkpt lat="45.8206" lon="4.9667">
        <ele>178.6</ele>
        <time>2014-10-12T10:29:37Z</time>
      </trkpt>
      <trkpt lat="45.82061" lon="4.96672">
        <ele>178.6</ele>
        <time>2014-10-12T10:29:38Z</time>
      </trkpt>
      <trkpt lat="45.82065" lon="4.96681">
        <ele>178.4</ele>
        <time>2014-10-12T10:29:41Z</time>
      </trkpt>
      <trkpt lat="45.82068" lon="4.96698">
        <ele>178.4</ele>
        <time>2014-10-12T10:29:46Z</time>
      </trkpt>
      <trkpt lat="45.82068" lon="4.96702">
        <ele>178.4</ele>
        <time>2014-10-12T10:29:47Z</time>
      </trkpt>
      <trkpt lat="45.82069" lon="4.96726">
        <ele>178.4</ele>
        <time>2014-10-12T10:29:53Z</time>
      </trkpt>
      <trkpt lat="45.82069" lon="4.96741">
        <ele>178.4</ele>
        <time>2014-10-12T10:29:58Z</time>
      </trkpt>
      <trkpt lat="45.82072" lon="4.96744">
        <ele>179.2</ele>
        <time>2014-10-12T10:30:03Z</time>
      </trkpt>
      <trkpt lat="45.82072" lon="4.96755">
        <ele>186.2</ele>
        <time>2014-10-12T10:30:24Z</time>
      </trkpt>
      <trkpt lat="45.82072" lon="4.96758">
        <ele>186.4</ele>
        <time>2014-10-12T10:30:25Z</time>
      </trkpt>
      <trkpt lat="45.82068" lon="4.96779">
        <ele>187</ele>
        <time>2014-10-12T10:30:30Z</time>
      </trkpt>
      <trkpt lat="45.82068" lon="4.96783">
        <ele>186.8</ele>
        <time>2014-10-12T10:30:31Z</time>
      </trkpt>
      <trkpt lat="45.82067" lon="4.96805">
        <ele>186.6</ele>
        <time>2014-10-12T10:30:36Z</time>
      </trkpt>
      <trkpt lat="45.82067" lon="4.96812">
        <ele>186.6</ele>
        <time>2014-10-12T10:30:38Z</time>
      </trkpt>
      <trkpt lat="45.82065" lon="4.96829">
        <ele>186.2</ele>
        <time>2014-10-12T10:30:42Z</time>
      </trkpt>
      <trkpt lat="45.82061" lon="4.96841">
        <ele>185.8</ele>
        <time>2014-10-12T10:30:45Z</time>
      </trkpt>
      <trkpt lat="45.82059" lon="4.96852">
        <ele>185.4</ele>
        <time>2014-10-12T10:30:48Z</time>
      </trkpt>
      <trkpt lat="45.8206" lon="4.96867">
        <ele>185</ele>
        <time>2014-10-12T10:30:52Z</time>
      </trkpt>
      <trkpt lat="45.8206" lon="4.96871">
        <ele>184.8</ele>
        <time>2014-10-12T10:30:53Z</time>
      </trkpt>
      <trkpt lat="45.82059" lon="4.96896">
        <ele>184.2</ele>
        <time>2014-10-12T10:30:59Z</time>
      </trkpt>
      <trkpt lat="45.82055" lon="4.96917">
        <ele>183.4</ele>
        <time>2014-10-12T10:31:04Z</time>
      </trkpt>
      <trkpt lat="45.82053" lon="4.96924">
        <ele>183</ele>
        <time>2014-10-12T10:31:06Z</time>
      </trkpt>
      <trkpt lat="45.82048" lon="4.96936">
        <ele>182.6</ele>
        <time>2014-10-12T10:31:09Z</time>
      </trkpt>
      <trkpt lat="45.82046" lon="4.9695">
        <ele>182.2</ele>
        <time>2014-10-12T10:31:12Z</time>
      </trkpt>
      <trkpt lat="45.82046" lon="4.96959">
        <ele>182</ele>
        <time>2014-10-12T10:31:14Z</time>
      </trkpt>
      <trkpt lat="45.82046" lon="4.96976">
        <ele>181.8</ele>
        <time>2014-10-12T10:31:18Z</time>
      </trkpt>
      <trkpt lat="45.82046" lon="4.9698">
        <ele>181.6</ele>
        <time>2014-10-12T10:31:19Z</time>
      </trkpt>
      <trkpt lat="45.82043" lon="4.96997">
        <ele>181.4</ele>
        <time>2014-10-12T10:31:23Z</time>
      </trkpt>
      <trkpt lat="45.82041" lon="4.97001">
        <ele>181.4</ele>
        <time>2014-10-12T10:31:24Z</time>
      </trkpt>
      <trkpt lat="45.82037" lon="4.97015">
        <ele>181</ele>
        <time>2014-10-12T10:31:28Z</time>
      </trkpt>
      <trkpt lat="45.82032" lon="4.97025">
        <ele>181</ele>
        <time>2014-10-12T10:31:31Z</time>
      </trkpt>
      <trkpt lat="45.82031" lon="4.97029">
        <ele>180.8</ele>
        <time>2014-10-12T10:31:32Z</time>
      </trkpt>
      <trkpt lat="45.82027" lon="4.97045">
        <ele>180.6</ele>
        <time>2014-10-12T10:31:36Z</time>
      </trkpt>
      <trkpt lat="45.82024" lon="4.97052">
        <ele>180.6</ele>
        <time>2014-10-12T10:31:38Z</time>
      </trkpt>
      <trkpt lat="45.8202" lon="4.97062">
        <ele>180.4</ele>
        <time>2014-10-12T10:31:41Z</time>
      </trkpt>
      <trkpt lat="45.82011" lon="4.97074">
        <ele>180.2</ele>
        <time>2014-10-12T10:31:45Z</time>
      </trkpt>
      <trkpt lat="45.82009" lon="4.97076">
        <ele>180.2</ele>
        <time>2014-10-12T10:31:46Z</time>
      </trkpt>
      <trkpt lat="45.81996" lon="4.97092">
        <ele>179.8</ele>
        <time>2014-10-12T10:31:52Z</time>
      </trkpt>
      <trkpt lat="45.81993" lon="4.97094">
        <ele>179.8</ele>
        <time>2014-10-12T10:31:53Z</time>
      </trkpt>
      <trkpt lat="45.81979" lon="4.97108">
        <ele>179.4</ele>
        <time>2014-10-12T10:31:59Z</time>
      </trkpt>
      <trkpt lat="45.81977" lon="4.97111">
        <ele>179.4</ele>
        <time>2014-10-12T10:32:00Z</time>
      </trkpt>
      <trkpt lat="45.81964" lon="4.97125">
        <ele>179</ele>
        <time>2014-10-12T10:32:06Z</time>
      </trkpt>
      <trkpt lat="45.81948" lon="4.9714">
        <ele>178.4</ele>
        <time>2014-10-12T10:32:13Z</time>
      </trkpt>
      <trkpt lat="45.81946" lon="4.97142">
        <ele>178.2</ele>
        <time>2014-10-12T10:32:14Z</time>
      </trkpt>
      <trkpt lat="45.81935" lon="4.97151">
        <ele>177.8</ele>
        <time>2014-10-12T10:32:19Z</time>
      </trkpt>
      <trkpt lat="45.81932" lon="4.97153">
        <ele>177.6</ele>
        <time>2014-10-12T10:32:20Z</time>
      </trkpt>
      <trkpt lat="45.81918" lon="4.97168">
        <ele>177.2</ele>
        <time>2014-10-12T10:32:26Z</time>
      </trkpt>
      <trkpt lat="45.81916" lon="4.9717">
        <ele>177</ele>
        <time>2014-10-12T10:32:27Z</time>
      </trkpt>
      <trkpt lat="45.81903" lon="4.97189">
        <ele>176.4</ele>
        <time>2014-10-12T10:32:33Z</time>
      </trkpt>
      <trkpt lat="45.8189" lon="4.97205">
        <ele>176</ele>
        <time>2014-10-12T10:32:39Z</time>
      </trkpt>
      <trkpt lat="45.81888" lon="4.97208">
        <ele>176</ele>
        <time>2014-10-12T10:32:40Z</time>
      </trkpt>
      <trkpt lat="45.81878" lon="4.97223">
        <ele>175.6</ele>
        <time>2014-10-12T10:32:45Z</time>
      </trkpt>
      <trkpt lat="45.81874" lon="4.97228">
        <ele>175.6</ele>
        <time>2014-10-12T10:32:48Z</time>
      </trkpt>
      <trkpt lat="45.8187" lon="4.97231">
        <ele>175.6</ele>
        <time>2014-10-12T10:32:51Z</time>
      </trkpt>
      <trkpt lat="45.81862" lon="4.97242">
        <ele>175.6</ele>
        <time>2014-10-12T10:32:56Z</time>
      </trkpt>
      <trkpt lat="45.8186" lon="4.97244">
        <ele>175.4</ele>
        <time>2014-10-12T10:32:57Z</time>
      </trkpt>
      <trkpt lat="45.81849" lon="4.9725">
        <ele>175.4</ele>
        <time>2014-10-12T10:33:01Z</time>
      </trkpt>
      <trkpt lat="45.81845" lon="4.97242">
        <ele>176</ele>
        <time>2014-10-12T10:33:05Z</time>
      </trkpt>
      <trkpt lat="45.81846" lon="4.97243">
        <ele>178.2</ele>
        <time>2014-10-12T10:33:11Z</time>
      </trkpt>
      <trkpt lat="45.81848" lon="4.97247">
        <ele>179.4</ele>
        <time>2014-10-12T10:33:14Z</time>
      </trkpt>
      <trkpt lat="45.8185" lon="4.97253">
        <ele>180.2</ele>
        <time>2014-10-12T10:33:17Z</time>
      </trkpt>
      <trkpt lat="45.81843" lon="4.97261">
        <ele>180.6</ele>
        <time>2014-10-12T10:33:21Z</time>
      </trkpt>
      <trkpt lat="45.81842" lon="4.97262">
        <ele>180.8</ele>
        <time>2014-10-12T10:33:22Z</time>
      </trkpt>
      <trkpt lat="45.81844" lon="4.97271">
        <ele>180.8</ele>
        <time>2014-10-12T10:33:26Z</time>
      </trkpt>
      <trkpt lat="45.81845" lon="4.97275">
        <ele>181</ele>
        <time>2014-10-12T10:33:27Z</time>
      </trkpt>
      <trkpt lat="45.8185" lon="4.97286">
        <ele>181</ele>
        <time>2014-10-12T10:33:30Z</time>
      </trkpt>
      <trkpt lat="45.81852" lon="4.97289">
        <ele>181</ele>
        <time>2014-10-12T10:33:31Z</time>
      </trkpt>
      <trkpt lat="45.81861" lon="4.97311">
        <ele>180.8</ele>
        <time>2014-10-12T10:33:38Z</time>
      </trkpt>
      <trkpt lat="45.81867" lon="4.97326">
        <ele>180.8</ele>
        <time>2014-10-12T10:33:42Z</time>
      </trkpt>
      <trkpt lat="45.81872" lon="4.97336">
        <ele>180.8</ele>
        <time>2014-10-12T10:33:45Z</time>
      </trkpt>
      <trkpt lat="45.81875" lon="4.97346">
        <ele>180.6</ele>
        <time>2014-10-12T10:33:48Z</time>
      </trkpt>
      <trkpt lat="45.81879" lon="4.97355">
        <ele>180.4</ele>
        <time>2014-10-12T10:33:52Z</time>
      </trkpt>
      <trkpt lat="45.8188" lon="4.9736">
        <ele>180.4</ele>
        <time>2014-10-12T10:33:55Z</time>
      </trkpt>
      <trkpt lat="45.8188" lon="4.97364">
        <ele>180.4</ele>
        <time>2014-10-12T10:33:57Z</time>
      </trkpt>
      <trkpt lat="45.8188" lon="4.97367">
        <ele>180.4</ele>
        <time>2014-10-12T10:33:59Z</time>
      </trkpt>
      <trkpt lat="45.81876" lon="4.97373">
        <ele>180.2</ele>
        <time>2014-10-12T10:34:04Z</time>
      </trkpt>
      <trkpt lat="45.81869" lon="4.97381">
        <ele>180</ele>
        <time>2014-10-12T10:34:08Z</time>
      </trkpt>
      <trkpt lat="45.81867" lon="4.97384">
        <ele>179.8</ele>
        <time>2014-10-12T10:34:09Z</time>
      </trkpt>
      <trkpt lat="45.81853" lon="4.97398">
        <ele>179.4</ele>
        <time>2014-10-12T10:34:15Z</time>
      </trkpt>
      <trkpt lat="45.8184" lon="4.97416">
        <ele>179</ele>
        <time>2014-10-12T10:34:21Z</time>
      </trkpt>
      <trkpt lat="45.81838" lon="4.97419">
        <ele>178.8</ele>
        <time>2014-10-12T10:34:22Z</time>
      </trkpt>
      <trkpt lat="45.81831" lon="4.97429">
        <ele>178.4</ele>
        <time>2014-10-12T10:34:25Z</time>
      </trkpt>
      <trkpt lat="45.81824" lon="4.97437">
        <ele>178.2</ele>
        <time>2014-10-12T10:34:28Z</time>
      </trkpt>
      <trkpt lat="45.81819" lon="4.97442">
        <ele>178.2</ele>
        <time>2014-10-12T10:34:30Z</time>
      </trkpt>
      <trkpt lat="45.81809" lon="4.97455">
        <ele>178</ele>
        <time>2014-10-12T10:34:34Z</time>
      </trkpt>
      <trkpt lat="45.81803" lon="4.97463">
        <ele>177.8</ele>
        <time>2014-10-12T10:34:37Z</time>
      </trkpt>
      <trkpt lat="45.81794" lon="4.97471">
        <ele>177.6</ele>
        <time>2014-10-12T10:34:41Z</time>
      </trkpt>
      <trkpt lat="45.81792" lon="4.97474">
        <ele>177.6</ele>
        <time>2014-10-12T10:34:42Z</time>
      </trkpt>
      <trkpt lat="45.8178" lon="4.97488">
        <ele>177.8</ele>
        <time>2014-10-12T10:34:48Z</time>
      </trkpt>
      <trkpt lat="45.81773" lon="4.97497">
        <ele>177.8</ele>
        <time>2014-10-12T10:34:54Z</time>
      </trkpt>
      <trkpt lat="45.81768" lon="4.97503">
        <ele>177.8</ele>
        <time>2014-10-12T10:34:58Z</time>
      </trkpt>
      <trkpt lat="45.81767" lon="4.97504">
        <ele>177.8</ele>
        <time>2014-10-12T10:34:59Z</time>
      </trkpt>
      <trkpt lat="45.81766" lon="4.97505">
        <ele>177.8</ele>
        <time>2014-10-12T10:35:00Z</time>
      </trkpt>
      <trkpt lat="45.81758" lon="4.97516">
        <ele>177.6</ele>
        <time>2014-10-12T10:35:05Z</time>
      </trkpt>
      <trkpt lat="45.81753" lon="4.9752">
        <ele>177.6</ele>
        <time>2014-10-12T10:35:08Z</time>
      </trkpt>
      <trkpt lat="45.81752" lon="4.97521">
        <ele>177.6</ele>
        <time>2014-10-12T10:35:09Z</time>
      </trkpt>
      <trkpt lat="45.81754" lon="4.9752">
        <ele>177.6</ele>
        <time>2014-10-12T10:35:11Z</time>
      </trkpt>
      <trkpt lat="45.81755" lon="4.97517">
        <ele>177.6</ele>
        <time>2014-10-12T10:35:12Z</time>
      </trkpt>
      <trkpt lat="45.81758" lon="4.97514">
        <ele>177.6</ele>
        <time>2014-10-12T10:35:13Z</time>
      </trkpt>
      <trkpt lat="45.81769" lon="4.97503">
        <ele>177.6</ele>
        <time>2014-10-12T10:35:17Z</time>
      </trkpt>
      <trkpt lat="45.81775" lon="4.97511">
        <ele>177.4</ele>
        <time>2014-10-12T10:35:21Z</time>
      </trkpt>
      <trkpt lat="45.81779" lon="4.97523">
        <ele>177.2</ele>
        <time>2014-10-12T10:35:24Z</time>
      </trkpt>
      <trkpt lat="45.81781" lon="4.97529">
        <ele>177.2</ele>
        <time>2014-10-12T10:35:26Z</time>
      </trkpt>
      <trkpt lat="45.81785" lon="4.97543">
        <ele>177</ele>
        <time>2014-10-12T10:35:32Z</time>
      </trkpt>
      <trkpt lat="45.81786" lon="4.97547">
        <ele>177</ele>
        <time>2014-10-12T10:35:34Z</time>
      </trkpt>
      <trkpt lat="45.81789" lon="4.97556">
        <ele>176.8</ele>
        <time>2014-10-12T10:35:37Z</time>
      </trkpt>
      <trkpt lat="45.81791" lon="4.9757">
        <ele>176.4</ele>
        <time>2014-10-12T10:35:44Z</time>
      </trkpt>
      <trkpt lat="45.81791" lon="4.97573">
        <ele>176.6</ele>
        <time>2014-10-12T10:35:50Z</time>
      </trkpt>
      <trkpt lat="45.81789" lon="4.97581">
        <ele>176.4</ele>
        <time>2014-10-12T10:35:53Z</time>
      </trkpt>
      <trkpt lat="45.81784" lon="4.97591">
        <ele>176.4</ele>
        <time>2014-10-12T10:35:58Z</time>
      </trkpt>
      <trkpt lat="45.81782" lon="4.97595">
        <ele>176.2</ele>
        <time>2014-10-12T10:36:01Z</time>
      </trkpt>
      <trkpt lat="45.8178" lon="4.976">
        <ele>176.2</ele>
        <time>2014-10-12T10:36:04Z</time>
      </trkpt>
      <trkpt lat="45.81779" lon="4.97604">
        <ele>176.2</ele>
        <time>2014-10-12T10:36:07Z</time>
      </trkpt>
      <trkpt lat="45.81778" lon="4.97606">
        <ele>176.6</ele>
        <time>2014-10-12T10:36:09Z</time>
      </trkpt>
      <trkpt lat="45.81772" lon="4.97616">
        <ele>176.4</ele>
        <time>2014-10-12T10:36:15Z</time>
      </trkpt>
      <trkpt lat="45.81771" lon="4.97618">
        <ele>176.4</ele>
        <time>2014-10-12T10:36:16Z</time>
      </trkpt>
      <trkpt lat="45.81768" lon="4.97625">
        <ele>176.4</ele>
        <time>2014-10-12T10:36:19Z</time>
      </trkpt>
      <trkpt lat="45.81765" lon="4.9763">
        <ele>176.6</ele>
        <time>2014-10-12T10:36:22Z</time>
      </trkpt>
      <trkpt lat="45.81763" lon="4.97632">
        <ele>176.6</ele>
        <time>2014-10-12T10:36:23Z</time>
      </trkpt>
      <trkpt lat="45.81759" lon="4.9764">
        <ele>176.4</ele>
        <time>2014-10-12T10:36:26Z</time>
      </trkpt>
      <trkpt lat="45.81756" lon="4.97646">
        <ele>176.2</ele>
        <time>2014-10-12T10:36:28Z</time>
      </trkpt>
      <trkpt lat="45.81755" lon="4.97648">
        <ele>176.2</ele>
        <time>2014-10-12T10:36:29Z</time>
      </trkpt>
      <trkpt lat="45.81752" lon="4.97657">
        <ele>176</ele>
        <time>2014-10-12T10:36:33Z</time>
      </trkpt>
      <trkpt lat="45.81751" lon="4.97664">
        <ele>175.8</ele>
        <time>2014-10-12T10:36:36Z</time>
      </trkpt>
      <trkpt lat="45.8175" lon="4.97666">
        <ele>175.6</ele>
        <time>2014-10-12T10:36:37Z</time>
      </trkpt>
      <trkpt lat="45.81749" lon="4.97668">
        <ele>175.6</ele>
        <time>2014-10-12T10:36:38Z</time>
      </trkpt>
      <trkpt lat="45.81749" lon="4.97669">
        <ele>175.4</ele>
        <time>2014-10-12T10:36:39Z</time>
      </trkpt>
      <trkpt lat="45.81749" lon="4.9767">
        <ele>175.4</ele>
        <time>2014-10-12T10:36:40Z</time>
      </trkpt>
      <trkpt lat="45.81749" lon="4.97679">
        <ele>175.2</ele>
        <time>2014-10-12T10:36:44Z</time>
      </trkpt>
      <trkpt lat="45.81749" lon="4.9769">
        <ele>175</ele>
        <time>2014-10-12T10:36:50Z</time>
      </trkpt>
      <trkpt lat="45.81744" lon="4.97696">
        <ele>174.4</ele>
        <time>2014-10-12T10:36:55Z</time>
      </trkpt>
      <trkpt lat="45.81739" lon="4.9771">
        <ele>174</ele>
        <time>2014-10-12T10:36:59Z</time>
      </trkpt>
      <trkpt lat="45.81737" lon="4.97713">
        <ele>173.8</ele>
        <time>2014-10-12T10:37:00Z</time>
      </trkpt>
      <trkpt lat="45.81735" lon="4.97715">
        <ele>173.6</ele>
        <time>2014-10-12T10:37:01Z</time>
      </trkpt>
      <trkpt lat="45.81725" lon="4.97723">
        <ele>172.8</ele>
        <time>2014-10-12T10:37:06Z</time>
      </trkpt>
      <trkpt lat="45.81719" lon="4.97724">
        <ele>172.6</ele>
        <time>2014-10-12T10:37:08Z</time>
      </trkpt>
      <trkpt lat="45.81706" lon="4.97728">
        <ele>172.4</ele>
        <time>2014-10-12T10:37:13Z</time>
      </trkpt>
      <trkpt lat="45.81704" lon="4.9773">
        <ele>172.4</ele>
        <time>2014-10-12T10:37:14Z</time>
      </trkpt>
      <trkpt lat="45.81702" lon="4.97734">
        <ele>172.6</ele>
        <time>2014-10-12T10:37:15Z</time>
      </trkpt>
      <trkpt lat="45.81698" lon="4.97736">
        <ele>172.4</ele>
        <time>2014-10-12T10:37:17Z</time>
      </trkpt>
      <trkpt lat="45.81685" lon="4.97741">
        <ele>172.2</ele>
        <time>2014-10-12T10:37:21Z</time>
      </trkpt>
      <trkpt lat="45.8168" lon="4.97743">
        <ele>172.2</ele>
        <time>2014-10-12T10:37:22Z</time>
      </trkpt>
      <trkpt lat="45.81666" lon="4.97741">
        <ele>172</ele>
        <time>2014-10-12T10:37:25Z</time>
      </trkpt>
      <trkpt lat="45.81664" lon="4.97741">
        <ele>171.8</ele>
        <time>2014-10-12T10:37:26Z</time>
      </trkpt>
      <trkpt lat="45.8166" lon="4.97745">
        <ele>171.6</ele>
        <time>2014-10-12T10:37:30Z</time>
      </trkpt>
      <trkpt lat="45.81657" lon="4.97748">
        <ele>171.8</ele>
        <time>2014-10-12T10:37:34Z</time>
      </trkpt>
      <trkpt lat="45.81653" lon="4.97746">
        <ele>172.6</ele>
        <time>2014-10-12T10:37:38Z</time>
      </trkpt>
      <trkpt lat="45.81652" lon="4.97743">
        <ele>173</ele>
        <time>2014-10-12T10:37:40Z</time>
      </trkpt>
      <trkpt lat="45.81648" lon="4.97736">
        <ele>173.8</ele>
        <time>2014-10-12T10:37:45Z</time>
      </trkpt>
      <trkpt lat="45.81645" lon="4.97721">
        <ele>175.4</ele>
        <time>2014-10-12T10:37:53Z</time>
      </trkpt>
      <trkpt lat="45.81643" lon="4.97711">
        <ele>176</ele>
        <time>2014-10-12T10:37:56Z</time>
      </trkpt>
      <trkpt lat="45.81642" lon="4.97708">
        <ele>176</ele>
        <time>2014-10-12T10:37:57Z</time>
      </trkpt>
      <trkpt lat="45.81639" lon="4.97685">
        <ele>177.4</ele>
        <time>2014-10-12T10:38:02Z</time>
      </trkpt>
      <trkpt lat="45.81637" lon="4.97676">
        <ele>177.6</ele>
        <time>2014-10-12T10:38:04Z</time>
      </trkpt>
      <trkpt lat="45.81635" lon="4.97668">
        <ele>177.8</ele>
        <time>2014-10-12T10:38:06Z</time>
      </trkpt>
      <trkpt lat="45.81635" lon="4.9766">
        <ele>178</ele>
        <time>2014-10-12T10:38:08Z</time>
      </trkpt>
      <trkpt lat="45.81635" lon="4.97656">
        <ele>178</ele>
        <time>2014-10-12T10:38:09Z</time>
      </trkpt>
      <trkpt lat="45.81634" lon="4.97652">
        <ele>178.2</ele>
        <time>2014-10-12T10:38:10Z</time>
      </trkpt>
      <trkpt lat="45.81632" lon="4.97628">
        <ele>178.8</ele>
        <time>2014-10-12T10:38:16Z</time>
      </trkpt>
      <trkpt lat="45.81631" lon="4.97623">
        <ele>178.8</ele>
        <time>2014-10-12T10:38:17Z</time>
      </trkpt>
      <trkpt lat="45.81628" lon="4.97601">
        <ele>179.2</ele>
        <time>2014-10-12T10:38:22Z</time>
      </trkpt>
      <trkpt lat="45.81627" lon="4.97597">
        <ele>179</ele>
        <time>2014-10-12T10:38:23Z</time>
      </trkpt>
      <trkpt lat="45.81624" lon="4.97575">
        <ele>179.2</ele>
        <time>2014-10-12T10:38:28Z</time>
      </trkpt>
      <trkpt lat="45.81623" lon="4.97572">
        <ele>179.2</ele>
        <time>2014-10-12T10:38:29Z</time>
      </trkpt>
      <trkpt lat="45.81622" lon="4.97558">
        <ele>179.2</ele>
        <time>2014-10-12T10:38:34Z</time>
      </trkpt>
      <trkpt lat="45.8162" lon="4.9755">
        <ele>179.2</ele>
        <time>2014-10-12T10:38:39Z</time>
      </trkpt>
      <trkpt lat="45.81619" lon="4.97549">
        <ele>179.2</ele>
        <time>2014-10-12T10:38:40Z</time>
      </trkpt>
      <trkpt lat="45.81618" lon="4.97548">
        <ele>179.2</ele>
        <time>2014-10-12T10:38:41Z</time>
      </trkpt>
      <trkpt lat="45.81608" lon="4.97535">
        <ele>179.2</ele>
        <time>2014-10-12T10:38:50Z</time>
      </trkpt>
      <trkpt lat="45.81607" lon="4.97534">
        <ele>179.2</ele>
        <time>2014-10-12T10:38:51Z</time>
      </trkpt>
      <trkpt lat="45.81604" lon="4.97532">
        <ele>179.2</ele>
        <time>2014-10-12T10:38:52Z</time>
      </trkpt>
      <trkpt lat="45.81599" lon="4.97528">
        <ele>179.2</ele>
        <time>2014-10-12T10:38:54Z</time>
      </trkpt>
      <trkpt lat="45.81595" lon="4.97521">
        <ele>179.2</ele>
        <time>2014-10-12T10:38:56Z</time>
      </trkpt>
      <trkpt lat="45.8159" lon="4.97514">
        <ele>179.2</ele>
        <time>2014-10-12T10:38:58Z</time>
      </trkpt>
      <trkpt lat="45.81585" lon="4.97508">
        <ele>179.4</ele>
        <time>2014-10-12T10:39:00Z</time>
      </trkpt>
      <trkpt lat="45.81575" lon="4.97505">
        <ele>179.4</ele>
        <time>2014-10-12T10:39:04Z</time>
      </trkpt>
      <trkpt lat="45.81572" lon="4.97504">
        <ele>179.4</ele>
        <time>2014-10-12T10:39:05Z</time>
      </trkpt>
      <trkpt lat="45.81561" lon="4.97497">
        <ele>179.4</ele>
        <time>2014-10-12T10:39:10Z</time>
      </trkpt>
      <trkpt lat="45.81558" lon="4.97496">
        <ele>179.4</ele>
        <time>2014-10-12T10:39:12Z</time>
      </trkpt>
      <trkpt lat="45.81555" lon="4.97495">
        <ele>179.4</ele>
        <time>2014-10-12T10:39:14Z</time>
      </trkpt>
      <trkpt lat="45.81553" lon="4.97494">
        <ele>179.4</ele>
        <time>2014-10-12T10:39:15Z</time>
      </trkpt>
      <trkpt lat="45.81545" lon="4.97495">
        <ele>179.4</ele>
        <time>2014-10-12T10:39:19Z</time>
      </trkpt>
      <trkpt lat="45.81542" lon="4.97494">
        <ele>179.2</ele>
        <time>2014-10-12T10:39:24Z</time>
      </trkpt>
      <trkpt lat="45.8154" lon="4.97494">
        <ele>179.2</ele>
        <time>2014-10-12T10:39:25Z</time>
      </trkpt>
      <trkpt lat="45.81538" lon="4.97493">
        <ele>179.2</ele>
        <time>2014-10-12T10:39:26Z</time>
      </trkpt>
      <trkpt lat="45.81538" lon="4.9749">
        <ele>179.2</ele>
        <time>2014-10-12T10:39:28Z</time>
      </trkpt>
      <trkpt lat="45.81538" lon="4.97478">
        <ele>179</ele>
        <time>2014-10-12T10:39:32Z</time>
      </trkpt>
      <trkpt lat="45.81538" lon="4.97478">
        <ele>179</ele>
        <time>2014-10-12T10:39:38Z</time>
      </trkpt>
      <trkpt lat="45.81539" lon="4.97486">
        <ele>178.8</ele>
        <time>2014-10-12T10:39:44Z</time>
      </trkpt>
      <trkpt lat="45.8154" lon="4.97492">
        <ele>178.6</ele>
        <time>2014-10-12T10:39:46Z</time>
      </trkpt>
      <trkpt lat="45.81541" lon="4.97504">
        <ele>178.6</ele>
        <time>2014-10-12T10:39:49Z</time>
      </trkpt>
      <trkpt lat="45.81543" lon="4.9752">
        <ele>178.4</ele>
        <time>2014-10-12T10:39:54Z</time>
      </trkpt>
      <trkpt lat="45.81541" lon="4.97527">
        <ele>178.2</ele>
        <time>2014-10-12T10:39:56Z</time>
      </trkpt>
      <trkpt lat="45.81538" lon="4.97531">
        <ele>178.2</ele>
        <time>2014-10-12T10:39:58Z</time>
      </trkpt>
      <trkpt lat="45.81534" lon="4.97533">
        <ele>178</ele>
        <time>2014-10-12T10:40:01Z</time>
      </trkpt>
      <trkpt lat="45.81531" lon="4.97535">
        <ele>177.8</ele>
        <time>2014-10-12T10:40:04Z</time>
      </trkpt>
      <trkpt lat="45.81528" lon="4.97536">
        <ele>177.8</ele>
        <time>2014-10-12T10:40:06Z</time>
      </trkpt>
      <trkpt lat="45.81521" lon="4.97543">
        <ele>177.4</ele>
        <time>2014-10-12T10:40:12Z</time>
      </trkpt>
      <trkpt lat="45.81513" lon="4.9755">
        <ele>177</ele>
        <time>2014-10-12T10:40:17Z</time>
      </trkpt>
      <trkpt lat="45.81509" lon="4.97555">
        <ele>176.8</ele>
        <time>2014-10-12T10:40:20Z</time>
      </trkpt>
      <trkpt lat="45.815" lon="4.97561">
        <ele>176.8</ele>
        <time>2014-10-12T10:40:26Z</time>
      </trkpt>
      <trkpt lat="45.81498" lon="4.97564">
        <ele>176.6</ele>
        <time>2014-10-12T10:40:28Z</time>
      </trkpt>
      <trkpt lat="45.8149" lon="4.97571">
        <ele>176.4</ele>
        <time>2014-10-12T10:40:34Z</time>
      </trkpt>
      <trkpt lat="45.81482" lon="4.97579">
        <ele>176.4</ele>
        <time>2014-10-12T10:40:39Z</time>
      </trkpt>
      <trkpt lat="45.81477" lon="4.97581">
        <ele>176.2</ele>
        <time>2014-10-12T10:40:41Z</time>
      </trkpt>
      <trkpt lat="45.81467" lon="4.97585">
        <ele>176</ele>
        <time>2014-10-12T10:40:45Z</time>
      </trkpt>
      <trkpt lat="45.81465" lon="4.97585">
        <ele>175.8</ele>
        <time>2014-10-12T10:40:46Z</time>
      </trkpt>
      <trkpt lat="45.81451" lon="4.97573">
        <ele>175.6</ele>
        <time>2014-10-12T10:40:51Z</time>
      </trkpt>
      <trkpt lat="45.81448" lon="4.9757">
        <ele>175.6</ele>
        <time>2014-10-12T10:40:52Z</time>
      </trkpt>
      <trkpt lat="45.81436" lon="4.97555">
        <ele>175.6</ele>
        <time>2014-10-12T10:40:57Z</time>
      </trkpt>
      <trkpt lat="45.81433" lon="4.97552">
        <ele>175.4</ele>
        <time>2014-10-12T10:40:58Z</time>
      </trkpt>
      <trkpt lat="45.81419" lon="4.97537">
        <ele>175.2</ele>
        <time>2014-10-12T10:41:04Z</time>
      </trkpt>
      <trkpt lat="45.81416" lon="4.97535">
        <ele>175.2</ele>
        <time>2014-10-12T10:41:05Z</time>
      </trkpt>
      <trkpt lat="45.81414" lon="4.97534">
        <ele>175.2</ele>
        <time>2014-10-12T10:41:06Z</time>
      </trkpt>
      <trkpt lat="45.81408" lon="4.97536">
        <ele>175.2</ele>
        <time>2014-10-12T10:41:08Z</time>
      </trkpt>
      <trkpt lat="45.81399" lon="4.97546">
        <ele>175</ele>
        <time>2014-10-12T10:41:12Z</time>
      </trkpt>
      <trkpt lat="45.81397" lon="4.97549">
        <ele>175</ele>
        <time>2014-10-12T10:41:13Z</time>
      </trkpt>
      <trkpt lat="45.81386" lon="4.97564">
        <ele>174.8</ele>
        <time>2014-10-12T10:41:18Z</time>
      </trkpt>
      <trkpt lat="45.81384" lon="4.97567">
        <ele>174.8</ele>
        <time>2014-10-12T10:41:19Z</time>
      </trkpt>
      <trkpt lat="45.81372" lon="4.97583">
        <ele>174.6</ele>
        <time>2014-10-12T10:41:25Z</time>
      </trkpt>
      <trkpt lat="45.81361" lon="4.97598">
        <ele>174.4</ele>
        <time>2014-10-12T10:41:30Z</time>
      </trkpt>
      <trkpt lat="45.8136" lon="4.97602">
        <ele>174.4</ele>
        <time>2014-10-12T10:41:31Z</time>
      </trkpt>
      <trkpt lat="45.81358" lon="4.97605">
        <ele>174.4</ele>
        <time>2014-10-12T10:41:32Z</time>
      </trkpt>
      <trkpt lat="45.81354" lon="4.97611">
        <ele>174.2</ele>
        <time>2014-10-12T10:41:34Z</time>
      </trkpt>
      <trkpt lat="45.81346" lon="4.97622">
        <ele>174.2</ele>
        <time>2014-10-12T10:41:38Z</time>
      </trkpt>
      <trkpt lat="45.81342" lon="4.97629">
        <ele>174</ele>
        <time>2014-10-12T10:41:40Z</time>
      </trkpt>
      <trkpt lat="45.81333" lon="4.97641">
        <ele>173.8</ele>
        <time>2014-10-12T10:41:44Z</time>
      </trkpt>
      <trkpt lat="45.81329" lon="4.97647">
        <ele>173.8</ele>
        <time>2014-10-12T10:41:46Z</time>
      </trkpt>
      <trkpt lat="45.81319" lon="4.9766">
        <ele>173.6</ele>
        <time>2014-10-12T10:41:51Z</time>
      </trkpt>
      <trkpt lat="45.81317" lon="4.97662">
        <ele>173.6</ele>
        <time>2014-10-12T10:41:52Z</time>
      </trkpt>
      <trkpt lat="45.81305" lon="4.97679">
        <ele>173.4</ele>
        <time>2014-10-12T10:41:58Z</time>
      </trkpt>
      <trkpt lat="45.81289" lon="4.97695">
        <ele>173.4</ele>
        <time>2014-10-12T10:42:05Z</time>
      </trkpt>
      <trkpt lat="45.81274" lon="4.97709">
        <ele>173.2</ele>
        <time>2014-10-12T10:42:11Z</time>
      </trkpt>
      <trkpt lat="45.81272" lon="4.97711">
        <ele>173.2</ele>
        <time>2014-10-12T10:42:12Z</time>
      </trkpt>
      <trkpt lat="45.81263" lon="4.97717">
        <ele>173.4</ele>
        <time>2014-10-12T10:42:16Z</time>
      </trkpt>
      <trkpt lat="45.81254" lon="4.9772">
        <ele>173.2</ele>
        <time>2014-10-12T10:42:22Z</time>
      </trkpt>
      <trkpt lat="45.81252" lon="4.9772">
        <ele>173.2</ele>
        <time>2014-10-12T10:42:23Z</time>
      </trkpt>
      <trkpt lat="45.81236" lon="4.97724">
        <ele>173.4</ele>
        <time>2014-10-12T10:42:34Z</time>
      </trkpt>
      <trkpt lat="45.81222" lon="4.97727">
        <ele>173.8</ele>
        <time>2014-10-12T10:42:43Z</time>
      </trkpt>
      <trkpt lat="45.81218" lon="4.97728">
        <ele>174.2</ele>
        <time>2014-10-12T10:42:46Z</time>
      </trkpt>
      <trkpt lat="45.8121" lon="4.9773">
        <ele>174.6</ele>
        <time>2014-10-12T10:42:51Z</time>
      </trkpt>
      <trkpt lat="45.81201" lon="4.97735">
        <ele>175.4</ele>
        <time>2014-10-12T10:42:58Z</time>
      </trkpt>
      <trkpt lat="45.81201" lon="4.97735">
        <ele>175.6</ele>
        <time>2014-10-12T10:43:00Z</time>
      </trkpt>
      <trkpt lat="45.81202" lon="4.97733">
        <ele>175.8</ele>
        <time>2014-10-12T10:43:02Z</time>
      </trkpt>
      <trkpt lat="45.81207" lon="4.97727">
        <ele>176.4</ele>
        <time>2014-10-12T10:43:08Z</time>
      </trkpt>
      <trkpt lat="45.81208" lon="4.97726">
        <ele>176.4</ele>
        <time>2014-10-12T10:43:09Z</time>
      </trkpt>
      <trkpt lat="45.81208" lon="4.97725">
        <ele>176.8</ele>
        <time>2014-10-12T10:43:14Z</time>
      </trkpt>
      <trkpt lat="45.81207" lon="4.97725">
        <ele>177.4</ele>
        <time>2014-10-12T10:43:22Z</time>
      </trkpt>
      <trkpt lat="45.8121" lon="4.97721">
        <ele>177.6</ele>
        <time>2014-10-12T10:43:27Z</time>
      </trkpt>
      <trkpt lat="45.8121" lon="4.97717">
        <ele>177.8</ele>
        <time>2014-10-12T10:43:30Z</time>
      </trkpt>
      <trkpt lat="45.81208" lon="4.97711">
        <ele>178</ele>
        <time>2014-10-12T10:43:33Z</time>
      </trkpt>
      <trkpt lat="45.8121" lon="4.97698">
        <ele>178.2</ele>
        <time>2014-10-12T10:43:40Z</time>
      </trkpt>
      <trkpt lat="45.81209" lon="4.97693">
        <ele>178.4</ele>
        <time>2014-10-12T10:43:46Z</time>
      </trkpt>
      <trkpt lat="45.81209" lon="4.97695">
        <ele>178.4</ele>
        <time>2014-10-12T10:43:49Z</time>
      </trkpt>
      <trkpt lat="45.81209" lon="4.97698">
        <ele>178.4</ele>
        <time>2014-10-12T10:43:51Z</time>
      </trkpt>
      <trkpt lat="45.81208" lon="4.97702">
        <ele>178.6</ele>
        <time>2014-10-12T10:43:56Z</time>
      </trkpt>
      <trkpt lat="45.81208" lon="4.97706">
        <ele>178.4</ele>
        <time>2014-10-12T10:44:03Z</time>
      </trkpt>
      <trkpt lat="45.81207" lon="4.97712">
        <ele>178.4</ele>
        <time>2014-10-12T10:44:08Z</time>
      </trkpt>
      <trkpt lat="45.81206" lon="4.97718">
        <ele>178.4</ele>
        <time>2014-10-12T10:44:14Z</time>
      </trkpt>
      <trkpt lat="45.81206" lon="4.97721">
        <ele>178.4</ele>
        <time>2014-10-12T10:44:16Z</time>
      </trkpt>
      <trkpt lat="45.81206" lon="4.97723">
        <ele>178.2</ele>
        <time>2014-10-12T10:44:20Z</time>
      </trkpt>
      <trkpt lat="45.81205" lon="4.97712">
        <ele>178.2</ele>
        <time>2014-10-12T10:44:28Z</time>
      </trkpt>
      <trkpt lat="45.81209" lon="4.97696">
        <ele>178.2</ele>
        <time>2014-10-12T10:44:31Z</time>
      </trkpt>
      <trkpt lat="45.81211" lon="4.9769">
        <ele>178</ele>
        <time>2014-10-12T10:44:32Z</time>
      </trkpt>
      <trkpt lat="45.81214" lon="4.97666">
        <ele>178</ele>
        <time>2014-10-12T10:44:36Z</time>
      </trkpt>
      <trkpt lat="45.81214" lon="4.97645">
        <ele>178</ele>
        <time>2014-10-12T10:44:40Z</time>
      </trkpt>
      <trkpt lat="45.81212" lon="4.97637">
        <ele>178</ele>
        <time>2014-10-12T10:44:42Z</time>
      </trkpt>
      <trkpt lat="45.81209" lon="4.97626">
        <ele>177.8</ele>
        <time>2014-10-12T10:44:45Z</time>
      </trkpt>
      <trkpt lat="45.81209" lon="4.97627">
        <ele>177.8</ele>
        <time>2014-10-12T10:44:47Z</time>
      </trkpt>
      <trkpt lat="45.8121" lon="4.9763">
        <ele>177.8</ele>
        <time>2014-10-12T10:44:48Z</time>
      </trkpt>
      <trkpt lat="45.81212" lon="4.97643">
        <ele>177.8</ele>
        <time>2014-10-12T10:44:51Z</time>
      </trkpt>
      <trkpt lat="45.81213" lon="4.97648">
        <ele>177.6</ele>
        <time>2014-10-12T10:44:52Z</time>
      </trkpt>
      <trkpt lat="45.81214" lon="4.97668">
        <ele>177.6</ele>
        <time>2014-10-12T10:44:56Z</time>
      </trkpt>
      <trkpt lat="45.81214" lon="4.97673">
        <ele>177.4</ele>
        <time>2014-10-12T10:44:57Z</time>
      </trkpt>
      <trkpt lat="45.81213" lon="4.9769">
        <ele>177.2</ele>
        <time>2014-10-12T10:45:01Z</time>
      </trkpt>
      <trkpt lat="45.81212" lon="4.97699">
        <ele>177.2</ele>
        <time>2014-10-12T10:45:03Z</time>
      </trkpt>
      <trkpt lat="45.8121" lon="4.97721">
        <ele>177</ele>
        <time>2014-10-12T10:45:08Z</time>
      </trkpt>
      <trkpt lat="45.81209" lon="4.97725">
        <ele>177</ele>
        <time>2014-10-12T10:45:09Z</time>
      </trkpt>
      <trkpt lat="45.81203" lon="4.97737">
        <ele>176.8</ele>
        <time>2014-10-12T10:45:13Z</time>
      </trkpt>
      <trkpt lat="45.81196" lon="4.97742">
        <ele>176.8</ele>
        <time>2014-10-12T10:45:16Z</time>
      </trkpt>
      <trkpt lat="45.8119" lon="4.97748">
        <ele>176.8</ele>
        <time>2014-10-12T10:45:20Z</time>
      </trkpt>
      <trkpt lat="45.81182" lon="4.97759">
        <ele>176.8</ele>
        <time>2014-10-12T10:45:25Z</time>
      </trkpt>
      <trkpt lat="45.81179" lon="4.97765">
        <ele>176.8</ele>
        <time>2014-10-12T10:45:27Z</time>
      </trkpt>
      <trkpt lat="45.8117" lon="4.97782">
        <ele>176.8</ele>
        <time>2014-10-12T10:45:32Z</time>
      </trkpt>
      <trkpt lat="45.81168" lon="4.97788">
        <ele>177</ele>
        <time>2014-10-12T10:45:34Z</time>
      </trkpt>
      <trkpt lat="45.81159" lon="4.97805">
        <ele>177</ele>
        <time>2014-10-12T10:45:39Z</time>
      </trkpt>
      <trkpt lat="45.81157" lon="4.97807">
        <ele>177</ele>
        <time>2014-10-12T10:45:40Z</time>
      </trkpt>
      <trkpt lat="45.81143" lon="4.9782">
        <ele>177</ele>
        <time>2014-10-12T10:45:46Z</time>
      </trkpt>
      <trkpt lat="45.81141" lon="4.97822">
        <ele>177.2</ele>
        <time>2014-10-12T10:45:47Z</time>
      </trkpt>
      <trkpt lat="45.8113" lon="4.97822">
        <ele>177.4</ele>
        <time>2014-10-12T10:45:51Z</time>
      </trkpt>
      <trkpt lat="45.81124" lon="4.97822">
        <ele>177.4</ele>
        <time>2014-10-12T10:45:53Z</time>
      </trkpt>
      <trkpt lat="45.81112" lon="4.97822">
        <ele>177.6</ele>
        <time>2014-10-12T10:45:57Z</time>
      </trkpt>
      <trkpt lat="45.81103" lon="4.97823">
        <ele>177.8</ele>
        <time>2014-10-12T10:46:00Z</time>
      </trkpt>
      <trkpt lat="45.81098" lon="4.97825">
        <ele>177.8</ele>
        <time>2014-10-12T10:46:02Z</time>
      </trkpt>
      <trkpt lat="45.81085" lon="4.97829">
        <ele>177.8</ele>
        <time>2014-10-12T10:46:07Z</time>
      </trkpt>
      <trkpt lat="45.81076" lon="4.97829">
        <ele>177.8</ele>
        <time>2014-10-12T10:46:12Z</time>
      </trkpt>
      <trkpt lat="45.81067" lon="4.97822">
        <ele>177.8</ele>
        <time>2014-10-12T10:46:19Z</time>
      </trkpt>
      <trkpt lat="45.81059" lon="4.97817">
        <ele>177.8</ele>
        <time>2014-10-12T10:46:26Z</time>
      </trkpt>
      <trkpt lat="45.81051" lon="4.97812">
        <ele>177.8</ele>
        <time>2014-10-12T10:46:33Z</time>
      </trkpt>
      <trkpt lat="45.81051" lon="4.97811">
        <ele>177.8</ele>
        <time>2014-10-12T10:46:34Z</time>
      </trkpt>
      <trkpt lat="45.81043" lon="4.97803">
        <ele>178.2</ele>
        <time>2014-10-12T10:46:41Z</time>
      </trkpt>
      <trkpt lat="45.81042" lon="4.97802">
        <ele>178</ele>
        <time>2014-10-12T10:46:42Z</time>
      </trkpt>
      <trkpt lat="45.81038" lon="4.97797">
        <ele>178</ele>
        <time>2014-10-12T10:46:46Z</time>
      </trkpt>
      <trkpt lat="45.81035" lon="4.97796">
        <ele>178</ele>
        <time>2014-10-12T10:46:48Z</time>
      </trkpt>
      <trkpt lat="45.81029" lon="4.97799">
        <ele>177.8</ele>
        <time>2014-10-12T10:46:53Z</time>
      </trkpt>
      <trkpt lat="45.81026" lon="4.97799">
        <ele>177.8</ele>
        <time>2014-10-12T10:46:55Z</time>
      </trkpt>
      <trkpt lat="45.81025" lon="4.978">
        <ele>177.8</ele>
        <time>2014-10-12T10:46:56Z</time>
      </trkpt>
      <trkpt lat="45.8102" lon="4.97802">
        <ele>177.6</ele>
        <time>2014-10-12T10:46:59Z</time>
      </trkpt>
      <trkpt lat="45.81017" lon="4.97802">
        <ele>177.6</ele>
        <time>2014-10-12T10:47:01Z</time>
      </trkpt>
      <trkpt lat="45.81012" lon="4.97801">
        <ele>177.6</ele>
        <time>2014-10-12T10:47:04Z</time>
      </trkpt>
      <trkpt lat="45.81008" lon="4.97803">
        <ele>177.4</ele>
        <time>2014-10-12T10:47:07Z</time>
      </trkpt>
      <trkpt lat="45.81004" lon="4.97806">
        <ele>177.2</ele>
        <time>2014-10-12T10:47:11Z</time>
      </trkpt>
      <trkpt lat="45.81001" lon="4.97808">
        <ele>177</ele>
        <time>2014-10-12T10:47:13Z</time>
      </trkpt>
      <trkpt lat="45.81" lon="4.97809">
        <ele>177</ele>
        <time>2014-10-12T10:47:14Z</time>
      </trkpt>
      <trkpt lat="45.80997" lon="4.97811">
        <ele>176.8</ele>
        <time>2014-10-12T10:47:16Z</time>
      </trkpt>
      <trkpt lat="45.80989" lon="4.97814">
        <ele>176.6</ele>
        <time>2014-10-12T10:47:21Z</time>
      </trkpt>
      <trkpt lat="45.80983" lon="4.97818">
        <ele>176.2</ele>
        <time>2014-10-12T10:47:25Z</time>
      </trkpt>
      <trkpt lat="45.80979" lon="4.9782">
        <ele>176.2</ele>
        <time>2014-10-12T10:47:27Z</time>
      </trkpt>
      <trkpt lat="45.80973" lon="4.97828">
        <ele>176</ele>
        <time>2014-10-12T10:47:31Z</time>
      </trkpt>
      <trkpt lat="45.80969" lon="4.97835">
        <ele>175.8</ele>
        <time>2014-10-12T10:47:34Z</time>
      </trkpt>
      <trkpt lat="45.80968" lon="4.97837">
        <ele>175.8</ele>
        <time>2014-10-12T10:47:36Z</time>
      </trkpt>
      <trkpt lat="45.80966" lon="4.97838">
        <ele>176</ele>
        <time>2014-10-12T10:47:45Z</time>
      </trkpt>
      <trkpt lat="45.80965" lon="4.9784">
        <ele>175.8</ele>
        <time>2014-10-12T10:47:47Z</time>
      </trkpt>
      <trkpt lat="45.80964" lon="4.97847">
        <ele>175.8</ele>
        <time>2014-10-12T10:47:49Z</time>
      </trkpt>
      <trkpt lat="45.80965" lon="4.97858">
        <ele>175.6</ele>
        <time>2014-10-12T10:47:52Z</time>
      </trkpt>
      <trkpt lat="45.80965" lon="4.97866">
        <ele>175.6</ele>
        <time>2014-10-12T10:47:54Z</time>
      </trkpt>
      <trkpt lat="45.80967" lon="4.97886">
        <ele>175</ele>
        <time>2014-10-12T10:47:59Z</time>
      </trkpt>
      <trkpt lat="45.80969" lon="4.97906">
        <ele>174.6</ele>
        <time>2014-10-12T10:48:04Z</time>
      </trkpt>
      <trkpt lat="45.8097" lon="4.97915">
        <ele>174.2</ele>
        <time>2014-10-12T10:48:06Z</time>
      </trkpt>
      <trkpt lat="45.80971" lon="4.97923">
        <ele>174.2</ele>
        <time>2014-10-12T10:48:08Z</time>
      </trkpt>
      <trkpt lat="45.80976" lon="4.97937">
        <ele>174</ele>
        <time>2014-10-12T10:48:12Z</time>
      </trkpt>
      <trkpt lat="45.80977" lon="4.9794">
        <ele>173.8</ele>
        <time>2014-10-12T10:48:13Z</time>
      </trkpt>
      <trkpt lat="45.80985" lon="4.97952">
        <ele>173.6</ele>
        <time>2014-10-12T10:48:17Z</time>
      </trkpt>
      <trkpt lat="45.8099" lon="4.97959">
        <ele>173.6</ele>
        <time>2014-10-12T10:48:20Z</time>
      </trkpt>
      <trkpt lat="45.80995" lon="4.97968">
        <ele>173.6</ele>
        <time>2014-10-12T10:48:23Z</time>
      </trkpt>
      <trkpt lat="45.81002" lon="4.97979">
        <ele>173.8</ele>
        <time>2014-10-12T10:48:27Z</time>
      </trkpt>
      <trkpt lat="45.81007" lon="4.97981">
        <ele>174.2</ele>
        <time>2014-10-12T10:48:29Z</time>
      </trkpt>
      <trkpt lat="45.81016" lon="4.97985">
        <ele>174.6</ele>
        <time>2014-10-12T10:48:34Z</time>
      </trkpt>
      <trkpt lat="45.8102" lon="4.97983">
        <ele>175</ele>
        <time>2014-10-12T10:48:38Z</time>
      </trkpt>
      <trkpt lat="45.81021" lon="4.97983">
        <ele>175.2</ele>
        <time>2014-10-12T10:48:40Z</time>
      </trkpt>
      <trkpt lat="45.81019" lon="4.97975">
        <ele>175.4</ele>
        <time>2014-10-12T10:48:48Z</time>
      </trkpt>
      <trkpt lat="45.8102" lon="4.97962">
        <ele>175.8</ele>
        <time>2014-10-12T10:48:52Z</time>
      </trkpt>
      <trkpt lat="45.81022" lon="4.97959">
        <ele>175.8</ele>
        <time>2014-10-12T10:48:54Z</time>
      </trkpt>
      <trkpt lat="45.81024" lon="4.97955">
        <ele>176</ele>
        <time>2014-10-12T10:48:56Z</time>
      </trkpt>
      <trkpt lat="45.81025" lon="4.97944">
        <ele>176.4</ele>
        <time>2014-10-12T10:49:00Z</time>
      </trkpt>
      <trkpt lat="45.81026" lon="4.97941">
        <ele>176.4</ele>
        <time>2014-10-12T10:49:01Z</time>
      </trkpt>
      <trkpt lat="45.81026" lon="4.9794">
        <ele>176.4</ele>
        <time>2014-10-12T10:49:02Z</time>
      </trkpt>
      <trkpt lat="45.81028" lon="4.9794">
        <ele>176.4</ele>
        <time>2014-10-12T10:49:04Z</time>
      </trkpt>
      <trkpt lat="45.8103" lon="4.97936">
        <ele>179.2</ele>
        <time>2014-10-12T10:49:21Z</time>
      </trkpt>
      <trkpt lat="45.81029" lon="4.97932">
        <ele>179.6</ele>
        <time>2014-10-12T10:49:23Z</time>
      </trkpt>
      <trkpt lat="45.81025" lon="4.97919">
        <ele>180.4</ele>
        <time>2014-10-12T10:49:27Z</time>
      </trkpt>
      <trkpt lat="45.81024" lon="4.97914">
        <ele>181</ele>
        <time>2014-10-12T10:49:29Z</time>
      </trkpt>
      <trkpt lat="45.81023" lon="4.97911">
        <ele>181.4</ele>
        <time>2014-10-12T10:49:31Z</time>
      </trkpt>
      <trkpt lat="45.81023" lon="4.97907">
        <ele>182.4</ele>
        <time>2014-10-12T10:49:36Z</time>
      </trkpt>
      <trkpt lat="45.81024" lon="4.97905">
        <ele>183.4</ele>
        <time>2014-10-12T10:49:48Z</time>
      </trkpt>
      <trkpt lat="45.81027" lon="4.97914">
        <ele>183.2</ele>
        <time>2014-10-12T10:49:51Z</time>
      </trkpt>
      <trkpt lat="45.81026" lon="4.97921">
        <ele>183.2</ele>
        <time>2014-10-12T10:49:54Z</time>
      </trkpt>
      <trkpt lat="45.81027" lon="4.97923">
        <ele>183.2</ele>
        <time>2014-10-12T10:49:55Z</time>
      </trkpt>
      <trkpt lat="45.81029" lon="4.97931">
        <ele>183</ele>
        <time>2014-10-12T10:49:57Z</time>
      </trkpt>
      <trkpt lat="45.81032" lon="4.97937">
        <ele>182.8</ele>
        <time>2014-10-12T10:49:59Z</time>
      </trkpt>
      <trkpt lat="45.81033" lon="4.97938">
        <ele>182.8</ele>
        <time>2014-10-12T10:50:00Z</time>
      </trkpt>
      <trkpt lat="45.81036" lon="4.97944">
        <ele>182.4</ele>
        <time>2014-10-12T10:50:03Z</time>
      </trkpt>
      <trkpt lat="45.81043" lon="4.97946">
        <ele>182.2</ele>
        <time>2014-10-12T10:50:07Z</time>
      </trkpt>
      <trkpt lat="45.81049" lon="4.97946">
        <ele>181.8</ele>
        <time>2014-10-12T10:50:12Z</time>
      </trkpt>
      <trkpt lat="45.81051" lon="4.97946">
        <ele>181.8</ele>
        <time>2014-10-12T10:50:13Z</time>
      </trkpt>
      <trkpt lat="45.81053" lon="4.97951">
        <ele>181.8</ele>
        <time>2014-10-12T10:50:15Z</time>
      </trkpt>
      <trkpt lat="45.81054" lon="4.97953">
        <ele>181.8</ele>
        <time>2014-10-12T10:50:16Z</time>
      </trkpt>
      <trkpt lat="45.81055" lon="4.97956">
        <ele>181.6</ele>
        <time>2014-10-12T10:50:17Z</time>
      </trkpt>
      <trkpt lat="45.81057" lon="4.97962">
        <ele>181.6</ele>
        <time>2014-10-12T10:50:20Z</time>
      </trkpt>
      <trkpt lat="45.81061" lon="4.97967">
        <ele>181.2</ele>
        <time>2014-10-12T10:50:24Z</time>
      </trkpt>
      <trkpt lat="45.8106" lon="4.97965">
        <ele>180.8</ele>
        <time>2014-10-12T10:50:33Z</time>
      </trkpt>
      <trkpt lat="45.81064" lon="4.97962">
        <ele>180.6</ele>
        <time>2014-10-12T10:50:35Z</time>
      </trkpt>
      <trkpt lat="45.81071" lon="4.97958">
        <ele>180.4</ele>
        <time>2014-10-12T10:50:38Z</time>
      </trkpt>
      <trkpt lat="45.81083" lon="4.97961">
        <ele>180.2</ele>
        <time>2014-10-12T10:50:42Z</time>
      </trkpt>
      <trkpt lat="45.81096" lon="4.97964">
        <ele>179.8</ele>
        <time>2014-10-12T10:50:46Z</time>
      </trkpt>
      <trkpt lat="45.81101" lon="4.97964">
        <ele>179.6</ele>
        <time>2014-10-12T10:50:50Z</time>
      </trkpt>
      <trkpt lat="45.81099" lon="4.97961">
        <ele>179.2</ele>
        <time>2014-10-12T10:50:59Z</time>
      </trkpt>
      <trkpt lat="45.81099" lon="4.97961">
        <ele>179</ele>
        <time>2014-10-12T10:51:00Z</time>
      </trkpt>
      <trkpt lat="45.81094" lon="4.97965">
        <ele>178.8</ele>
        <time>2014-10-12T10:51:04Z</time>
      </trkpt>
      <trkpt lat="45.81087" lon="4.97978">
        <ele>178.6</ele>
        <time>2014-10-12T10:51:09Z</time>
      </trkpt>
      <trkpt lat="45.81087" lon="4.97979">
        <ele>178.6</ele>
        <time>2014-10-12T10:51:10Z</time>
      </trkpt>
      <trkpt lat="45.81086" lon="4.97981">
        <ele>178.6</ele>
        <time>2014-10-12T10:51:11Z</time>
      </trkpt>
      <trkpt lat="45.81083" lon="4.97986">
        <ele>178.4</ele>
        <time>2014-10-12T10:51:15Z</time>
      </trkpt>
      <trkpt lat="45.8108" lon="4.97992">
        <ele>178</ele>
        <time>2014-10-12T10:51:20Z</time>
      </trkpt>
      <trkpt lat="45.81074" lon="4.98004">
        <ele>177.8</ele>
        <time>2014-10-12T10:51:24Z</time>
      </trkpt>
      <trkpt lat="45.81072" lon="4.98008">
        <ele>177.6</ele>
        <time>2014-10-12T10:51:25Z</time>
      </trkpt>
      <trkpt lat="45.81067" lon="4.98026">
        <ele>177.4</ele>
        <time>2014-10-12T10:51:29Z</time>
      </trkpt>
      <trkpt lat="45.81066" lon="4.9803">
        <ele>177.2</ele>
        <time>2014-10-12T10:51:30Z</time>
      </trkpt>
      <trkpt lat="45.81065" lon="4.98035">
        <ele>177.2</ele>
        <time>2014-10-12T10:51:31Z</time>
      </trkpt>
      <trkpt lat="45.81065" lon="4.98044">
        <ele>177.2</ele>
        <time>2014-10-12T10:51:33Z</time>
      </trkpt>
      <trkpt lat="45.81067" lon="4.98053">
        <ele>177</ele>
        <time>2014-10-12T10:51:37Z</time>
      </trkpt>
      <trkpt lat="45.81068" lon="4.98054">
        <ele>176.8</ele>
        <time>2014-10-12T10:51:38Z</time>
      </trkpt>
      <trkpt lat="45.81068" lon="4.98057">
        <ele>176.8</ele>
        <time>2014-10-12T10:51:40Z</time>
      </trkpt>
      <trkpt lat="45.81071" lon="4.98062">
        <ele>176.4</ele>
        <time>2014-10-12T10:51:44Z</time>
      </trkpt>
      <trkpt lat="45.81078" lon="4.98075">
        <ele>176.2</ele>
        <time>2014-10-12T10:51:51Z</time>
      </trkpt>
      <trkpt lat="45.81078" lon="4.98078">
        <ele>176</ele>
        <time>2014-10-12T10:51:52Z</time>
      </trkpt>
      <trkpt lat="45.81083" lon="4.98086">
        <ele>176</ele>
        <time>2014-10-12T10:51:55Z</time>
      </trkpt>
      <trkpt lat="45.81083" lon="4.98088">
        <ele>175.8</ele>
        <time>2014-10-12T10:51:58Z</time>
      </trkpt>
      <trkpt lat="45.81083" lon="4.9809">
        <ele>175.8</ele>
        <time>2014-10-12T10:51:59Z</time>
      </trkpt>
      <trkpt lat="45.8108" lon="4.98104">
        <ele>175.6</ele>
        <time>2014-10-12T10:52:03Z</time>
      </trkpt>
      <trkpt lat="45.81076" lon="4.98113">
        <ele>175.6</ele>
        <time>2014-10-12T10:52:07Z</time>
      </trkpt>
      <trkpt lat="45.81076" lon="4.98113">
        <ele>175.4</ele>
        <time>2014-10-12T10:52:12Z</time>
      </trkpt>
      <trkpt lat="45.81077" lon="4.98111">
        <ele>175.4</ele>
        <time>2014-10-12T10:52:13Z</time>
      </trkpt>
      <trkpt lat="45.8108" lon="4.98101">
        <ele>175.2</ele>
        <time>2014-10-12T10:52:16Z</time>
      </trkpt>
      <trkpt lat="45.81081" lon="4.98098">
        <ele>175.2</ele>
        <time>2014-10-12T10:52:17Z</time>
      </trkpt>
      <trkpt lat="45.81081" lon="4.981">
        <ele>175.2</ele>
        <time>2014-10-12T10:52:19Z</time>
      </trkpt>
      <trkpt lat="45.81084" lon="4.98101">
        <ele>175.2</ele>
        <time>2014-10-12T10:52:21Z</time>
      </trkpt>
      <trkpt lat="45.81087" lon="4.98101">
        <ele>175.2</ele>
        <time>2014-10-12T10:52:23Z</time>
      </trkpt>
      <trkpt lat="45.8109" lon="4.98103">
        <ele>175.4</ele>
        <time>2014-10-12T10:52:27Z</time>
      </trkpt>
      <trkpt lat="45.81092" lon="4.98104">
        <ele>175.4</ele>
        <time>2014-10-12T10:52:29Z</time>
      </trkpt>
      <trkpt lat="45.81096" lon="4.98108">
        <ele>175.6</ele>
        <time>2014-10-12T10:52:32Z</time>
      </trkpt>
      <trkpt lat="45.81097" lon="4.98109">
        <ele>175.6</ele>
        <time>2014-10-12T10:52:33Z</time>
      </trkpt>
      <trkpt lat="45.81097" lon="4.9811">
        <ele>175.6</ele>
        <time>2014-10-12T10:52:34Z</time>
      </trkpt>
      <trkpt lat="45.81098" lon="4.9811">
        <ele>175.8</ele>
        <time>2014-10-12T10:52:35Z</time>
      </trkpt>
      <trkpt lat="45.81101" lon="4.98112">
        <ele>175.8</ele>
        <time>2014-10-12T10:52:39Z</time>
      </trkpt>
      <trkpt lat="45.81103" lon="4.98116">
        <ele>176.2</ele>
        <time>2014-10-12T10:52:51Z</time>
      </trkpt>
      <trkpt lat="45.811" lon="4.98126">
        <ele>176.4</ele>
        <time>2014-10-12T10:52:57Z</time>
      </trkpt>
      <trkpt lat="45.81099" lon="4.98128">
        <ele>176.6</ele>
        <time>2014-10-12T10:53:03Z</time>
      </trkpt>
      <trkpt lat="45.81098" lon="4.98131">
        <ele>176.8</ele>
        <time>2014-10-12T10:53:04Z</time>
      </trkpt>
      <trkpt lat="45.81097" lon="4.98134">
        <ele>176.6</ele>
        <time>2014-10-12T10:53:05Z</time>
      </trkpt>
      <trkpt lat="45.81095" lon="4.9814">
        <ele>176.8</ele>
        <time>2014-10-12T10:53:07Z</time>
      </trkpt>
      <trkpt lat="45.81092" lon="4.98148">
        <ele>176.8</ele>
        <time>2014-10-12T10:53:10Z</time>
      </trkpt>
      <trkpt lat="45.8109" lon="4.98155">
        <ele>176.8</ele>
        <time>2014-10-12T10:53:12Z</time>
      </trkpt>
      <trkpt lat="45.81086" lon="4.98166">
        <ele>176.8</ele>
        <time>2014-10-12T10:53:15Z</time>
      </trkpt>
      <trkpt lat="45.81081" lon="4.9818">
        <ele>176.6</ele>
        <time>2014-10-12T10:53:19Z</time>
      </trkpt>
      <trkpt lat="45.81077" lon="4.98192">
        <ele>176.4</ele>
        <time>2014-10-12T10:53:22Z</time>
      </trkpt>
      <trkpt lat="45.81074" lon="4.98202">
        <ele>176.2</ele>
        <time>2014-10-12T10:53:26Z</time>
      </trkpt>
      <trkpt lat="45.81075" lon="4.98203">
        <ele>176.2</ele>
        <time>2014-10-12T10:53:27Z</time>
      </trkpt>
      <trkpt lat="45.81077" lon="4.98203">
        <ele>176.2</ele>
        <time>2014-10-12T10:53:28Z</time>
      </trkpt>
      <trkpt lat="45.81078" lon="4.98206">
        <ele>176</ele>
        <time>2014-10-12T10:53:31Z</time>
      </trkpt>
      <trkpt lat="45.81078" lon="4.98207">
        <ele>176</ele>
        <time>2014-10-12T10:53:32Z</time>
      </trkpt>
      <trkpt lat="45.81082" lon="4.9821">
        <ele>175.8</ele>
        <time>2014-10-12T10:53:36Z</time>
      </trkpt>
      <trkpt lat="45.81083" lon="4.98216">
        <ele>175.6</ele>
        <time>2014-10-12T10:53:40Z</time>
      </trkpt>
      <trkpt lat="45.81085" lon="4.98221">
        <ele>175.4</ele>
        <time>2014-10-12T10:53:42Z</time>
      </trkpt>
      <trkpt lat="45.81086" lon="4.98224">
        <ele>175.4</ele>
        <time>2014-10-12T10:53:43Z</time>
      </trkpt>
      <trkpt lat="45.81094" lon="4.98231">
        <ele>175.2</ele>
        <time>2014-10-12T10:53:46Z</time>
      </trkpt>
      <trkpt lat="45.81102" lon="4.98237">
        <ele>175</ele>
        <time>2014-10-12T10:53:49Z</time>
      </trkpt>
      <trkpt lat="45.81111" lon="4.98247">
        <ele>175</ele>
        <time>2014-10-12T10:53:53Z</time>
      </trkpt>
      <trkpt lat="45.8112" lon="4.98252">
        <ele>174.8</ele>
        <time>2014-10-12T10:53:56Z</time>
      </trkpt>
      <trkpt lat="45.81123" lon="4.98253">
        <ele>174.8</ele>
        <time>2014-10-12T10:53:57Z</time>
      </trkpt>
      <trkpt lat="45.81137" lon="4.98261">
        <ele>174.6</ele>
        <time>2014-10-12T10:54:02Z</time>
      </trkpt>
      <trkpt lat="45.8114" lon="4.98262">
        <ele>174.6</ele>
        <time>2014-10-12T10:54:03Z</time>
      </trkpt>
      <trkpt lat="45.81148" lon="4.98268">
        <ele>174.4</ele>
        <time>2014-10-12T10:54:08Z</time>
      </trkpt>
      <trkpt lat="45.81156" lon="4.98272">
        <ele>174.4</ele>
        <time>2014-10-12T10:54:12Z</time>
      </trkpt>
      <trkpt lat="45.81161" lon="4.98274">
        <ele>174.4</ele>
        <time>2014-10-12T10:54:14Z</time>
      </trkpt>
      <trkpt lat="45.81173" lon="4.98278">
        <ele>174.2</ele>
        <time>2014-10-12T10:54:19Z</time>
      </trkpt>
      <trkpt lat="45.81174" lon="4.98278">
        <ele>174.2</ele>
        <time>2014-10-12T10:54:20Z</time>
      </trkpt>
      <trkpt lat="45.81177" lon="4.98279">
        <ele>174.2</ele>
        <time>2014-10-12T10:54:22Z</time>
      </trkpt>
      <trkpt lat="45.8118" lon="4.9828">
        <ele>174.2</ele>
        <time>2014-10-12T10:54:24Z</time>
      </trkpt>
      <trkpt lat="45.81191" lon="4.98283">
        <ele>174</ele>
        <time>2014-10-12T10:54:30Z</time>
      </trkpt>
      <trkpt lat="45.81194" lon="4.98285">
        <ele>174</ele>
        <time>2014-10-12T10:54:31Z</time>
      </trkpt>
      <trkpt lat="45.81209" lon="4.98292">
        <ele>174</ele>
        <time>2014-10-12T10:54:36Z</time>
      </trkpt>
      <trkpt lat="45.81216" lon="4.98296">
        <ele>174</ele>
        <time>2014-10-12T10:54:41Z</time>
      </trkpt>
      <trkpt lat="45.8122" lon="4.98294">
        <ele>174</ele>
        <time>2014-10-12T10:54:44Z</time>
      </trkpt>
      <trkpt lat="45.81222" lon="4.98291">
        <ele>174</ele>
        <time>2014-10-12T10:54:46Z</time>
      </trkpt>
      <trkpt lat="45.81223" lon="4.98283">
        <ele>174</ele>
        <time>2014-10-12T10:54:48Z</time>
      </trkpt>
      <trkpt lat="45.81225" lon="4.98267">
        <ele>174.2</ele>
        <time>2014-10-12T10:54:52Z</time>
      </trkpt>
      <trkpt lat="45.81227" lon="4.98255">
        <ele>174.4</ele>
        <time>2014-10-12T10:54:55Z</time>
      </trkpt>
      <trkpt lat="45.8123" lon="4.98239">
        <ele>174.4</ele>
        <time>2014-10-12T10:54:59Z</time>
      </trkpt>
      <trkpt lat="45.81233" lon="4.98231">
        <ele>174.4</ele>
        <time>2014-10-12T10:55:01Z</time>
      </trkpt>
      <trkpt lat="45.81237" lon="4.9822">
        <ele>174.6</ele>
        <time>2014-10-12T10:55:04Z</time>
      </trkpt>
      <trkpt lat="45.81243" lon="4.98206">
        <ele>174.6</ele>
        <time>2014-10-12T10:55:08Z</time>
      </trkpt>
      <trkpt lat="45.81246" lon="4.98196">
        <ele>174.6</ele>
        <time>2014-10-12T10:55:11Z</time>
      </trkpt>
      <trkpt lat="45.81254" lon="4.98187">
        <ele>174.8</ele>
        <time>2014-10-12T10:55:15Z</time>
      </trkpt>
      <trkpt lat="45.81266" lon="4.98195">
        <ele>175</ele>
        <time>2014-10-12T10:55:20Z</time>
      </trkpt>
      <trkpt lat="45.81271" lon="4.98201">
        <ele>175</ele>
        <time>2014-10-12T10:55:22Z</time>
      </trkpt>
      <trkpt lat="45.81274" lon="4.98208">
        <ele>175</ele>
        <time>2014-10-12T10:55:24Z</time>
      </trkpt>
      <trkpt lat="45.81276" lon="4.98212">
        <ele>175</ele>
        <time>2014-10-12T10:55:25Z</time>
      </trkpt>
      <trkpt lat="45.81281" lon="4.98226">
        <ele>174.8</ele>
        <time>2014-10-12T10:55:29Z</time>
      </trkpt>
      <trkpt lat="45.81282" lon="4.9823">
        <ele>174.8</ele>
        <time>2014-10-12T10:55:30Z</time>
      </trkpt>
      <trkpt lat="45.81288" lon="4.98248">
        <ele>174.6</ele>
        <time>2014-10-12T10:55:35Z</time>
      </trkpt>
      <trkpt lat="45.8129" lon="4.98252">
        <ele>174.4</ele>
        <time>2014-10-12T10:55:36Z</time>
      </trkpt>
      <trkpt lat="45.81296" lon="4.98266">
        <ele>174.2</ele>
        <time>2014-10-12T10:55:40Z</time>
      </trkpt>
      <trkpt lat="45.813" lon="4.98277">
        <ele>174</ele>
        <time>2014-10-12T10:55:43Z</time>
      </trkpt>
      <trkpt lat="45.81303" lon="4.98288">
        <ele>173.8</ele>
        <time>2014-10-12T10:55:46Z</time>
      </trkpt>
      <trkpt lat="45.81306" lon="4.98304">
        <ele>173.8</ele>
        <time>2014-10-12T10:55:50Z</time>
      </trkpt>
      <trkpt lat="45.81308" lon="4.98311">
        <ele>173.6</ele>
        <time>2014-10-12T10:55:52Z</time>
      </trkpt>
      <trkpt lat="45.81318" lon="4.98327">
        <ele>173.2</ele>
        <time>2014-10-12T10:55:58Z</time>
      </trkpt>
      <trkpt lat="45.81327" lon="4.9834">
        <ele>173</ele>
        <time>2014-10-12T10:56:03Z</time>
      </trkpt>
      <trkpt lat="45.81332" lon="4.98348">
        <ele>172.8</ele>
        <time>2014-10-12T10:56:06Z</time>
      </trkpt>
      <trkpt lat="45.81336" lon="4.98353">
        <ele>172.6</ele>
        <time>2014-10-12T10:56:08Z</time>
      </trkpt>
      <trkpt lat="45.81346" lon="4.98367">
        <ele>172.4</ele>
        <time>2014-10-12T10:56:13Z</time>
      </trkpt>
      <trkpt lat="45.81348" lon="4.9837">
        <ele>172.4</ele>
        <time>2014-10-12T10:56:14Z</time>
      </trkpt>
      <trkpt lat="45.81358" lon="4.98388">
        <ele>172.2</ele>
        <time>2014-10-12T10:56:20Z</time>
      </trkpt>
      <trkpt lat="45.8136" lon="4.98391">
        <ele>172</ele>
        <time>2014-10-12T10:56:21Z</time>
      </trkpt>
      <trkpt lat="45.81368" lon="4.98406">
        <ele>172</ele>
        <time>2014-10-12T10:56:26Z</time>
      </trkpt>
      <trkpt lat="45.81371" lon="4.98409">
        <ele>172</ele>
        <time>2014-10-12T10:56:27Z</time>
      </trkpt>
      <trkpt lat="45.8138" lon="4.98424">
        <ele>171.8</ele>
        <time>2014-10-12T10:56:32Z</time>
      </trkpt>
      <trkpt lat="45.81384" lon="4.9843">
        <ele>171.8</ele>
        <time>2014-10-12T10:56:34Z</time>
      </trkpt>
      <trkpt lat="45.81392" lon="4.98442">
        <ele>171.8</ele>
        <time>2014-10-12T10:56:38Z</time>
      </trkpt>
      <trkpt lat="45.81398" lon="4.9845">
        <ele>171.8</ele>
        <time>2014-10-12T10:56:41Z</time>
      </trkpt>
      <trkpt lat="45.814" lon="4.98453">
        <ele>171.8</ele>
        <time>2014-10-12T10:56:42Z</time>
      </trkpt>
      <trkpt lat="45.81409" lon="4.98464">
        <ele>171.8</ele>
        <time>2014-10-12T10:56:46Z</time>
      </trkpt>
      <trkpt lat="45.81412" lon="4.98469">
        <ele>171.8</ele>
        <time>2014-10-12T10:56:48Z</time>
      </trkpt>
      <trkpt lat="45.81417" lon="4.98477">
        <ele>171.8</ele>
        <time>2014-10-12T10:56:51Z</time>
      </trkpt>
      <trkpt lat="45.81425" lon="4.98488">
        <ele>171.6</ele>
        <time>2014-10-12T10:56:55Z</time>
      </trkpt>
      <trkpt lat="45.81427" lon="4.98491">
        <ele>171.6</ele>
        <time>2014-10-12T10:56:56Z</time>
      </trkpt>
      <trkpt lat="45.8144" lon="4.98506">
        <ele>171.6</ele>
        <time>2014-10-12T10:57:03Z</time>
      </trkpt>
      <trkpt lat="45.81444" lon="4.98512">
        <ele>171.6</ele>
        <time>2014-10-12T10:57:07Z</time>
      </trkpt>
      <trkpt lat="45.81445" lon="4.98513">
        <ele>171.6</ele>
        <time>2014-10-12T10:57:08Z</time>
      </trkpt>
      <trkpt lat="45.8145" lon="4.98518">
        <ele>171.6</ele>
        <time>2014-10-12T10:57:13Z</time>
      </trkpt>
      <trkpt lat="45.81451" lon="4.98517">
        <ele>171.4</ele>
        <time>2014-10-12T10:57:15Z</time>
      </trkpt>
      <trkpt lat="45.81454" lon="4.98515">
        <ele>171.8</ele>
        <time>2014-10-12T10:57:19Z</time>
      </trkpt>
      <trkpt lat="45.81454" lon="4.98514">
        <ele>172</ele>
        <time>2014-10-12T10:57:20Z</time>
      </trkpt>
      <trkpt lat="45.81455" lon="4.98509">
        <ele>172.2</ele>
        <time>2014-10-12T10:57:23Z</time>
      </trkpt>
      <trkpt lat="45.81455" lon="4.98507">
        <ele>172.2</ele>
        <time>2014-10-12T10:57:24Z</time>
      </trkpt>
      <trkpt lat="45.81457" lon="4.98497">
        <ele>172.4</ele>
        <time>2014-10-12T10:57:30Z</time>
      </trkpt>
      <trkpt lat="45.81458" lon="4.98495">
        <ele>172.6</ele>
        <time>2014-10-12T10:57:32Z</time>
      </trkpt>
      <trkpt lat="45.81462" lon="4.98491">
        <ele>172.6</ele>
        <time>2014-10-12T10:57:36Z</time>
      </trkpt>
      <trkpt lat="45.81471" lon="4.98482">
        <ele>172.6</ele>
        <time>2014-10-12T10:57:42Z</time>
      </trkpt>
      <trkpt lat="45.81478" lon="4.98474">
        <ele>172.6</ele>
        <time>2014-10-12T10:57:46Z</time>
      </trkpt>
      <trkpt lat="45.81478" lon="4.98473">
        <ele>172.6</ele>
        <time>2014-10-12T10:57:47Z</time>
      </trkpt>
      <trkpt lat="45.81482" lon="4.98464">
        <ele>172.4</ele>
        <time>2014-10-12T10:57:53Z</time>
      </trkpt>
      <trkpt lat="45.81482" lon="4.98457">
        <ele>172.4</ele>
        <time>2014-10-12T10:57:55Z</time>
      </trkpt>
      <trkpt lat="45.81482" lon="4.98449">
        <ele>172.4</ele>
        <time>2014-10-12T10:57:57Z</time>
      </trkpt>
      <trkpt lat="45.81482" lon="4.98445">
        <ele>172.4</ele>
        <time>2014-10-12T10:57:58Z</time>
      </trkpt>
      <trkpt lat="45.81482" lon="4.9843">
        <ele>172.4</ele>
        <time>2014-10-12T10:58:02Z</time>
      </trkpt>
      <trkpt lat="45.8148" lon="4.98422">
        <ele>172.6</ele>
        <time>2014-10-12T10:58:04Z</time>
      </trkpt>
      <trkpt lat="45.81479" lon="4.98415">
        <ele>172.6</ele>
        <time>2014-10-12T10:58:06Z</time>
      </trkpt>
      <trkpt lat="45.81484" lon="4.98403">
        <ele>172.6</ele>
        <time>2014-10-12T10:58:10Z</time>
      </trkpt>
      <trkpt lat="45.81486" lon="4.984">
        <ele>172.8</ele>
        <time>2014-10-12T10:58:11Z</time>
      </trkpt>
      <trkpt lat="45.81492" lon="4.98385">
        <ele>172.6</ele>
        <time>2014-10-12T10:58:16Z</time>
      </trkpt>
      <trkpt lat="45.81492" lon="4.98375">
        <ele>172.8</ele>
        <time>2014-10-12T10:58:18Z</time>
      </trkpt>
      <trkpt lat="45.81491" lon="4.98365">
        <ele>173</ele>
        <time>2014-10-12T10:58:20Z</time>
      </trkpt>
      <trkpt lat="45.81491" lon="4.9836">
        <ele>173</ele>
        <time>2014-10-12T10:58:21Z</time>
      </trkpt>
      <trkpt lat="45.81491" lon="4.98347">
        <ele>173.2</ele>
        <time>2014-10-12T10:58:24Z</time>
      </trkpt>
      <trkpt lat="45.81495" lon="4.98328">
        <ele>173.4</ele>
        <time>2014-10-12T10:58:29Z</time>
      </trkpt>
      <trkpt lat="45.81498" lon="4.98322">
        <ele>173.4</ele>
        <time>2014-10-12T10:58:31Z</time>
      </trkpt>
      <trkpt lat="45.81499" lon="4.98308">
        <ele>173.6</ele>
        <time>2014-10-12T10:58:34Z</time>
      </trkpt>
      <trkpt lat="45.815" lon="4.98295">
        <ele>173.6</ele>
        <time>2014-10-12T10:58:37Z</time>
      </trkpt>
      <trkpt lat="45.81501" lon="4.98287">
        <ele>173.4</ele>
        <time>2014-10-12T10:58:39Z</time>
      </trkpt>
      <trkpt lat="45.81507" lon="4.9827">
        <ele>173.6</ele>
        <time>2014-10-12T10:58:44Z</time>
      </trkpt>
      <trkpt lat="45.8151" lon="4.98259">
        <ele>173.8</ele>
        <time>2014-10-12T10:58:47Z</time>
      </trkpt>
      <trkpt lat="45.8151" lon="4.98252">
        <ele>174.2</ele>
        <time>2014-10-12T10:58:49Z</time>
      </trkpt>
      <trkpt lat="45.81511" lon="4.98244">
        <ele>174.2</ele>
        <time>2014-10-12T10:58:51Z</time>
      </trkpt>
      <trkpt lat="45.81511" lon="4.9823">
        <ele>174.2</ele>
        <time>2014-10-12T10:58:54Z</time>
      </trkpt>
      <trkpt lat="45.81515" lon="4.98214">
        <ele>174.6</ele>
        <time>2014-10-12T10:58:58Z</time>
      </trkpt>
      <trkpt lat="45.81517" lon="4.98188">
        <ele>175.2</ele>
        <time>2014-10-12T10:59:03Z</time>
      </trkpt>
      <trkpt lat="45.81517" lon="4.98183">
        <ele>175.4</ele>
        <time>2014-10-12T10:59:04Z</time>
      </trkpt>
      <trkpt lat="45.8152" lon="4.98169">
        <ele>175.6</ele>
        <time>2014-10-12T10:59:07Z</time>
      </trkpt>
      <trkpt lat="45.81523" lon="4.98156">
        <ele>176</ele>
        <time>2014-10-12T10:59:10Z</time>
      </trkpt>
      <trkpt lat="45.81525" lon="4.98152">
        <ele>176</ele>
        <time>2014-10-12T10:59:11Z</time>
      </trkpt>
      <trkpt lat="45.81533" lon="4.98132">
        <ele>176</ele>
        <time>2014-10-12T10:59:17Z</time>
      </trkpt>
      <trkpt lat="45.81534" lon="4.98124">
        <ele>176</ele>
        <time>2014-10-12T10:59:19Z</time>
      </trkpt>
      <trkpt lat="45.81535" lon="4.98116">
        <ele>176</ele>
        <time>2014-10-12T10:59:21Z</time>
      </trkpt>
      <trkpt lat="45.81537" lon="4.98104">
        <ele>176</ele>
        <time>2014-10-12T10:59:24Z</time>
      </trkpt>
      <trkpt lat="45.8154" lon="4.98096">
        <ele>176</ele>
        <time>2014-10-12T10:59:26Z</time>
      </trkpt>
      <trkpt lat="45.81544" lon="4.98079">
        <ele>176.2</ele>
        <time>2014-10-12T10:59:30Z</time>
      </trkpt>
      <trkpt lat="45.81546" lon="4.98076">
        <ele>176.2</ele>
        <time>2014-10-12T10:59:31Z</time>
      </trkpt>
      <trkpt lat="45.81548" lon="4.98069">
        <ele>176.4</ele>
        <time>2014-10-12T10:59:33Z</time>
      </trkpt>
      <trkpt lat="45.81553" lon="4.98058">
        <ele>176.6</ele>
        <time>2014-10-12T10:59:36Z</time>
      </trkpt>
      <trkpt lat="45.81554" lon="4.98055">
        <ele>176.6</ele>
        <time>2014-10-12T10:59:37Z</time>
      </trkpt>
      <trkpt lat="45.81558" lon="4.9804">
        <ele>176.6</ele>
        <time>2014-10-12T10:59:42Z</time>
      </trkpt>
      <trkpt lat="45.81559" lon="4.98028">
        <ele>176.6</ele>
        <time>2014-10-12T10:59:45Z</time>
      </trkpt>
      <trkpt lat="45.81559" lon="4.98024">
        <ele>176.6</ele>
        <time>2014-10-12T10:59:46Z</time>
      </trkpt>
      <trkpt lat="45.8156" lon="4.98022">
        <ele>176.6</ele>
        <time>2014-10-12T10:59:47Z</time>
      </trkpt>
      <trkpt lat="45.81564" lon="4.98013">
        <ele>176.4</ele>
        <time>2014-10-12T10:59:50Z</time>
      </trkpt>
      <trkpt lat="45.8157" lon="4.98005">
        <ele>176.4</ele>
        <time>2014-10-12T10:59:53Z</time>
      </trkpt>
      <trkpt lat="45.81575" lon="4.97999">
        <ele>176.4</ele>
        <time>2014-10-12T10:59:55Z</time>
      </trkpt>
      <trkpt lat="45.81583" lon="4.97985">
        <ele>176.2</ele>
        <time>2014-10-12T11:00:00Z</time>
      </trkpt>
      <trkpt lat="45.81592" lon="4.97968">
        <ele>176</ele>
        <time>2014-10-12T11:00:05Z</time>
      </trkpt>
      <trkpt lat="45.81593" lon="4.97965">
        <ele>176</ele>
        <time>2014-10-12T11:00:06Z</time>
      </trkpt>
      <trkpt lat="45.81594" lon="4.9796">
        <ele>176</ele>
        <time>2014-10-12T11:00:07Z</time>
      </trkpt>
      <trkpt lat="45.81597" lon="4.97953">
        <ele>176</ele>
        <time>2014-10-12T11:00:09Z</time>
      </trkpt>
      <trkpt lat="45.81603" lon="4.97937">
        <ele>176</ele>
        <time>2014-10-12T11:00:13Z</time>
      </trkpt>
      <trkpt lat="45.81605" lon="4.9793">
        <ele>176</ele>
        <time>2014-10-12T11:00:15Z</time>
      </trkpt>
      <trkpt lat="45.81612" lon="4.97916">
        <ele>176</ele>
        <time>2014-10-12T11:00:19Z</time>
      </trkpt>
      <trkpt lat="45.81614" lon="4.97913">
        <ele>176</ele>
        <time>2014-10-12T11:00:20Z</time>
      </trkpt>
      <trkpt lat="45.8162" lon="4.97905">
        <ele>175.8</ele>
        <time>2014-10-12T11:00:23Z</time>
      </trkpt>
      <trkpt lat="45.81627" lon="4.97893">
        <ele>175.8</ele>
        <time>2014-10-12T11:00:27Z</time>
      </trkpt>
      <trkpt lat="45.81629" lon="4.97891">
        <ele>175.8</ele>
        <time>2014-10-12T11:00:28Z</time>
      </trkpt>
      <trkpt lat="45.81639" lon="4.9788">
        <ele>175.6</ele>
        <time>2014-10-12T11:00:33Z</time>
      </trkpt>
      <trkpt lat="45.81644" lon="4.97875">
        <ele>175.6</ele>
        <time>2014-10-12T11:00:35Z</time>
      </trkpt>
      <trkpt lat="45.81652" lon="4.97863">
        <ele>175.4</ele>
        <time>2014-10-12T11:00:39Z</time>
      </trkpt>
      <trkpt lat="45.81652" lon="4.97858">
        <ele>175.4</ele>
        <time>2014-10-12T11:00:41Z</time>
      </trkpt>
      <trkpt lat="45.81652" lon="4.97855">
        <ele>175.4</ele>
        <time>2014-10-12T11:00:42Z</time>
      </trkpt>
      <trkpt lat="45.81652" lon="4.97853">
        <ele>175.4</ele>
        <time>2014-10-12T11:00:43Z</time>
      </trkpt>
      <trkpt lat="45.81649" lon="4.97838">
        <ele>175.4</ele>
        <time>2014-10-12T11:00:49Z</time>
      </trkpt>
      <trkpt lat="45.81647" lon="4.97829">
        <ele>175.4</ele>
        <time>2014-10-12T11:00:52Z</time>
      </trkpt>
      <trkpt lat="45.81647" lon="4.97826">
        <ele>175.4</ele>
        <time>2014-10-12T11:00:53Z</time>
      </trkpt>
      <trkpt lat="45.81646" lon="4.97821">
        <ele>175.4</ele>
        <time>2014-10-12T11:00:55Z</time>
      </trkpt>
      <trkpt lat="45.81645" lon="4.97817">
        <ele>175.4</ele>
        <time>2014-10-12T11:00:57Z</time>
      </trkpt>
      <trkpt lat="45.81645" lon="4.97808">
        <ele>175.2</ele>
        <time>2014-10-12T11:01:01Z</time>
      </trkpt>
      <trkpt lat="45.81644" lon="4.97799">
        <ele>175.2</ele>
        <time>2014-10-12T11:01:05Z</time>
      </trkpt>
      <trkpt lat="45.81643" lon="4.97796">
        <ele>175.2</ele>
        <time>2014-10-12T11:01:07Z</time>
      </trkpt>
      <trkpt lat="45.81642" lon="4.97795">
        <ele>175.4</ele>
        <time>2014-10-12T11:01:18Z</time>
      </trkpt>
      <trkpt lat="45.8164" lon="4.97793">
        <ele>174.8</ele>
        <time>2014-10-12T11:01:44Z</time>
      </trkpt>
      <trkpt lat="45.81641" lon="4.97782">
        <ele>174.6</ele>
        <time>2014-10-12T11:02:13Z</time>
      </trkpt>
      <trkpt lat="45.81641" lon="4.97779">
        <ele>174.6</ele>
        <time>2014-10-12T11:02:14Z</time>
      </trkpt>
      <trkpt lat="45.81639" lon="4.97766">
        <ele>174.6</ele>
        <time>2014-10-12T11:02:19Z</time>
      </trkpt>
      <trkpt lat="45.81639" lon="4.97763">
        <ele>174.8</ele>
        <time>2014-10-12T11:02:23Z</time>
      </trkpt>
      <trkpt lat="45.81638" lon="4.97769">
        <ele>174.8</ele>
        <time>2014-10-12T11:02:28Z</time>
      </trkpt>
      <trkpt lat="45.81637" lon="4.97771">
        <ele>175</ele>
        <time>2014-10-12T11:02:32Z</time>
      </trkpt>
      <trkpt lat="45.81637" lon="4.97768">
        <ele>175.6</ele>
        <time>2014-10-12T11:02:42Z</time>
      </trkpt>
      <trkpt lat="45.81636" lon="4.97764">
        <ele>175.6</ele>
        <time>2014-10-12T11:02:44Z</time>
      </trkpt>
      <trkpt lat="45.81636" lon="4.97746">
        <ele>175.8</ele>
        <time>2014-10-12T11:02:49Z</time>
      </trkpt>
      <trkpt lat="45.81636" lon="4.97743">
        <ele>175.8</ele>
        <time>2014-10-12T11:02:50Z</time>
      </trkpt>
      <trkpt lat="45.8163" lon="4.97731">
        <ele>176</ele>
        <time>2014-10-12T11:02:54Z</time>
      </trkpt>
      <trkpt lat="45.81625" lon="4.97722">
        <ele>176</ele>
        <time>2014-10-12T11:02:56Z</time>
      </trkpt>
      <trkpt lat="45.81615" lon="4.97712">
        <ele>176</ele>
        <time>2014-10-12T11:02:59Z</time>
      </trkpt>
      <trkpt lat="45.81606" lon="4.97708">
        <ele>176</ele>
        <time>2014-10-12T11:03:01Z</time>
      </trkpt>
      <trkpt lat="45.81602" lon="4.97709">
        <ele>176</ele>
        <time>2014-10-12T11:03:02Z</time>
      </trkpt>
      <trkpt lat="45.81598" lon="4.97712">
        <ele>175.8</ele>
        <time>2014-10-12T11:03:03Z</time>
      </trkpt>
      <trkpt lat="45.81591" lon="4.97717">
        <ele>175.8</ele>
        <time>2014-10-12T11:03:07Z</time>
      </trkpt>
      <trkpt lat="45.8159" lon="4.97718">
        <ele>175.6</ele>
        <time>2014-10-12T11:03:12Z</time>
      </trkpt>
      <trkpt lat="45.8159" lon="4.97719">
        <ele>176</ele>
        <time>2014-10-12T11:03:24Z</time>
      </trkpt>
      <trkpt lat="45.81588" lon="4.97722">
        <ele>176.2</ele>
        <time>2014-10-12T11:03:31Z</time>
      </trkpt>
      <trkpt lat="45.81586" lon="4.97721">
        <ele>176.2</ele>
        <time>2014-10-12T11:03:32Z</time>
      </trkpt>
      <trkpt lat="45.81578" lon="4.9772">
        <ele>176.2</ele>
        <time>2014-10-12T11:03:38Z</time>
      </trkpt>
      <trkpt lat="45.81574" lon="4.9772">
        <ele>176</ele>
        <time>2014-10-12T11:03:41Z</time>
      </trkpt>
      <trkpt lat="45.81568" lon="4.97717">
        <ele>176</ele>
        <time>2014-10-12T11:03:44Z</time>
      </trkpt>
      <trkpt lat="45.8156" lon="4.97706">
        <ele>175.8</ele>
        <time>2014-10-12T11:03:47Z</time>
      </trkpt>
      <trkpt lat="45.81557" lon="4.97701">
        <ele>175.8</ele>
        <time>2014-10-12T11:03:48Z</time>
      </trkpt>
      <trkpt lat="45.81547" lon="4.97684">
        <ele>175.6</ele>
        <time>2014-10-12T11:03:51Z</time>
      </trkpt>
      <trkpt lat="45.81539" lon="4.97673">
        <ele>175.6</ele>
        <time>2014-10-12T11:03:53Z</time>
      </trkpt>
      <trkpt lat="45.8153" lon="4.97664">
        <ele>175.4</ele>
        <time>2014-10-12T11:03:55Z</time>
      </trkpt>
      <trkpt lat="45.81512" lon="4.97646">
        <ele>175.2</ele>
        <time>2014-10-12T11:03:59Z</time>
      </trkpt>
      <trkpt lat="45.81498" lon="4.97633">
        <ele>175.2</ele>
        <time>2014-10-12T11:04:02Z</time>
      </trkpt>
      <trkpt lat="45.81494" lon="4.97628">
        <ele>175.2</ele>
        <time>2014-10-12T11:04:03Z</time>
      </trkpt>
      <trkpt lat="45.81477" lon="4.97609">
        <ele>175</ele>
        <time>2014-10-12T11:04:07Z</time>
      </trkpt>
      <trkpt lat="45.81469" lon="4.97599">
        <ele>175</ele>
        <time>2014-10-12T11:04:09Z</time>
      </trkpt>
      <trkpt lat="45.8146" lon="4.9759">
        <ele>175</ele>
        <time>2014-10-12T11:04:11Z</time>
      </trkpt>
      <trkpt lat="45.81442" lon="4.97569">
        <ele>174.8</ele>
        <time>2014-10-12T11:04:15Z</time>
      </trkpt>
      <trkpt lat="45.81426" lon="4.9755">
        <ele>174.6</ele>
        <time>2014-10-12T11:04:19Z</time>
      </trkpt>
      <trkpt lat="45.81413" lon="4.97534">
        <ele>174.6</ele>
        <time>2014-10-12T11:04:22Z</time>
      </trkpt>
      <trkpt lat="45.8141" lon="4.97528">
        <ele>174.6</ele>
        <time>2014-10-12T11:04:23Z</time>
      </trkpt>
      <trkpt lat="45.81398" lon="4.97505">
        <ele>174.4</ele>
        <time>2014-10-12T11:04:27Z</time>
      </trkpt>
      <trkpt lat="45.81394" lon="4.97499">
        <ele>174.4</ele>
        <time>2014-10-12T11:04:28Z</time>
      </trkpt>
      <trkpt lat="45.81388" lon="4.97488">
        <ele>174.4</ele>
        <time>2014-10-12T11:04:30Z</time>
      </trkpt>
      <trkpt lat="45.81385" lon="4.97482">
        <ele>174.4</ele>
        <time>2014-10-12T11:04:31Z</time>
      </trkpt>
      <trkpt lat="45.8138" lon="4.97467">
        <ele>174.4</ele>
        <time>2014-10-12T11:04:33Z</time>
      </trkpt>
      <trkpt lat="45.81376" lon="4.9745">
        <ele>174.4</ele>
        <time>2014-10-12T11:04:35Z</time>
      </trkpt>
      <trkpt lat="45.81372" lon="4.97424">
        <ele>174.4</ele>
        <time>2014-10-12T11:04:38Z</time>
      </trkpt>
      <trkpt lat="45.8137" lon="4.97414">
        <ele>174.4</ele>
        <time>2014-10-12T11:04:39Z</time>
      </trkpt>
      <trkpt lat="45.81366" lon="4.97396">
        <ele>174.4</ele>
        <time>2014-10-12T11:04:41Z</time>
      </trkpt>
      <trkpt lat="45.81359" lon="4.97371">
        <ele>174.2</ele>
        <time>2014-10-12T11:04:44Z</time>
      </trkpt>
      <trkpt lat="45.81357" lon="4.97362">
        <ele>174.2</ele>
        <time>2014-10-12T11:04:45Z</time>
      </trkpt>
      <trkpt lat="45.8135" lon="4.97346">
        <ele>174.2</ele>
        <time>2014-10-12T11:04:47Z</time>
      </trkpt>
      <trkpt lat="45.8134" lon="4.97322">
        <ele>174.2</ele>
        <time>2014-10-12T11:04:50Z</time>
      </trkpt>
      <trkpt lat="45.81336" lon="4.97315">
        <ele>174.2</ele>
        <time>2014-10-12T11:04:51Z</time>
      </trkpt>
      <trkpt lat="45.81329" lon="4.973">
        <ele>174</ele>
        <time>2014-10-12T11:04:53Z</time>
      </trkpt>
      <trkpt lat="45.81319" lon="4.97278">
        <ele>174</ele>
        <time>2014-10-12T11:04:56Z</time>
      </trkpt>
      <trkpt lat="45.81308" lon="4.97257">
        <ele>174</ele>
        <time>2014-10-12T11:04:59Z</time>
      </trkpt>
      <trkpt lat="45.81305" lon="4.9725">
        <ele>174</ele>
        <time>2014-10-12T11:05:00Z</time>
      </trkpt>
      <trkpt lat="45.81294" lon="4.97229">
        <ele>173.8</ele>
        <time>2014-10-12T11:05:03Z</time>
      </trkpt>
      <trkpt lat="45.81284" lon="4.97208">
        <ele>173.8</ele>
        <time>2014-10-12T11:05:06Z</time>
      </trkpt>
      <trkpt lat="45.81273" lon="4.97186">
        <ele>173.8</ele>
        <time>2014-10-12T11:05:09Z</time>
      </trkpt>
      <trkpt lat="45.81262" lon="4.97163">
        <ele>173.8</ele>
        <time>2014-10-12T11:05:12Z</time>
      </trkpt>
      <trkpt lat="45.8125" lon="4.97141">
        <ele>173.6</ele>
        <time>2014-10-12T11:05:15Z</time>
      </trkpt>
      <trkpt lat="45.81239" lon="4.97119">
        <ele>173.6</ele>
        <time>2014-10-12T11:05:18Z</time>
      </trkpt>
      <trkpt lat="45.81236" lon="4.97112">
        <ele>173.6</ele>
        <time>2014-10-12T11:05:19Z</time>
      </trkpt>
      <trkpt lat="45.81226" lon="4.97093">
        <ele>173.6</ele>
        <time>2014-10-12T11:05:22Z</time>
      </trkpt>
      <trkpt lat="45.81214" lon="4.97068">
        <ele>173.4</ele>
        <time>2014-10-12T11:05:26Z</time>
      </trkpt>
      <trkpt lat="45.81211" lon="4.97062">
        <ele>173.4</ele>
        <time>2014-10-12T11:05:27Z</time>
      </trkpt>
      <trkpt lat="45.81202" lon="4.97044">
        <ele>173.4</ele>
        <time>2014-10-12T11:05:30Z</time>
      </trkpt>
      <trkpt lat="45.8119" lon="4.97021">
        <ele>173.4</ele>
        <time>2014-10-12T11:05:34Z</time>
      </trkpt>
      <trkpt lat="45.81185" lon="4.9701">
        <ele>173.4</ele>
        <time>2014-10-12T11:05:36Z</time>
      </trkpt>
      <trkpt lat="45.81178" lon="4.96998">
        <ele>173.4</ele>
        <time>2014-10-12T11:05:38Z</time>
      </trkpt>
      <trkpt lat="45.81166" lon="4.96974">
        <ele>173.4</ele>
        <time>2014-10-12T11:05:42Z</time>
      </trkpt>
      <trkpt lat="45.81156" lon="4.96958">
        <ele>173.4</ele>
        <time>2014-10-12T11:05:45Z</time>
      </trkpt>
      <trkpt lat="45.81152" lon="4.96954">
        <ele>173.4</ele>
        <time>2014-10-12T11:05:46Z</time>
      </trkpt>
      <trkpt lat="45.81139" lon="4.96959">
        <ele>173.4</ele>
        <time>2014-10-12T11:05:49Z</time>
      </trkpt>
      <trkpt lat="45.81135" lon="4.96964">
        <ele>173.4</ele>
        <time>2014-10-12T11:05:50Z</time>
      </trkpt>
      <trkpt lat="45.8112" lon="4.96984">
        <ele>173.4</ele>
        <time>2014-10-12T11:05:54Z</time>
      </trkpt>
      <trkpt lat="45.81109" lon="4.96999">
        <ele>173.4</ele>
        <time>2014-10-12T11:05:57Z</time>
      </trkpt>
      <trkpt lat="45.81106" lon="4.97004">
        <ele>173.4</ele>
        <time>2014-10-12T11:05:58Z</time>
      </trkpt>
      <trkpt lat="45.81092" lon="4.97024">
        <ele>173.2</ele>
        <time>2014-10-12T11:06:02Z</time>
      </trkpt>
      <trkpt lat="45.8108" lon="4.97046">
        <ele>173.2</ele>
        <time>2014-10-12T11:06:06Z</time>
      </trkpt>
      <trkpt lat="45.81069" lon="4.97069">
        <ele>173.2</ele>
        <time>2014-10-12T11:06:10Z</time>
      </trkpt>
      <trkpt lat="45.8106" lon="4.97086">
        <ele>173.2</ele>
        <time>2014-10-12T11:06:13Z</time>
      </trkpt>
      <trkpt lat="45.81057" lon="4.97091">
        <ele>173.2</ele>
        <time>2014-10-12T11:06:14Z</time>
      </trkpt>
      <trkpt lat="45.81054" lon="4.97096">
        <ele>173.4</ele>
        <time>2014-10-12T11:06:15Z</time>
      </trkpt>
      <trkpt lat="45.81043" lon="4.9711">
        <ele>173.6</ele>
        <time>2014-10-12T11:06:18Z</time>
      </trkpt>
      <trkpt lat="45.81035" lon="4.97119">
        <ele>173.6</ele>
        <time>2014-10-12T11:06:20Z</time>
      </trkpt>
      <trkpt lat="45.81027" lon="4.97127">
        <ele>173.6</ele>
        <time>2014-10-12T11:06:22Z</time>
      </trkpt>
      <trkpt lat="45.81009" lon="4.97143">
        <ele>173.8</ele>
        <time>2014-10-12T11:06:26Z</time>
      </trkpt>
      <trkpt lat="45.81004" lon="4.97147">
        <ele>173.8</ele>
        <time>2014-10-12T11:06:27Z</time>
      </trkpt>
      <trkpt lat="45.80999" lon="4.9715">
        <ele>173.8</ele>
        <time>2014-10-12T11:06:28Z</time>
      </trkpt>
      <trkpt lat="45.80988" lon="4.97155">
        <ele>174</ele>
        <time>2014-10-12T11:06:30Z</time>
      </trkpt>
      <trkpt lat="45.80977" lon="4.97159">
        <ele>174</ele>
        <time>2014-10-12T11:06:32Z</time>
      </trkpt>
      <trkpt lat="45.80965" lon="4.97162">
        <ele>174</ele>
        <time>2014-10-12T11:06:34Z</time>
      </trkpt>
      <trkpt lat="45.80947" lon="4.97164">
        <ele>174.2</ele>
        <time>2014-10-12T11:06:37Z</time>
      </trkpt>
      <trkpt lat="45.80929" lon="4.97167">
        <ele>174.2</ele>
        <time>2014-10-12T11:06:40Z</time>
      </trkpt>
      <trkpt lat="45.80911" lon="4.97169">
        <ele>174.2</ele>
        <time>2014-10-12T11:06:43Z</time>
      </trkpt>
      <trkpt lat="45.80892" lon="4.97169">
        <ele>174.2</ele>
        <time>2014-10-12T11:06:46Z</time>
      </trkpt>
      <trkpt lat="45.80885" lon="4.97167">
        <ele>174.2</ele>
        <time>2014-10-12T11:06:47Z</time>
      </trkpt>
      <trkpt lat="45.80879" lon="4.97165">
        <ele>174.2</ele>
        <time>2014-10-12T11:06:48Z</time>
      </trkpt>
      <trkpt lat="45.80874" lon="4.97161">
        <ele>174.2</ele>
        <time>2014-10-12T11:06:49Z</time>
      </trkpt>
      <trkpt lat="45.80862" lon="4.97151">
        <ele>174.2</ele>
        <time>2014-10-12T11:06:51Z</time>
      </trkpt>
      <trkpt lat="45.80857" lon="4.97146">
        <ele>174.2</ele>
        <time>2014-10-12T11:06:52Z</time>
      </trkpt>
      <trkpt lat="45.80852" lon="4.9714">
        <ele>174.2</ele>
        <time>2014-10-12T11:06:53Z</time>
      </trkpt>
      <trkpt lat="45.80842" lon="4.97129">
        <ele>174.2</ele>
        <time>2014-10-12T11:06:55Z</time>
      </trkpt>
      <trkpt lat="45.80837" lon="4.97124">
        <ele>174.2</ele>
        <time>2014-10-12T11:06:56Z</time>
      </trkpt>
      <trkpt lat="45.80832" lon="4.97123">
        <ele>174.2</ele>
        <time>2014-10-12T11:06:57Z</time>
      </trkpt>
      <trkpt lat="45.80823" lon="4.97127">
        <ele>174.2</ele>
        <time>2014-10-12T11:06:59Z</time>
      </trkpt>
      <trkpt lat="45.80818" lon="4.9713">
        <ele>174</ele>
        <time>2014-10-12T11:07:00Z</time>
      </trkpt>
      <trkpt lat="45.80802" lon="4.97132">
        <ele>174</ele>
        <time>2014-10-12T11:07:03Z</time>
      </trkpt>
      <trkpt lat="45.80786" lon="4.97124">
        <ele>174</ele>
        <time>2014-10-12T11:07:06Z</time>
      </trkpt>
      <trkpt lat="45.8078" lon="4.9712">
        <ele>174</ele>
        <time>2014-10-12T11:07:07Z</time>
      </trkpt>
      <trkpt lat="45.80775" lon="4.97117">
        <ele>174</ele>
        <time>2014-10-12T11:07:08Z</time>
      </trkpt>
      <trkpt lat="45.80763" lon="4.97112">
        <ele>174</ele>
        <time>2014-10-12T11:07:10Z</time>
      </trkpt>
      <trkpt lat="45.80746" lon="4.97104">
        <ele>174</ele>
        <time>2014-10-12T11:07:13Z</time>
      </trkpt>
      <trkpt lat="45.80734" lon="4.971">
        <ele>173.8</ele>
        <time>2014-10-12T11:07:15Z</time>
      </trkpt>
      <trkpt lat="45.80723" lon="4.97103">
        <ele>173.8</ele>
        <time>2014-10-12T11:07:17Z</time>
      </trkpt>
      <trkpt lat="45.80718" lon="4.97107">
        <ele>173.8</ele>
        <time>2014-10-12T11:07:18Z</time>
      </trkpt>
      <trkpt lat="45.8071" lon="4.9712">
        <ele>173.8</ele>
        <time>2014-10-12T11:07:20Z</time>
      </trkpt>
      <trkpt lat="45.80702" lon="4.97135">
        <ele>173.6</ele>
        <time>2014-10-12T11:07:22Z</time>
      </trkpt>
      <trkpt lat="45.80698" lon="4.97142">
        <ele>173.6</ele>
        <time>2014-10-12T11:07:23Z</time>
      </trkpt>
      <trkpt lat="45.80688" lon="4.97164">
        <ele>173.4</ele>
        <time>2014-10-12T11:07:26Z</time>
      </trkpt>
      <trkpt lat="45.80679" lon="4.97187">
        <ele>173.4</ele>
        <time>2014-10-12T11:07:29Z</time>
      </trkpt>
      <trkpt lat="45.80676" lon="4.97195">
        <ele>173.2</ele>
        <time>2014-10-12T11:07:30Z</time>
      </trkpt>
      <trkpt lat="45.80668" lon="4.97216">
        <ele>173.2</ele>
        <time>2014-10-12T11:07:33Z</time>
      </trkpt>
      <trkpt lat="45.80658" lon="4.97244">
        <ele>173</ele>
        <time>2014-10-12T11:07:37Z</time>
      </trkpt>
      <trkpt lat="45.80643" lon="4.97264">
        <ele>172.8</ele>
        <time>2014-10-12T11:07:41Z</time>
      </trkpt>
      <trkpt lat="45.80639" lon="4.97268">
        <ele>172.6</ele>
        <time>2014-10-12T11:07:42Z</time>
      </trkpt>
      <trkpt lat="45.80625" lon="4.97279">
        <ele>172.6</ele>
        <time>2014-10-12T11:07:45Z</time>
      </trkpt>
      <trkpt lat="45.80615" lon="4.97284">
        <ele>172.4</ele>
        <time>2014-10-12T11:07:47Z</time>
      </trkpt>
      <trkpt lat="45.80604" lon="4.97286">
        <ele>172.4</ele>
        <time>2014-10-12T11:07:49Z</time>
      </trkpt>
      <trkpt lat="45.80587" lon="4.97282">
        <ele>172.2</ele>
        <time>2014-10-12T11:07:52Z</time>
      </trkpt>
      <trkpt lat="45.80582" lon="4.97279">
        <ele>172.2</ele>
        <time>2014-10-12T11:07:53Z</time>
      </trkpt>
      <trkpt lat="45.8056" lon="4.97265">
        <ele>172</ele>
        <time>2014-10-12T11:07:57Z</time>
      </trkpt>
      <trkpt lat="45.8055" lon="4.97258">
        <ele>172</ele>
        <time>2014-10-12T11:07:59Z</time>
      </trkpt>
      <trkpt lat="45.80539" lon="4.97252">
        <ele>171.8</ele>
        <time>2014-10-12T11:08:01Z</time>
      </trkpt>
      <trkpt lat="45.80516" lon="4.97239">
        <ele>171.6</ele>
        <time>2014-10-12T11:08:05Z</time>
      </trkpt>
      <trkpt lat="45.80499" lon="4.9723">
        <ele>171.6</ele>
        <time>2014-10-12T11:08:08Z</time>
      </trkpt>
      <trkpt lat="45.80494" lon="4.97227">
        <ele>171.4</ele>
        <time>2014-10-12T11:08:09Z</time>
      </trkpt>
      <trkpt lat="45.80482" lon="4.97221">
        <ele>171.4</ele>
        <time>2014-10-12T11:08:11Z</time>
      </trkpt>
      <trkpt lat="45.80465" lon="4.97212">
        <ele>171.4</ele>
        <time>2014-10-12T11:08:14Z</time>
      </trkpt>
      <trkpt lat="45.80454" lon="4.97206">
        <ele>171.2</ele>
        <time>2014-10-12T11:08:16Z</time>
      </trkpt>
      <trkpt lat="45.80448" lon="4.97203">
        <ele>171.2</ele>
        <time>2014-10-12T11:08:17Z</time>
      </trkpt>
      <trkpt lat="45.80426" lon="4.97191">
        <ele>171.2</ele>
        <time>2014-10-12T11:08:21Z</time>
      </trkpt>
      <trkpt lat="45.80409" lon="4.97183">
        <ele>171</ele>
        <time>2014-10-12T11:08:24Z</time>
      </trkpt>
      <trkpt lat="45.80398" lon="4.97177">
        <ele>171</ele>
        <time>2014-10-12T11:08:26Z</time>
      </trkpt>
      <trkpt lat="45.80392" lon="4.97174">
        <ele>171</ele>
        <time>2014-10-12T11:08:27Z</time>
      </trkpt>
      <trkpt lat="45.80375" lon="4.97164">
        <ele>171</ele>
        <time>2014-10-12T11:08:30Z</time>
      </trkpt>
      <trkpt lat="45.80358" lon="4.97154">
        <ele>170.8</ele>
        <time>2014-10-12T11:08:33Z</time>
      </trkpt>
      <trkpt lat="45.80347" lon="4.97148">
        <ele>170.8</ele>
        <time>2014-10-12T11:08:35Z</time>
      </trkpt>
      <trkpt lat="45.80337" lon="4.97143">
        <ele>170.8</ele>
        <time>2014-10-12T11:08:37Z</time>
      </trkpt>
      <trkpt lat="45.80316" lon="4.97133">
        <ele>170.8</ele>
        <time>2014-10-12T11:08:41Z</time>
      </trkpt>
      <trkpt lat="45.80312" lon="4.97131">
        <ele>170.8</ele>
        <time>2014-10-12T11:08:42Z</time>
      </trkpt>
      <trkpt lat="45.80297" lon="4.97124">
        <ele>170.8</ele>
        <time>2014-10-12T11:08:45Z</time>
      </trkpt>
      <trkpt lat="45.80278" lon="4.97114">
        <ele>170.6</ele>
        <time>2014-10-12T11:08:49Z</time>
      </trkpt>
      <trkpt lat="45.80273" lon="4.97111">
        <ele>170.6</ele>
        <time>2014-10-12T11:08:50Z</time>
      </trkpt>
      <trkpt lat="45.8026" lon="4.97101">
        <ele>170.6</ele>
        <time>2014-10-12T11:08:53Z</time>
      </trkpt>
      <trkpt lat="45.80243" lon="4.97083">
        <ele>170.6</ele>
        <time>2014-10-12T11:08:57Z</time>
      </trkpt>
      <trkpt lat="45.80228" lon="4.97063">
        <ele>170.6</ele>
        <time>2014-10-12T11:09:01Z</time>
      </trkpt>
      <trkpt lat="45.80224" lon="4.97058">
        <ele>170.6</ele>
        <time>2014-10-12T11:09:02Z</time>
      </trkpt>
      <trkpt lat="45.80221" lon="4.97045">
        <ele>170.6</ele>
        <time>2014-10-12T11:09:04Z</time>
      </trkpt>
      <trkpt lat="45.80221" lon="4.97038">
        <ele>170.6</ele>
        <time>2014-10-12T11:09:05Z</time>
      </trkpt>
      <trkpt lat="45.80224" lon="4.97024">
        <ele>170.6</ele>
        <time>2014-10-12T11:09:07Z</time>
      </trkpt>
      <trkpt lat="45.80233" lon="4.97013">
        <ele>170.6</ele>
        <time>2014-10-12T11:09:09Z</time>
      </trkpt>
      <trkpt lat="45.80241" lon="4.97003">
        <ele>170.6</ele>
        <time>2014-10-12T11:09:11Z</time>
      </trkpt>
      <trkpt lat="45.80248" lon="4.96991">
        <ele>170.6</ele>
        <time>2014-10-12T11:09:13Z</time>
      </trkpt>
      <trkpt lat="45.80257" lon="4.96971">
        <ele>170.8</ele>
        <time>2014-10-12T11:09:16Z</time>
      </trkpt>
      <trkpt lat="45.8026" lon="4.96965">
        <ele>170.8</ele>
        <time>2014-10-12T11:09:17Z</time>
      </trkpt>
      <trkpt lat="45.80269" lon="4.96939">
        <ele>171</ele>
        <time>2014-10-12T11:09:21Z</time>
      </trkpt>
      <trkpt lat="45.80272" lon="4.96924">
        <ele>171</ele>
        <time>2014-10-12T11:09:23Z</time>
      </trkpt>
      <trkpt lat="45.80274" lon="4.96909">
        <ele>171.2</ele>
        <time>2014-10-12T11:09:25Z</time>
      </trkpt>
      <trkpt lat="45.80276" lon="4.96879">
        <ele>171.4</ele>
        <time>2014-10-12T11:09:29Z</time>
      </trkpt>
      <trkpt lat="45.80278" lon="4.96863">
        <ele>171.4</ele>
        <time>2014-10-12T11:09:31Z</time>
      </trkpt>
      <trkpt lat="45.8028" lon="4.96847">
        <ele>171.4</ele>
        <time>2014-10-12T11:09:33Z</time>
      </trkpt>
      <trkpt lat="45.80284" lon="4.96814">
        <ele>171.6</ele>
        <time>2014-10-12T11:09:37Z</time>
      </trkpt>
      <trkpt lat="45.80285" lon="4.96806">
        <ele>171.6</ele>
        <time>2014-10-12T11:09:38Z</time>
      </trkpt>
      <trkpt lat="45.80293" lon="4.96782">
        <ele>171.8</ele>
        <time>2014-10-12T11:09:41Z</time>
      </trkpt>
      <trkpt lat="45.80297" lon="4.96776">
        <ele>171.8</ele>
        <time>2014-10-12T11:09:42Z</time>
      </trkpt>
      <trkpt lat="45.80305" lon="4.96765">
        <ele>171.8</ele>
        <time>2014-10-12T11:09:44Z</time>
      </trkpt>
      <trkpt lat="45.8031" lon="4.9676">
        <ele>172</ele>
        <time>2014-10-12T11:09:45Z</time>
      </trkpt>
      <trkpt lat="45.80319" lon="4.96751">
        <ele>172</ele>
        <time>2014-10-12T11:09:47Z</time>
      </trkpt>
      <trkpt lat="45.80329" lon="4.96742">
        <ele>172</ele>
        <time>2014-10-12T11:09:49Z</time>
      </trkpt>
      <trkpt lat="45.80349" lon="4.96722">
        <ele>172.2</ele>
        <time>2014-10-12T11:09:53Z</time>
      </trkpt>
      <trkpt lat="45.80363" lon="4.96705">
        <ele>172.2</ele>
        <time>2014-10-12T11:09:56Z</time>
      </trkpt>
      <trkpt lat="45.80376" lon="4.96688">
        <ele>172.2</ele>
        <time>2014-10-12T11:09:59Z</time>
      </trkpt>
      <trkpt lat="45.8038" lon="4.96683">
        <ele>172.4</ele>
        <time>2014-10-12T11:10:00Z</time>
      </trkpt>
      <trkpt lat="45.80397" lon="4.9666">
        <ele>172.4</ele>
        <time>2014-10-12T11:10:04Z</time>
      </trkpt>
      <trkpt lat="45.80404" lon="4.9665">
        <ele>172.6</ele>
        <time>2014-10-12T11:10:06Z</time>
      </trkpt>
      <trkpt lat="45.80411" lon="4.9664">
        <ele>172.6</ele>
        <time>2014-10-12T11:10:08Z</time>
      </trkpt>
      <trkpt lat="45.80425" lon="4.96617">
        <ele>172.8</ele>
        <time>2014-10-12T11:10:12Z</time>
      </trkpt>
      <trkpt lat="45.80427" lon="4.9661">
        <ele>172.8</ele>
        <time>2014-10-12T11:10:13Z</time>
      </trkpt>
      <trkpt lat="45.80428" lon="4.96587">
        <ele>173</ele>
        <time>2014-10-12T11:10:16Z</time>
      </trkpt>
      <trkpt lat="45.80427" lon="4.9658">
        <ele>172.8</ele>
        <time>2014-10-12T11:10:17Z</time>
      </trkpt>
      <trkpt lat="45.80425" lon="4.96557">
        <ele>173</ele>
        <time>2014-10-12T11:10:20Z</time>
      </trkpt>
      <trkpt lat="45.8042" lon="4.96534">
        <ele>172.8</ele>
        <time>2014-10-12T11:10:23Z</time>
      </trkpt>
      <trkpt lat="45.80418" lon="4.96527">
        <ele>172.8</ele>
        <time>2014-10-12T11:10:24Z</time>
      </trkpt>
      <trkpt lat="45.80407" lon="4.96497">
        <ele>172.8</ele>
        <time>2014-10-12T11:10:28Z</time>
      </trkpt>
      <trkpt lat="45.80401" lon="4.96483">
        <ele>172.8</ele>
        <time>2014-10-12T11:10:30Z</time>
      </trkpt>
      <trkpt lat="45.80395" lon="4.96468">
        <ele>172.8</ele>
        <time>2014-10-12T11:10:32Z</time>
      </trkpt>
      <trkpt lat="45.80388" lon="4.96446">
        <ele>172.6</ele>
        <time>2014-10-12T11:10:35Z</time>
      </trkpt>
      <trkpt lat="45.80386" lon="4.96438">
        <ele>172.6</ele>
        <time>2014-10-12T11:10:36Z</time>
      </trkpt>
      <trkpt lat="45.80386" lon="4.9643">
        <ele>172.6</ele>
        <time>2014-10-12T11:10:37Z</time>
      </trkpt>
      <trkpt lat="45.80388" lon="4.96406">
        <ele>172.6</ele>
        <time>2014-10-12T11:10:40Z</time>
      </trkpt>
      <trkpt lat="45.8039" lon="4.96399">
        <ele>172.6</ele>
        <time>2014-10-12T11:10:41Z</time>
      </trkpt>
      <trkpt lat="45.80395" lon="4.96379">
        <ele>172.8</ele>
        <time>2014-10-12T11:10:44Z</time>
      </trkpt>
      <trkpt lat="45.80397" lon="4.96367">
        <ele>172.8</ele>
        <time>2014-10-12T11:10:46Z</time>
      </trkpt>
      <trkpt lat="45.80399" lon="4.96355">
        <ele>173</ele>
        <time>2014-10-12T11:10:48Z</time>
      </trkpt>
      <trkpt lat="45.80399" lon="4.96349">
        <ele>173</ele>
        <time>2014-10-12T11:10:49Z</time>
      </trkpt>
      <trkpt lat="45.80398" lon="4.96338">
        <ele>173</ele>
        <time>2014-10-12T11:10:51Z</time>
      </trkpt>
      <trkpt lat="45.80395" lon="4.96327">
        <ele>173</ele>
        <time>2014-10-12T11:10:53Z</time>
      </trkpt>
      <trkpt lat="45.80393" lon="4.96322">
        <ele>173</ele>
        <time>2014-10-12T11:10:54Z</time>
      </trkpt>
      <trkpt lat="45.80379" lon="4.96305">
        <ele>173</ele>
        <time>2014-10-12T11:10:58Z</time>
      </trkpt>
      <trkpt lat="45.80364" lon="4.96305">
        <ele>173</ele>
        <time>2014-10-12T11:11:01Z</time>
      </trkpt>
      <trkpt lat="45.80358" lon="4.96306">
        <ele>173</ele>
        <time>2014-10-12T11:11:02Z</time>
      </trkpt>
      <trkpt lat="45.8034" lon="4.96307">
        <ele>173</ele>
        <time>2014-10-12T11:11:05Z</time>
      </trkpt>
      <trkpt lat="45.8032" lon="4.96306">
        <ele>172.8</ele>
        <time>2014-10-12T11:11:08Z</time>
      </trkpt>
      <trkpt lat="45.803" lon="4.96301">
        <ele>172.8</ele>
        <time>2014-10-12T11:11:11Z</time>
      </trkpt>
      <trkpt lat="45.80279" lon="4.96296">
        <ele>172.8</ele>
        <time>2014-10-12T11:11:14Z</time>
      </trkpt>
      <trkpt lat="45.8026" lon="4.96279">
        <ele>172.8</ele>
        <time>2014-10-12T11:11:17Z</time>
      </trkpt>
      <trkpt lat="45.80255" lon="4.96272">
        <ele>172.8</ele>
        <time>2014-10-12T11:11:18Z</time>
      </trkpt>
      <trkpt lat="45.80248" lon="4.96256">
        <ele>172.8</ele>
        <time>2014-10-12T11:11:20Z</time>
      </trkpt>
      <trkpt lat="45.80244" lon="4.96238">
        <ele>172.8</ele>
        <time>2014-10-12T11:11:22Z</time>
      </trkpt>
      <trkpt lat="45.80243" lon="4.96228">
        <ele>172.8</ele>
        <time>2014-10-12T11:11:23Z</time>
      </trkpt>
      <trkpt lat="45.80244" lon="4.9621">
        <ele>172.6</ele>
        <time>2014-10-12T11:11:25Z</time>
      </trkpt>
      <trkpt lat="45.80245" lon="4.96201">
        <ele>172.6</ele>
        <time>2014-10-12T11:11:26Z</time>
      </trkpt>
      <trkpt lat="45.80245" lon="4.96192">
        <ele>172.6</ele>
        <time>2014-10-12T11:11:27Z</time>
      </trkpt>
      <trkpt lat="45.8024" lon="4.96176">
        <ele>172.6</ele>
        <time>2014-10-12T11:11:29Z</time>
      </trkpt>
      <trkpt lat="45.80226" lon="4.96158">
        <ele>172.8</ele>
        <time>2014-10-12T11:11:32Z</time>
      </trkpt>
      <trkpt lat="45.80221" lon="4.96153">
        <ele>172.8</ele>
        <time>2014-10-12T11:11:33Z</time>
      </trkpt>
      <trkpt lat="45.80215" lon="4.9615">
        <ele>172.8</ele>
        <time>2014-10-12T11:11:34Z</time>
      </trkpt>
      <trkpt lat="45.80209" lon="4.96147">
        <ele>172.8</ele>
        <time>2014-10-12T11:11:35Z</time>
      </trkpt>
      <trkpt lat="45.80187" lon="4.96137">
        <ele>172.8</ele>
        <time>2014-10-12T11:11:39Z</time>
      </trkpt>
      <trkpt lat="45.80163" lon="4.9613">
        <ele>172.8</ele>
        <time>2014-10-12T11:11:43Z</time>
      </trkpt>
      <trkpt lat="45.80146" lon="4.96127">
        <ele>172.8</ele>
        <time>2014-10-12T11:11:46Z</time>
      </trkpt>
      <trkpt lat="45.8014" lon="4.96127">
        <ele>172.8</ele>
        <time>2014-10-12T11:11:47Z</time>
      </trkpt>
      <trkpt lat="45.80118" lon="4.96124">
        <ele>172.6</ele>
        <time>2014-10-12T11:11:51Z</time>
      </trkpt>
      <trkpt lat="45.80107" lon="4.96123">
        <ele>172.6</ele>
        <time>2014-10-12T11:11:53Z</time>
      </trkpt>
      <trkpt lat="45.80097" lon="4.96126">
        <ele>172.6</ele>
        <time>2014-10-12T11:11:55Z</time>
      </trkpt>
      <trkpt lat="45.80087" lon="4.96128">
        <ele>172.6</ele>
        <time>2014-10-12T11:11:57Z</time>
      </trkpt>
      <trkpt lat="45.80076" lon="4.96125">
        <ele>172.6</ele>
        <time>2014-10-12T11:11:59Z</time>
      </trkpt>
      <trkpt lat="45.80067" lon="4.96114">
        <ele>172.4</ele>
        <time>2014-10-12T11:12:01Z</time>
      </trkpt>
      <trkpt lat="45.8006" lon="4.96101">
        <ele>172.4</ele>
        <time>2014-10-12T11:12:03Z</time>
      </trkpt>
      <trkpt lat="45.8005" lon="4.96082">
        <ele>172.4</ele>
        <time>2014-10-12T11:12:06Z</time>
      </trkpt>
      <trkpt lat="45.80045" lon="4.96078">
        <ele>172.4</ele>
        <time>2014-10-12T11:12:07Z</time>
      </trkpt>
      <trkpt lat="45.80028" lon="4.96074">
        <ele>172.4</ele>
        <time>2014-10-12T11:12:10Z</time>
      </trkpt>
      <trkpt lat="45.80022" lon="4.96075">
        <ele>172.4</ele>
        <time>2014-10-12T11:12:11Z</time>
      </trkpt>
      <trkpt lat="45.80004" lon="4.96081">
        <ele>172.2</ele>
        <time>2014-10-12T11:12:14Z</time>
      </trkpt>
      <trkpt lat="45.79998" lon="4.96084">
        <ele>172.2</ele>
        <time>2014-10-12T11:12:15Z</time>
      </trkpt>
      <trkpt lat="45.79986" lon="4.96094">
        <ele>172</ele>
        <time>2014-10-12T11:12:17Z</time>
      </trkpt>
      <trkpt lat="45.7998" lon="4.961">
        <ele>172</ele>
        <time>2014-10-12T11:12:18Z</time>
      </trkpt>
      <trkpt lat="45.7997" lon="4.96112">
        <ele>171.8</ele>
        <time>2014-10-12T11:12:20Z</time>
      </trkpt>
      <trkpt lat="45.7996" lon="4.96123">
        <ele>171.8</ele>
        <time>2014-10-12T11:12:22Z</time>
      </trkpt>
      <trkpt lat="45.79955" lon="4.96124">
        <ele>171.8</ele>
        <time>2014-10-12T11:12:23Z</time>
      </trkpt>
      <trkpt lat="45.7995" lon="4.96122">
        <ele>171.6</ele>
        <time>2014-10-12T11:12:24Z</time>
      </trkpt>
      <trkpt lat="45.79941" lon="4.96113">
        <ele>171.6</ele>
        <time>2014-10-12T11:12:26Z</time>
      </trkpt>
      <trkpt lat="45.79937" lon="4.96108">
        <ele>171.6</ele>
        <time>2014-10-12T11:12:27Z</time>
      </trkpt>
      <trkpt lat="45.79933" lon="4.96102">
        <ele>171.4</ele>
        <time>2014-10-12T11:12:28Z</time>
      </trkpt>
      <trkpt lat="45.79916" lon="4.96084">
        <ele>171.2</ele>
        <time>2014-10-12T11:12:32Z</time>
      </trkpt>
      <trkpt lat="45.79901" lon="4.96081">
        <ele>171</ele>
        <time>2014-10-12T11:12:35Z</time>
      </trkpt>
      <trkpt lat="45.79897" lon="4.96083">
        <ele>171</ele>
        <time>2014-10-12T11:12:36Z</time>
      </trkpt>
      <trkpt lat="45.79888" lon="4.96089">
        <ele>170.8</ele>
        <time>2014-10-12T11:12:38Z</time>
      </trkpt>
      <trkpt lat="45.79879" lon="4.96092">
        <ele>170.8</ele>
        <time>2014-10-12T11:12:40Z</time>
      </trkpt>
      <trkpt lat="45.79861" lon="4.96092">
        <ele>170.6</ele>
        <time>2014-10-12T11:12:45Z</time>
      </trkpt>
      <trkpt lat="45.79859" lon="4.96091">
        <ele>170.6</ele>
        <time>2014-10-12T11:12:46Z</time>
      </trkpt>
      <trkpt lat="45.79854" lon="4.9609">
        <ele>170.6</ele>
        <time>2014-10-12T11:12:49Z</time>
      </trkpt>
      <trkpt lat="45.79851" lon="4.96089">
        <ele>170.4</ele>
        <time>2014-10-12T11:12:54Z</time>
      </trkpt>
      <trkpt lat="45.79849" lon="4.96081">
        <ele>170.4</ele>
        <time>2014-10-12T11:13:02Z</time>
      </trkpt>
      <trkpt lat="45.7985" lon="4.96076">
        <ele>170.4</ele>
        <time>2014-10-12T11:13:03Z</time>
      </trkpt>
      <trkpt lat="45.7985" lon="4.9606">
        <ele>170.4</ele>
        <time>2014-10-12T11:13:06Z</time>
      </trkpt>
      <trkpt lat="45.79848" lon="4.96055">
        <ele>170.2</ele>
        <time>2014-10-12T11:13:08Z</time>
      </trkpt>
      <trkpt lat="45.79846" lon="4.96056">
        <ele>170.2</ele>
        <time>2014-10-12T11:13:09Z</time>
      </trkpt>
      <trkpt lat="45.79828" lon="4.96058">
        <ele>170</ele>
        <time>2014-10-12T11:13:14Z</time>
      </trkpt>
      <trkpt lat="45.79824" lon="4.96057">
        <ele>170</ele>
        <time>2014-10-12T11:13:15Z</time>
      </trkpt>
      <trkpt lat="45.79808" lon="4.96053">
        <ele>169.8</ele>
        <time>2014-10-12T11:13:19Z</time>
      </trkpt>
      <trkpt lat="45.79804" lon="4.96054">
        <ele>169.8</ele>
        <time>2014-10-12T11:13:20Z</time>
      </trkpt>
      <trkpt lat="45.79795" lon="4.96058">
        <ele>169.6</ele>
        <time>2014-10-12T11:13:22Z</time>
      </trkpt>
      <trkpt lat="45.7979" lon="4.96058">
        <ele>169.6</ele>
        <time>2014-10-12T11:13:23Z</time>
      </trkpt>
      <trkpt lat="45.79784" lon="4.96059">
        <ele>169.6</ele>
        <time>2014-10-12T11:13:25Z</time>
      </trkpt>
      <trkpt lat="45.79782" lon="4.96058">
        <ele>169.6</ele>
        <time>2014-10-12T11:13:26Z</time>
      </trkpt>
      <trkpt lat="45.7977" lon="4.96051">
        <ele>169.4</ele>
        <time>2014-10-12T11:13:31Z</time>
      </trkpt>
      <trkpt lat="45.79766" lon="4.96052">
        <ele>169.4</ele>
        <time>2014-10-12T11:13:33Z</time>
      </trkpt>
      <trkpt lat="45.79764" lon="4.96054">
        <ele>169.4</ele>
        <time>2014-10-12T11:13:34Z</time>
      </trkpt>
      <trkpt lat="45.79763" lon="4.96056">
        <ele>169.4</ele>
        <time>2014-10-12T11:13:35Z</time>
      </trkpt>
      <trkpt lat="45.79759" lon="4.96067">
        <ele>169.6</ele>
        <time>2014-10-12T11:13:39Z</time>
      </trkpt>
      <trkpt lat="45.79756" lon="4.96075">
        <ele>169.6</ele>
        <time>2014-10-12T11:13:41Z</time>
      </trkpt>
      <trkpt lat="45.79749" lon="4.96093">
        <ele>169.6</ele>
        <time>2014-10-12T11:13:45Z</time>
      </trkpt>
      <trkpt lat="45.79746" lon="4.96097">
        <ele>169.6</ele>
        <time>2014-10-12T11:13:46Z</time>
      </trkpt>
      <trkpt lat="45.79744" lon="4.96106">
        <ele>169.6</ele>
        <time>2014-10-12T11:13:49Z</time>
      </trkpt>
      <trkpt lat="45.7974" lon="4.96121">
        <ele>169.2</ele>
        <time>2014-10-12T11:13:54Z</time>
      </trkpt>
      <trkpt lat="45.79735" lon="4.96129">
        <ele>168.8</ele>
        <time>2014-10-12T11:13:58Z</time>
      </trkpt>
      <trkpt lat="45.79734" lon="4.96142">
        <ele>168.2</ele>
        <time>2014-10-12T11:14:09Z</time>
      </trkpt>
      <trkpt lat="45.79733" lon="4.96146">
        <ele>168.2</ele>
        <time>2014-10-12T11:14:10Z</time>
      </trkpt>
      <trkpt lat="45.7973" lon="4.96167">
        <ele>167.8</ele>
        <time>2014-10-12T11:14:15Z</time>
      </trkpt>
      <trkpt lat="45.7973" lon="4.96171">
        <ele>167.6</ele>
        <time>2014-10-12T11:14:16Z</time>
      </trkpt>
      <trkpt lat="45.79727" lon="4.96194">
        <ele>167</ele>
        <time>2014-10-12T11:14:22Z</time>
      </trkpt>
      <trkpt lat="45.79727" lon="4.96199">
        <ele>166.8</ele>
        <time>2014-10-12T11:14:23Z</time>
      </trkpt>
      <trkpt lat="45.79727" lon="4.96214">
        <ele>166.2</ele>
        <time>2014-10-12T11:14:26Z</time>
      </trkpt>
      <trkpt lat="45.79727" lon="4.96226">
        <ele>166</ele>
        <time>2014-10-12T11:14:28Z</time>
      </trkpt>
      <trkpt lat="45.79729" lon="4.96236">
        <ele>165.6</ele>
        <time>2014-10-12T11:14:30Z</time>
      </trkpt>
      <trkpt lat="45.7973" lon="4.96251">
        <ele>165.2</ele>
        <time>2014-10-12T11:14:35Z</time>
      </trkpt>
      <trkpt lat="45.79731" lon="4.96254">
        <ele>165</ele>
        <time>2014-10-12T11:14:36Z</time>
      </trkpt>
      <trkpt lat="45.79732" lon="4.96267">
        <ele>164.8</ele>
        <time>2014-10-12T11:14:39Z</time>
      </trkpt>
      <trkpt lat="45.79733" lon="4.9627">
        <ele>164.8</ele>
        <time>2014-10-12T11:14:40Z</time>
      </trkpt>
      <trkpt lat="45.79734" lon="4.9627">
        <ele>164.6</ele>
        <time>2014-10-12T11:14:42Z</time>
      </trkpt>
      <trkpt lat="45.79732" lon="4.96268">
        <ele>164.4</ele>
        <time>2014-10-12T11:14:57Z</time>
      </trkpt>
      <trkpt lat="45.79731" lon="4.96261">
        <ele>166.8</ele>
        <time>2014-10-12T11:15:20Z</time>
      </trkpt>
      <trkpt lat="45.79731" lon="4.96239">
        <ele>167.4</ele>
        <time>2014-10-12T11:15:25Z</time>
      </trkpt>
      <trkpt lat="45.79731" lon="4.96234">
        <ele>167.8</ele>
        <time>2014-10-12T11:15:26Z</time>
      </trkpt>
      <trkpt lat="45.79732" lon="4.96208">
        <ele>169.2</ele>
        <time>2014-10-12T11:15:31Z</time>
      </trkpt>
      <trkpt lat="45.79732" lon="4.96203">
        <ele>169.6</ele>
        <time>2014-10-12T11:15:32Z</time>
      </trkpt>
      <trkpt lat="45.79735" lon="4.96184">
        <ele>170.4</ele>
        <time>2014-10-12T11:15:35Z</time>
      </trkpt>
      <trkpt lat="45.79735" lon="4.96176">
        <ele>170.8</ele>
        <time>2014-10-12T11:15:36Z</time>
      </trkpt>
      <trkpt lat="45.79737" lon="4.96145">
        <ele>172</ele>
        <time>2014-10-12T11:15:40Z</time>
      </trkpt>
      <trkpt lat="45.79744" lon="4.96118">
        <ele>173.6</ele>
        <time>2014-10-12T11:15:44Z</time>
      </trkpt>
      <trkpt lat="45.79745" lon="4.96112">
        <ele>173.8</ele>
        <time>2014-10-12T11:15:45Z</time>
      </trkpt>
      <trkpt lat="45.79747" lon="4.96106">
        <ele>174</ele>
        <time>2014-10-12T11:15:46Z</time>
      </trkpt>
      <trkpt lat="45.79749" lon="4.96095">
        <ele>174.6</ele>
        <time>2014-10-12T11:15:48Z</time>
      </trkpt>
      <trkpt lat="45.79751" lon="4.9609">
        <ele>174.8</ele>
        <time>2014-10-12T11:15:49Z</time>
      </trkpt>
      <trkpt lat="45.79754" lon="4.96085">
        <ele>175.2</ele>
        <time>2014-10-12T11:15:50Z</time>
      </trkpt>
      <trkpt lat="45.79759" lon="4.96065">
        <ele>176.2</ele>
        <time>2014-10-12T11:15:54Z</time>
      </trkpt>
      <trkpt lat="45.79763" lon="4.96047">
        <ele>176.8</ele>
        <time>2014-10-12T11:15:58Z</time>
      </trkpt>
      <trkpt lat="45.79761" lon="4.96038">
        <ele>177</ele>
        <time>2014-10-12T11:16:00Z</time>
      </trkpt>
      <trkpt lat="45.79758" lon="4.96033">
        <ele>177.2</ele>
        <time>2014-10-12T11:16:02Z</time>
      </trkpt>
      <trkpt lat="45.79749" lon="4.96019">
        <ele>177.4</ele>
        <time>2014-10-12T11:16:07Z</time>
      </trkpt>
      <trkpt lat="45.79737" lon="4.95996">
        <ele>177.4</ele>
        <time>2014-10-12T11:16:12Z</time>
      </trkpt>
      <trkpt lat="45.79727" lon="4.9597">
        <ele>177.6</ele>
        <time>2014-10-12T11:16:17Z</time>
      </trkpt>
      <trkpt lat="45.79727" lon="4.95965">
        <ele>177.6</ele>
        <time>2014-10-12T11:16:18Z</time>
      </trkpt>
      <trkpt lat="45.79733" lon="4.95945">
        <ele>177.8</ele>
        <time>2014-10-12T11:16:23Z</time>
      </trkpt>
      <trkpt lat="45.79733" lon="4.95944">
        <ele>177.8</ele>
        <time>2014-10-12T11:16:28Z</time>
      </trkpt>
      <trkpt lat="45.79733" lon="4.95944">
        <ele>178</ele>
        <time>2014-10-12T11:16:31Z</time>
      </trkpt>
      <trkpt lat="45.79735" lon="4.9594">
        <ele>178.2</ele>
        <time>2014-10-12T11:16:53Z</time>
      </trkpt>
      <trkpt lat="45.79738" lon="4.95939">
        <ele>178.2</ele>
        <time>2014-10-12T11:16:54Z</time>
      </trkpt>
      <trkpt lat="45.79748" lon="4.95937">
        <ele>178</ele>
        <time>2014-10-12T11:16:57Z</time>
      </trkpt>
      <trkpt lat="45.79758" lon="4.95934">
        <ele>178</ele>
        <time>2014-10-12T11:17:00Z</time>
      </trkpt>
      <trkpt lat="45.79766" lon="4.95932">
        <ele>178</ele>
        <time>2014-10-12T11:17:02Z</time>
      </trkpt>
      <trkpt lat="45.79785" lon="4.95929">
        <ele>177.8</ele>
        <time>2014-10-12T11:17:07Z</time>
      </trkpt>
      <trkpt lat="45.79789" lon="4.95929">
        <ele>177.8</ele>
        <time>2014-10-12T11:17:08Z</time>
      </trkpt>
      <trkpt lat="45.79806" lon="4.95928">
        <ele>177.6</ele>
        <time>2014-10-12T11:17:13Z</time>
      </trkpt>
      <trkpt lat="45.79815" lon="4.95927">
        <ele>177.4</ele>
        <time>2014-10-12T11:17:16Z</time>
      </trkpt>
      <trkpt lat="45.79824" lon="4.95925">
        <ele>177.4</ele>
        <time>2014-10-12T11:17:19Z</time>
      </trkpt>
      <trkpt lat="45.79833" lon="4.9592">
        <ele>177.2</ele>
        <time>2014-10-12T11:17:22Z</time>
      </trkpt>
      <trkpt lat="45.79841" lon="4.95912">
        <ele>177</ele>
        <time>2014-10-12T11:17:25Z</time>
      </trkpt>
      <trkpt lat="45.79848" lon="4.95908">
        <ele>177</ele>
        <time>2014-10-12T11:17:28Z</time>
      </trkpt>
      <trkpt lat="45.7985" lon="4.95896">
        <ele>176.8</ele>
        <time>2014-10-12T11:17:32Z</time>
      </trkpt>
      <trkpt lat="45.79851" lon="4.95892">
        <ele>176.8</ele>
        <time>2014-10-12T11:17:33Z</time>
      </trkpt>
      <trkpt lat="45.79857" lon="4.95876">
        <ele>176.6</ele>
        <time>2014-10-12T11:17:36Z</time>
      </trkpt>
      <trkpt lat="45.79857" lon="4.95865">
        <ele>176.6</ele>
        <time>2014-10-12T11:17:38Z</time>
      </trkpt>
      <trkpt lat="45.79856" lon="4.95853">
        <ele>176.4</ele>
        <time>2014-10-12T11:17:40Z</time>
      </trkpt>
      <trkpt lat="45.79856" lon="4.9584">
        <ele>176.4</ele>
        <time>2014-10-12T11:17:42Z</time>
      </trkpt>
      <trkpt lat="45.79856" lon="4.95834">
        <ele>176.4</ele>
        <time>2014-10-12T11:17:43Z</time>
      </trkpt>
      <trkpt lat="45.79855" lon="4.95808">
        <ele>176.2</ele>
        <time>2014-10-12T11:17:47Z</time>
      </trkpt>
      <trkpt lat="45.79853" lon="4.9578">
        <ele>176</ele>
        <time>2014-10-12T11:17:51Z</time>
      </trkpt>
      <trkpt lat="45.79854" lon="4.95757">
        <ele>176</ele>
        <time>2014-10-12T11:17:54Z</time>
      </trkpt>
      <trkpt lat="45.79853" lon="4.95749">
        <ele>176</ele>
        <time>2014-10-12T11:17:55Z</time>
      </trkpt>
      <trkpt lat="45.79851" lon="4.95719">
        <ele>175.8</ele>
        <time>2014-10-12T11:17:59Z</time>
      </trkpt>
      <trkpt lat="45.79849" lon="4.95698">
        <ele>175.8</ele>
        <time>2014-10-12T11:18:02Z</time>
      </trkpt>
      <trkpt lat="45.79848" lon="4.95692">
        <ele>175.8</ele>
        <time>2014-10-12T11:18:03Z</time>
      </trkpt>
      <trkpt lat="45.79846" lon="4.95662">
        <ele>175.8</ele>
        <time>2014-10-12T11:18:08Z</time>
      </trkpt>
      <trkpt lat="45.79845" lon="4.95637">
        <ele>175.8</ele>
        <time>2014-10-12T11:18:12Z</time>
      </trkpt>
      <trkpt lat="45.79845" lon="4.95622">
        <ele>175.8</ele>
        <time>2014-10-12T11:18:14Z</time>
      </trkpt>
      <trkpt lat="45.79845" lon="4.9561">
        <ele>175.8</ele>
        <time>2014-10-12T11:18:16Z</time>
      </trkpt>
      <trkpt lat="45.79845" lon="4.95595">
        <ele>175.8</ele>
        <time>2014-10-12T11:18:19Z</time>
      </trkpt>
      <trkpt lat="45.79846" lon="4.95579">
        <ele>175.8</ele>
        <time>2014-10-12T11:18:22Z</time>
      </trkpt>
      <trkpt lat="45.79846" lon="4.95559">
        <ele>175.6</ele>
        <time>2014-10-12T11:18:25Z</time>
      </trkpt>
      <trkpt lat="45.79846" lon="4.95552">
        <ele>175.6</ele>
        <time>2014-10-12T11:18:26Z</time>
      </trkpt>
      <trkpt lat="45.79845" lon="4.9552">
        <ele>175.6</ele>
        <time>2014-10-12T11:18:30Z</time>
      </trkpt>
      <trkpt lat="45.79844" lon="4.95512">
        <ele>175.6</ele>
        <time>2014-10-12T11:18:31Z</time>
      </trkpt>
      <trkpt lat="45.79843" lon="4.95495">
        <ele>175.6</ele>
        <time>2014-10-12T11:18:33Z</time>
      </trkpt>
      <trkpt lat="45.7984" lon="4.95468">
        <ele>175.6</ele>
        <time>2014-10-12T11:18:36Z</time>
      </trkpt>
      <trkpt lat="45.79838" lon="4.95442">
        <ele>175.6</ele>
        <time>2014-10-12T11:18:39Z</time>
      </trkpt>
      <trkpt lat="45.79837" lon="4.95432">
        <ele>175.6</ele>
        <time>2014-10-12T11:18:40Z</time>
      </trkpt>
      <trkpt lat="45.79835" lon="4.95415">
        <ele>175.6</ele>
        <time>2014-10-12T11:18:42Z</time>
      </trkpt>
      <trkpt lat="45.79835" lon="4.95389">
        <ele>175.6</ele>
        <time>2014-10-12T11:18:45Z</time>
      </trkpt>
      <trkpt lat="45.79835" lon="4.95371">
        <ele>175.6</ele>
        <time>2014-10-12T11:18:47Z</time>
      </trkpt>
      <trkpt lat="45.79835" lon="4.95363">
        <ele>175.6</ele>
        <time>2014-10-12T11:18:48Z</time>
      </trkpt>
      <trkpt lat="45.79836" lon="4.95329">
        <ele>175.6</ele>
        <time>2014-10-12T11:18:52Z</time>
      </trkpt>
      <trkpt lat="45.79837" lon="4.95312">
        <ele>175.6</ele>
        <time>2014-10-12T11:18:54Z</time>
      </trkpt>
      <trkpt lat="45.79837" lon="4.95303">
        <ele>175.6</ele>
        <time>2014-10-12T11:18:55Z</time>
      </trkpt>
      <trkpt lat="45.79839" lon="4.95276">
        <ele>175.6</ele>
        <time>2014-10-12T11:18:58Z</time>
      </trkpt>
      <trkpt lat="45.79839" lon="4.9525">
        <ele>175.6</ele>
        <time>2014-10-12T11:19:01Z</time>
      </trkpt>
      <trkpt lat="45.79839" lon="4.95241">
        <ele>175.6</ele>
        <time>2014-10-12T11:19:02Z</time>
      </trkpt>
      <trkpt lat="45.79839" lon="4.95224">
        <ele>175.8</ele>
        <time>2014-10-12T11:19:04Z</time>
      </trkpt>
      <trkpt lat="45.79835" lon="4.9519">
        <ele>175.8</ele>
        <time>2014-10-12T11:19:08Z</time>
      </trkpt>
      <trkpt lat="45.79832" lon="4.95175">
        <ele>175.8</ele>
        <time>2014-10-12T11:19:10Z</time>
      </trkpt>
      <trkpt lat="45.7983" lon="4.95162">
        <ele>175.8</ele>
        <time>2014-10-12T11:19:12Z</time>
      </trkpt>
      <trkpt lat="45.79827" lon="4.95151">
        <ele>175.8</ele>
        <time>2014-10-12T11:19:14Z</time>
      </trkpt>
      <trkpt lat="45.79825" lon="4.95145">
        <ele>175.8</ele>
        <time>2014-10-12T11:19:15Z</time>
      </trkpt>
      <trkpt lat="45.79822" lon="4.95135">
        <ele>175.8</ele>
        <time>2014-10-12T11:19:17Z</time>
      </trkpt>
      <trkpt lat="45.79817" lon="4.95117">
        <ele>175.8</ele>
        <time>2014-10-12T11:19:21Z</time>
      </trkpt>
      <trkpt lat="45.79819" lon="4.95112">
        <ele>175.8</ele>
        <time>2014-10-12T11:19:22Z</time>
      </trkpt>
      <trkpt lat="45.79825" lon="4.95104">
        <ele>175.8</ele>
        <time>2014-10-12T11:19:24Z</time>
      </trkpt>
      <trkpt lat="45.79831" lon="4.95094">
        <ele>175.8</ele>
        <time>2014-10-12T11:19:26Z</time>
      </trkpt>
      <trkpt lat="45.79832" lon="4.95087">
        <ele>175.8</ele>
        <time>2014-10-12T11:19:27Z</time>
      </trkpt>
      <trkpt lat="45.79834" lon="4.95065">
        <ele>175.8</ele>
        <time>2014-10-12T11:19:30Z</time>
      </trkpt>
      <trkpt lat="45.79834" lon="4.95049">
        <ele>175.8</ele>
        <time>2014-10-12T11:19:32Z</time>
      </trkpt>
      <trkpt lat="45.79835" lon="4.95033">
        <ele>175.6</ele>
        <time>2014-10-12T11:19:34Z</time>
      </trkpt>
      <trkpt lat="45.7984" lon="4.95001">
        <ele>175.6</ele>
        <time>2014-10-12T11:19:38Z</time>
      </trkpt>
      <trkpt lat="45.79847" lon="4.94974">
        <ele>175.6</ele>
        <time>2014-10-12T11:19:42Z</time>
      </trkpt>
      <trkpt lat="45.79851" lon="4.94964">
        <ele>175.6</ele>
        <time>2014-10-12T11:19:44Z</time>
      </trkpt>
      <trkpt lat="45.79853" lon="4.9496">
        <ele>175.6</ele>
        <time>2014-10-12T11:19:45Z</time>
      </trkpt>
      <trkpt lat="45.79856" lon="4.94951">
        <ele>175.6</ele>
        <time>2014-10-12T11:19:47Z</time>
      </trkpt>
      <trkpt lat="45.79858" lon="4.94947">
        <ele>175.6</ele>
        <time>2014-10-12T11:19:48Z</time>
      </trkpt>
      <trkpt lat="45.79863" lon="4.94939">
        <ele>175.6</ele>
        <time>2014-10-12T11:19:52Z</time>
      </trkpt>
      <trkpt lat="45.79863" lon="4.94938">
        <ele>175.4</ele>
        <time>2014-10-12T11:19:53Z</time>
      </trkpt>
      <trkpt lat="45.79863" lon="4.94939">
        <ele>175.4</ele>
        <time>2014-10-12T11:19:56Z</time>
      </trkpt>
      <trkpt lat="45.79868" lon="4.94944">
        <ele>175.4</ele>
        <time>2014-10-12T11:20:00Z</time>
      </trkpt>
      <trkpt lat="45.79871" lon="4.94945">
        <ele>175.4</ele>
        <time>2014-10-12T11:20:01Z</time>
      </trkpt>
      <trkpt lat="45.7988" lon="4.94941">
        <ele>175.2</ele>
        <time>2014-10-12T11:20:04Z</time>
      </trkpt>
      <trkpt lat="45.79888" lon="4.94933">
        <ele>175.2</ele>
        <time>2014-10-12T11:20:07Z</time>
      </trkpt>
      <trkpt lat="45.79895" lon="4.9493">
        <ele>175.2</ele>
        <time>2014-10-12T11:20:09Z</time>
      </trkpt>
      <trkpt lat="45.79898" lon="4.94929">
        <ele>175</ele>
        <time>2014-10-12T11:20:10Z</time>
      </trkpt>
      <trkpt lat="45.79906" lon="4.94924">
        <ele>175</ele>
        <time>2014-10-12T11:20:12Z</time>
      </trkpt>
      <trkpt lat="45.79922" lon="4.94911">
        <ele>175</ele>
        <time>2014-10-12T11:20:16Z</time>
      </trkpt>
      <trkpt lat="45.79925" lon="4.94906">
        <ele>175</ele>
        <time>2014-10-12T11:20:17Z</time>
      </trkpt>
      <trkpt lat="45.79931" lon="4.94893">
        <ele>175</ele>
        <time>2014-10-12T11:20:19Z</time>
      </trkpt>
      <trkpt lat="45.79934" lon="4.94887">
        <ele>175.2</ele>
        <time>2014-10-12T11:20:20Z</time>
      </trkpt>
      <trkpt lat="45.7994" lon="4.94869">
        <ele>175.2</ele>
        <time>2014-10-12T11:20:23Z</time>
      </trkpt>
      <trkpt lat="45.79942" lon="4.9486">
        <ele>175.2</ele>
        <time>2014-10-12T11:20:25Z</time>
      </trkpt>
      <trkpt lat="45.79947" lon="4.94845">
        <ele>175.6</ele>
        <time>2014-10-12T11:20:31Z</time>
      </trkpt>
      <trkpt lat="45.79947" lon="4.94843">
        <ele>175.6</ele>
        <time>2014-10-12T11:20:32Z</time>
      </trkpt>
      <trkpt lat="45.79948" lon="4.94833">
        <ele>175.8</ele>
        <time>2014-10-12T11:20:36Z</time>
      </trkpt>
      <trkpt lat="45.79948" lon="4.94831">
        <ele>175.8</ele>
        <time>2014-10-12T11:20:37Z</time>
      </trkpt>
      <trkpt lat="45.79951" lon="4.94813">
        <ele>176.2</ele>
        <time>2014-10-12T11:20:43Z</time>
      </trkpt>
      <trkpt lat="45.79952" lon="4.94808">
        <ele>176.2</ele>
        <time>2014-10-12T11:20:45Z</time>
      </trkpt>
      <trkpt lat="45.79952" lon="4.94801">
        <ele>176.2</ele>
        <time>2014-10-12T11:20:48Z</time>
      </trkpt>
      <trkpt lat="45.79953" lon="4.94779">
        <ele>176.4</ele>
        <time>2014-10-12T11:20:54Z</time>
      </trkpt>
      <trkpt lat="45.79953" lon="4.94775">
        <ele>176.4</ele>
        <time>2014-10-12T11:20:55Z</time>
      </trkpt>
      <trkpt lat="45.79955" lon="4.94759">
        <ele>176.6</ele>
        <time>2014-10-12T11:20:58Z</time>
      </trkpt>
      <trkpt lat="45.79955" lon="4.94754">
        <ele>176.6</ele>
        <time>2014-10-12T11:20:59Z</time>
      </trkpt>
      <trkpt lat="45.79958" lon="4.94735">
        <ele>176.6</ele>
        <time>2014-10-12T11:21:03Z</time>
      </trkpt>
      <trkpt lat="45.79961" lon="4.94725">
        <ele>176.8</ele>
        <time>2014-10-12T11:21:05Z</time>
      </trkpt>
      <trkpt lat="45.79963" lon="4.94713">
        <ele>177</ele>
        <time>2014-10-12T11:21:07Z</time>
      </trkpt>
      <trkpt lat="45.79966" lon="4.947">
        <ele>177</ele>
        <time>2014-10-12T11:21:09Z</time>
      </trkpt>
      <trkpt lat="45.79974" lon="4.94676">
        <ele>177.2</ele>
        <time>2014-10-12T11:21:13Z</time>
      </trkpt>
      <trkpt lat="45.79978" lon="4.94657">
        <ele>177.4</ele>
        <time>2014-10-12T11:21:16Z</time>
      </trkpt>
      <trkpt lat="45.7998" lon="4.9465">
        <ele>177.4</ele>
        <time>2014-10-12T11:21:17Z</time>
      </trkpt>
      <trkpt lat="45.79981" lon="4.94643">
        <ele>177.4</ele>
        <time>2014-10-12T11:21:18Z</time>
      </trkpt>
      <trkpt lat="45.79981" lon="4.94636">
        <ele>177.4</ele>
        <time>2014-10-12T11:21:19Z</time>
      </trkpt>
      <trkpt lat="45.79981" lon="4.94622">
        <ele>177.4</ele>
        <time>2014-10-12T11:21:21Z</time>
      </trkpt>
      <trkpt lat="45.79981" lon="4.94614">
        <ele>177.4</ele>
        <time>2014-10-12T11:21:22Z</time>
      </trkpt>
      <trkpt lat="45.79981" lon="4.94591">
        <ele>177.4</ele>
        <time>2014-10-12T11:21:25Z</time>
      </trkpt>
      <trkpt lat="45.79981" lon="4.94562">
        <ele>177.4</ele>
        <time>2014-10-12T11:21:29Z</time>
      </trkpt>
      <trkpt lat="45.79982" lon="4.94555">
        <ele>177.4</ele>
        <time>2014-10-12T11:21:30Z</time>
      </trkpt>
      <trkpt lat="45.79983" lon="4.94548">
        <ele>177.4</ele>
        <time>2014-10-12T11:21:31Z</time>
      </trkpt>
      <trkpt lat="45.79988" lon="4.94534">
        <ele>177.4</ele>
        <time>2014-10-12T11:21:33Z</time>
      </trkpt>
      <trkpt lat="45.79991" lon="4.94529">
        <ele>177.6</ele>
        <time>2014-10-12T11:21:34Z</time>
      </trkpt>
      <trkpt lat="45.8" lon="4.94515">
        <ele>177.6</ele>
        <time>2014-10-12T11:21:38Z</time>
      </trkpt>
      <trkpt lat="45.80001" lon="4.94512">
        <ele>177.6</ele>
        <time>2014-10-12T11:21:39Z</time>
      </trkpt>
      <trkpt lat="45.80007" lon="4.94511">
        <ele>177.8</ele>
        <time>2014-10-12T11:21:42Z</time>
      </trkpt>
      <trkpt lat="45.80012" lon="4.94513">
        <ele>178</ele>
        <time>2014-10-12T11:21:44Z</time>
      </trkpt>
      <trkpt lat="45.80018" lon="4.94516">
        <ele>178.2</ele>
        <time>2014-10-12T11:21:46Z</time>
      </trkpt>
      <trkpt lat="45.80022" lon="4.94517">
        <ele>178.4</ele>
        <time>2014-10-12T11:21:47Z</time>
      </trkpt>
      <trkpt lat="45.80037" lon="4.9452">
        <ele>179.4</ele>
        <time>2014-10-12T11:21:52Z</time>
      </trkpt>
      <trkpt lat="45.80049" lon="4.94522">
        <ele>180.2</ele>
        <time>2014-10-12T11:21:57Z</time>
      </trkpt>
      <trkpt lat="45.80055" lon="4.94521">
        <ele>180.6</ele>
        <time>2014-10-12T11:21:59Z</time>
      </trkpt>
      <trkpt lat="45.80064" lon="4.94519">
        <ele>181.2</ele>
        <time>2014-10-12T11:22:02Z</time>
      </trkpt>
      <trkpt lat="45.80075" lon="4.94519">
        <ele>181.8</ele>
        <time>2014-10-12T11:22:06Z</time>
      </trkpt>
      <trkpt lat="45.8008" lon="4.94518">
        <ele>182.2</ele>
        <time>2014-10-12T11:22:08Z</time>
      </trkpt>
      <trkpt lat="45.80094" lon="4.94513">
        <ele>182.8</ele>
        <time>2014-10-12T11:22:13Z</time>
      </trkpt>
      <trkpt lat="45.80106" lon="4.945">
        <ele>183.6</ele>
        <time>2014-10-12T11:22:18Z</time>
      </trkpt>
      <trkpt lat="45.80107" lon="4.94496">
        <ele>183.8</ele>
        <time>2014-10-12T11:22:19Z</time>
      </trkpt>
      <trkpt lat="45.80112" lon="4.94485">
        <ele>184.2</ele>
        <time>2014-10-12T11:22:22Z</time>
      </trkpt>
      <trkpt lat="45.80115" lon="4.94479">
        <ele>184.6</ele>
        <time>2014-10-12T11:22:24Z</time>
      </trkpt>
      <trkpt lat="45.80117" lon="4.9447">
        <ele>184.8</ele>
        <time>2014-10-12T11:22:26Z</time>
      </trkpt>
      <trkpt lat="45.80119" lon="4.9446">
        <ele>185</ele>
        <time>2014-10-12T11:22:28Z</time>
      </trkpt>
      <trkpt lat="45.80119" lon="4.94455">
        <ele>185.2</ele>
        <time>2014-10-12T11:22:29Z</time>
      </trkpt>
      <trkpt lat="45.80118" lon="4.94444">
        <ele>185.2</ele>
        <time>2014-10-12T11:22:31Z</time>
      </trkpt>
      <trkpt lat="45.80118" lon="4.94434">
        <ele>185.4</ele>
        <time>2014-10-12T11:22:33Z</time>
      </trkpt>
      <trkpt lat="45.80115" lon="4.94423">
        <ele>185.4</ele>
        <time>2014-10-12T11:22:36Z</time>
      </trkpt>
      <trkpt lat="45.80116" lon="4.94419">
        <ele>185.6</ele>
        <time>2014-10-12T11:22:37Z</time>
      </trkpt>
      <trkpt lat="45.80116" lon="4.94414">
        <ele>185.4</ele>
        <time>2014-10-12T11:22:38Z</time>
      </trkpt>
      <trkpt lat="45.80114" lon="4.94402">
        <ele>185.4</ele>
        <time>2014-10-12T11:22:40Z</time>
      </trkpt>
      <trkpt lat="45.80108" lon="4.94389">
        <ele>185.4</ele>
        <time>2014-10-12T11:22:43Z</time>
      </trkpt>
      <trkpt lat="45.80106" lon="4.94384">
        <ele>185.2</ele>
        <time>2014-10-12T11:22:44Z</time>
      </trkpt>
      <trkpt lat="45.80099" lon="4.94365">
        <ele>185</ele>
        <time>2014-10-12T11:22:48Z</time>
      </trkpt>
      <trkpt lat="45.80105" lon="4.94356">
        <ele>184.8</ele>
        <time>2014-10-12T11:22:51Z</time>
      </trkpt>
      <trkpt lat="45.80107" lon="4.94348">
        <ele>184.4</ele>
        <time>2014-10-12T11:22:53Z</time>
      </trkpt>
      <trkpt lat="45.80105" lon="4.94339">
        <ele>184.4</ele>
        <time>2014-10-12T11:22:55Z</time>
      </trkpt>
      <trkpt lat="45.80098" lon="4.94332">
        <ele>184.2</ele>
        <time>2014-10-12T11:22:57Z</time>
      </trkpt>
      <trkpt lat="45.80086" lon="4.94323">
        <ele>183.8</ele>
        <time>2014-10-12T11:23:00Z</time>
      </trkpt>
      <trkpt lat="45.80072" lon="4.94314">
        <ele>183.4</ele>
        <time>2014-10-12T11:23:03Z</time>
      </trkpt>
      <trkpt lat="45.80067" lon="4.94312">
        <ele>183.4</ele>
        <time>2014-10-12T11:23:04Z</time>
      </trkpt>
      <trkpt lat="45.80062" lon="4.9431">
        <ele>183.2</ele>
        <time>2014-10-12T11:23:05Z</time>
      </trkpt>
      <trkpt lat="45.80047" lon="4.943">
        <ele>182.8</ele>
        <time>2014-10-12T11:23:08Z</time>
      </trkpt>
      <trkpt lat="45.80042" lon="4.94296">
        <ele>182.8</ele>
        <time>2014-10-12T11:23:09Z</time>
      </trkpt>
      <trkpt lat="45.80028" lon="4.94285">
        <ele>182.4</ele>
        <time>2014-10-12T11:23:12Z</time>
      </trkpt>
      <trkpt lat="45.80013" lon="4.94274">
        <ele>182.2</ele>
        <time>2014-10-12T11:23:15Z</time>
      </trkpt>
      <trkpt lat="45.80008" lon="4.9427">
        <ele>182</ele>
        <time>2014-10-12T11:23:16Z</time>
      </trkpt>
      <trkpt lat="45.7999" lon="4.94251">
        <ele>181.6</ele>
        <time>2014-10-12T11:23:20Z</time>
      </trkpt>
      <trkpt lat="45.79983" lon="4.94237">
        <ele>181.4</ele>
        <time>2014-10-12T11:23:22Z</time>
      </trkpt>
      <trkpt lat="45.79978" lon="4.94224">
        <ele>181.4</ele>
        <time>2014-10-12T11:23:24Z</time>
      </trkpt>
      <trkpt lat="45.79971" lon="4.94196">
        <ele>181.2</ele>
        <time>2014-10-12T11:23:28Z</time>
      </trkpt>
      <trkpt lat="45.7997" lon="4.9419">
        <ele>181.2</ele>
        <time>2014-10-12T11:23:29Z</time>
      </trkpt>
      <trkpt lat="45.79974" lon="4.94171">
        <ele>181</ele>
        <time>2014-10-12T11:23:32Z</time>
      </trkpt>
      <trkpt lat="45.79976" lon="4.94166">
        <ele>181</ele>
        <time>2014-10-12T11:23:33Z</time>
      </trkpt>
      <trkpt lat="45.79981" lon="4.94156">
        <ele>181</ele>
        <time>2014-10-12T11:23:35Z</time>
      </trkpt>
      <trkpt lat="45.79984" lon="4.94146">
        <ele>180.8</ele>
        <time>2014-10-12T11:23:37Z</time>
      </trkpt>
      <trkpt lat="45.79986" lon="4.94135">
        <ele>180.8</ele>
        <time>2014-10-12T11:23:39Z</time>
      </trkpt>
      <trkpt lat="45.79992" lon="4.94121">
        <ele>180.8</ele>
        <time>2014-10-12T11:23:42Z</time>
      </trkpt>
      <trkpt lat="45.79996" lon="4.94118">
        <ele>180.8</ele>
        <time>2014-10-12T11:23:43Z</time>
      </trkpt>
      <trkpt lat="45.8001" lon="4.94113">
        <ele>180.6</ele>
        <time>2014-10-12T11:23:46Z</time>
      </trkpt>
      <trkpt lat="45.80015" lon="4.94114">
        <ele>180.6</ele>
        <time>2014-10-12T11:23:47Z</time>
      </trkpt>
      <trkpt lat="45.80019" lon="4.94115">
        <ele>180.6</ele>
        <time>2014-10-12T11:23:48Z</time>
      </trkpt>
      <trkpt lat="45.80028" lon="4.94113">
        <ele>180.6</ele>
        <time>2014-10-12T11:23:50Z</time>
      </trkpt>
      <trkpt lat="45.80033" lon="4.94113">
        <ele>180.6</ele>
        <time>2014-10-12T11:23:51Z</time>
      </trkpt>
      <trkpt lat="45.80037" lon="4.94112">
        <ele>180.6</ele>
        <time>2014-10-12T11:23:52Z</time>
      </trkpt>
      <trkpt lat="45.80043" lon="4.9411">
        <ele>180.6</ele>
        <time>2014-10-12T11:23:55Z</time>
      </trkpt>
      <trkpt lat="45.80043" lon="4.94108">
        <ele>180.6</ele>
        <time>2014-10-12T11:23:57Z</time>
      </trkpt>
      <trkpt lat="45.80043" lon="4.94108">
        <ele>180.6</ele>
        <time>2014-10-12T11:23:59Z</time>
      </trkpt>
      <trkpt lat="45.80039" lon="4.94108">
        <ele>180.4</ele>
        <time>2014-10-12T11:24:14Z</time>
      </trkpt>
      <trkpt lat="45.80036" lon="4.94107">
        <ele>180.4</ele>
        <time>2014-10-12T11:24:15Z</time>
      </trkpt>
      <trkpt lat="45.80034" lon="4.94105">
        <ele>180.4</ele>
        <time>2014-10-12T11:24:16Z</time>
      </trkpt>
      <trkpt lat="45.80033" lon="4.94098">
        <ele>180.4</ele>
        <time>2014-10-12T11:24:18Z</time>
      </trkpt>
      <trkpt lat="45.80038" lon="4.94097">
        <ele>180.4</ele>
        <time>2014-10-12T11:24:21Z</time>
      </trkpt>
      <trkpt lat="45.80042" lon="4.94097">
        <ele>180.2</ele>
        <time>2014-10-12T11:24:25Z</time>
      </trkpt>
      <trkpt lat="45.80044" lon="4.94094">
        <ele>180.2</ele>
        <time>2014-10-12T11:24:27Z</time>
      </trkpt>
      <trkpt lat="45.80046" lon="4.94082">
        <ele>180.2</ele>
        <time>2014-10-12T11:24:31Z</time>
      </trkpt>
      <trkpt lat="45.80048" lon="4.94075">
        <ele>180.2</ele>
        <time>2014-10-12T11:24:33Z</time>
      </trkpt>
      <trkpt lat="45.80049" lon="4.94071">
        <ele>180.2</ele>
        <time>2014-10-12T11:24:34Z</time>
      </trkpt>
      <trkpt lat="45.80051" lon="4.94063">
        <ele>180</ele>
        <time>2014-10-12T11:24:37Z</time>
      </trkpt>
      <trkpt lat="45.80051" lon="4.94061">
        <ele>179.8</ele>
        <time>2014-10-12T11:24:48Z</time>
      </trkpt>
      <trkpt lat="45.80053" lon="4.94054">
        <ele>179.6</ele>
        <time>2014-10-12T11:25:00Z</time>
      </trkpt>
    </trkseg>
  </trk>
</gpx>